DFELE / D-FELE 7700 Squawk Report (15th of January, 2019)

Time Lat Lon Altitude Heading Speed Vertical Rate
2019-01-15 20:22:36 GMT 48.691486 9.209606 0 78 0 0
2019-01-15 20:22:36 GMT 48.691486 9.209606 0 2 11 0
2019-01-15 20:22:26 GMT 48.691051 9.209976 0 309 15 0
2019-01-15 20:22:14 GMT 48.690510 9.210862 0 295 16 0
2019-01-15 20:21:53 GMT 48.690044 9.213709 0 281 21 0
2019-01-15 20:21:34 GMT 48.689610 9.216314 0 284 23 0
2019-01-15 20:21:25 GMT 48.689438 9.217811 0 272 28 0
2019-01-15 20:21:10 GMT 48.689686 9.220908 0 253 40 0
2019-01-15 20:21:04 GMT 48.690022 9.222688 0 250 50 0
2019-01-15 20:20:54 GMT 48.690754 9.226564 1,025 255 61 64
2019-01-15 20:20:43 GMT 48.691593 9.231045 1,000 255 69 -128
2019-01-15 20:20:34 GMT 48.692524 9.235816 1,000 254 78 -64
2019-01-15 20:20:23 GMT 48.693596 9.241598 1,050 254 88 -448
2019-01-15 20:20:13 GMT 48.694794 9.247812 1,125 254 91 -512
2019-01-15 20:20:03 GMT 48.695969 9.254030 1,200 254 90 -512
2019-01-15 20:19:52 GMT 48.697174 9.260418 1,300 254 90 -448
2019-01-15 20:19:41 GMT 48.698502 9.267179 1,400 254 91 -448
2019-01-15 20:19:31 GMT 48.699692 9.273729 1,475 255 94 -576
2019-01-15 20:19:20 GMT 48.700951 9.280339 1,600 254 97 -704
2019-01-15 20:19:10 GMT 48.702301 9.287462 1,725 255 99 -192
2019-01-15 20:19:00 GMT 48.703648 9.294289 1,750 254 105 -448
2019-01-15 20:18:49 GMT 48.705048 9.301758 1,825 256 109 -640
2019-01-15 20:18:40 GMT 48.706535 9.309973 1,975 254 125 -1088
2019-01-15 20:18:24 GMT 48.709190 9.323779 2,175 254 150 -768
2019-01-15 20:18:18 GMT 48.710400 9.330211 2,250 255 166 -896
2019-01-15 20:18:06 GMT 48.712868 9.343149 2,450 254 180 -1088
2019-01-15 20:17:59 GMT 48.714916 9.353991 2,625 255 189 -960
2019-01-15 20:17:51 GMT 48.716400 9.362042 2,725 255 191 -1152
2019-01-15 20:17:46 GMT 48.717636 9.368732 2,825 255 191 -1216
2019-01-15 20:17:36 GMT 48.720291 9.383240 3,075 255 190 -1216
2019-01-15 20:17:25 GMT 48.722534 9.395282 3,275 255 189 -640
2019-01-15 20:17:22 GMT 48.723267 9.399085 3,300 255 189 -256
2019-01-15 20:17:18 GMT 48.724598 9.406321 3,300 255 187 0
2019-01-15 20:17:13 GMT 48.725388 9.410585 3,300 252 192 64
2019-01-15 20:17:04 GMT 48.727531 9.422222 3,325 255 190 0
2019-01-15 20:16:56 GMT 48.729858 9.434016 3,300 249 195 64
2019-01-15 20:16:51 GMT 48.731209 9.439786 3,300 249 195 64
2019-01-15 20:16:45 GMT 48.733303 9.446797 3,300 235 204 128
2019-01-15 20:16:42 GMT 48.734467 9.449905 3,300 223 219 -1216
2019-01-15 20:16:31 GMT 48.741257 9.463595 3,325 227 212 -256
2019-01-15 20:16:22 GMT 48.747360 9.472166 3,450 223 219 -1216
2019-01-15 20:16:15 GMT 48.752747 9.479441 3,475 223 219 -1280
2019-01-15 20:16:12 GMT 48.754997 9.482574 3,525 223 218 -1216
2019-01-15 20:16:02 GMT 48.762589 9.492962 3,750 222 209 -1088
2019-01-15 20:15:51 GMT 48.770737 9.503949 3,825 222 201 0
2019-01-15 20:15:41 GMT 48.777100 9.512470 3,825 222 198 -64
2019-01-15 20:15:31 GMT 48.785069 9.523050 3,800 222 196 -128
2019-01-15 20:15:20 GMT 48.791245 9.531273 3,850 223 206 -896
2019-01-15 20:15:16 GMT 48.794567 9.535844 3,900 223 206 -896
2019-01-15 20:15:07 GMT 48.800766 9.544373 4,100 184 233 -1472
2019-01-15 20:15:01 GMT 48.805878 9.549938 4,250 208 218 -1408
2019-01-15 20:14:54 GMT 48.813400 9.554162 4,450 192 229 -1664
2019-01-15 20:14:49 GMT 48.827618 9.555720 4,575 184 233 -1472
2019-01-15 20:14:40 GMT 48.834927 9.556154 5,075 183 239 -1536
2019-01-15 20:14:33 GMT 48.834927 9.556154 5,000 183 238 -1472
2019-01-15 20:14:28 GMT 48.840141 9.556443 5,075 183 239 -1536
2019-01-15 20:14:23 GMT 48.845959 9.556877 5,300 183 239 -1536
2019-01-15 20:14:19 GMT 48.850616 9.557094 5,325 183 240 -1536
2019-01-15 20:14:11 GMT 48.859772 9.557612 5,525 183 245 -1472
2019-01-15 20:14:07 GMT 48.864212 9.557824 5,625 183 248 -1600
2019-01-15 20:14:02 GMT 48.869385 9.558105 5,750 183 257 -1536
2019-01-15 20:13:58 GMT 48.874283 9.558387 5,875 183 267 -1536
2019-01-15 20:13:51 GMT 48.888321 9.559190 6,125 183 287 -1472
2019-01-15 20:13:44 GMT 48.892559 9.559479 6,225 183 286 -1408
2019-01-15 20:13:41 GMT 48.898144 9.559768 6,325 183 289 -1536
2019-01-15 20:13:35 GMT 48.908844 9.560429 6,550 183 290 -1472
2019-01-15 20:13:32 GMT 48.912064 9.560635 6,600 183 292 -1536
2019-01-15 20:13:25 GMT 48.918118 9.560997 6,700 183 291 -1408
2019-01-15 20:13:19 GMT 48.925938 9.561503 6,925 183 293 -1472
2019-01-15 20:13:13 GMT 48.936272 9.562081 7,025 183 294 -1472
2019-01-15 20:13:10 GMT 48.937729 9.562190 7,050 183 294 -1472
2019-01-15 20:13:07 GMT 48.941811 9.562370 7,125 183 294 -1472
2019-01-15 20:13:02 GMT 48.950272 9.562894 7,300 183 294 -1472
2019-01-15 20:12:59 GMT 48.953403 9.563093 7,400 183 294 -1472
2019-01-15 20:12:51 GMT 48.964809 9.563743 7,525 183 294 -1408
2019-01-15 20:12:48 GMT 48.968346 9.563960 7,625 183 294 -1536
2019-01-15 20:12:41 GMT 48.978310 9.564538 7,775 183 295 -1472
2019-01-15 20:12:38 GMT 48.981583 9.564725 7,850 183 295 -1472
2019-01-15 20:12:33 GMT 48.989059 9.565116 8,000 183 295 -1472
2019-01-15 20:12:30 GMT 48.994274 9.565478 8,075 183 296 -1472
2019-01-15 20:12:25 GMT 48.999863 9.565767 8,175 183 296 -1472
2019-01-15 20:12:22 GMT 49.003464 9.565993 8,250 183 297 -1472
2019-01-15 20:12:19 GMT 49.007858 9.566275 8,325 183 297 -1472
2019-01-15 20:12:16 GMT 49.013222 9.566562 8,425 183 298 -1472
2019-01-15 20:12:10 GMT 49.019989 9.566979 8,800 183 301 -1472
2019-01-15 20:12:07 GMT 49.024979 9.567261 8,600 183 300 -1536
2019-01-15 20:11:59 GMT 49.035782 9.567965 8,825 183 301 -1472
2019-01-15 20:11:56 GMT 49.039570 9.568152 8,900 183 301 -1408
2019-01-15 20:11:49 GMT 49.050018 9.568740 9,050 183 302 -1472
2019-01-15 20:11:46 GMT 49.053535 9.568947 9,150 183 303 -1472
2019-01-15 20:11:43 GMT 49.064896 9.569655 9,250 183 304 -1472
2019-01-15 20:11:38 GMT 49.064896 9.569655 9,325 183 304 -1472
2019-01-15 20:11:35 GMT 49.069382 9.569937 9,475 183 307 -1472
2019-01-15 20:11:27 GMT 49.079697 9.570537 9,600 183 306 -1472
2019-01-15 20:11:24 GMT 49.084213 9.570826 9,650 183 307 -1472
2019-01-15 20:11:20 GMT 49.091446 9.571275 9,825 183 307 -1472
2019-01-15 20:11:17 GMT 49.094734 9.571405 9,850 183 308 -1472
2019-01-15 20:11:14 GMT 49.099018 9.571694 9,950 183 308 -1472
2019-01-15 20:11:08 GMT 49.107582 9.572200 10,175 183 311 -1472
2019-01-15 20:11:05 GMT 49.112549 9.572472 10,175 183 310 -1472
2019-01-15 20:11:02 GMT 49.115433 9.572613 10,450 183 310 -1472
2019-01-15 20:10:59 GMT 49.120712 9.572995 10,325 183 310 -1472
2019-01-15 20:10:56 GMT 49.125183 9.573247 10,375 183 310 -1536
2019-01-15 20:10:53 GMT 49.135803 9.573881 10,550 183 311 -1472
2019-01-15 20:10:48 GMT 49.135803 9.573881 10,575 183 311 -1472
2019-01-15 20:10:44 GMT 49.142120 9.574233 10,650 183 311 -1472
2019-01-15 20:10:41 GMT 49.146423 9.574515 10,950 183 313 -1472
2019-01-15 20:10:36 GMT 49.153622 9.574946 10,875 183 312 -1472
2019-01-15 20:10:32 GMT 49.158699 9.575235 10,950 183 312 -1472
2019-01-15 20:10:29 GMT 49.168194 9.575814 11,100 183 312 -1472
2019-01-15 20:10:26 GMT 49.168194 9.575814 11,125 183 312 -1472
2019-01-15 20:10:21 GMT 49.176292 9.576320 11,250 183 313 -1472
2019-01-15 20:10:18 GMT 49.180904 9.576609 11,400 183 313 -1472
2019-01-15 20:10:14 GMT 49.184830 9.576839 11,550 183 313 -1472
2019-01-15 20:10:11 GMT 49.189728 9.577120 11,500 183 313 -1472
2019-01-15 20:10:08 GMT 49.193333 9.577332 12,550 183 313 -1472
2019-01-15 20:10:05 GMT 49.198151 9.577613 11,625 183 313 -1472
2019-01-15 20:10:01 GMT 49.208973 9.578271 11,775 183 313 -1536
2019-01-15 20:09:57 GMT 49.208973 9.578271 11,850 183 313 -1472
2019-01-15 20:09:54 GMT 49.213631 9.578560 11,900 183 313 -1536
2019-01-15 20:09:51 GMT 49.218563 9.578849 12,000 183 314 -1536
2019-01-15 20:09:47 GMT 49.224941 9.579211 12,175 183 314 -1472
2019-01-15 20:09:43 GMT 49.231178 9.579572 12,450 183 315 -1472
2019-01-15 20:09:40 GMT 49.234085 9.579796 12,250 183 315 -1536
2019-01-15 20:09:36 GMT 49.242073 9.580295 12,400 183 315 -1536
2019-01-15 20:09:33 GMT 49.246170 9.580512 12,450 183 315 -1472
2019-01-15 20:09:30 GMT 49.250217 9.580729 12,500 183 315 -1472
2019-01-15 20:09:27 GMT 49.253860 9.580994 12,625 183 315 -1472
2019-01-15 20:09:24 GMT 49.257660 9.581205 12,625 183 315 -1472
2019-01-15 20:09:21 GMT 49.262463 9.581524 12,700 183 315 -1472
2019-01-15 20:09:18 GMT 49.266998 9.581768 12,825 183 315 -1472
2019-01-15 20:09:14 GMT 49.278198 9.582463 12,975 183 315 -1472
2019-01-15 20:09:10 GMT 49.278198 9.582463 13,000 183 315 -1472
2019-01-15 20:09:07 GMT 49.282150 9.582684 13,325 183 316 -1472
2019-01-15 20:09:02 GMT 49.290894 9.583247 13,200 183 315 -1472
2019-01-15 20:08:59 GMT 49.294373 9.583459 13,325 183 316 -1472
2019-01-15 20:08:56 GMT 49.298912 9.583692 13,475 183 316 -1472
2019-01-15 20:08:52 GMT 49.304173 9.584053 13,525 183 316 -1472
2019-01-15 20:08:49 GMT 49.309296 9.584304 14,050 183 317 -1472
2019-01-15 20:08:44 GMT 49.317078 9.584797 13,700 183 318 -1536
2019-01-15 20:08:40 GMT 49.322189 9.585065 13,850 183 318 -1472
2019-01-15 20:08:37 GMT 49.330009 9.585571 15,750 183 331 -1472
2019-01-15 20:08:34 GMT 49.330009 9.585571 13,925 183 319 -1472
2019-01-15 20:08:31 GMT 49.335480 9.585853 13,950 183 319 -1472
2019-01-15 20:08:27 GMT 49.340790 9.586205 14,075 183 320 -1472
2019-01-15 20:08:24 GMT 49.347290 9.586557 14,200 183 321 -1472
2019-01-15 20:08:21 GMT 49.351318 9.586839 14,250 183 321 -1472
2019-01-15 20:08:18 GMT 49.359478 9.587306 14,375 183 322 -1536
2019-01-15 20:08:15 GMT 49.359478 9.587306 14,500 183 322 -1536
2019-01-15 20:08:10 GMT 49.366333 9.587684 14,525 183 323 -1472
2019-01-15 20:08:07 GMT 49.370651 9.587956 14,600 183 324 -1472
2019-01-15 20:08:04 GMT 49.375626 9.588247 14,750 183 325 -1536
2019-01-15 20:08:01 GMT 49.380112 9.588529 14,750 183 326 -1472
2019-01-15 20:07:58 GMT 49.389175 9.589093 14,850 183 327 -1472
2019-01-15 20:07:55 GMT 49.394623 9.589402 15,050 183 328 -1472
2019-01-15 20:07:51 GMT 49.394623 9.589402 15,075 183 329 -1472
2019-01-15 20:07:48 GMT 49.399513 9.589691 15,050 183 329 -1472
2019-01-15 20:07:45 GMT 49.409058 9.590269 15,150 183 330 -1536
2019-01-15 20:07:42 GMT 49.409058 9.590269 15,250 183 329 -1472
2019-01-15 20:07:39 GMT 49.412872 9.590559 15,450 183 329 -1472
2019-01-15 20:07:35 GMT 49.422138 9.591137 15,425 183 330 -1472
2019-01-15 20:07:27 GMT 49.431152 9.591715 15,525 183 330 -1472
2019-01-15 20:07:24 GMT 49.435730 9.591955 15,950 183 331 -1472
2019-01-15 20:07:20 GMT 49.443317 9.592475 15,775 183 330 -1536
2019-01-15 20:07:17 GMT 49.453560 9.593069 15,900 183 331 -1472
2019-01-15 20:07:13 GMT 49.453560 9.593069 15,900 183 331 -1472
2019-01-15 20:07:09 GMT 49.458893 9.593450 16,100 183 331 -1472
2019-01-15 20:07:06 GMT 49.462875 9.593666 16,075 183 331 -1472
2019-01-15 20:07:03 GMT 49.468082 9.594034 16,200 183 331 -1472
2019-01-15 20:07:00 GMT 49.472672 9.594317 16,300 183 331 -1472
2019-01-15 20:06:56 GMT 49.479263 9.594678 16,350 183 331 -1472
2019-01-15 20:06:52 GMT 49.484749 9.594999 16,550 183 331 -1472
2019-01-15 20:06:49 GMT 49.490112 9.595329 16,550 183 331 -1472
2019-01-15 20:06:46 GMT 49.494278 9.595618 16,650 183 331 -1472
2019-01-15 20:06:42 GMT 49.501602 9.596038 16,700 183 332 -1472
2019-01-15 20:06:39 GMT 49.506226 9.596269 16,775 183 332 -1472
2019-01-15 20:06:36 GMT 49.511261 9.596558 16,875 183 332 -1472
2019-01-15 20:06:31 GMT 49.518967 9.597003 17,000 183 332 -1472
2019-01-15 20:06:28 GMT 49.521572 9.597151 17,050 183 333 -1472
2019-01-15 20:06:25 GMT 49.526321 9.597448 17,125 183 333 -1472
2019-01-15 20:06:22 GMT 49.531395 9.597745 17,200 183 333 -1472
2019-01-15 20:06:18 GMT 49.537586 9.598116 17,325 183 333 -1472
2019-01-15 20:06:15 GMT 49.542160 9.598365 17,475 183 333 -1472
2019-01-15 20:06:10 GMT 49.550629 9.598871 17,800 183 331 -1472
2019-01-15 20:06:06 GMT 49.556023 9.599156 17,525 183 333 -1472
2019-01-15 20:06:02 GMT 49.561886 9.599527 17,700 183 332 -1472
2019-01-15 20:05:58 GMT 49.568172 9.599898 17,825 183 332 -1472
2019-01-15 20:05:52 GMT 49.576923 9.600418 18,175 183 331 -1472
2019-01-15 20:05:47 GMT 49.586243 9.601039 18,075 183 331 -1472
2019-01-15 20:05:44 GMT 49.589912 9.601234 18,150 183 330 -1472
2019-01-15 20:05:40 GMT 49.595581 9.601617 18,175 183 330 -1472
2019-01-15 20:05:37 GMT 49.599838 9.601834 18,400 183 330 -1472
2019-01-15 20:05:34 GMT 49.606251 9.602199 18,425 183 330 -1536
2019-01-15 20:05:31 GMT 49.609276 9.602422 18,475 183 329 -1472
2019-01-15 20:05:28 GMT 49.613983 9.602701 18,550 183 329 -1472
2019-01-15 20:05:25 GMT 49.619473 9.603016 18,600 183 329 -1408
2019-01-15 20:05:22 GMT 49.623287 9.603238 18,775 183 328 -1472
2019-01-15 20:05:16 GMT 49.633118 9.603858 18,825 183 328 -1472
2019-01-15 20:05:13 GMT 49.637650 9.604147 18,875 183 327 -1472
2019-01-15 20:05:10 GMT 49.641769 9.604426 18,900 183 327 -1472
2019-01-15 20:05:07 GMT 49.647171 9.604723 19,050 183 323 -1408
2019-01-15 20:05:03 GMT 49.656063 9.605317 19,175 183 324 -1472
2019-01-15 20:04:57 GMT 49.661911 9.605665 19,275 183 324 -1472
2019-01-15 20:04:54 GMT 49.665047 9.605837 19,450 183 323 -1408
2019-01-15 20:04:50 GMT 49.671295 9.606243 19,425 183 322 -1472
2019-01-15 20:04:47 GMT 49.676777 9.606653 19,525 183 320 -1472
2019-01-15 20:04:44 GMT 49.680782 9.606876 19,775 183 319 -1408
2019-01-15 20:04:41 GMT 49.686043 9.607247 19,675 183 316 -1472
2019-01-15 20:04:37 GMT 49.694374 9.607767 19,800 183 313 -1472
2019-01-15 20:04:34 GMT 49.694374 9.607767 20,000 183 308 0
2019-01-15 20:04:30 GMT 49.700546 9.608194 19,875 183 310 -1280
2019-01-15 20:04:26 GMT 49.706570 9.608583 19,975 183 307 -256
2019-01-15 20:04:23 GMT 49.712082 9.608917 19,975 183 307 -256
2019-01-15 20:04:19 GMT 49.716202 9.609134 20,000 183 310 0
2019-01-15 20:04:15 GMT 49.722153 9.609568 20,000 183 307 0
2019-01-15 20:04:11 GMT 49.727009 9.609845 20,000 183 307 0
2019-01-15 20:04:08 GMT 49.732269 9.610146 20,000 183 308 0
2019-01-15 20:04:04 GMT 49.741791 9.610796 20,000 183 325 64
2019-01-15 20:03:58 GMT 49.746094 9.611033 20,000 183 309 0
2019-01-15 20:03:55 GMT 49.751633 9.611375 20,000 183 310 0
2019-01-15 20:03:52 GMT 49.754658 9.611552 20,000 183 310 0
2019-01-15 20:03:48 GMT 49.760803 9.611924 20,000 183 313 0
2019-01-15 20:03:45 GMT 49.764404 9.612170 20,000 183 311 0
2019-01-15 20:03:42 GMT 49.772442 9.612666 20,000 183 312 0
2019-01-15 20:03:36 GMT 49.781380 9.613186 20,000 183 312 0
2019-01-15 20:03:33 GMT 49.781380 9.613186 20,000 183 312 0
2019-01-15 20:03:30 GMT 49.790497 9.613760 20,000 183 313 0
2019-01-15 20:03:27 GMT 49.790497 9.613760 20,000 183 314 0
2019-01-15 20:03:24 GMT 49.795300 9.614076 20,000 183 314 64
2019-01-15 20:03:21 GMT 49.799675 9.614373 20,000 183 315 0
2019-01-15 20:03:18 GMT 49.804611 9.614670 20,000 183 317 0
2019-01-15 20:03:15 GMT 49.808533 9.614916 20,000 183 317 -64
2019-01-15 20:03:12 GMT 49.811462 9.615061 20,000 183 317 -64
2019-01-15 20:03:09 GMT 49.818066 9.615487 20,000 183 317 -64
2019-01-15 20:03:06 GMT 49.820995 9.615635 20,000 183 318 128
2019-01-15 20:03:03 GMT 49.826614 9.616001 20,000 183 319 0
2019-01-15 20:02:59 GMT 49.830872 9.616217 20,000 183 321 0
2019-01-15 20:02:56 GMT 49.841759 9.616897 20,000 183 322 0
2019-01-15 20:02:52 GMT 49.841759 9.616897 20,000 183 323 64
2019-01-15 20:02:48 GMT 49.849823 9.617374 20,000 183 325 0
2019-01-15 20:02:45 GMT 49.852203 9.617518 20,000 183 326 64
2019-01-15 20:02:41 GMT 49.858891 9.617936 20,000 183 327 64
2019-01-15 20:02:38 GMT 49.864197 9.618241 20,000 183 331 0
2019-01-15 20:02:35 GMT 49.867676 9.618458 20,000 183 331 0
2019-01-15 20:02:32 GMT 49.872623 9.618753 20,000 183 332 0
2019-01-15 20:02:29 GMT 49.876625 9.618976 20,000 183 334 -64
2019-01-15 20:02:26 GMT 49.881409 9.619325 20,000 183 336 -128
2019-01-15 20:02:22 GMT 49.889511 9.619831 20,025 183 340 -256
2019-01-15 20:02:18 GMT 49.899033 9.620337 20,075 183 344 -1280
2019-01-15 20:02:15 GMT 49.899033 9.620337 20,100 183 344 -1280
2019-01-15 20:02:12 GMT 49.903625 9.620683 20,125 183 345 -1408
2019-01-15 20:02:09 GMT 49.908749 9.620980 20,250 183 345 -1472
2019-01-15 20:02:04 GMT 49.916710 9.621425 20,375 183 346 -1472
2019-01-15 20:02:01 GMT 49.921051 9.621711 20,375 183 346 -1472
2019-01-15 20:01:58 GMT 49.925365 9.622019 20,650 183 346 -1472
2019-01-15 20:01:55 GMT 49.931419 9.622390 20,575 183 347 -1472
2019-01-15 20:01:52 GMT 49.935284 9.622613 20,650 183 347 -1472
2019-01-15 20:01:49 GMT 49.940727 9.622984 20,750 183 347 -1472
2019-01-15 20:01:46 GMT 49.946365 9.623373 20,800 183 348 -1472
2019-01-15 20:01:43 GMT 49.949387 9.623517 20,850 183 348 -1472
2019-01-15 20:01:40 GMT 49.954556 9.623875 20,900 183 348 -1472
2019-01-15 20:01:37 GMT 49.960831 9.624313 21,100 183 348 -1472
2019-01-15 20:01:33 GMT 49.966599 9.624674 21,100 183 348 -1472
2019-01-15 20:01:30 GMT 49.970810 9.624963 21,250 183 349 -1472
2019-01-15 20:01:27 GMT 49.982071 9.625758 21,275 183 349 -1472
2019-01-15 20:01:23 GMT 49.982071 9.625758 21,500 183 349 -1472
2019-01-15 20:01:20 GMT 49.988525 9.626192 21,450 183 349 -1536
2019-01-15 20:01:15 GMT 49.994019 9.626553 21,525 183 349 -1536
2019-01-15 20:01:12 GMT 50.000290 9.626987 21,600 183 349 -1536
2019-01-15 20:01:09 GMT 50.004639 9.627348 21,725 183 349 -1472
2019-01-15 20:01:05 GMT 50.010132 9.627710 21,775 183 350 -1408
2019-01-15 20:01:02 GMT 50.015991 9.628143 21,850 183 350 -1472
2019-01-15 20:00:59 GMT 50.020008 9.628403 21,875 183 350 -1472
2019-01-15 20:00:56 GMT 50.027130 9.628997 22,025 183 351 -1472
2019-01-15 20:00:52 GMT 50.031364 9.629294 22,100 183 351 -1472
2019-01-15 20:00:49 GMT 50.038815 9.629888 22,200 184 351 -1472
2019-01-15 20:00:46 GMT 50.042866 9.630259 22,325 184 351 -1472
2019-01-15 20:00:42 GMT 50.050323 9.630890 22,400 184 352 -1472
2019-01-15 20:00:39 GMT 50.058132 9.631521 22,525 184 352 -1472
2019-01-15 20:00:33 GMT 50.063999 9.632040 22,650 184 352 -1472
2019-01-15 20:00:30 GMT 50.067902 9.632408 22,675 184 352 -1472
2019-01-15 20:00:27 GMT 50.072113 9.632769 23,000 184 353 -1472
2019-01-15 20:00:24 GMT 50.083878 9.633896 22,900 184 353 -1472
2019-01-15 20:00:21 GMT 50.083878 9.633896 22,900 184 353 -1472
2019-01-15 20:00:18 GMT 50.088299 9.634267 22,925 184 353 -1472
2019-01-15 20:00:13 GMT 50.101009 9.635455 23,100 184 355 -1472
2019-01-15 20:00:10 GMT 50.101009 9.635455 23,225 184 355 -1472
2019-01-15 20:00:07 GMT 50.105118 9.635805 23,175 184 355 -1536
2019-01-15 20:00:04 GMT 50.110703 9.636238 23,400 183 356 -1472
2019-01-15 20:00:01 GMT 50.116608 9.636672 23,400 183 356 -1472
2019-01-15 19:59:57 GMT 50.122375 9.636961 23,450 182 356 -1472
2019-01-15 19:59:54 GMT 50.127960 9.637250 23,550 182 356 -1472
2019-01-15 19:59:51 GMT 50.136528 9.637385 23,675 181 357 -1472
2019-01-15 19:59:48 GMT 50.140808 9.637311 23,700 179 357 -1408
2019-01-15 19:59:41 GMT 50.147919 9.636961 23,975 172 359 -1536
2019-01-15 19:59:38 GMT 50.153824 9.636311 23,975 169 359 -1472
2019-01-15 19:59:35 GMT 50.157120 9.635660 25,000 168 346 -896
2019-01-15 19:59:31 GMT 50.163666 9.633971 24,275 169 356 -1536
2019-01-15 19:59:28 GMT 50.170212 9.632046 24,275 169 356 -1408
2019-01-15 19:59:25 GMT 50.174423 9.630745 24,625 169 356 -1472
2019-01-15 19:59:22 GMT 50.179962 9.629071 24,325 169 356 -1472
2019-01-15 19:59:18 GMT 50.187874 9.626622 24,475 169 352 -1408
2019-01-15 19:59:15 GMT 50.190575 9.625805 24,500 168 354 -1472
2019-01-15 19:59:12 GMT 50.196991 9.623879 24,575 169 353 -1472
2019-01-15 19:59:09 GMT 50.205322 9.621349 24,675 169 351 -1408
2019-01-15 19:59:03 GMT 50.210266 9.619831 24,950 168 349 -1536
2019-01-15 19:59:00 GMT 50.213882 9.618747 24,825 168 348 -1536
2019-01-15 19:58:56 GMT 50.221626 9.616378 25,100 168 355 -960
2019-01-15 19:58:53 GMT 50.226933 9.614744 25,000 168 345 -320
2019-01-15 19:58:47 GMT 50.234940 9.612295 25,000 168 346 0
2019-01-15 19:58:44 GMT 50.241688 9.610216 25,000 168 346 0
2019-01-15 19:58:41 GMT 50.251652 9.607173 25,000 168 350 0
2019-01-15 19:58:37 GMT 50.251652 9.607173 25,000 168 349 0
2019-01-15 19:58:34 GMT 50.256538 9.605614 25,000 168 350 0
2019-01-15 19:58:30 GMT 50.261810 9.604002 26,025 168 352 -128
2019-01-15 19:58:26 GMT 50.269947 9.601531 25,100 168 355 -960
2019-01-15 19:58:22 GMT 50.281071 9.598116 25,075 168 355 -832
2019-01-15 19:58:18 GMT 50.287029 9.596261 25,100 168 355 -960
2019-01-15 19:58:15 GMT 50.287029 9.596261 25,125 168 355 -960
2019-01-15 19:58:12 GMT 50.296875 9.593233 25,175 168 355 -896
2019-01-15 19:58:09 GMT 50.296875 9.593233 25,225 168 355 -960
2019-01-15 19:58:06 GMT 50.300583 9.592076 26,225 168 348 -960
2019-01-15 19:58:02 GMT 50.305885 9.590471 26,225 168 355 -960
2019-01-15 19:57:59 GMT 50.317841 9.586800 25,425 168 355 -960
2019-01-15 19:57:55 GMT 50.317841 9.586800 25,450 168 354 -960
2019-01-15 19:57:52 GMT 50.321991 9.585497 25,475 168 354 -960
2019-01-15 19:57:49 GMT 50.328930 9.583344 25,575 168 354 -1024
2019-01-15 19:57:46 GMT 50.334045 9.581813 25,600 168 354 -960
2019-01-15 19:57:42 GMT 50.338898 9.580295 25,650 168 353 -960
2019-01-15 19:57:38 GMT 50.344986 9.578416 25,700 168 351 -960
2019-01-15 19:57:35 GMT 50.349747 9.576970 25,750 168 352 -960
2019-01-15 19:57:32 GMT 50.355370 9.575253 25,775 168 352 -960
2019-01-15 19:57:28 GMT 50.362350 9.573026 25,875 168 350 -1024
2019-01-15 19:57:25 GMT 50.366364 9.571838 25,900 168 346 0
2019-01-15 19:57:22 GMT 50.378403 9.568080 26,000 168 349 -960
2019-01-15 19:57:18 GMT 50.378403 9.568080 26,025 168 349 -1024
2019-01-15 19:57:15 GMT 50.383163 9.566634 26,125 168 349 -1024
2019-01-15 19:57:12 GMT 50.386963 9.565478 26,150 168 348 -960
2019-01-15 19:57:09 GMT 50.391678 9.563960 26,300 168 348 -896
2019-01-15 19:57:06 GMT 50.401642 9.560926 26,225 168 348 -1088
2019-01-15 19:57:03 GMT 50.401642 9.560926 26,275 168 347 -960
2019-01-15 19:57:00 GMT 50.405273 9.559768 26,325 168 348 -960
2019-01-15 19:56:57 GMT 50.410950 9.558033 26,375 168 347 -960
2019-01-15 19:56:54 GMT 50.415188 9.556695 26,400 168 347 -1024
2019-01-15 19:56:51 GMT 50.422127 9.554542 26,675 168 347 -960
2019-01-15 19:56:48 GMT 50.426056 9.553335 26,550 168 346 -960
2019-01-15 19:56:45 GMT 50.431435 9.551722 26,575 169 346 -960
2019-01-15 19:56:42 GMT 50.435673 9.550460 26,625 168 345 -960
2019-01-15 19:56:39 GMT 50.440338 9.548998 26,650 168 345 -960
2019-01-15 19:56:36 GMT 50.448349 9.546541 26,900 168 345 -960
2019-01-15 19:56:33 GMT 50.448349 9.546541 26,775 168 345 -960
2019-01-15 19:56:30 GMT 50.452850 9.545115 26,775 168 344 -960
2019-01-15 19:56:27 GMT 50.456772 9.543939 26,900 168 343 -960
2019-01-15 19:56:24 GMT 50.463638 9.541843 26,900 168 341 -896
2019-01-15 19:56:21 GMT 50.468445 9.540364 26,950 168 341 -640
2019-01-15 19:56:18 GMT 50.472446 9.539176 26,975 168 340 -448
2019-01-15 19:56:14 GMT 50.478790 9.537217 27,000 168 340 0
2019-01-15 19:56:11 GMT 50.484009 9.535555 27,000 168 339 0
2019-01-15 19:56:08 GMT 50.488037 9.534326 27,000 168 340 0
2019-01-15 19:56:04 GMT 50.494034 9.532447 27,000 168 339 64
2019-01-15 19:55:58 GMT 50.501862 9.530061 27,000 168 339 0
2019-01-15 19:55:55 GMT 50.508015 9.528190 27,000 168 339 0
2019-01-15 19:55:51 GMT 50.514496 9.526158 27,000 168 339 0
2019-01-15 19:55:48 GMT 50.517883 9.525146 27,000 168 339 0
2019-01-15 19:55:45 GMT 50.523235 9.523439 27,000 168 339 0
2019-01-15 19:55:42 GMT 50.527725 9.522039 27,000 168 339 0
2019-01-15 19:55:39 GMT 50.531895 9.520767 27,000 168 339 0
2019-01-15 19:55:36 GMT 50.536652 9.519292 27,000 168 339 -64
2019-01-15 19:55:32 GMT 50.542324 9.517575 27,000 168 339 0
2019-01-15 19:55:28 GMT 50.549446 9.515348 27,000 168 339 0
2019-01-15 19:55:25 GMT 50.554661 9.513715 27,000 168 339 0
2019-01-15 19:55:21 GMT 50.558533 9.512498 27,000 168 339 0
2019-01-15 19:55:18 GMT 50.564201 9.510745 27,000 168 340 0
2019-01-15 19:55:15 GMT 50.568810 9.509335 27,000 168 340 0
2019-01-15 19:55:12 GMT 50.572357 9.508161 27,000 168 340 0
2019-01-15 19:55:09 GMT 50.578075 9.506440 27,000 168 344 64
2019-01-15 19:55:06 GMT 50.582684 9.504955 27,000 168 342 -64
2019-01-15 19:55:03 GMT 50.586735 9.503693 27,000 168 340 0
2019-01-15 19:55:00 GMT 50.599228 9.499777 27,000 168 342 64
2019-01-15 19:54:56 GMT 50.599228 9.499777 27,000 168 340 -64
2019-01-15 19:54:53 GMT 50.603073 9.498571 27,000 168 340 0
2019-01-15 19:54:50 GMT 50.608475 9.496938 27,000 168 341 0
2019-01-15 19:54:47 GMT 50.611408 9.496048 27,000 168 341 -64
2019-01-15 19:54:44 GMT 50.616211 9.494500 27,000 168 341 0
2019-01-15 19:54:41 GMT 50.621475 9.492910 27,000 168 341 0
2019-01-15 19:54:38 GMT 50.629375 9.490406 27,000 168 341 0
2019-01-15 19:54:32 GMT 50.634796 9.488718 27,000 168 342 0
2019-01-15 19:54:29 GMT 50.639145 9.487417 27,000 168 342 0
2019-01-15 19:54:26 GMT 50.644413 9.485729 27,000 168 342 0
2019-01-15 19:54:23 GMT 50.649208 9.484245 27,000 168 342 0
2019-01-15 19:54:20 GMT 50.661030 9.480607 27,000 168 342 0
2019-01-15 19:54:16 GMT 50.661030 9.480607 27,000 168 343 0
2019-01-15 19:54:12 GMT 50.667068 9.478671 27,000 168 343 0
2019-01-15 19:54:09 GMT 50.671921 9.477193 27,000 168 343 0
2019-01-15 19:54:06 GMT 50.677185 9.475555 27,000 168 343 0
2019-01-15 19:54:03 GMT 50.682037 9.474001 27,000 168 343 0
2019-01-15 19:54:00 GMT 50.684818 9.473114 27,000 168 343 -64
2019-01-15 19:53:57 GMT 50.688728 9.471893 27,000 168 343 0
2019-01-15 19:53:54 GMT 50.695129 9.469918 27,000 168 343 -64
2019-01-15 19:53:50 GMT 50.700554 9.468231 27,000 168 344 0
2019-01-15 19:53:47 GMT 50.705257 9.466705 27,000 168 344 0
2019-01-15 19:53:43 GMT 50.711166 9.464874 27,000 168 344 0
2019-01-15 19:53:39 GMT 50.717285 9.463014 27,000 168 344 0
2019-01-15 19:53:36 GMT 50.721970 9.461517 27,000 168 344 0
2019-01-15 19:53:33 GMT 50.725834 9.460297 27,000 168 344 0
2019-01-15 19:53:30 GMT 50.731464 9.458542 27,000 168 344 0
2019-01-15 19:53:27 GMT 50.736649 9.456927 27,000 168 344 0
2019-01-15 19:53:24 GMT 50.741474 9.455414 27,000 163 348 0
2019-01-15 19:53:21 GMT 50.744919 9.454346 27,000 168 344 0
2019-01-15 19:53:18 GMT 50.750088 9.452744 27,000 168 344 0
2019-01-15 19:53:15 GMT 50.754776 9.451286 27,000 168 344 -64
2019-01-15 19:53:12 GMT 50.764282 9.448318 27,000 168 345 0
2019-01-15 19:53:09 GMT 50.764282 9.448318 27,000 168 345 0
2019-01-15 19:53:06 GMT 50.770382 9.446411 27,000 168 344 64
2019-01-15 19:53:03 GMT 50.774139 9.445273 27,000 168 344 64
2019-01-15 19:53:00 GMT 50.780392 9.443283 27,000 168 345 0
2019-01-15 19:52:57 GMT 50.782928 9.442526 27,000 168 345 0
2019-01-15 19:52:54 GMT 50.787468 9.441147 27,000 168 345 0
2019-01-15 19:52:51 GMT 50.792446 9.439545 27,000 168 344 0
2019-01-15 19:52:48 GMT 50.797119 9.438072 27,000 168 344 0
2019-01-15 19:52:45 GMT 50.802597 9.436417 27,000 168 344 0
2019-01-15 19:52:41 GMT 50.808243 9.434658 27,000 168 344 0
2019-01-15 19:52:38 GMT 50.818378 9.431458 27,000 168 344 64
2019-01-15 19:52:35 GMT 50.818378 9.431458 27,000 168 344 64
2019-01-15 19:52:32 GMT 50.822296 9.430278 27,000 166 346 -64
2019-01-15 19:52:29 GMT 50.826664 9.428940 27,000 168 344 0
2019-01-15 19:52:26 GMT 50.830853 9.427490 27,000 166 346 -64
2019-01-15 19:52:23 GMT 50.835835 9.425659 27,000 165 346 -64
2019-01-15 19:52:20 GMT 50.847427 9.420395 27,000 163 348 -64
2019-01-15 19:52:16 GMT 50.847427 9.420395 27,000 163 348 0
2019-01-15 19:52:13 GMT 50.851135 9.418624 27,000 163 348 0
2019-01-15 19:52:10 GMT 50.856689 9.416046 27,000 163 348 0
2019-01-15 19:52:06 GMT 50.863174 9.412908 27,000 163 348 -64
2019-01-15 19:52:02 GMT 50.867798 9.410755 27,000 162 301 1024
2019-01-15 19:51:59 GMT 50.874706 9.407425 27,000 163 348 0
2019-01-15 19:51:56 GMT 50.879036 9.405365 27,000 163 348 0
2019-01-15 19:51:53 GMT 50.882759 9.403610 27,000 162 301 1024
2019-01-15 19:51:50 GMT 50.886765 9.401703 27,000 163 348 0
2019-01-15 19:51:47 GMT 50.891510 9.399472 27,000 163 348 0
2019-01-15 19:51:43 GMT 50.899704 9.395599 27,000 163 348 0
2019-01-15 19:51:40 GMT 50.903595 9.393756 27,000 163 343 0
2019-01-15 19:51:37 GMT 50.908813 9.391232 27,000 163 348 0
2019-01-15 19:51:34 GMT 50.916370 9.387665 27,000 163 348 0
2019-01-15 19:51:28 GMT 50.925476 9.383289 27,000 163 348 0
2019-01-15 19:51:25 GMT 50.925476 9.383289 27,000 163 348 0
2019-01-15 19:51:22 GMT 50.930099 9.381137 27,000 163 348 0
2019-01-15 19:51:18 GMT 50.936901 9.377899 27,000 163 348 0
2019-01-15 19:51:15 GMT 50.941368 9.375763 27,000 163 348 -64
2019-01-15 19:51:11 GMT 50.946770 9.373169 27,000 163 348 0
2019-01-15 19:51:08 GMT 50.951565 9.370880 27,000 163 347 0
2019-01-15 19:51:05 GMT 50.958176 9.367752 27,000 163 347 -64
2019-01-15 19:51:02 GMT 50.967113 9.363480 27,000 163 347 0
2019-01-15 19:50:59 GMT 50.967113 9.363480 27,000 163 347 0
2019-01-15 19:50:53 GMT 50.974640 9.359906 27,000 163 347 -64
2019-01-15 19:50:50 GMT 50.978760 9.357976 27,000 163 346 0
2019-01-15 19:50:47 GMT 50.984161 9.355378 27,000 163 343 0
2019-01-15 19:50:42 GMT 50.991039 9.352112 27,000 163 346 0
2019-01-15 19:50:38 GMT 50.998116 9.348755 27,000 163 345 -64
2019-01-15 19:50:35 GMT 51.002819 9.346466 27,000 163 345 0
2019-01-15 19:50:31 GMT 51.009567 9.343278 27,000 163 345 -64
2019-01-15 19:50:28 GMT 51.013229 9.341497 27,000 163 344 64
2019-01-15 19:50:25 GMT 51.018402 9.339047 27,000 163 344 64
2019-01-15 19:50:22 GMT 51.022385 9.337117 27,000 163 344 -64
2019-01-15 19:50:18 GMT 51.030167 9.333480 27,000 163 344 0
2019-01-15 19:50:15 GMT 51.033966 9.331624 27,000 163 344 0
2019-01-15 19:50:12 GMT 51.037033 9.330139 27,000 163 341 0
2019-01-15 19:50:09 GMT 51.042015 9.327774 27,000 163 343 0
2019-01-15 19:50:06 GMT 51.046463 9.325685 27,000 163 343 -64
2019-01-15 19:50:02 GMT 51.052814 9.322586 27,000 163 343 0
2019-01-15 19:49:59 GMT 51.062359 9.318008 27,000 163 342 0
2019-01-15 19:49:56 GMT 51.062359 9.318008 27,000 163 341 -64
2019-01-15 19:49:53 GMT 51.067200 9.315643 27,000 163 341 64
2019-01-15 19:49:50 GMT 51.072506 9.313126 27,000 163 341 0
2019-01-15 19:49:46 GMT 51.077488 9.310684 27,000 163 341 -64
2019-01-15 19:49:43 GMT 51.082005 9.308548 27,000 163 340 -64
2019-01-15 19:49:40 GMT 51.085632 9.306793 27,000 163 340 -64
2019-01-15 19:49:37 GMT 51.090755 9.304352 27,000 163 339 0
2019-01-15 19:49:34 GMT 51.095272 9.302216 27,000 163 339 64
2019-01-15 19:49:31 GMT 51.100204 9.299778 27,000 163 339 -64
2019-01-15 19:49:28 GMT 51.104580 9.297714 27,000 163 338 -64
2019-01-15 19:49:24 GMT 51.110260 9.294968 27,000 163 337 0
2019-01-15 19:49:21 GMT 51.115768 9.292355 27,000 163 337 -64
2019-01-15 19:49:18 GMT 51.120529 9.290054 27,000 163 336 -64
2019-01-15 19:49:12 GMT 51.127811 9.286499 27,000 162 334 0
2019-01-15 19:49:09 GMT 51.132385 9.284264 27,000 162 333 -64
2019-01-15 19:49:06 GMT 51.136780 9.282111 27,000 163 332 0
2019-01-15 19:49:03 GMT 51.140751 9.280243 27,000 163 332 -64
2019-01-15 19:49:00 GMT 51.145294 9.278028 27,000 163 330 0
2019-01-15 19:48:57 GMT 51.151878 9.274826 27,000 163 329 -64
2019-01-15 19:48:53 GMT 51.160583 9.270706 27,000 163 326 64
2019-01-15 19:48:50 GMT 51.160583 9.270706 27,000 163 326 0
2019-01-15 19:48:46 GMT 51.165798 9.268188 27,000 163 325 -64
2019-01-15 19:48:43 GMT 51.171387 9.265483 27,000 163 322 -64
2019-01-15 19:48:38 GMT 51.177109 9.262811 27,000 163 320 0
2019-01-15 19:48:35 GMT 51.180771 9.261029 27,000 163 320 0
2019-01-15 19:48:31 GMT 51.187820 9.257689 27,000 163 316 128
2019-01-15 19:48:28 GMT 51.192902 9.255239 27,000 163 316 128
2019-01-15 19:48:24 GMT 51.198338 9.252625 26,975 163 313 192
2019-01-15 19:48:20 GMT 51.202606 9.250563 26,975 163 312 576
2019-01-15 19:48:17 GMT 51.206726 9.248632 26,950 163 311 960
2019-01-15 19:48:14 GMT 51.210846 9.246628 26,900 163 310 1024
2019-01-15 19:48:11 GMT 51.215794 9.244232 26,800 163 310 1024
2019-01-15 19:48:08 GMT 51.223480 9.240541 26,725 163 310 960
2019-01-15 19:48:05 GMT 51.227711 9.238510 26,700 162 309 1024
2019-01-15 19:48:02 GMT 51.227711 9.238510 26,525 163 309 960
2019-01-15 19:47:59 GMT 51.233322 9.235790 26,600 163 309 1024
2019-01-15 19:47:55 GMT 51.237022 9.234009 26,550 163 309 1024
2019-01-15 19:47:52 GMT 51.240967 9.232079 26,475 163 308 960
2019-01-15 19:47:49 GMT 51.245361 9.230000 26,425 163 307 960
2019-01-15 19:47:46 GMT 51.248753 9.228363 26,425 163 307 960
2019-01-15 19:47:43 GMT 51.252960 9.226289 26,325 163 307 1024
2019-01-15 19:47:40 GMT 51.258133 9.223839 26,300 163 306 1024
2019-01-15 19:47:37 GMT 51.262161 9.221909 26,225 163 306 1024
2019-01-15 19:47:34 GMT 51.266510 9.219756 26,175 163 304 960
2019-01-15 19:47:31 GMT 51.270538 9.217826 26,150 163 304 1024
2019-01-15 19:47:27 GMT 51.275799 9.215317 26,075 163 303 960
2019-01-15 19:47:24 GMT 51.279011 9.213715 25,900 163 302 1024
2019-01-15 19:47:21 GMT 51.284367 9.211121 25,750 163 302 1024
2019-01-15 19:47:18 GMT 51.287155 9.209809 25,875 163 302 1024
2019-01-15 19:47:15 GMT 51.295990 9.205504 25,800 163 302 960
2019-01-15 19:47:09 GMT 51.300659 9.203262 25,775 163 301 1024
2019-01-15 19:47:06 GMT 51.303040 9.202089 25,700 163 301 1024
2019-01-15 19:47:03 GMT 51.307827 9.199829 25,525 163 301 1024
2019-01-15 19:46:59 GMT 51.312881 9.197338 25,250 162 301 1024
2019-01-15 19:46:55 GMT 51.317825 9.194963 25,550 163 301 960
2019-01-15 19:46:52 GMT 51.321423 9.193192 25,500 163 301 960
2019-01-15 19:46:48 GMT 51.331013 9.188538 25,375 163 301 960
2019-01-15 19:46:45 GMT 51.331013 9.188538 25,325 162 306 960
2019-01-15 19:46:39 GMT 51.338692 9.184799 25,200 163 301 960
2019-01-15 19:46:36 GMT 51.343208 9.182587 25,175 163 301 960
2019-01-15 19:46:32 GMT 51.349594 9.179523 25,025 163 301 896
2019-01-15 19:46:27 GMT 51.359802 9.174475 24,975 163 301 960
2019-01-15 19:46:24 GMT 51.359802 9.174475 25,000 163 301 960
2019-01-15 19:46:21 GMT 51.366989 9.170986 24,975 162 300 1024
2019-01-15 19:46:18 GMT 51.366989 9.170986 24,750 162 300 960
2019-01-15 19:46:14 GMT 51.372444 9.168320 24,775 163 301 1024
2019-01-15 19:46:11 GMT 51.375229 9.166977 24,800 162 306 960
2019-01-15 19:46:07 GMT 51.387295 9.160995 24,650 163 301 960
2019-01-15 19:46:03 GMT 51.387295 9.160995 24,575 162 301 1024
2019-01-15 19:46:00 GMT 51.390884 9.159257 24,575 162 302 960
2019-01-15 19:45:57 GMT 51.395416 9.157030 24,600 162 301 960
2019-01-15 19:45:53 GMT 51.400497 9.154506 24,525 162 301 1024
2019-01-15 19:45:50 GMT 51.403679 9.152985 24,500 162 301 960
2019-01-15 19:45:46 GMT 51.410202 9.149681 24,400 162 302 1024
2019-01-15 19:45:43 GMT 51.414108 9.147720 24,350 162 302 960
2019-01-15 19:45:40 GMT 51.417023 9.146267 24,300 162 303 960
2019-01-15 19:45:35 GMT 51.426682 9.141367 24,250 162 304 960
2019-01-15 19:45:32 GMT 51.429653 9.139862 24,125 162 305 960
2019-01-15 19:45:29 GMT 51.432449 9.138412 24,125 162 306 1024
2019-01-15 19:45:25 GMT 51.437847 9.135666 24,050 162 306 960
2019-01-15 19:45:22 GMT 51.440689 9.134241 24,025 162 306 960
2019-01-15 19:45:19 GMT 51.449207 9.129868 23,950 162 307 1024
2019-01-15 19:45:16 GMT 51.449207 9.129868 23,900 162 308 1088
2019-01-15 19:45:13 GMT 51.454094 9.127350 23,775 162 308 960
2019-01-15 19:45:10 GMT 51.457489 9.125630 23,825 162 309 960
2019-01-15 19:45:06 GMT 51.462936 9.122884 23,675 162 310 960
2019-01-15 19:45:03 GMT 51.466507 9.121028 23,725 162 311 960
2019-01-15 19:45:00 GMT 51.477264 9.116054 23,600 165 310 960
2019-01-15 19:44:56 GMT 51.477264 9.116054 23,525 178 310 1024
2019-01-15 19:44:53 GMT 51.481293 9.114421 23,550 167 310 960
2019-01-15 19:44:50 GMT 51.486786 9.112565 23,525 168 310 960
2019-01-15 19:44:46 GMT 51.492130 9.111099 23,425 171 310 960
2019-01-15 19:44:42 GMT 51.496410 9.110184 23,200 173 324 0
2019-01-15 19:44:39 GMT 51.501846 9.109373 23,300 179 310 1024
2019-01-15 19:44:36 GMT 51.505116 9.109039 23,250 178 310 1152
2019-01-15 19:44:33 GMT 51.511139 9.108779 23,200 177 313 832
2019-01-15 19:44:30 GMT 51.514008 9.108658 23,175 175 315 896
2019-01-15 19:44:27 GMT 51.519268 9.108047 23,125 174 317 896
2019-01-15 19:44:22 GMT 51.526703 9.106701 23,025 173 322 256
2019-01-15 19:44:18 GMT 51.532791 9.105513 23,000 173 323 64
2019-01-15 19:44:13 GMT 51.540024 9.104103 23,000 173 323 0
2019-01-15 19:44:10 GMT 51.543137 9.103509 23,000 173 323 -64
2019-01-15 19:44:07 GMT 51.548676 9.102396 23,000 173 323 0
2019-01-15 19:44:04 GMT 51.553253 9.101562 23,000 173 324 0
2019-01-15 19:44:01 GMT 51.556366 9.100911 23,000 173 323 0
2019-01-15 19:43:58 GMT 51.561119 9.100037 23,000 173 323 0
2019-01-15 19:43:54 GMT 51.567356 9.098816 23,000 173 324 0
2019-01-15 19:43:51 GMT 51.571499 9.097977 23,000 173 324 0
2019-01-15 19:43:48 GMT 51.575226 9.097274 23,000 173 324 0
2019-01-15 19:43:45 GMT 51.580582 9.096234 23,000 173 324 0
2019-01-15 19:43:41 GMT 51.586395 9.095154 23,000 173 324 0
2019-01-15 19:43:38 GMT 51.592163 9.094007 23,000 173 324 0
2019-01-15 19:43:35 GMT 51.594406 9.093636 23,000 173 324 0
2019-01-15 19:43:32 GMT 51.599758 9.092560 23,000 173 324 0
2019-01-15 19:43:26 GMT 51.609859 9.090652 23,000 173 324 0
2019-01-15 19:43:23 GMT 51.613445 9.089966 23,000 173 324 -64
2019-01-15 19:43:20 GMT 51.617447 9.089127 23,000 173 324 0
2019-01-15 19:43:17 GMT 51.626358 9.087401 23,000 173 324 -64
2019-01-15 19:43:11 GMT 51.632484 9.086227 23,000 173 325 0
2019-01-15 19:43:08 GMT 51.637390 9.085322 23,000 173 325 0
2019-01-15 19:43:05 GMT 51.639793 9.084854 23,000 173 324 -64
2019-01-15 19:43:02 GMT 51.647507 9.083318 23,000 173 325 0
2019-01-15 19:42:56 GMT 51.654690 9.081955 23,000 173 325 0
2019-01-15 19:42:53 GMT 51.658264 9.081239 23,000 173 325 0
2019-01-15 19:42:50 GMT 51.663300 9.080274 23,000 173 325 0
2019-01-15 19:42:47 GMT 51.666000 9.079742 23,000 173 325 0
2019-01-15 19:42:44 GMT 51.672707 9.078445 23,000 173 325 0
2019-01-15 19:42:41 GMT 51.675686 9.077835 23,000 173 325 0
2019-01-15 19:42:38 GMT 51.685089 9.076043 23,000 173 325 0
2019-01-15 19:42:35 GMT 51.685089 9.076043 23,000 173 325 0
2019-01-15 19:42:32 GMT 51.690720 9.074930 23,000 173 325 0
2019-01-15 19:42:29 GMT 51.693279 9.074478 23,000 173 325 0
2019-01-15 19:42:26 GMT 51.698502 9.073445 23,000 173 325 0
2019-01-15 19:42:23 GMT 51.704033 9.072342 23,000 173 326 -64
2019-01-15 19:42:20 GMT 51.707012 9.071732 23,000 173 326 64
2019-01-15 19:42:16 GMT 51.713745 9.070476 23,000 173 326 0
2019-01-15 19:42:13 GMT 51.718094 9.069595 23,000 173 326 0
2019-01-15 19:42:10 GMT 51.722122 9.068843 23,000 173 326 0
2019-01-15 19:42:07 GMT 51.726883 9.067878 23,000 173 326 0
2019-01-15 19:42:03 GMT 51.738110 9.065704 23,000 173 326 64
2019-01-15 19:42:00 GMT 51.738110 9.065704 23,000 173 327 64
2019-01-15 19:41:56 GMT 51.742767 9.064760 23,000 172 327 -64
2019-01-15 19:41:52 GMT 51.750401 9.063263 23,000 172 327 64
2019-01-15 19:41:49 GMT 51.753426 9.062729 23,000 172 327 64
2019-01-15 19:41:45 GMT 51.759567 9.061494 23,000 173 327 -64
2019-01-15 19:41:42 GMT 51.763760 9.060669 23,000 172 327 0
2019-01-15 19:41:39 GMT 51.768265 9.059786 23,000 172 327 64
2019-01-15 19:41:36 GMT 51.772930 9.058914 23,000 172 327 -64
2019-01-15 19:41:33 GMT 51.777557 9.057931 23,000 172 327 0
2019-01-15 19:41:30 GMT 51.782089 9.057114 23,000 172 327 0
2019-01-15 19:41:24 GMT 51.791382 9.055258 23,000 172 327 64
2019-01-15 19:41:21 GMT 51.796627 9.054260 23,000 172 327 -64
2019-01-15 19:41:18 GMT 51.801003 9.053345 23,000 172 327 0
2019-01-15 19:41:14 GMT 51.806396 9.052289 23,000 173 327 0
2019-01-15 19:41:11 GMT 51.811665 9.051285 23,000 173 327 64
2019-01-15 19:41:08 GMT 51.815552 9.050507 23,000 173 329 0
2019-01-15 19:41:05 GMT 51.820972 9.049454 23,000 172 327 0
2019-01-15 19:41:02 GMT 51.825302 9.048577 23,000 172 327 0
2019-01-15 19:40:59 GMT 51.829834 9.047687 23,000 172 327 0
2019-01-15 19:40:56 GMT 51.833130 9.047093 23,000 172 327 64
2019-01-15 19:40:53 GMT 51.839447 9.045831 23,000 173 328 -64
2019-01-15 19:40:50 GMT 51.842293 9.045258 23,000 173 328 -64
2019-01-15 19:40:47 GMT 51.846954 9.044346 23,000 173 328 0
2019-01-15 19:40:43 GMT 51.857483 9.042268 23,000 173 328 64
2019-01-15 19:40:40 GMT 51.857483 9.042268 23,000 173 328 0
2019-01-15 19:40:37 GMT 51.861523 9.041443 23,000 173 328 0
2019-01-15 19:40:34 GMT 51.866226 9.040560 23,000 173 328 0
2019-01-15 19:40:31 GMT 51.875244 9.038779 23,000 173 328 0
2019-01-15 19:40:28 GMT 51.878860 9.038036 23,000 173 329 0
2019-01-15 19:40:22 GMT 51.885635 9.036713 23,000 173 328 0
2019-01-15 19:40:19 GMT 51.889709 9.035958 23,000 173 328 0
2019-01-15 19:40:16 GMT 51.892712 9.035339 23,000 173 328 0
2019-01-15 19:40:12 GMT 51.899048 9.034119 23,000 173 329 0
2019-01-15 19:40:09 GMT 51.905685 9.032745 23,000 173 329 0
2019-01-15 19:40:05 GMT 51.909470 9.032017 23,000 173 329 0
2019-01-15 19:40:02 GMT 51.914124 9.031154 23,000 173 329 -64
2019-01-15 19:39:59 GMT 51.918827 9.030212 23,000 173 329 0
2019-01-15 19:39:56 GMT 51.924877 9.028957 23,000 173 329 0
2019-01-15 19:39:52 GMT 51.930000 9.027937 23,000 173 330 0
2019-01-15 19:39:48 GMT 51.939697 9.026031 23,000 173 330 0
2019-01-15 19:39:45 GMT 51.939697 9.026031 23,000 173 330 0
2019-01-15 19:39:42 GMT 51.946518 9.024658 23,000 173 330 0
2019-01-15 19:39:38 GMT 51.952717 9.023464 23,000 173 330 0
2019-01-15 19:39:35 GMT 51.955418 9.022914 23,000 173 329 -64
2019-01-15 19:39:32 GMT 51.960709 9.021835 23,000 173 329 0
2019-01-15 19:39:29 GMT 51.964771 9.021031 23,000 173 329 0
2019-01-15 19:39:26 GMT 51.968399 9.020309 23,000 173 329 -64
2019-01-15 19:39:23 GMT 51.974735 9.019069 23,000 173 329 64
2019-01-15 19:39:20 GMT 51.978691 9.018284 23,000 173 329 0
2019-01-15 19:39:17 GMT 51.983643 9.017334 23,000 173 329 0
2019-01-15 19:39:14 GMT 51.987396 9.016558 23,000 173 329 -64
2019-01-15 19:39:09 GMT 51.999783 9.014125 23,000 173 328 64
2019-01-15 19:39:06 GMT 51.999783 9.014125 23,000 173 329 0
2019-01-15 19:39:00 GMT 52.008087 9.012527 23,000 173 328 0
2019-01-15 19:38:57 GMT 52.013351 9.011459 23,000 173 328 0
2019-01-15 19:38:54 GMT 52.019257 9.010315 23,000 173 329 0
2019-01-15 19:38:51 GMT 52.022278 9.009705 23,000 173 328 64
2019-01-15 19:38:48 GMT 52.025848 9.008946 23,000 173 329 0
2019-01-15 19:38:45 GMT 52.030552 9.008083 23,000 173 329 0
2019-01-15 19:38:41 GMT 52.037338 9.006729 23,000 173 328 0
2019-01-15 19:38:38 GMT 52.040516 9.006121 23,000 173 329 0
2019-01-15 19:38:35 GMT 52.051640 9.003845 23,000 173 328 0
2019-01-15 19:38:31 GMT 52.051640 9.003845 23,000 173 328 0
2019-01-15 19:38:28 GMT 52.056198 9.002991 23,000 173 329 -64
2019-01-15 19:38:25 GMT 52.060547 9.002151 23,000 173 329 -64
2019-01-15 19:38:22 GMT 52.067184 9.000854 23,000 173 329 0
2019-01-15 19:38:19 GMT 52.070076 9.000235 23,000 173 329 64
2019-01-15 19:38:15 GMT 52.076405 8.998980 23,000 173 329 0
2019-01-15 19:38:11 GMT 52.082291 8.997803 23,000 173 329 0
2019-01-15 19:38:08 GMT 52.086960 8.996887 23,000 173 329 0
2019-01-15 19:38:04 GMT 52.097855 8.994751 23,000 173 329 64
2019-01-15 19:38:01 GMT 52.097855 8.994751 23,000 173 329 0
2019-01-15 19:37:58 GMT 52.102055 8.993958 23,000 173 329 64
2019-01-15 19:37:55 GMT 52.107468 8.992844 23,000 173 329 0
2019-01-15 19:37:50 GMT 52.113506 8.991682 23,000 173 329 -64
2019-01-15 19:37:47 GMT 52.118225 8.990707 23,000 173 329 -64
2019-01-15 19:37:43 GMT 52.129120 8.988571 23,000 173 329 64
2019-01-15 19:37:40 GMT 52.129120 8.988571 23,000 173 330 0
2019-01-15 19:37:37 GMT 52.133331 8.987732 23,000 173 330 -128
2019-01-15 19:37:33 GMT 52.139530 8.986503 23,000 173 329 -64
2019-01-15 19:37:30 GMT 52.144371 8.985561 23,000 173 329 0
2019-01-15 19:37:27 GMT 52.148144 8.984776 23,000 173 328 0
2019-01-15 19:37:24 GMT 52.153450 8.983756 23,000 173 328 0
2019-01-15 19:37:21 GMT 52.157967 8.982814 23,000 173 329 0
2019-01-15 19:37:18 GMT 52.162342 8.981951 23,000 172 320 -64
2019-01-15 19:37:15 GMT 52.168396 8.980713 23,000 173 328 0
2019-01-15 19:37:12 GMT 52.172024 8.979989 23,000 173 328 0
2019-01-15 19:37:09 GMT 52.175629 8.979263 23,000 173 328 0
2019-01-15 19:37:06 GMT 52.179844 8.978420 23,000 173 328 0
2019-01-15 19:37:03 GMT 52.184502 8.977478 23,000 172 327 0
2019-01-15 19:36:59 GMT 52.192154 8.975983 23,000 172 327 0
2019-01-15 19:36:56 GMT 52.195770 8.975220 23,000 172 327 0
2019-01-15 19:36:53 GMT 52.200886 8.974182 23,000 172 327 0
2019-01-15 19:36:50 GMT 52.203278 8.973694 23,000 172 327 0
2019-01-15 19:36:47 GMT 52.208382 8.972691 23,000 172 327 0
2019-01-15 19:36:44 GMT 52.214539 8.971481 23,000 172 326 0
2019-01-15 19:36:41 GMT 52.217506 8.970886 23,000 172 326 0
2019-01-15 19:36:38 GMT 52.223969 8.969574 23,000 172 326 -64
2019-01-15 19:36:35 GMT 52.226807 8.968964 23,000 172 326 -64
2019-01-15 19:36:31 GMT 52.232483 8.967819 23,000 172 325 -64
2019-01-15 19:36:28 GMT 52.237289 8.966884 23,000 172 326 0
2019-01-15 19:36:25 GMT 52.242039 8.965942 23,000 172 324 0
2019-01-15 19:36:22 GMT 52.245758 8.965149 23,000 172 325 0
2019-01-15 19:36:18 GMT 52.257122 8.962882 23,000 172 324 0
2019-01-15 19:36:15 GMT 52.257122 8.962882 23,000 172 323 0
2019-01-15 19:36:12 GMT 52.266434 8.960999 23,000 172 323 0
2019-01-15 19:36:09 GMT 52.266434 8.960999 23,000 172 323 0
2019-01-15 19:36:06 GMT 52.269836 8.960266 23,000 172 321 0
2019-01-15 19:36:03 GMT 52.274441 8.959351 23,000 172 321 0
2019-01-15 19:36:00 GMT 52.278862 8.958409 23,000 172 321 0
2019-01-15 19:35:57 GMT 52.283283 8.957546 23,000 172 320 -64
2019-01-15 19:35:54 GMT 52.287506 8.956604 23,000 172 319 -64
2019-01-15 19:35:51 GMT 52.292500 8.955584 23,000 172 318 64
2019-01-15 19:35:46 GMT 52.300369 8.953934 23,000 172 317 -128
2019-01-15 19:35:43 GMT 52.303303 8.953308 23,000 172 316 -128
2019-01-15 19:35:40 GMT 52.307785 8.952408 23,000 172 315 0
2019-01-15 19:35:36 GMT 52.315292 8.950882 23,000 172 313 0
2019-01-15 19:35:33 GMT 52.317719 8.950348 23,000 172 312 -64
2019-01-15 19:35:30 GMT 52.322433 8.949384 23,000 172 311 -64
2019-01-15 19:35:25 GMT 52.330814 8.947736 23,000 172 309 0
2019-01-15 19:35:22 GMT 52.333328 8.947187 23,025 173 301 -128
2019-01-15 19:35:19 GMT 52.345104 8.944911 23,000 172 303 0
2019-01-15 19:35:14 GMT 52.345104 8.944911 23,000 173 302 0
2019-01-15 19:35:11 GMT 52.348129 8.944284 23,000 173 301 -192
2019-01-15 19:35:08 GMT 52.352921 8.943329 23,025 173 298 -128
2019-01-15 19:35:05 GMT 52.357269 8.942490 23,025 173 293 -64
2019-01-15 19:35:02 GMT 52.365448 8.940909 23,025 173 289 0
2019-01-15 19:34:59 GMT 52.371639 8.939654 23,025 173 282 -64
2019-01-15 19:34:54 GMT 52.376266 8.938828 23,025 173 281 -64
2019-01-15 19:34:51 GMT 52.380112 8.938084 23,025 173 278 -64
2019-01-15 19:34:44 GMT 52.388351 8.936615 23,000 173 267 192
2019-01-15 19:34:41 GMT 52.388351 8.936615 23,000 173 265 192
2019-01-15 19:34:38 GMT 52.397873 8.934784 22,975 173 264 192
2019-01-15 19:34:33 GMT 52.397873 8.934784 22,975 173 256 832
2019-01-15 19:34:30 GMT 52.401306 8.934097 22,950 173 254 1088
2019-01-15 19:34:27 GMT 52.405159 8.933376 22,875 173 253 1408
2019-01-15 19:34:24 GMT 52.409302 8.932591 22,775 173 250 1536
2019-01-15 19:34:21 GMT 52.412292 8.931961 22,650 173 250 1344
2019-01-15 19:34:18 GMT 52.415493 8.931335 22,625 173 249 1280
2019-01-15 19:34:13 GMT 52.420670 8.930283 22,475 173 248 1216
2019-01-15 19:34:10 GMT 52.424332 8.929596 22,450 173 247 1216
2019-01-15 19:34:07 GMT 52.427032 8.929062 22,375 173 241 1856
2019-01-15 19:34:04 GMT 52.432343 8.928040 22,300 172 244 1280
2019-01-15 19:34:01 GMT 52.434677 8.927536 22,225 172 243 1344
2019-01-15 19:33:58 GMT 52.438396 8.926784 22,200 172 242 1536
2019-01-15 19:33:52 GMT 52.444702 8.925552 22,050 172 241 1792
2019-01-15 19:33:49 GMT 52.448547 8.924713 21,625 173 240 1728
2019-01-15 19:33:43 GMT 52.455322 8.923416 21,650 173 240 1792
2019-01-15 19:33:40 GMT 52.457764 8.922939 21,650 173 240 1792
2019-01-15 19:33:37 GMT 52.461624 8.922154 21,575 173 240 1792
2019-01-15 19:33:32 GMT 52.466125 8.921204 21,375 173 240 1856
2019-01-15 19:33:29 GMT 52.471207 8.920212 21,325 173 240 1856
2019-01-15 19:33:26 GMT 52.473404 8.919754 21,250 173 240 1728
2019-01-15 19:33:21 GMT 52.478714 8.918762 21,050 173 239 1664
2019-01-15 19:33:18 GMT 52.485168 8.917465 20,950 173 238 1728
2019-01-15 19:33:10 GMT 52.491745 8.916112 20,700 172 237 2176
2019-01-15 19:33:06 GMT 52.495003 8.915484 20,650 172 237 2240
2019-01-15 19:33:03 GMT 52.498489 8.914719 20,525 172 237 2176
2019-01-15 19:33:00 GMT 52.501877 8.914032 20,300 172 239 1984
2019-01-15 19:32:57 GMT 52.506042 8.913193 20,275 172 239 1984
2019-01-15 19:32:54 GMT 52.508316 8.912737 20,175 172 228 1600
2019-01-15 19:32:50 GMT 52.512817 8.911819 20,050 173 238 1600
2019-01-15 19:32:47 GMT 52.516113 8.911133 19,925 172 237 1600
2019-01-15 19:32:44 GMT 52.519180 8.910522 19,925 172 237 1536
2019-01-15 19:32:39 GMT 52.525040 8.909378 19,775 172 235 1600
2019-01-15 19:32:36 GMT 52.528149 8.908735 19,675 172 235 1600
2019-01-15 19:32:33 GMT 52.530987 8.908107 19,600 172 235 1600
2019-01-15 19:32:30 GMT 52.535202 8.907318 19,525 172 235 1600
2019-01-15 19:32:27 GMT 52.537876 8.906773 19,450 172 235 1536
2019-01-15 19:32:24 GMT 52.541229 8.906067 19,325 172 235 1536
2019-01-15 19:32:21 GMT 52.544998 8.905282 19,075 172 234 1536
2019-01-15 19:32:17 GMT 52.548660 8.904572 19,225 172 235 1536
2019-01-15 19:32:14 GMT 52.551285 8.904027 19,125 172 234 1536
2019-01-15 19:32:11 GMT 52.555569 8.903163 18,725 172 226 1536
2019-01-15 19:32:08 GMT 52.558273 8.902664 18,950 172 234 1600
2019-01-15 19:32:05 GMT 52.561386 8.901986 18,875 172 233 1536
2019-01-15 19:32:02 GMT 52.564693 8.901358 18,775 172 233 1600
2019-01-15 19:31:58 GMT 52.568985 8.900452 18,700 172 233 1536
2019-01-15 19:31:54 GMT 52.572830 8.899689 18,525 172 232 1536
2019-01-15 19:31:51 GMT 52.576492 8.898926 18,500 172 232 1536
2019-01-15 19:31:47 GMT 52.580334 8.898141 18,400 172 231 1344
2019-01-15 19:31:44 GMT 52.584549 8.897324 18,275 173 230 1472
2019-01-15 19:31:41 GMT 52.586666 8.896885 18,025 172 227 1536
2019-01-15 19:31:37 GMT 52.590809 8.896022 18,175 172 229 1600
2019-01-15 19:31:34 GMT 52.594803 8.895187 18,050 172 228 1536
2019-01-15 19:31:31 GMT 52.598118 8.894531 17,925 172 227 1472
2019-01-15 19:31:27 GMT 52.602219 8.893661 17,825 172 226 1536
2019-01-15 19:31:24 GMT 52.606075 8.892883 17,775 172 226 1536
2019-01-15 19:31:21 GMT 52.612083 8.891706 17,725 172 225 1600
2019-01-15 19:31:18 GMT 52.612083 8.891706 17,650 173 225 1536
2019-01-15 19:31:15 GMT 52.614735 8.891157 17,550 172 224 1664
2019-01-15 19:31:12 GMT 52.617737 8.890533 17,425 173 223 1664
2019-01-15 19:31:09 GMT 52.623459 8.889389 17,375 173 223 1664
2019-01-15 19:31:06 GMT 52.623459 8.889389 17,325 172 222 1664
2019-01-15 19:31:03 GMT 52.626938 8.888702 17,225 173 222 1664
2019-01-15 19:31:00 GMT 52.629074 8.888253 17,125 173 221 1728
2019-01-15 19:30:57 GMT 52.632843 8.887482 17,000 172 220 1920
2019-01-15 19:30:54 GMT 52.635777 8.886841 16,925 172 220 1856
2019-01-15 19:30:51 GMT 52.639828 8.886056 16,850 172 220 1920
2019-01-15 19:30:48 GMT 52.642365 8.885498 16,725 172 220 1792
2019-01-15 19:30:45 GMT 52.644390 8.885114 16,700 172 220 1728
2019-01-15 19:30:42 GMT 52.648441 8.884251 16,600 172 220 1664
2019-01-15 19:30:39 GMT 52.650650 8.883820 16,525 172 219 1664
2019-01-15 19:30:36 GMT 52.654678 8.882996 16,400 172 218 1728
2019-01-15 19:30:33 GMT 52.656876 8.882599 16,350 172 218 1792
2019-01-15 19:30:30 GMT 52.660542 8.881818 16,050 172 217 1856
2019-01-15 19:30:26 GMT 52.663570 8.881191 16,150 172 217 1920
2019-01-15 19:30:23 GMT 52.666737 8.880563 15,925 173 216 1664
2019-01-15 19:30:17 GMT 52.673492 8.879242 15,825 173 215 1728
2019-01-15 19:30:14 GMT 52.675858 8.878758 15,800 173 214 1728
2019-01-15 19:30:11 GMT 52.678802 8.878174 15,675 173 213 1728
2019-01-15 19:30:08 GMT 52.684658 8.876953 15,600 172 210 1984
2019-01-15 19:30:05 GMT 52.684658 8.876953 15,525 172 211 1984
2019-01-15 19:30:02 GMT 52.687592 8.876404 15,400 172 211 2048
2019-01-15 19:29:59 GMT 52.694824 8.874969 15,275 173 210 1728
2019-01-15 19:29:55 GMT 52.694824 8.874969 15,200 173 210 1728
2019-01-15 19:29:52 GMT 52.696747 8.874588 15,100 172 209 1728
2019-01-15 19:29:49 GMT 52.699631 8.873978 15,025 172 208 1792
2019-01-15 19:29:46 GMT 52.703930 8.873108 14,875 172 206 2048
2019-01-15 19:29:43 GMT 52.705837 8.872716 14,775 172 206 2112
2019-01-15 19:29:40 GMT 52.709236 8.872009 14,700 172 205 2176
2019-01-15 19:29:35 GMT 52.714310 8.870989 14,425 172 206 2304
2019-01-15 19:29:32 GMT 52.716202 8.870544 14,400 172 206 2176
2019-01-15 19:29:29 GMT 52.718948 8.870010 14,300 173 206 1984
2019-01-15 19:29:26 GMT 52.721603 8.869476 14,100 173 206 1792
2019-01-15 19:29:23 GMT 52.725716 8.868635 14,075 173 206 1792
2019-01-15 19:29:20 GMT 52.727112 8.868321 14,025 172 204 2112
2019-01-15 19:29:17 GMT 52.729935 8.867798 13,900 172 204 1792
2019-01-15 19:29:14 GMT 52.733398 8.867065 13,825 172 203 1920
2019-01-15 19:29:11 GMT 52.735657 8.866577 13,800 172 203 1856
2019-01-15 19:29:08 GMT 52.741196 8.865433 13,600 172 202 2048
2019-01-15 19:29:05 GMT 52.741196 8.865433 13,550 172 202 2048
2019-01-15 19:29:01 GMT 52.747688 8.864162 13,375 172 202 2240
2019-01-15 19:28:54 GMT 52.753834 8.862906 13,125 172 203 2048
2019-01-15 19:28:51 GMT 52.753834 8.862906 12,975 172 203 1920
2019-01-15 19:28:48 GMT 52.757092 8.862200 12,950 172 203 1856
2019-01-15 19:28:45 GMT 52.759918 8.861618 12,875 172 203 1856
2019-01-15 19:28:42 GMT 52.762493 8.861101 12,800 172 202 1856
2019-01-15 19:28:39 GMT 52.765659 8.860474 12,600 172 200 2240
2019-01-15 19:28:36 GMT 52.768158 8.859940 12,575 172 200 2368
2019-01-15 19:28:33 GMT 52.770824 8.859375 12,225 172 204 1920
2019-01-15 19:28:30 GMT 52.773651 8.858795 12,400 172 201 2368
2019-01-15 19:28:27 GMT 52.779343 8.857649 12,100 172 202 2304
2019-01-15 19:28:20 GMT 52.783070 8.856864 11,950 172 203 2240
2019-01-15 19:28:17 GMT 52.786514 8.856125 11,800 172 204 2048
2019-01-15 19:28:13 GMT 52.790379 8.855373 11,650 172 203 1920
2019-01-15 19:28:10 GMT 52.792427 8.854980 11,575 172 203 1920
2019-01-15 19:28:07 GMT 52.795963 8.854196 11,500 172 203 1920
2019-01-15 19:28:04 GMT 52.797920 8.853803 11,400 172 202 1984
2019-01-15 19:28:01 GMT 52.801804 8.852997 11,300 172 201 2112
2019-01-15 19:27:58 GMT 52.804550 8.852463 11,225 172 201 2112
2019-01-15 19:27:55 GMT 52.806950 8.851920 11,025 172 200 2048
2019-01-15 19:27:52 GMT 52.809723 8.851395 10,950 173 201 1920
2019-01-15 19:27:49 GMT 52.811737 8.851013 10,850 173 201 1792
2019-01-15 19:27:46 GMT 52.814163 8.850479 10,600 173 199 1664
2019-01-15 19:27:43 GMT 52.817562 8.849801 10,675 173 200 1600
2019-01-15 19:27:39 GMT 52.821671 8.849030 10,500 173 198 1792
2019-01-15 19:27:36 GMT 52.823685 8.848572 10,475 173 198 1792
2019-01-15 19:27:33 GMT 52.826111 8.848114 10,425 172 195 1920
2019-01-15 19:27:29 GMT 52.830647 8.847212 10,250 172 196 1856
2019-01-15 19:27:26 GMT 52.832703 8.846741 10,150 172 195 1920
2019-01-15 19:27:23 GMT 52.836372 8.846034 10,050 172 194 2048
2019-01-15 19:27:20 GMT 52.838837 8.845564 9,925 173 194 2112
2019-01-15 19:27:16 GMT 52.844467 8.844376 9,775 173 194 2112
2019-01-15 19:27:10 GMT 52.847168 8.843918 9,575 173 194 1984
2019-01-15 19:27:07 GMT 52.849918 8.843366 9,525 173 194 1920
2019-01-15 19:27:04 GMT 52.852661 8.842773 9,425 173 193 1792
2019-01-15 19:27:01 GMT 52.855412 8.842268 9,275 173 192 1920
2019-01-15 19:26:58 GMT 52.857651 8.841782 9,275 173 192 1920
2019-01-15 19:26:55 GMT 52.860344 8.841248 9,125 173 191 2176
2019-01-15 19:26:52 GMT 52.862625 8.840777 9,050 172 190 2368
2019-01-15 19:26:49 GMT 52.866302 8.839992 8,825 172 191 2688
2019-01-15 19:26:46 GMT 52.868073 8.839678 8,700 172 192 2688
2019-01-15 19:26:43 GMT 52.871521 8.838959 8,675 172 193 2688
2019-01-15 19:26:40 GMT 52.873672 8.838501 8,525 172 195 2688
2019-01-15 19:26:37 GMT 52.876453 8.837952 8,300 172 198 2496
2019-01-15 19:26:34 GMT 52.879337 8.837324 8,225 172 199 2368
2019-01-15 19:26:30 GMT 52.883202 8.836539 8,050 172 200 1728
2019-01-15 19:26:26 GMT 52.886414 8.835833 7,975 172 200 1472
2019-01-15 19:26:21 GMT 52.890793 8.834839 7,875 172 197 1344
2019-01-15 19:26:17 GMT 52.895351 8.833793 7,750 171 196 1408
2019-01-15 19:26:13 GMT 52.900452 8.832474 7,600 169 195 1728
2019-01-15 19:26:07 GMT 52.903358 8.831595 7,475 169 194 1728
2019-01-15 19:26:04 GMT 52.906898 8.830497 7,375 167 195 1728
2019-01-15 19:26:01 GMT 52.909103 8.829651 7,325 167 196 1664
2019-01-15 19:25:55 GMT 52.913544 8.827896 7,050 162 196 1600
2019-01-15 19:25:52 GMT 52.916626 8.826573 7,050 163 196 1408
2019-01-15 19:25:49 GMT 52.920303 8.824768 7,000 161 196 1664
2019-01-15 19:25:46 GMT 52.922104 8.823853 6,950 162 196 1600
2019-01-15 19:25:41 GMT 52.926086 8.821640 6,825 155 199 1728
2019-01-15 19:25:38 GMT 52.928604 8.819885 6,750 155 198 1664
2019-01-15 19:25:35 GMT 52.933571 8.815430 6,575 147 202 1728
2019-01-15 19:25:32 GMT 52.933571 8.815430 6,525 143 203 1600
2019-01-15 19:25:29 GMT 52.935993 8.812526 6,475 142 203 1600
2019-01-15 19:25:26 GMT 52.937901 8.809937 6,225 134 205 1664
2019-01-15 19:25:23 GMT 52.939995 8.806562 6,325 132 205 1664
2019-01-15 19:25:20 GMT 52.942604 8.801932 6,200 132 205 1664
2019-01-15 19:25:17 GMT 52.943848 8.799744 6,125 132 205 1664
2019-01-15 19:25:14 GMT 52.945908 8.796047 6,050 132 205 1536
2019-01-15 19:25:11 GMT 52.948563 8.791199 5,950 132 204 1536
2019-01-15 19:25:07 GMT 52.950237 8.788199 5,875 132 203 1536
2019-01-15 19:25:04 GMT 52.951950 8.785095 5,800 132 202 1472
2019-01-15 19:25:00 GMT 52.955521 8.778763 5,650 132 200 1472
2019-01-15 19:24:57 GMT 52.956894 8.776245 5,625 132 199 1472
2019-01-15 19:24:54 GMT 52.958496 8.773346 5,550 132 199 1472
2019-01-15 19:24:48 GMT 52.962753 8.765564 5,350 131 197 1792
2019-01-15 19:24:45 GMT 52.964016 8.763402 5,250 132 196 1792
2019-01-15 19:24:42 GMT 52.965832 8.760027 5,200 131 196 1792
2019-01-15 19:24:39 GMT 52.968021 8.755947 5,125 131 196 1792
2019-01-15 19:24:36 GMT 52.969345 8.753510 5,050 131 196 1792
2019-01-15 19:24:33 GMT 52.971420 8.749669 4,925 131 196 1792
2019-01-15 19:24:30 GMT 52.973694 8.745346 4,750 134 195 1856
2019-01-15 19:24:26 GMT 52.975655 8.741978 4,675 172 173 0
2019-01-15 19:24:23 GMT 52.977566 8.739153 4,625 141 192 1792
2019-01-15 19:24:20 GMT 52.980515 8.735657 4,475 151 187 1792
2019-01-15 19:24:17 GMT 52.982594 8.733738 4,300 154 186 1792
2019-01-15 19:24:12 GMT 52.985523 8.731541 4,300 158 183 1792
2019-01-15 19:24:07 GMT 52.990646 8.729109 4,100 169 175 1792
2019-01-15 19:24:03 GMT 52.993103 8.728485 4,025 175 171 1792
2019-01-15 19:23:58 GMT 52.998093 8.728167 3,825 183 167 1792
2019-01-15 19:23:55 GMT 52.999443 8.728324 3,775 185 165 1792
2019-01-15 19:23:52 GMT 53.001259 8.728638 3,700 189 162 1792
2019-01-15 19:23:48 GMT 53.004192 8.729579 3,575 194 158 1792
2019-01-15 19:23:45 GMT 53.006332 8.730521 3,300 200 152 1792
2019-01-15 19:23:42 GMT 53.008427 8.731698 3,375 200 153 1792
2019-01-15 19:23:38 GMT 53.011276 8.733444 3,200 200 152 1728
2019-01-15 19:23:35 GMT 53.013363 8.734680 3,150 201 151 1728
2019-01-15 19:23:32 GMT 53.015457 8.735936 3,075 201 150 1792
2019-01-15 19:23:28 GMT 53.017960 8.737488 2,900 201 148 1728
2019-01-15 19:23:25 GMT 53.019882 8.738708 2,900 201 148 1728
2019-01-15 19:23:22 GMT 53.021744 8.739859 2,775 201 146 1856
2019-01-15 19:23:15 GMT 53.026657 8.742905 2,550 201 143 1728
2019-01-15 19:23:11 GMT 53.028259 8.743896 2,475 200 143 1792
2019-01-15 19:23:07 GMT 53.030960 8.745499 2,350 200 143 1856
2019-01-15 19:23:03 GMT 53.037430 8.749276 1,975 202 138 1792
2019-01-15 19:22:57 GMT 53.037430 8.749276 1,975 207 135 1792
2019-01-15 19:22:54 GMT 53.039524 8.750846 1,900 210 133 1856
2019-01-15 19:22:50 GMT 53.040920 8.752337 1,825 225 125 1728
2019-01-15 19:22:47 GMT 53.042587 8.754730 1,700 226 124 1856
We lost coverage of the aircraft here for a total of 38 minutes
2019-01-15 18:44:40 GMT 53.047714 8.826828 450 268 88 -448
2019-01-15 18:44:36 GMT 53.047806 8.829498 475 267 88 -512
2019-01-15 18:44:28 GMT 53.047997 8.835048 550 268 87 -512
2019-01-15 18:44:17 GMT 53.048138 8.842032 625 269 86 -448
2019-01-15 18:44:08 GMT 53.048264 8.848724 700 268 86 -448
2019-01-15 18:44:02 GMT 53.048370 8.852391 750 268 85 -448
2019-01-15 18:43:54 GMT 53.048462 8.857492 825 269 86 -640
2019-01-15 18:43:46 GMT 53.048584 8.862686 875 269 89 -640
2019-01-15 18:43:37 GMT 53.048740 8.869577 1,000 269 91 -704
2019-01-15 18:43:26 GMT 53.048904 8.876572 1,100 269 91 -128
2019-01-15 18:43:20 GMT 53.048996 8.881683 1,100 267 92 -384
2019-01-15 18:43:15 GMT 53.049088 8.884201 1,125 267 92 -576
2019-01-15 18:43:09 GMT 53.049160 8.888489 1,175 269 97 -512
2019-01-15 18:43:05 GMT 53.049210 8.891942 1,225 268 99 -640
2019-01-15 18:42:59 GMT 53.049362 8.896179 1,275 267 101 -640
2019-01-15 18:42:55 GMT 53.049454 8.899765 1,325 268 102 -576
2019-01-15 18:42:50 GMT 53.049500 8.904419 1,375 268 104 -576
2019-01-15 18:42:45 GMT 53.049591 8.907547 1,425 268 104 -512
2019-01-15 18:42:39 GMT 53.049683 8.912430 1,475 269 105 -576
2019-01-15 18:42:33 GMT 53.049767 8.917681 1,550 268 106 -640
2019-01-15 18:42:28 GMT 53.049866 8.920898 1,575 268 107 -576
2019-01-15 18:42:23 GMT 53.049953 8.924901 1,650 268 109 -640
2019-01-15 18:42:18 GMT 53.050095 8.929520 1,675 268 111 -576
2019-01-15 18:42:14 GMT 53.050140 8.934021 1,750 269 112 -704
2019-01-15 18:42:08 GMT 53.050232 8.938217 1,800 268 111 -704
2019-01-15 18:42:03 GMT 53.050323 8.942413 1,875 268 110 -576
2019-01-15 18:41:58 GMT 53.050465 8.947109 1,925 267 109 -640
2019-01-15 18:41:53 GMT 53.050598 8.950958 1,975 268 108 -704
2019-01-15 18:41:47 GMT 53.050697 8.955898 2,025 269 105 -640
2019-01-15 18:41:42 GMT 53.050735 8.959656 2,075 269 103 -640
2019-01-15 18:41:36 GMT 53.050838 8.964137 2,125 269 101 -448
2019-01-15 18:41:31 GMT 53.050873 8.968353 2,175 269 99 -512
2019-01-15 18:41:26 GMT 53.050919 8.972015 2,225 268 97 -320
2019-01-15 18:41:20 GMT 53.051071 8.975909 2,225 268 132 -960
2019-01-15 18:41:16 GMT 53.051208 8.980068 2,275 268 96 -448
2019-01-15 18:41:08 GMT 53.051350 8.985561 2,350 268 104 -448
2019-01-15 18:41:05 GMT 53.051422 8.987656 2,350 269 106 -448
2019-01-15 18:41:02 GMT 53.051468 8.990479 2,400 269 110 -512
2019-01-15 18:40:57 GMT 53.051514 8.996811 2,550 268 132 -960
2019-01-15 18:40:48 GMT 53.051628 9.003610 2,575 267 132 -960
2019-01-15 18:40:45 GMT 53.051743 9.006577 2,625 266 139 -1024
2019-01-15 18:40:42 GMT 53.051861 9.010280 2,700 268 143 -1024
2019-01-15 18:40:37 GMT 53.052017 9.018936 2,800 269 146 -1152
2019-01-15 18:40:33 GMT 53.052063 9.022141 2,875 269 146 -1088
2019-01-15 18:40:30 GMT 53.052063 9.022141 2,900 269 146 -1088
2019-01-15 18:40:27 GMT 53.052155 9.029617 3,000 269 145 -704
2019-01-15 18:40:24 GMT 53.052235 9.032881 3,025 269 144 -704
2019-01-15 18:40:21 GMT 53.052235 9.032881 3,025 268 142 -448
2019-01-15 18:40:17 GMT 53.052326 9.038688 3,075 268 141 -256
2019-01-15 18:40:13 GMT 53.052422 9.042376 3,100 268 141 0
2019-01-15 18:40:07 GMT 53.052559 9.048026 3,100 269 140 0
2019-01-15 18:40:03 GMT 53.052605 9.052656 3,100 269 140 0
2019-01-15 18:40:00 GMT 53.052700 9.055716 3,100 268 141 0
2019-01-15 18:39:56 GMT 53.052795 9.060669 3,100 268 141 0
2019-01-15 18:39:53 GMT 53.052837 9.063878 3,100 268 141 0
2019-01-15 18:39:50 GMT 53.052887 9.066162 3,100 268 141 0
2019-01-15 18:39:47 GMT 53.052979 9.069824 3,100 268 141 0
2019-01-15 18:39:43 GMT 53.053116 9.074631 3,100 268 142 0
2019-01-15 18:39:40 GMT 53.053207 9.078522 3,075 268 143 0
2019-01-15 18:39:35 GMT 53.053299 9.083099 3,100 269 143 0
2019-01-15 18:39:32 GMT 53.053352 9.085850 3,100 269 143 0
2019-01-15 18:39:29 GMT 53.053398 9.089225 3,075 269 143 -64
2019-01-15 18:39:25 GMT 53.053482 9.094086 3,100 269 143 64
2019-01-15 18:39:22 GMT 53.053535 9.097464 3,100 269 143 0
2019-01-15 18:39:19 GMT 53.053535 9.100289 3,075 269 143 0
2019-01-15 18:39:15 GMT 53.053631 9.105155 3,100 269 144 0
2019-01-15 18:39:11 GMT 53.053665 9.109039 3,075 269 144 0
2019-01-15 18:39:08 GMT 53.053722 9.112453 3,100 268 144 0
2019-01-15 18:39:01 GMT 53.053909 9.120379 3,075 268 145 0
2019-01-15 18:38:57 GMT 53.053986 9.124298 3,100 268 145 0
2019-01-15 18:38:53 GMT 53.054096 9.128383 3,075 268 145 0
2019-01-15 18:38:50 GMT 53.054188 9.131993 3,075 268 146 0
2019-01-15 18:38:47 GMT 53.054306 9.134979 3,075 267 146 0
2019-01-15 18:38:44 GMT 53.054443 9.139862 3,075 267 147 0
2019-01-15 18:38:40 GMT 53.054626 9.143677 3,075 267 147 0
2019-01-15 18:38:33 GMT 53.054855 9.151459 3,100 271 148 -64
2019-01-15 18:38:30 GMT 53.054981 9.155457 3,100 269 148 0
2019-01-15 18:38:22 GMT 53.055027 9.167385 3,100 271 148 -64
2019-01-15 18:38:19 GMT 53.055027 9.167385 3,100 271 147 0
2019-01-15 18:38:16 GMT 53.054981 9.171151 3,100 272 143 -64
2019-01-15 18:38:13 GMT 53.054840 9.179077 3,100 272 140 0
2019-01-15 18:38:08 GMT 53.054840 9.179077 3,100 272 140 0
2019-01-15 18:38:05 GMT 53.054810 9.182968 3,100 271 134 0
2019-01-15 18:38:01 GMT 53.054794 9.186925 3,100 268 131 64
2019-01-15 18:37:58 GMT 53.054794 9.189436 3,100 269 132 0
2019-01-15 18:37:51 GMT 53.055084 9.196320 3,075 263 130 128
2019-01-15 18:37:48 GMT 53.055351 9.199873 3,125 262 132 0
2019-01-15 18:37:41 GMT 53.056091 9.207382 3,075 260 147 -256
2019-01-15 18:37:37 GMT 53.056469 9.210859 3,100 261 152 -384
2019-01-15 18:37:34 GMT 53.056915 9.215469 3,125 262 158 -896
2019-01-15 18:37:29 GMT 53.057602 9.224548 3,300 265 165 -1984
2019-01-15 18:37:20 GMT 53.058060 9.233704 3,475 266 166 -2048
2019-01-15 18:37:17 GMT 53.058193 9.236598 3,550 267 166 -2048
2019-01-15 18:37:09 GMT 53.058331 9.245858 3,850 272 158 -2112
2019-01-15 18:37:06 GMT 53.058285 9.249468 3,950 274 155 -1856
2019-01-15 18:37:01 GMT 53.057865 9.256531 4,100 278 151 -960
2019-01-15 18:36:58 GMT 53.057648 9.258881 4,150 280 150 -576
2019-01-15 18:36:55 GMT 53.057308 9.261945 4,150 283 148 192
2019-01-15 18:36:51 GMT 53.056469 9.267360 4,125 288 142 384
2019-01-15 18:36:48 GMT 53.055958 9.270028 4,100 291 140 192
2019-01-15 18:36:45 GMT 53.055164 9.272932 4,100 296 136 128
2019-01-15 18:36:38 GMT 53.052887 9.279175 4,100 307 133 0
2019-01-15 18:36:34 GMT 53.051674 9.281956 4,100 306 134 0
2019-01-15 18:36:30 GMT 53.049114 9.287920 4,075 306 133 0
2019-01-15 18:36:24 GMT 53.047989 9.290543 4,075 306 134 0
2019-01-15 18:36:20 GMT 53.046459 9.294198 4,075 306 134 192
2019-01-15 18:36:17 GMT 53.045197 9.297180 4,075 306 136 128
2019-01-15 18:36:13 GMT 53.043995 9.299927 4,075 306 135 192
2019-01-15 18:36:10 GMT 53.042645 9.303223 4,050 306 138 0
2019-01-15 18:36:06 GMT 53.041435 9.305891 4,075 306 143 -64
2019-01-15 18:36:03 GMT 53.040318 9.308559 4,075 306 148 -128
2019-01-15 18:35:59 GMT 53.038406 9.312953 4,075 306 157 -64
2019-01-15 18:35:56 GMT 53.037369 9.315414 4,100 306 162 -64
2019-01-15 18:35:53 GMT 53.035938 9.318604 4,100 310 171 -640
2019-01-15 18:35:49 GMT 53.033615 9.322586 4,175 322 184 -1408
2019-01-15 18:35:46 GMT 53.031612 9.325038 4,300 338 198 -2112
2019-01-15 18:35:43 GMT 53.021648 9.330218 4,475 347 206 -2432
2019-01-15 18:35:36 GMT 53.021648 9.330218 4,650 357 217 -3200
2019-01-15 18:35:32 GMT 53.018810 9.330218 4,800 5 223 -3520
2019-01-15 18:35:29 GMT 53.011322 9.328079 5,150 12 230 -3584
2019-01-15 18:35:25 GMT 53.011322 9.328079 5,400 12 231 -3584
2019-01-15 18:35:22 GMT 53.008148 9.326922 5,425 12 233 -3392
2019-01-15 18:35:18 GMT 53.002945 9.324875 5,725 16 240 -3520
2019-01-15 18:35:14 GMT 53.000282 9.323469 5,850 20 246 -3520
2019-01-15 18:35:11 GMT 52.995987 9.320374 6,100 29 254 -3456
2019-01-15 18:35:08 GMT 52.993744 9.318314 6,325 36 262 -3520
2019-01-15 18:35:05 GMT 52.989807 9.313738 6,475 39 264 -3584
2019-01-15 18:35:01 GMT 52.986919 9.309501 6,850 47 272 -3392
2019-01-15 18:34:58 GMT 52.984360 9.304886 6,950 51 277 -3456
2019-01-15 18:34:54 GMT 52.981064 9.297562 7,000 55 280 -3520
2019-01-15 18:34:51 GMT 52.978542 9.290118 7,300 66 292 -3200
2019-01-15 18:34:47 GMT 52.976681 9.282898 7,575 70 296 -2496
2019-01-15 18:34:43 GMT 52.975113 9.275131 7,750 75 306 -1664
2019-01-15 18:34:39 GMT 52.973701 9.264927 7,800 83 324 -1472
2019-01-15 18:34:36 GMT 52.973186 9.258885 7,825 83 322 -1472
2019-01-15 18:34:33 GMT 52.972721 9.250959 7,925 84 327 -1536
2019-01-15 18:34:30 GMT 52.972256 9.242484 8,050 84 329 -2432
2019-01-15 18:34:27 GMT 52.972000 9.237213 8,125 84 329 -2176
2019-01-15 18:34:24 GMT 52.971512 9.228437 8,225 84 329 -2432
2019-01-15 18:34:21 GMT 52.971142 9.221139 8,275 85 328 -2560
2019-01-15 18:34:18 GMT 52.970764 9.214172 8,425 85 328 -2432
2019-01-15 18:34:15 GMT 52.970398 9.206390 8,575 85 326 -2496
2019-01-15 18:34:12 GMT 52.970020 9.199166 8,775 84 324 -2496
2019-01-15 18:34:09 GMT 52.969185 9.184099 8,925 84 324 -2496
2019-01-15 18:34:06 GMT 52.968533 9.171544 9,175 84 323 -2496
2019-01-15 18:34:02 GMT 52.968254 9.166600 9,250 84 321 -2496
2019-01-15 18:33:56 GMT 52.967789 9.158282 9,500 85 323 -2496
2019-01-15 18:33:53 GMT 52.967461 9.152161 9,500 85 322 -2496
2019-01-15 18:33:50 GMT 52.966919 9.141541 9,700 85 324 -2496
2019-01-15 18:33:47 GMT 52.966736 9.137115 9,700 85 324 -2496
2019-01-15 18:33:44 GMT 52.966003 9.122162 9,925 85 326 -2368
2019-01-15 18:33:38 GMT 52.965553 9.112453 10,175 85 327 -1984
2019-01-15 18:33:34 GMT 52.965229 9.106018 10,300 85 327 -1984
2019-01-15 18:33:31 GMT 52.964859 9.097748 10,325 85 328 -1984
2019-01-15 18:33:27 GMT 52.964310 9.086761 10,500 85 328 -1984
2019-01-15 18:33:24 GMT 52.963943 9.079208 10,575 85 329 -1920
2019-01-15 18:33:21 GMT 52.963623 9.072189 10,675 84 335 -1920
2019-01-15 18:33:18 GMT 52.963226 9.064348 10,850 85 332 -1664
2019-01-15 18:33:15 GMT 52.962753 9.055023 10,900 85 333 -1728
2019-01-15 18:33:11 GMT 52.961838 9.036713 11,050 85 334 -1792
2019-01-15 18:33:08 GMT 52.961838 9.036713 11,100 85 335 -1856
2019-01-15 18:33:05 GMT 52.961517 9.030075 11,175 85 335 -1920
2019-01-15 18:33:02 GMT 52.961132 9.022600 11,250 85 335 -1984
2019-01-15 18:32:59 GMT 52.960739 9.015732 11,375 84 335 -1920
2019-01-15 18:32:55 GMT 52.960201 9.005258 11,525 84 335 -1920
2019-01-15 18:32:52 GMT 52.959732 8.997269 11,575 84 335 -1920
2019-01-15 18:32:49 GMT 52.959457 8.992462 11,800 84 335 -1984
2019-01-15 18:32:46 GMT 52.958851 8.981716 11,750 84 335 -1984
2019-01-15 18:32:43 GMT 52.958450 8.974533 11,900 84 335 -1984
2019-01-15 18:32:39 GMT 52.957764 8.963547 12,025 84 334 -1984
2019-01-15 18:32:36 GMT 52.957443 8.957977 12,100 84 334 -1792
2019-01-15 18:32:33 GMT 52.956802 8.947754 12,225 84 334 -1472
2019-01-15 18:32:30 GMT 52.956383 8.940360 12,300 84 334 -1472
2019-01-15 18:32:27 GMT 52.955978 8.934021 12,375 84 335 -1472
2019-01-15 18:32:24 GMT 52.955566 8.927383 12,425 84 335 -1472
2019-01-15 18:32:21 GMT 52.955078 8.919407 12,475 84 335 -1472
2019-01-15 18:32:18 GMT 52.954567 8.911246 12,575 84 336 -1472
2019-01-15 18:32:14 GMT 52.953960 8.900966 12,675 84 336 -1472
2019-01-15 18:32:11 GMT 52.952984 8.885350 12,800 84 337 -1536
2019-01-15 18:32:08 GMT 52.952984 8.885350 12,825 84 337 -1472
2019-01-15 18:32:05 GMT 52.952408 8.876343 12,950 84 337 -1472
2019-01-15 18:32:02 GMT 52.952053 8.870126 12,975 84 337 -1472
2019-01-15 18:31:59 GMT 52.951584 8.862457 13,050 84 338 -1472
2019-01-15 18:31:55 GMT 52.950935 8.852391 13,175 84 338 -1472
2019-01-15 18:31:52 GMT 52.950302 8.842087 13,225 84 338 -1472
2019-01-15 18:31:48 GMT 52.949635 8.831752 13,325 84 338 -1472
2019-01-15 18:31:45 GMT 52.949306 8.826573 13,375 84 339 -1472
2019-01-15 18:31:42 GMT 52.948700 8.816528 13,475 84 339 -1472
2019-01-15 18:31:39 GMT 52.948242 8.809814 13,925 83 343 -1472
2019-01-15 18:31:36 GMT 52.947784 8.802032 13,625 84 340 -1472
2019-01-15 18:31:33 GMT 52.947327 8.794785 13,725 84 340 -1472
2019-01-15 18:31:30 GMT 52.946823 8.787003 13,775 84 341 -1472
2019-01-15 18:31:27 GMT 52.946468 8.780980 13,925 83 343 -1472
2019-01-15 18:31:23 GMT 52.945679 8.768768 14,375 84 342 -1472
2019-01-15 18:31:20 GMT 52.945267 8.761749 14,025 84 343 -1472
2019-01-15 18:31:17 GMT 52.944626 8.751526 14,100 83 343 -1472
2019-01-15 18:31:13 GMT 52.944187 8.744489 14,250 84 344 -1472
2019-01-15 18:31:09 GMT 52.943436 8.733215 14,275 84 344 -1472
2019-01-15 18:31:06 GMT 52.942932 8.725357 14,325 84 344 -1472
2019-01-15 18:31:03 GMT 52.942371 8.716160 14,450 84 345 -1536
2019-01-15 18:30:59 GMT 52.941628 8.704075 14,550 84 346 -1536
2019-01-15 18:30:55 GMT 52.941101 8.696136 14,650 84 346 -1472
2019-01-15 18:30:52 GMT 52.940697 8.689322 14,700 84 346 -1472
2019-01-15 18:30:49 GMT 52.939995 8.678728 14,800 84 346 -1472
2019-01-15 18:30:46 GMT 52.939499 8.670807 14,875 83 346 -1472
2019-01-15 18:30:43 GMT 52.938927 8.661307 14,975 83 346 -1536
2019-01-15 18:30:40 GMT 52.938629 8.656845 15,000 83 346 -1472
2019-01-15 18:30:37 GMT 52.938126 8.649445 15,075 83 346 -1536
2019-01-15 18:30:34 GMT 52.937485 8.639450 15,175 83 346 -1472
2019-01-15 18:30:30 GMT 52.936935 8.630676 15,275 83 347 -1536
2019-01-15 18:30:27 GMT 52.936386 8.621979 15,325 83 347 -1472
2019-01-15 18:30:23 GMT 52.935715 8.611633 15,875 83 348 -1472
2019-01-15 18:30:20 GMT 52.935200 8.603707 15,500 83 348 -1472
2019-01-15 18:30:17 GMT 52.934502 8.592564 15,575 83 348 -1472
2019-01-15 18:30:14 GMT 52.933990 8.584560 15,625 83 348 -1536
2019-01-15 18:30:11 GMT 52.933201 8.572396 15,750 83 349 -1472
2019-01-15 18:30:08 GMT 52.933201 8.572396 15,825 83 349 -1472
2019-01-15 18:30:05 GMT 52.932690 8.564392 15,900 83 349 -1536
2019-01-15 18:30:01 GMT 52.931305 8.543396 16,025 83 350 -1472
2019-01-15 18:29:58 GMT 52.931305 8.543396 16,050 83 351 -1536
2019-01-15 18:29:55 GMT 52.930847 8.536453 16,175 83 351 -1536
2019-01-15 18:29:52 GMT 52.930454 8.530334 16,200 83 351 -1536
2019-01-15 18:29:49 GMT 52.929749 8.519363 16,275 83 351 -1536
2019-01-15 18:29:46 GMT 52.929291 8.512192 16,325 83 351 -1472
2019-01-15 18:29:43 GMT 52.928917 8.506321 16,450 83 351 -1472
2019-01-15 18:29:40 GMT 52.928238 8.496475 16,500 83 352 -1472
2019-01-15 18:29:37 GMT 52.927826 8.490067 16,550 83 352 -1472
2019-01-15 18:29:34 GMT 52.927288 8.481210 16,650 83 352 -1472
2019-01-15 18:29:31 GMT 52.926727 8.472656 16,875 83 354 -1472
2019-01-15 18:29:28 GMT 52.926086 8.463287 16,800 83 352 -1472
2019-01-15 18:29:24 GMT 52.925537 8.454742 16,900 83 352 -1472
2019-01-15 18:29:21 GMT 52.924942 8.445663 16,950 83 352 -1472
2019-01-15 18:29:18 GMT 52.924496 8.438363 17,050 83 353 -1472
2019-01-15 18:29:15 GMT 52.923935 8.430099 17,125 83 353 -1472
2019-01-15 18:29:12 GMT 52.923294 8.420410 17,250 83 353 -1472
2019-01-15 18:29:08 GMT 52.922150 8.402710 17,375 83 354 -1472
2019-01-15 18:29:04 GMT 52.922150 8.402710 17,400 83 355 -1472
2019-01-15 18:29:01 GMT 52.921463 8.392487 17,450 83 354 -1472
2019-01-15 18:28:58 GMT 52.920258 8.374407 17,625 83 355 -1472
2019-01-15 18:28:54 GMT 52.920258 8.374407 17,700 83 355 -1472
2019-01-15 18:28:51 GMT 52.919605 8.364205 17,725 83 355 -1472
2019-01-15 18:28:47 GMT 52.918991 8.355026 17,800 83 356 -1472
2019-01-15 18:28:44 GMT 52.918488 8.347412 17,925 83 356 -1472
2019-01-15 18:28:41 GMT 52.917343 8.329849 17,975 83 356 -1472
2019-01-15 18:28:35 GMT 52.916702 8.320618 18,125 83 356 -1472
2019-01-15 18:28:32 GMT 52.916302 8.314375 18,200 83 357 -1472
2019-01-15 18:28:29 GMT 52.915695 8.305193 18,225 83 357 -1472
2019-01-15 18:28:26 GMT 52.915184 8.297346 18,775 83 357 -1472
2019-01-15 18:28:23 GMT 52.914810 8.291617 18,425 83 357 -1472
2019-01-15 18:28:20 GMT 52.913956 8.279114 18,500 83 357 -1472
2019-01-15 18:28:17 GMT 52.913498 8.272095 18,625 83 357 -1408
2019-01-15 18:28:14 GMT 52.913040 8.265305 18,625 83 357 -1408
2019-01-15 18:28:11 GMT 52.912628 8.259354 18,875 83 358 -1472
2019-01-15 18:28:08 GMT 52.911926 8.248771 18,775 83 358 -1472
2019-01-15 18:28:05 GMT 52.911228 8.237863 18,850 83 358 -1472
2019-01-15 18:28:02 GMT 52.910934 8.234100 18,925 83 358 -1472
2019-01-15 18:27:59 GMT 52.910248 8.223737 19,000 83 358 -1472
2019-01-15 18:27:56 GMT 52.908897 8.203570 19,175 83 358 -1472
2019-01-15 18:27:52 GMT 52.908897 8.203570 19,150 83 359 -1472
2019-01-15 18:27:49 GMT 52.908527 8.198155 19,375 83 359 -1472
2019-01-15 18:27:46 GMT 52.907829 8.187796 19,275 83 359 -1536
2019-01-15 18:27:43 GMT 52.907269 8.179321 19,400 83 359 -1472
2019-01-15 18:27:39 GMT 52.906219 8.163452 19,550 83 359 -1472
2019-01-15 18:27:33 GMT 52.905502 8.152797 19,650 83 359 -1536
2019-01-15 18:27:30 GMT 52.905037 8.145970 19,725 83 359 -1472
2019-01-15 18:27:27 GMT 52.904572 8.139143 19,750 83 359 -1472
2019-01-15 18:27:24 GMT 52.903885 8.129120 19,850 83 359 -1472
2019-01-15 18:27:21 GMT 52.903313 8.121172 20,000 83 359 -1472
2019-01-15 18:27:18 GMT 52.902100 8.103485 20,000 83 359 -1472
2019-01-15 18:27:15 GMT 52.902100 8.103485 20,125 83 359 -1472
2019-01-15 18:27:11 GMT 52.901550 8.095245 20,225 83 359 -1472
2019-01-15 18:27:08 GMT 52.900890 8.086251 20,200 83 359 -1472
2019-01-15 18:27:05 GMT 52.900223 8.076706 20,350 83 359 -1472
2019-01-15 18:27:02 GMT 52.899822 8.071027 20,400 83 359 -1472
2019-01-15 18:26:59 GMT 52.899261 8.062592 20,425 83 359 -1472
2019-01-15 18:26:56 GMT 52.898575 8.053055 20,500 83 359 -1472
2019-01-15 18:26:53 GMT 52.897961 8.043797 20,650 83 358 -1472
2019-01-15 18:26:50 GMT 52.897354 8.035086 20,700 83 358 -1536
2019-01-15 18:26:47 GMT 52.896698 8.026123 20,925 83 358 -1472
2019-01-15 18:26:44 GMT 52.896469 8.022308 20,850 83 358 -1472
2019-01-15 18:26:41 GMT 52.895584 8.010053 21,125 83 356 -1472
2019-01-15 18:26:38 GMT 52.895164 8.003540 20,975 83 358 -1472
2019-01-15 18:26:35 GMT 52.894684 7.997055 21,075 83 357 -1472
2019-01-15 18:26:32 GMT 52.894096 7.988316 21,075 83 357 -1536
2019-01-15 18:26:28 GMT 52.893444 7.978585 21,200 83 356 -1472
2019-01-15 18:26:24 GMT 52.892441 7.964249 21,325 83 356 -1408
2019-01-15 18:26:21 GMT 52.891861 7.955593 21,375 83 355 -1408
2019-01-15 18:26:18 GMT 52.891441 7.949942 21,550 83 355 -1472
2019-01-15 18:26:15 GMT 52.890091 7.930559 22,550 83 353 -1472
2019-01-15 18:26:12 GMT 52.890091 7.930559 21,625 83 349 -1536
2019-01-15 18:26:08 GMT 52.889557 7.922821 21,700 83 353 -1472
2019-01-15 18:26:04 GMT 52.888790 7.912354 21,850 83 351 -1472
2019-01-15 18:26:01 GMT 52.887589 7.895050 21,925 83 350 -1472
2019-01-15 18:25:58 GMT 52.887589 7.895050 22,150 83 348 -1472
2019-01-15 18:25:55 GMT 52.887066 7.887870 22,025 83 349 -1536
2019-01-15 18:25:52 GMT 52.886444 7.878571 22,050 83 349 -1472
2019-01-15 18:25:49 GMT 52.885941 7.871780 22,125 83 348 -1472
2019-01-15 18:25:46 GMT 52.885437 7.864641 22,225 83 346 -1472
2019-01-15 18:25:43 GMT 52.884739 7.855225 22,300 83 345 -1536
2019-01-15 18:25:40 GMT 52.884365 7.849967 22,400 83 344 -1408
2019-01-15 18:25:37 GMT 52.883667 7.840079 22,600 83 340 -1536
2019-01-15 18:25:33 GMT 52.882877 7.829171 22,575 83 341 -1472
2019-01-15 18:25:30 GMT 52.881851 7.814732 22,625 83 338 -1408
2019-01-15 18:25:27 GMT 52.881851 7.814732 22,725 83 337 -1408
2019-01-15 18:25:24 GMT 52.881088 7.804260 22,775 83 336 -1472
2019-01-15 18:25:21 GMT 52.880219 7.791824 23,000 83 331 -704
2019-01-15 18:25:18 GMT 52.880219 7.791824 22,925 83 330 -320
2019-01-15 18:25:14 GMT 52.879570 7.782479 23,000 83 330 -192
2019-01-15 18:25:11 GMT 52.878983 7.774277 23,000 83 330 0
2019-01-15 18:25:07 GMT 52.878296 7.764969 23,000 83 330 0
2019-01-15 18:25:04 GMT 52.877609 7.755203 23,000 83 330 0
2019-01-15 18:25:01 GMT 52.877151 7.748947 23,000 83 330 0
2019-01-15 18:24:57 GMT 52.876465 7.738953 23,000 83 330 0
2019-01-15 18:24:54 GMT 52.875961 7.731934 23,000 83 331 -64
2019-01-15 18:24:50 GMT 52.875320 7.723160 23,000 83 330 0
2019-01-15 18:24:47 GMT 52.874779 7.715855 23,000 83 330 0
2019-01-15 18:24:44 GMT 52.874039 7.705612 23,000 83 331 0
2019-01-15 18:24:40 GMT 52.873379 7.696315 23,000 83 331 0
2019-01-15 18:24:35 GMT 52.872028 7.677011 23,000 83 331 -64
2019-01-15 18:24:32 GMT 52.872028 7.677011 23,000 83 331 0
2019-01-15 18:24:29 GMT 52.871471 7.669713 23,000 83 331 0
2019-01-15 18:24:26 GMT 52.870926 7.661896 23,000 83 331 0
2019-01-15 18:24:23 GMT 52.870377 7.654114 23,000 83 331 -64
2019-01-15 18:24:19 GMT 52.869644 7.644348 23,000 83 331 0
2019-01-15 18:24:16 GMT 52.869095 7.636795 23,000 83 331 0
2019-01-15 18:24:13 GMT 52.868500 7.628021 23,000 83 331 0
2019-01-15 18:24:10 GMT 52.867981 7.621216 23,000 83 331 0
2019-01-15 18:24:07 GMT 52.867493 7.614136 23,000 83 331 0
2019-01-15 18:24:03 GMT 52.866806 7.604599 23,000 83 332 -64
2019-01-15 18:24:00 GMT 52.865753 7.590561 23,000 83 332 0
2019-01-15 18:23:54 GMT 52.865021 7.580490 23,000 83 332 0
2019-01-15 18:23:51 GMT 52.864563 7.573929 23,000 83 332 0
2019-01-15 18:23:48 GMT 52.864105 7.567902 23,000 83 332 0
2019-01-15 18:23:45 GMT 52.863464 7.558829 23,000 83 332 0
2019-01-15 18:23:42 GMT 52.862823 7.549820 23,000 83 332 -64
2019-01-15 18:23:39 GMT 52.862183 7.541199 23,000 83 332 0
2019-01-15 18:23:35 GMT 52.861557 7.532933 23,000 83 332 0
2019-01-15 18:23:30 GMT 52.860855 7.523117 23,000 83 332 0
2019-01-15 18:23:27 GMT 52.859600 7.506252 23,000 83 332 0
2019-01-15 18:23:24 GMT 52.859600 7.506252 23,000 83 332 64
2019-01-15 18:23:21 GMT 52.858994 7.497934 23,000 82 332 -64
2019-01-15 18:23:18 GMT 52.858292 7.488403 23,000 83 332 -64
2019-01-15 18:23:14 GMT 52.857643 7.480120 23,000 82 332 0
2019-01-15 18:23:11 GMT 52.857040 7.471566 23,000 82 332 0
2019-01-15 18:23:08 GMT 52.856735 7.467804 23,000 82 332 0
2019-01-15 18:23:05 GMT 52.855911 7.456741 23,000 82 332 0
2019-01-15 18:23:02 GMT 52.855637 7.452698 23,000 82 331 0
2019-01-15 18:22:59 GMT 52.854767 7.441177 23,000 82 331 0
2019-01-15 18:22:55 GMT 52.854198 7.433899 23,000 82 331 0
2019-01-15 18:22:51 GMT 52.853256 7.421036 23,000 82 331 0
2019-01-15 18:22:48 GMT 52.852852 7.415771 23,000 82 331 0
2019-01-15 18:22:45 GMT 52.852249 7.407532 23,000 82 331 0
2019-01-15 18:22:39 GMT 52.850510 7.384415 23,000 82 331 0
2019-01-15 18:22:36 GMT 52.850510 7.384415 23,000 82 330 64
2019-01-15 18:22:33 GMT 52.849869 7.375946 23,000 82 330 0
2019-01-15 18:22:30 GMT 52.849457 7.370377 23,000 82 331 -64
2019-01-15 18:22:27 GMT 52.848892 7.362645 23,000 82 331 0
2019-01-15 18:22:24 GMT 52.848404 7.356415 23,000 82 330 0
2019-01-15 18:22:20 GMT 52.847542 7.344596 23,000 82 331 0
2019-01-15 18:22:16 GMT 52.846756 7.334290 23,000 82 331 0
2019-01-15 18:22:13 GMT 52.846298 7.328033 23,000 82 331 0
2019-01-15 18:22:10 GMT 52.845680 7.319563 23,000 83 330 0
2019-01-15 18:22:07 GMT 52.845169 7.313049 23,000 82 330 0
2019-01-15 18:22:04 GMT 52.844650 7.305756 23,000 82 330 0
2019-01-15 18:22:01 GMT 52.843960 7.297041 23,000 82 330 0
2019-01-15 18:21:57 GMT 52.843140 7.285767 23,000 82 330 0
2019-01-15 18:21:54 GMT 52.842773 7.280731 23,000 82 330 0
2019-01-15 18:21:50 GMT 52.841820 7.268476 23,000 82 330 0
2019-01-15 18:21:47 GMT 52.841446 7.263184 23,000 82 330 0
2019-01-15 18:21:44 GMT 52.840652 7.252938 23,000 82 330 0
2019-01-15 18:21:41 GMT 52.839443 7.236930 23,000 82 330 0
2019-01-15 18:21:37 GMT 52.839443 7.236930 23,000 82 330 0
2019-01-15 18:21:34 GMT 52.838699 7.226885 23,000 82 330 0
2019-01-15 18:21:30 GMT 52.837955 7.216919 23,000 82 330 -64
2019-01-15 18:21:26 GMT 52.836884 7.202872 23,000 82 330 0
2019-01-15 18:21:19 GMT 52.835907 7.190170 23,000 82 330 0
2019-01-15 18:21:16 GMT 52.835266 7.182159 23,000 82 330 0
2019-01-15 18:21:13 GMT 52.834442 7.171173 23,000 82 330 0
2019-01-15 18:21:10 GMT 52.833755 7.162170 23,000 82 330 0
2019-01-15 18:21:07 GMT 52.833755 7.162170 23,000 82 330 0
2019-01-15 18:21:01 GMT 52.832657 7.148132 23,000 82 331 0
2019-01-15 18:20:58 GMT 52.832016 7.140121 23,000 82 330 0
2019-01-15 18:20:55 GMT 52.831345 7.131383 23,000 82 331 0
2019-01-15 18:20:52 GMT 52.831009 7.126617 23,000 82 331 0
2019-01-15 18:20:49 GMT 52.830227 7.116865 23,000 82 331 0
2019-01-15 18:20:46 GMT 52.829773 7.110596 23,000 82 331 0
2019-01-15 18:20:43 GMT 52.828968 7.100307 23,000 82 331 0
2019-01-15 18:20:40 GMT 52.828354 7.092514 23,000 82 331 0
2019-01-15 18:20:37 GMT 52.827850 7.085789 23,000 82 331 0
2019-01-15 18:20:34 GMT 52.827385 7.079511 23,000 82 332 0
2019-01-15 18:20:31 GMT 52.826782 7.072213 23,000 82 331 0
2019-01-15 18:20:27 GMT 52.826035 7.062169 23,000 82 331 0
2019-01-15 18:20:24 GMT 52.825336 7.053615 23,000 82 331 0
2019-01-15 18:20:21 GMT 52.824875 7.047651 23,000 82 331 0
2019-01-15 18:20:18 GMT 52.824314 7.040118 23,000 82 331 0
2019-01-15 18:20:15 GMT 52.823639 7.031860 23,000 82 331 0
2019-01-15 18:20:12 GMT 52.823090 7.024536 23,000 82 331 0
2019-01-15 18:20:09 GMT 52.822403 7.015762 23,000 82 331 0
2019-01-15 18:20:06 GMT 52.821716 7.007217 23,000 82 332 0
2019-01-15 18:20:03 GMT 52.820728 6.994681 23,000 82 333 0
2019-01-15 18:20:00 GMT 52.819984 6.985343 23,000 82 332 0
2019-01-15 18:19:57 GMT 52.819984 6.985343 23,000 82 332 0
2019-01-15 18:19:54 GMT 52.819473 6.978594 23,000 82 332 0
2019-01-15 18:19:51 GMT 52.818787 6.970062 23,000 82 332 0
2019-01-15 18:19:48 GMT 52.818447 6.965254 23,000 82 332 0
2019-01-15 18:19:45 GMT 52.817047 6.947708 23,000 82 332 0
2019-01-15 18:19:42 GMT 52.817047 6.947708 23,000 82 332 0
2019-01-15 18:19:39 GMT 52.816631 6.942182 23,000 82 332 0
2019-01-15 18:19:36 GMT 52.816040 6.934586 23,000 82 332 0
2019-01-15 18:19:32 GMT 52.814537 6.915501 23,000 82 332 0
2019-01-15 18:19:29 GMT 52.814537 6.915501 23,000 82 332 0
2019-01-15 18:19:26 GMT 52.814163 6.910706 23,000 82 332 0
2019-01-15 18:19:23 GMT 52.812862 6.894156 23,000 82 332 0
2019-01-15 18:19:17 GMT 52.812195 6.886063 23,000 82 333 0
2019-01-15 18:19:14 GMT 52.811600 6.878510 23,000 82 332 0
2019-01-15 18:19:11 GMT 52.811142 6.872482 23,000 82 332 0
2019-01-15 18:19:08 GMT 52.810253 6.861433 23,000 82 332 0
2019-01-15 18:19:05 GMT 52.809860 6.856384 23,000 82 332 0
2019-01-15 18:19:02 GMT 52.808395 6.837769 23,000 82 332 0
2019-01-15 18:18:58 GMT 52.808395 6.837769 23,000 82 332 0
2019-01-15 18:18:55 GMT 52.807693 6.829023 23,000 82 332 0
2019-01-15 18:18:51 GMT 52.807022 6.820679 23,000 82 332 0
2019-01-15 18:18:48 GMT 52.806427 6.813126 23,000 82 332 0
2019-01-15 18:18:45 GMT 52.805878 6.805878 23,000 82 332 0
2019-01-15 18:18:42 GMT 52.805088 6.796300 23,000 82 332 0
2019-01-15 18:18:38 GMT 52.804459 6.788254 23,000 82 332 0
2019-01-15 18:18:35 GMT 52.803864 6.780472 23,000 82 332 0
2019-01-15 18:18:32 GMT 52.803131 6.771659 23,000 82 332 0
2019-01-15 18:18:29 GMT 52.801876 6.755572 23,000 82 332 0
2019-01-15 18:18:25 GMT 52.801876 6.755572 23,000 82 332 0
2019-01-15 18:18:22 GMT 52.800659 6.740265 23,000 82 332 0
2019-01-15 18:18:16 GMT 52.799973 6.731720 23,000 82 332 0
2019-01-15 18:18:13 GMT 52.799503 6.725673 23,000 82 332 0
2019-01-15 18:18:10 GMT 52.798851 6.717904 23,000 82 332 0
2019-01-15 18:18:07 GMT 52.798141 6.709061 23,000 82 332 0
2019-01-15 18:18:04 GMT 52.797501 6.700797 23,000 82 332 0
2019-01-15 18:18:00 GMT 52.796894 6.693263 23,000 82 332 0
2019-01-15 18:17:56 GMT 52.795872 6.680708 23,000 82 332 0
2019-01-15 18:17:53 GMT 52.795303 6.673660 23,000 82 332 -64
2019-01-15 18:17:50 GMT 52.794846 6.668073 23,000 82 332 0
2019-01-15 18:17:47 GMT 52.794250 6.660538 23,000 82 332 0
2019-01-15 18:17:44 GMT 52.793472 6.651001 23,000 82 332 0
2019-01-15 18:17:41 GMT 52.792847 6.643511 23,000 82 333 0
2019-01-15 18:17:37 GMT 52.792194 6.635193 23,000 82 333 0
2019-01-15 18:17:34 GMT 52.791550 6.627655 23,000 82 333 0
2019-01-15 18:17:31 GMT 52.790817 6.618576 23,000 82 333 0
2019-01-15 18:17:28 GMT 52.790405 6.613617 23,000 82 333 0
2019-01-15 18:17:24 GMT 52.789490 6.602325 23,000 82 332 0
2019-01-15 18:17:21 GMT 52.788235 6.587481 23,000 82 332 0
2019-01-15 18:17:14 GMT 52.787292 6.575928 23,000 82 332 0
2019-01-15 18:17:11 GMT 52.786743 6.568909 23,000 82 331 0
2019-01-15 18:17:08 GMT 52.786148 6.561890 23,000 82 331 -64
2019-01-15 18:17:04 GMT 52.785397 6.552638 23,000 82 331 0
2019-01-15 18:17:01 GMT 52.784557 6.542358 23,000 82 331 0
2019-01-15 18:16:58 GMT 52.784042 6.535873 23,000 82 330 0
2019-01-15 18:16:54 GMT 52.783264 6.526871 23,000 82 330 -64
2019-01-15 18:16:51 GMT 52.782650 6.519130 23,000 82 330 0
2019-01-15 18:16:48 GMT 52.782074 6.511841 23,000 82 330 0
2019-01-15 18:16:45 GMT 52.781391 6.503906 23,000 82 330 0
2019-01-15 18:16:42 GMT 52.780788 6.496373 23,000 82 330 0
2019-01-15 18:16:39 GMT 52.780151 6.488647 23,000 82 330 0
2019-01-15 18:16:36 GMT 52.779438 6.479893 23,000 82 330 0
2019-01-15 18:16:33 GMT 52.779007 6.474152 23,000 82 330 0
2019-01-15 18:16:29 GMT 52.778046 6.462479 23,000 82 329 0
2019-01-15 18:16:26 GMT 52.777588 6.457214 23,000 82 329 0
2019-01-15 18:16:23 GMT 52.776970 6.449210 23,000 82 329 0
2019-01-15 18:16:20 GMT 52.776505 6.444031 23,000 82 329 0
2019-01-15 18:16:17 GMT 52.775806 6.435006 23,000 82 329 0
2019-01-15 18:16:13 GMT 52.775024 6.425323 23,000 82 329 0
2019-01-15 18:16:10 GMT 52.774364 6.417114 23,000 82 329 0
2019-01-15 18:16:07 GMT 52.773743 6.409607 23,000 82 329 0
2019-01-15 18:16:02 GMT 52.772827 6.398392 23,000 82 329 0
2019-01-15 18:15:59 GMT 52.772129 6.389727 23,000 82 329 0
2019-01-15 18:15:56 GMT 52.771637 6.383514 23,000 82 329 0
2019-01-15 18:15:52 GMT 52.770767 6.372528 23,000 82 329 0
2019-01-15 18:15:48 GMT 52.770081 6.363595 23,000 82 329 0
2019-01-15 18:15:45 GMT 52.769394 6.355133 23,000 82 329 0
2019-01-15 18:15:41 GMT 52.768753 6.347122 23,000 82 329 0
2019-01-15 18:15:38 GMT 52.767929 6.336975 23,000 82 329 0
2019-01-15 18:15:35 GMT 52.767242 6.327733 23,000 82 329 0
2019-01-15 18:15:32 GMT 52.766739 6.321487 23,000 82 329 0
2019-01-15 18:15:28 GMT 52.765472 6.305289 23,000 82 329 0
2019-01-15 18:15:25 GMT 52.764908 6.298370 23,000 82 329 0
2019-01-15 18:15:22 GMT 52.764313 6.290894 23,000 82 329 -64
2019-01-15 18:15:16 GMT 52.763718 6.283417 23,000 82 329 -64
2019-01-15 18:15:13 GMT 52.762863 6.272723 23,000 82 328 0
2019-01-15 18:15:07 GMT 52.761841 6.260559 23,000 82 328 -64
2019-01-15 18:15:04 GMT 52.761154 6.252136 23,000 82 328 -64
2019-01-15 18:15:01 GMT 52.760605 6.245651 23,025 81 328 0
2019-01-15 18:14:57 GMT 52.758953 6.229170 23,000 76 323 128
2019-01-15 18:14:54 GMT 52.758953 6.229170 23,000 77 325 256
2019-01-15 18:14:51 GMT 52.757767 6.221085 23,000 74 322 64
2019-01-15 18:14:48 GMT 52.756165 6.213455 23,000 67 317 -192
2019-01-15 18:14:45 GMT 52.754719 6.207982 23,000 63 311 0
2019-01-15 18:14:42 GMT 52.752811 6.201547 23,000 63 311 0
2019-01-15 18:14:39 GMT 52.750671 6.194611 23,000 63 311 0
2019-01-15 18:14:36 GMT 52.749252 6.189957 23,000 63 311 0
2019-01-15 18:14:33 GMT 52.747364 6.183812 23,000 63 311 0
2019-01-15 18:14:30 GMT 52.744198 6.173610 23,000 63 311 0
2019-01-15 18:14:27 GMT 52.742893 6.169373 23,000 63 311 0
2019-01-15 18:14:24 GMT 52.741219 6.163879 23,000 62 312 0
2019-01-15 18:14:21 GMT 52.738998 6.156769 23,000 63 310 0
2019-01-15 18:14:17 GMT 52.735657 6.146011 23,000 63 310 0
2019-01-15 18:14:13 GMT 52.733688 6.139679 23,000 63 310 0
2019-01-15 18:14:10 GMT 52.731857 6.133728 23,000 63 310 0
2019-01-15 18:14:07 GMT 52.728012 6.121292 23,000 63 310 0
2019-01-15 18:14:04 GMT 52.728012 6.121292 23,000 63 310 -64
2019-01-15 18:14:01 GMT 52.725296 6.112479 23,000 63 310 -64
2019-01-15 18:13:58 GMT 52.723854 6.107849 23,000 63 310 0
2019-01-15 18:13:55 GMT 52.722473 6.103439 23,000 63 310 -128
2019-01-15 18:13:52 GMT 52.719620 6.094116 23,000 63 310 -64
2019-01-15 18:13:48 GMT 52.717575 6.087341 23,000 80 326 0
2019-01-15 18:13:45 GMT 52.715744 6.080933 23,000 66 312 128
2019-01-15 18:13:42 GMT 52.714218 6.074419 23,000 68 315 64
2019-01-15 18:13:39 GMT 52.712959 6.067435 23,000 77 324 -64
2019-01-15 18:13:36 GMT 52.711807 6.058502 23,000 78 324 -64
2019-01-15 18:13:33 GMT 52.711212 6.052399 23,000 80 326 0
2019-01-15 18:13:30 GMT 52.710445 6.044521 23,000 80 326 0
2019-01-15 18:13:27 GMT 52.709797 6.037694 23,000 80 326 0
2019-01-15 18:13:24 GMT 52.709049 6.030082 23,000 80 326 -64
2019-01-15 18:13:21 GMT 52.708118 6.020508 23,000 80 326 0
2019-01-15 18:13:18 GMT 52.707653 6.015642 23,000 80 326 0
2019-01-15 18:13:15 GMT 52.706909 6.007996 23,000 80 326 0
2019-01-15 18:13:12 GMT 52.706398 6.002851 23,000 80 326 0
2019-01-15 18:13:09 GMT 52.704628 5.984959 23,000 80 326 0
2019-01-15 18:13:06 GMT 52.704628 5.984959 23,000 80 326 0
2019-01-15 18:13:03 GMT 52.703930 5.977897 23,000 80 326 0
2019-01-15 18:13:00 GMT 52.703465 5.972717 23,000 80 326 0
2019-01-15 18:12:57 GMT 52.702488 5.962673 23,000 80 327 -64
2019-01-15 18:12:54 GMT 52.701977 5.957729 23,000 80 327 0
2019-01-15 18:12:51 GMT 52.701050 5.948181 23,000 80 327 0
2019-01-15 18:12:46 GMT 52.699905 5.936432 23,000 80 327 -64
2019-01-15 18:12:42 GMT 52.698994 5.927359 23,000 80 328 0
2019-01-15 18:12:36 GMT 52.697754 5.914307 23,000 80 327 0
2019-01-15 18:12:33 GMT 52.696701 5.903473 23,000 80 327 0
2019-01-15 18:12:30 GMT 52.696064 5.897382 23,000 80 327 0
2019-01-15 18:12:27 GMT 52.695412 5.890477 23,000 80 328 0
2019-01-15 18:12:24 GMT 52.694870 5.884857 23,000 80 328 -128
2019-01-15 18:12:21 GMT 52.693268 5.868835 23,000 81 327 -64
2019-01-15 18:12:18 GMT 52.693268 5.868835 23,000 80 328 0
2019-01-15 18:12:15 GMT 52.692535 5.861206 23,000 80 328 0
2019-01-15 18:12:11 GMT 52.691483 5.850372 23,000 80 328 -64
2019-01-15 18:12:08 GMT 52.690750 5.843201 23,000 80 328 0
2019-01-15 18:12:05 GMT 52.689102 5.826187 23,000 80 328 0
2019-01-15 18:12:02 GMT 52.689102 5.826187 23,000 80 328 0
2019-01-15 18:11:59 GMT 52.688049 5.815582 23,000 80 328 0
2019-01-15 18:11:56 GMT 52.687271 5.807724 23,000 80 328 0
2019-01-15 18:11:53 GMT 52.686539 5.800095 23,000 80 328 0
2019-01-15 18:11:50 GMT 52.686539 5.800095 23,000 80 328 0
2019-01-15 18:11:47 GMT 52.685806 5.792694 23,000 80 328 0
2019-01-15 18:11:44 GMT 52.685032 5.785086 23,000 80 328 0
2019-01-15 18:11:41 GMT 52.683586 5.770333 23,000 80 328 -64
2019-01-15 18:11:38 GMT 52.682934 5.763899 23,000 80 328 0
2019-01-15 18:11:35 GMT 52.682144 5.755997 23,000 80 328 0
2019-01-15 18:11:32 GMT 52.682144 5.755997 23,000 80 328 0
2019-01-15 18:11:29 GMT 52.681492 5.749616 23,000 80 328 64
2019-01-15 18:11:25 GMT 52.680450 5.738831 23,000 80 328 0
2019-01-15 18:11:22 GMT 52.679676 5.731410 23,000 80 328 0
2019-01-15 18:11:19 GMT 52.679070 5.725054 23,000 80 328 -64
2019-01-15 18:11:16 GMT 52.678070 5.715256 23,000 80 328 0
2019-01-15 18:11:13 GMT 52.677292 5.707321 23,000 80 328 0
2019-01-15 18:11:10 GMT 52.676651 5.700963 23,000 80 328 0
2019-01-15 18:11:07 GMT 52.675903 5.693586 23,000 80 328 -64
2019-01-15 18:11:04 GMT 52.674866 5.683517 23,000 80 328 0
2019-01-15 18:11:01 GMT 52.673531 5.669965 23,000 80 328 -64
2019-01-15 18:10:58 GMT 52.673531 5.669965 23,000 80 328 0
2019-01-15 18:10:55 GMT 52.673111 5.666042 23,000 80 328 0
2019-01-15 18:10:52 GMT 52.672276 5.657174 23,000 81 327 0
2019-01-15 18:10:49 GMT 52.671478 5.649567 23,000 80 328 0
2019-01-15 18:10:46 GMT 52.670738 5.641872 23,000 80 328 0
2019-01-15 18:10:43 GMT 52.669968 5.634232 23,000 80 329 -64
2019-01-15 18:10:39 GMT 52.668182 5.616226 23,000 80 330 0
2019-01-15 18:10:36 GMT 52.668182 5.616226 23,000 80 329 0
2019-01-15 18:10:33 GMT 52.667496 5.609589 23,000 80 329 0
2019-01-15 18:10:30 GMT 52.666946 5.604172 23,000 80 329 0
2019-01-15 18:10:27 GMT 52.666130 5.595729 23,000 80 330 0
2019-01-15 18:10:24 GMT 52.665482 5.589294 23,000 80 330 -64
2019-01-15 18:10:21 GMT 52.664547 5.580113 23,000 80 330 0
2019-01-15 18:10:18 GMT 52.663559 5.570221 23,000 80 330 0
2019-01-15 18:10:15 GMT 52.663101 5.565491 23,000 80 331 0
2019-01-15 18:10:12 GMT 52.662231 5.557098 23,000 80 331 0
2019-01-15 18:10:09 GMT 52.661613 5.550842 23,000 80 331 0
2019-01-15 18:10:06 GMT 52.660824 5.543152 23,000 80 331 0
2019-01-15 18:10:03 GMT 52.660126 5.536482 23,000 80 331 0
2019-01-15 18:09:58 GMT 52.658569 5.521088 23,000 80 331 0
2019-01-15 18:09:55 GMT 52.658203 5.517120 23,000 80 332 64
2019-01-15 18:09:52 GMT 52.657097 5.506112 23,000 80 332 64
2019-01-15 18:09:49 GMT 52.656540 5.500698 23,000 80 332 64
2019-01-15 18:09:46 GMT 52.655933 5.494734 23,000 80 332 -64
2019-01-15 18:09:43 GMT 52.655235 5.487749 23,000 80 332 -64
2019-01-15 18:09:40 GMT 52.654083 5.476761 23,000 80 332 0
2019-01-15 18:09:36 GMT 52.653004 5.466091 23,000 80 332 0
2019-01-15 18:09:33 GMT 52.652527 5.461349 23,000 80 332 0
2019-01-15 18:09:30 GMT 52.651001 5.446158 23,000 80 332 0
2019-01-15 18:09:27 GMT 52.651001 5.446158 23,000 80 332 0
2019-01-15 18:09:24 GMT 52.650238 5.438385 23,000 80 332 0
2019-01-15 18:09:20 GMT 52.649414 5.430450 23,000 80 332 0
2019-01-15 18:09:17 GMT 52.648499 5.421448 23,000 80 332 0
2019-01-15 18:09:14 GMT 52.647694 5.413513 23,000 80 332 0
2019-01-15 18:09:11 GMT 52.647034 5.406799 23,000 80 332 0
2019-01-15 18:09:08 GMT 52.646301 5.399551 23,000 80 333 0
2019-01-15 18:09:05 GMT 52.645554 5.392325 23,000 80 332 0
2019-01-15 18:09:02 GMT 52.644714 5.383615 23,000 80 333 -64
2019-01-15 18:08:59 GMT 52.643829 5.374826 23,000 80 333 0
2019-01-15 18:08:56 GMT 52.643280 5.369568 23,000 80 333 0
2019-01-15 18:08:53 GMT 52.642200 5.358660 23,000 80 333 0
2019-01-15 18:08:50 GMT 52.641785 5.354344 23,000 80 333 0
2019-01-15 18:08:47 GMT 52.641037 5.346654 23,000 80 333 0
2019-01-15 18:08:44 GMT 52.640293 5.339434 23,000 80 333 0
2019-01-15 18:08:41 GMT 52.639297 5.329132 23,000 80 333 0
2019-01-15 18:08:37 GMT 52.638428 5.320206 23,000 80 333 0
2019-01-15 18:08:34 GMT 52.637787 5.313644 23,000 80 333 0
2019-01-15 18:08:31 GMT 52.636848 5.303964 23,000 80 333 0
2019-01-15 18:08:28 GMT 52.636459 5.299911 23,000 81 333 0
2019-01-15 18:08:25 GMT 52.635731 5.292428 23,000 81 333 0
2019-01-15 18:08:22 GMT 52.634720 5.282211 23,000 81 333 0
2019-01-15 18:08:16 GMT 52.633308 5.267709 23,000 81 333 0
2019-01-15 18:08:13 GMT 52.632431 5.258713 23,000 80 333 0
2019-01-15 18:08:10 GMT 52.632065 5.254669 23,000 80 333 0
2019-01-15 18:08:07 GMT 52.631310 5.246992 23,000 80 333 0
2019-01-15 18:08:04 GMT 52.630566 5.239458 23,000 80 333 0
2019-01-15 18:08:01 GMT 52.629585 5.230042 23,000 80 332 0
2019-01-15 18:07:58 GMT 52.629089 5.224762 23,000 77 329 0
2019-01-15 18:07:55 GMT 52.628281 5.217329 23,000 80 332 0
2019-01-15 18:07:52 GMT 52.627258 5.207367 23,000 79 332 0
2019-01-15 18:07:48 GMT 52.626297 5.198975 23,000 79 331 -64
2019-01-15 18:07:45 GMT 52.625301 5.190255 23,000 79 332 0
2019-01-15 18:07:42 GMT 52.624557 5.184370 23,000 78 331 0
2019-01-15 18:07:39 GMT 52.623440 5.175502 23,000 77 330 0
2019-01-15 18:07:35 GMT 52.622185 5.166164 23,000 77 331 0
2019-01-15 18:07:32 GMT 52.621124 5.158081 23,000 77 330 0
2019-01-15 18:07:29 GMT 52.620415 5.152980 23,000 77 330 0
2019-01-15 18:07:26 GMT 52.619438 5.145604 23,000 77 330 0
2019-01-15 18:07:23 GMT 52.618423 5.138016 23,000 77 330 0
2019-01-15 18:07:20 GMT 52.617203 5.128967 23,000 77 330 0
2019-01-15 18:07:17 GMT 52.616459 5.123553 23,000 77 330 0
2019-01-15 18:07:14 GMT 52.615448 5.115967 23,000 77 330 0
2019-01-15 18:07:11 GMT 52.614365 5.107936 23,000 77 329 0
2019-01-15 18:07:08 GMT 52.613247 5.099618 23,000 77 329 0
2019-01-15 18:07:05 GMT 52.612610 5.094910 23,000 77 329 0
2019-01-15 18:07:02 GMT 52.611431 5.086356 23,000 77 329 0
2019-01-15 18:06:59 GMT 52.609474 5.071917 23,000 77 329 0
2019-01-15 18:06:53 GMT 52.608311 5.063363 23,000 77 330 0
2019-01-15 18:06:50 GMT 52.607483 5.057297 23,000 77 329 -64
2019-01-15 18:06:47 GMT 52.606495 5.049709 23,000 77 329 0
2019-01-15 18:06:43 GMT 52.605145 5.039900 23,000 77 329 -64
2019-01-15 18:06:40 GMT 52.603794 5.029933 23,000 77 329 0
2019-01-15 18:06:36 GMT 52.602814 5.022583 23,000 77 329 0
2019-01-15 18:06:32 GMT 52.601562 5.013532 23,000 77 329 0
2019-01-15 18:06:29 GMT 52.600582 5.006234 23,000 77 329 0
2019-01-15 18:06:26 GMT 52.599152 4.995651 23,000 77 329 0
2019-01-15 18:06:22 GMT 52.598236 4.988861 23,000 77 329 0
2019-01-15 18:06:19 GMT 52.597046 4.980011 23,000 77 330 0
2019-01-15 18:06:16 GMT 52.595974 4.972177 23,000 77 330 0
2019-01-15 18:06:13 GMT 52.595230 4.966840 23,000 77 330 64
2019-01-15 18:06:10 GMT 52.594208 4.959229 23,000 77 330 -64
2019-01-15 18:06:07 GMT 52.593155 4.951630 23,000 77 330 0
2019-01-15 18:06:04 GMT 52.592205 4.944554 23,000 77 330 64
2019-01-15 18:06:01 GMT 52.589859 4.927444 23,000 77 330 0
2019-01-15 18:05:58 GMT 52.589859 4.927444 23,000 77 330 0
2019-01-15 18:05:55 GMT 52.588852 4.920070 23,000 77 330 0
2019-01-15 18:05:52 GMT 52.588165 4.914932 23,000 77 330 -64
2019-01-15 18:05:49 GMT 52.587158 4.907532 23,000 77 330 64
2019-01-15 18:05:46 GMT 52.586197 4.900436 23,000 77 330 0
2019-01-15 18:05:42 GMT 52.583862 4.883575 23,000 77 331 64
2019-01-15 18:05:39 GMT 52.582489 4.873276 23,000 77 331 0
2019-01-15 18:05:35 GMT 52.582489 4.873276 23,000 77 331 0
2019-01-15 18:05:32 GMT 52.581253 4.864426 23,000 77 331 0
2019-01-15 18:05:29 GMT 52.580566 4.859253 23,000 77 331 0
2019-01-15 18:05:26 GMT 52.579170 4.849208 23,000 77 331 0
2019-01-15 18:05:23 GMT 52.578148 4.841910 23,000 77 331 0
2019-01-15 18:05:20 GMT 52.576447 4.829636 23,000 77 331 0
2019-01-15 18:05:17 GMT 52.576447 4.829636 23,000 77 331 0
2019-01-15 18:05:14 GMT 52.575630 4.823469 23,000 77 331 0
2019-01-15 18:05:11 GMT 52.574608 4.816171 23,000 77 331 0
2019-01-15 18:05:08 GMT 52.573425 4.807587 23,000 77 331 0
2019-01-15 18:05:05 GMT 52.572418 4.800262 23,000 77 331 0
2019-01-15 18:05:02 GMT 52.571228 4.791489 23,000 77 331 0
2019-01-15 18:04:59 GMT 52.570587 4.786835 23,000 77 331 0
2019-01-15 18:04:55 GMT 52.568848 4.774323 23,000 77 331 0
2019-01-15 18:04:52 GMT 52.568230 4.769714 23,000 77 331 0
2019-01-15 18:04:49 GMT 52.566971 4.760666 23,000 77 331 0
2019-01-15 18:04:45 GMT 52.565437 4.749625 23,000 77 330 0
2019-01-15 18:04:42 GMT 52.564411 4.742327 23,000 77 330 0
2019-01-15 18:04:39 GMT 52.563763 4.737697 23,000 77 329 0
2019-01-15 18:04:36 GMT 52.562622 4.729385 23,000 77 330 0
2019-01-15 18:04:33 GMT 52.560688 4.715489 23,000 77 330 0
2019-01-15 18:04:30 GMT 52.560688 4.715489 23,000 77 330 0
2019-01-15 18:04:27 GMT 52.559479 4.706935 23,000 77 330 0
2019-01-15 18:04:23 GMT 52.557816 4.694748 23,000 77 329 0
2019-01-15 18:04:19 GMT 52.556946 4.688416 23,000 77 330 0
2019-01-15 18:04:16 GMT 52.555519 4.678449 23,000 77 330 0
2019-01-15 18:04:13 GMT 52.554565 4.671326 23,000 77 330 0
2019-01-15 18:04:09 GMT 52.551937 4.652631 23,000 77 329 0
2019-01-15 18:04:05 GMT 52.551937 4.652631 23,000 77 329 0
2019-01-15 18:04:02 GMT 52.551086 4.646530 23,000 77 329 0
2019-01-15 18:03:59 GMT 52.550030 4.638977 23,000 77 329 0
2019-01-15 18:03:56 GMT 52.547836 4.623108 23,000 77 329 0
2019-01-15 18:03:53 GMT 52.547836 4.623108 23,000 77 329 0
2019-01-15 18:03:50 GMT 52.547012 4.617310 23,000 77 329 0
2019-01-15 18:03:47 GMT 52.544720 4.600996 23,000 77 329 -64
2019-01-15 18:03:44 GMT 52.544720 4.600996 23,000 77 329 0
2019-01-15 18:03:41 GMT 52.543900 4.594955 23,000 77 329 0
2019-01-15 18:03:38 GMT 52.542953 4.588361 23,000 77 329 0
2019-01-15 18:03:34 GMT 52.541603 4.578631 23,000 77 329 -64
2019-01-15 18:03:31 GMT 52.540558 4.571075 23,000 77 329 0
2019-01-15 18:03:28 GMT 52.538086 4.553604 23,000 77 329 -64
2019-01-15 18:03:25 GMT 52.538086 4.553604 23,000 77 329 0
2019-01-15 18:03:21 GMT 52.536854 4.544573 23,000 77 329 0
2019-01-15 18:03:18 GMT 52.535690 4.536333 23,000 77 329 0
2019-01-15 18:03:15 GMT 52.533920 4.523699 23,000 77 329 0
2019-01-15 18:03:12 GMT 52.533920 4.523699 23,000 77 329 0
2019-01-15 18:03:08 GMT 52.531494 4.506378 23,000 77 329 0
2019-01-15 18:03:05 GMT 52.530384 4.498666 23,000 77 329 0
2019-01-15 18:03:02 GMT 52.530384 4.498666 23,000 77 329 0
2019-01-15 18:02:59 GMT 52.529709 4.493790 23,000 77 329 0
2019-01-15 18:02:56 GMT 52.528610 4.486008 23,000 77 329 0
2019-01-15 18:02:53 GMT 52.527592 4.478655 23,000 77 329 0
2019-01-15 18:02:50 GMT 52.526241 4.469238 23,000 77 329 0
2019-01-15 18:02:47 GMT 52.525543 4.464111 23,000 77 329 0
2019-01-15 18:02:44 GMT 52.524445 4.456329 23,000 77 329 0
2019-01-15 18:02:41 GMT 52.523262 4.448050 23,000 77 329 0
2019-01-15 18:02:38 GMT 52.522377 4.441694 23,000 77 329 0
2019-01-15 18:02:35 GMT 52.521584 4.436122 23,000 76 329 0
2019-01-15 18:02:32 GMT 52.520233 4.426627 23,000 76 329 0
2019-01-15 18:02:29 GMT 52.519089 4.418640 23,000 76 329 0
2019-01-15 18:02:26 GMT 52.518326 4.413286 23,000 76 329 0
2019-01-15 18:02:22 GMT 52.516983 4.403763 23,000 76 329 -64
2019-01-15 18:02:19 GMT 52.515812 4.395473 23,000 77 329 0
2019-01-15 18:02:16 GMT 52.515022 4.389666 23,000 77 329 0
2019-01-15 18:02:12 GMT 52.512459 4.371695 23,000 76 329 0
2019-01-15 18:02:09 GMT 52.512459 4.371695 23,000 76 329 0
2019-01-15 18:02:06 GMT 52.511341 4.363926 23,000 76 330 0
2019-01-15 18:02:03 GMT 52.510437 4.357300 23,000 76 330 -64
2019-01-15 18:02:00 GMT 52.509342 4.349801 23,000 76 330 0
2019-01-15 18:01:57 GMT 52.508148 4.341202 23,000 76 330 0
2019-01-15 18:01:54 GMT 52.507153 4.334185 23,000 76 330 0
2019-01-15 18:01:50 GMT 52.504669 4.316864 23,000 76 330 0
2019-01-15 18:01:47 GMT 52.503754 4.310486 23,000 76 331 0
2019-01-15 18:01:44 GMT 52.503754 4.310486 23,000 76 331 0
2019-01-15 18:01:41 GMT 52.502701 4.303207 23,000 76 331 0
2019-01-15 18:01:38 GMT 52.501648 4.295578 23,000 76 331 0
2019-01-15 18:01:35 GMT 52.500229 4.285812 23,000 76 331 0
2019-01-15 18:01:31 GMT 52.498123 4.270935 23,000 76 331 0
2019-01-15 18:01:28 GMT 52.498123 4.270935 23,000 76 331 -64
2019-01-15 18:01:24 GMT 52.496819 4.261911 23,000 76 331 0
2019-01-15 18:01:21 GMT 52.495701 4.254063 23,000 76 331 0
2019-01-15 18:01:18 GMT 52.494446 4.245274 23,000 76 331 0
2019-01-15 18:01:15 GMT 52.493328 4.237191 23,000 76 331 0
2019-01-15 18:01:12 GMT 52.492630 4.232330 23,000 76 332 0
2019-01-15 18:01:09 GMT 52.491467 4.224243 23,000 76 332 0
2019-01-15 18:01:06 GMT 52.489555 4.210981 23,000 76 332 0
2019-01-15 18:01:03 GMT 52.488579 4.204154 23,000 76 332 0
2019-01-15 18:01:00 GMT 52.487000 4.193115 23,000 76 332 -64
2019-01-15 18:00:57 GMT 52.487000 4.193115 23,000 76 332 0
2019-01-15 18:00:54 GMT 52.486038 4.186325 23,000 76 332 -64
2019-01-15 18:00:51 GMT 52.484116 4.173050 23,000 76 332 0
2019-01-15 18:00:48 GMT 52.484116 4.173050 23,000 76 332 0
2019-01-15 18:00:45 GMT 52.483292 4.167175 23,000 76 332 0
2019-01-15 18:00:42 GMT 52.481689 4.156206 23,000 76 332 0
2019-01-15 18:00:39 GMT 52.479675 4.142227 23,000 76 332 0
2019-01-15 18:00:35 GMT 52.479675 4.142227 23,000 76 331 0
2019-01-15 18:00:32 GMT 52.478622 4.134903 23,000 76 331 0
2019-01-15 18:00:29 GMT 52.477547 4.127328 23,000 76 331 0
2019-01-15 18:00:26 GMT 52.474869 4.108963 23,000 76 331 0
2019-01-15 18:00:22 GMT 52.474869 4.108963 23,000 76 331 0
2019-01-15 18:00:18 GMT 52.473633 4.100189 23,000 76 331 0
2019-01-15 18:00:15 GMT 52.472519 4.092564 23,000 76 331 0
2019-01-15 18:00:12 GMT 52.470657 4.079666 23,000 76 331 0
2019-01-15 18:00:09 GMT 52.469376 4.070816 23,000 76 331 -64
2019-01-15 18:00:06 GMT 52.467911 4.060593 23,000 76 331 -64
2019-01-15 18:00:03 GMT 52.467911 4.060593 23,000 76 331 0
2019-01-15 18:00:00 GMT 52.467087 4.054718 23,000 76 331 0
2019-01-15 17:59:57 GMT 52.465118 4.041061 23,000 76 332 0
2019-01-15 17:59:54 GMT 52.465118 4.041061 23,000 76 331 0
2019-01-15 17:59:51 GMT 52.464233 4.034886 23,000 76 331 0
2019-01-15 17:59:48 GMT 52.462784 4.025116 23,000 76 331 0
2019-01-15 17:59:45 GMT 52.461868 4.018555 23,000 76 332 0
2019-01-15 17:59:42 GMT 52.459854 4.004595 23,000 76 332 -64
2019-01-15 17:59:39 GMT 52.459854 4.004595 23,000 76 332 0
2019-01-15 17:59:36 GMT 52.458801 3.997498 23,000 76 330 0
2019-01-15 17:59:33 GMT 52.456924 3.984584 23,000 76 332 0
2019-01-15 17:59:27 GMT 52.455597 3.975525 23,000 76 332 0
2019-01-15 17:59:24 GMT 52.454411 3.967242 23,000 76 332 -64
2019-01-15 17:59:21 GMT 52.453526 3.961121 23,000 76 332 -64
2019-01-15 17:59:18 GMT 52.452362 3.953352 23,000 76 332 0
2019-01-15 17:59:15 GMT 52.451477 3.947220 23,000 76 332 0
2019-01-15 17:59:12 GMT 52.450058 3.937454 23,000 76 332 0
2019-01-15 17:59:08 GMT 52.448502 3.926773 23,000 76 332 0
2019-01-15 17:59:05 GMT 52.446487 3.913116 23,000 76 332 0
2019-01-15 17:59:02 GMT 52.446487 3.913116 23,000 76 332 0
2019-01-15 17:58:59 GMT 52.445751 3.907994 23,000 76 332 0
2019-01-15 17:58:56 GMT 52.444656 3.900375 23,000 76 332 0
2019-01-15 17:58:53 GMT 52.442448 3.885315 23,000 76 332 0
2019-01-15 17:58:50 GMT 52.442448 3.885315 23,000 76 332 0
2019-01-15 17:58:47 GMT 52.441360 3.878021 23,000 76 332 0
2019-01-15 17:58:44 GMT 52.440445 3.871896 23,000 76 332 0
2019-01-15 17:58:41 GMT 52.439026 3.862152 23,000 76 332 0
2019-01-15 17:58:38 GMT 52.437931 3.854553 23,000 76 332 0
2019-01-15 17:58:35 GMT 52.436783 3.846817 23,000 76 332 0
2019-01-15 17:58:32 GMT 52.436069 3.842154 23,000 76 331 0
2019-01-15 17:58:29 GMT 52.434952 3.834610 23,000 76 330 0
2019-01-15 17:58:26 GMT 52.433556 3.825126 23,000 76 331 0
2019-01-15 17:58:22 GMT 52.432438 3.817278 23,000 76 331 0
2019-01-15 17:58:19 GMT 52.431381 3.810272 23,000 76 330 0
2019-01-15 17:58:16 GMT 52.430466 3.803940 23,000 76 330 0
2019-01-15 17:58:13 GMT 52.429272 3.795933 23,000 76 330 64
2019-01-15 17:58:10 GMT 52.427921 3.786673 23,000 76 330 0
2019-01-15 17:58:07 GMT 52.427032 3.780899 23,000 76 330 0
2019-01-15 17:58:04 GMT 52.425934 3.773346 23,000 76 330 0
2019-01-15 17:58:00 GMT 52.424194 3.761444 23,000 76 330 0
2019-01-15 17:57:57 GMT 52.423637 3.757560 23,000 76 330 0
2019-01-15 17:57:54 GMT 52.421310 3.741837 23,000 76 330 0
2019-01-15 17:57:51 GMT 52.420166 3.734283 23,000 76 330 0
2019-01-15 17:57:47 GMT 52.420166 3.734283 23,000 76 330 0
2019-01-15 17:57:44 GMT 52.418655 3.723831 23,000 76 330 0
2019-01-15 17:57:41 GMT 52.416702 3.710789 23,000 76 330 -64
2019-01-15 17:57:38 GMT 52.416702 3.710789 23,000 76 330 0
2019-01-15 17:57:34 GMT 52.414902 3.698654 23,000 76 330 0
2019-01-15 17:57:31 GMT 52.413956 3.692034 23,000 76 330 0
2019-01-15 17:57:28 GMT 52.412933 3.684998 23,000 76 330 0
2019-01-15 17:57:24 GMT 52.411488 3.675319 23,000 76 330 0
2019-01-15 17:57:21 GMT 52.410278 3.667315 23,000 76 330 0
2019-01-15 17:57:18 GMT 52.409302 3.660488 23,000 76 330 0
2019-01-15 17:57:15 GMT 52.407211 3.646698 23,000 76 330 0
2019-01-15 17:57:12 GMT 52.407211 3.646698 23,000 76 330 -64
2019-01-15 17:57:09 GMT 52.406204 3.639908 23,000 76 330 0
2019-01-15 17:57:06 GMT 52.404087 3.625567 23,000 76 330 0
2019-01-15 17:57:03 GMT 52.403229 3.619766 23,000 76 330 0
2019-01-15 17:57:00 GMT 52.401535 3.608398 23,000 76 330 0
2019-01-15 17:56:57 GMT 52.401535 3.608398 23,000 76 330 0
2019-01-15 17:56:54 GMT 52.400803 3.603516 23,000 76 330 0
2019-01-15 17:56:51 GMT 52.399616 3.595511 23,000 76 330 0
2019-01-15 17:56:48 GMT 52.398502 3.588056 23,000 76 330 0
2019-01-15 17:56:44 GMT 52.397369 3.580475 23,000 76 330 0
2019-01-15 17:56:41 GMT 52.396179 3.572769 23,000 76 330 0
2019-01-15 17:56:38 GMT 52.394684 3.562552 23,000 76 330 0
2019-01-15 17:56:35 GMT 52.393890 3.557530 23,000 76 330 0
2019-01-15 17:56:32 GMT 52.392883 3.550720 23,000 76 330 64
2019-01-15 17:56:29 GMT 52.391563 3.541992 23,000 76 330 0
2019-01-15 17:56:23 GMT 52.389130 3.526001 23,000 76 330 0
2019-01-15 17:56:20 GMT 52.388214 3.519745 23,000 76 330 0
2019-01-15 17:56:17 GMT 52.387188 3.512957 23,000 76 330 0
2019-01-15 17:56:13 GMT 52.385880 3.504410 23,000 76 330 0
2019-01-15 17:56:09 GMT 52.384537 3.495457 23,000 76 330 0
2019-01-15 17:56:06 GMT 52.382206 3.480155 23,000 76 331 0
2019-01-15 17:56:03 GMT 52.380810 3.470973 23,000 76 331 0
2019-01-15 17:56:00 GMT 52.380810 3.470973 23,000 75 332 0
2019-01-15 17:55:56 GMT 52.378342 3.454965 23,000 75 332 0
2019-01-15 17:55:53 GMT 52.378342 3.454965 23,000 75 332 0
2019-01-15 17:55:50 GMT 52.377411 3.448868 23,000 75 332 -64
2019-01-15 17:55:47 GMT 52.376358 3.441849 23,000 75 332 64
2019-01-15 17:55:44 GMT 52.375122 3.434067 23,000 75 332 0
2019-01-15 17:55:41 GMT 52.374062 3.427028 23,000 75 332 0
2019-01-15 17:55:38 GMT 52.372787 3.419037 23,000 75 332 0
2019-01-15 17:55:35 GMT 52.371826 3.412704 23,000 75 332 0
2019-01-15 17:55:32 GMT 52.370754 3.406154 23,000 75 332 0
2019-01-15 17:55:29 GMT 52.369404 3.397443 23,000 75 331 0
2019-01-15 17:55:26 GMT 52.368286 3.390616 23,000 75 331 64
2019-01-15 17:55:23 GMT 52.366985 3.382377 23,000 74 331 0
2019-01-15 17:55:20 GMT 52.366009 3.376334 23,000 73 331 0
2019-01-15 17:55:17 GMT 52.364796 3.369036 23,000 75 332 0
2019-01-15 17:55:13 GMT 52.362797 3.356716 23,000 74 331 0
2019-01-15 17:55:09 GMT 52.361435 3.348770 23,000 74 331 0
2019-01-15 17:55:05 GMT 52.359833 3.339081 23,000 74 332 0
2019-01-15 17:55:02 GMT 52.358650 3.332153 23,000 74 331 -64
2019-01-15 17:54:59 GMT 52.357395 3.324855 23,000 74 331 -64
2019-01-15 17:54:56 GMT 52.355812 3.315752 23,000 74 331 0
2019-01-15 17:54:53 GMT 52.355206 3.312378 23,000 74 330 0
2019-01-15 17:54:50 GMT 52.353252 3.301313 23,000 73 331 0
2019-01-15 17:54:47 GMT 52.352554 3.297232 23,000 73 331 0
2019-01-15 17:54:44 GMT 52.351158 3.289385 23,000 73 331 0
2019-01-15 17:54:41 GMT 52.348549 3.274946 23,000 73 331 0
2019-01-15 17:54:38 GMT 52.348549 3.274946 23,000 74 331 0
2019-01-15 17:54:35 GMT 52.347198 3.267334 23,000 73 331 0
2019-01-15 17:54:31 GMT 52.345291 3.256740 23,000 74 331 0
2019-01-15 17:54:27 GMT 52.343521 3.246617 23,000 77 333 0
2019-01-15 17:54:24 GMT 52.341522 3.234787 23,000 74 332 0
2019-01-15 17:54:21 GMT 52.341522 3.234787 23,000 75 333 0
2019-01-15 17:54:18 GMT 52.339985 3.225115 23,000 76 332 0
2019-01-15 17:54:14 GMT 52.338680 3.216326 23,000 77 333 0
2019-01-15 17:54:11 GMT 52.337769 3.209381 23,000 78 334 0
2019-01-15 17:54:07 GMT 52.336716 3.200531 23,000 79 334 -64
2019-01-15 17:54:02 GMT 52.335388 3.184967 23,000 83 336 64
2019-01-15 17:53:59 GMT 52.335049 3.178659 23,000 86 337 0
2019-01-15 17:53:56 GMT 52.334930 3.173294 23,000 91 340 0
2019-01-15 17:53:53 GMT 52.334976 3.165588 23,000 91 340 0
2019-01-15 17:53:50 GMT 52.335094 3.155116 23,000 91 340 0
2019-01-15 17:53:46 GMT 52.335144 3.147661 23,000 91 339 0
2019-01-15 17:53:42 GMT 52.335251 3.137436 23,000 91 339 0
2019-01-15 17:53:39 GMT 52.335377 3.127965 23,000 91 339 0
2019-01-15 17:53:36 GMT 52.335434 3.120041 23,000 90 337 -64
2019-01-15 17:53:33 GMT 52.335514 3.113133 23,000 90 339 0
2019-01-15 17:53:30 GMT 52.335609 3.103952 23,000 90 339 0
2019-01-15 17:53:25 GMT 52.335709 3.093948 23,000 90 339 0
2019-01-15 17:53:21 GMT 52.335800 3.080673 23,000 90 339 0
2019-01-15 17:53:18 GMT 52.335979 3.065029 23,000 90 338 0
2019-01-15 17:53:15 GMT 52.336029 3.057175 23,000 90 338 0
2019-01-15 17:53:08 GMT 52.336121 3.048706 23,000 90 338 0
2019-01-15 17:53:05 GMT 52.336212 3.039780 23,000 90 338 0
2019-01-15 17:53:01 GMT 52.336258 3.031921 23,000 90 338 -64
2019-01-15 17:52:57 GMT 52.336349 3.022461 23,000 90 338 0
2019-01-15 17:52:53 GMT 52.336487 3.009720 23,000 90 337 -64
2019-01-15 17:52:50 GMT 52.336586 2.996286 23,000 90 337 0
2019-01-15 17:52:44 GMT 52.336678 2.988674 23,000 90 337 0
2019-01-15 17:52:40 GMT 52.336761 2.978745 23,000 90 337 0
2019-01-15 17:52:37 GMT 52.336853 2.967834 23,000 90 337 0
2019-01-15 17:52:34 GMT 52.336910 2.960188 23,000 90 337 0
2019-01-15 17:52:29 GMT 52.336990 2.947235 23,000 90 337 -64
2019-01-15 17:52:26 GMT 52.337036 2.941132 23,000 90 336 -64
2019-01-15 17:52:23 GMT 52.337097 2.934841 23,000 90 336 0
2019-01-15 17:52:20 GMT 52.337147 2.927229 23,000 90 335 -64
2019-01-15 17:52:17 GMT 52.337193 2.919617 23,000 90 320 -64
2019-01-15 17:52:10 GMT 52.337357 2.901459 23,000 90 333 0
2019-01-15 17:52:07 GMT 52.337402 2.894211 23,000 90 333 -64
2019-01-15 17:52:04 GMT 52.337494 2.874680 23,000 90 331 0
2019-01-15 17:51:57 GMT 52.337540 2.870178 23,000 90 330 -64
2019-01-15 17:51:54 GMT 52.337608 2.861468 23,000 90 329 -64
2019-01-15 17:51:51 GMT 52.337677 2.846832 23,000 90 327 0
2019-01-15 17:51:48 GMT 52.337749 2.837926 23,000 90 328 0
2019-01-15 17:51:45 GMT 52.337749 2.837926 23,000 90 327 0
2019-01-15 17:51:42 GMT 52.337845 2.823408 23,000 99 290 960
2019-01-15 17:51:38 GMT 52.337845 2.823408 23,000 90 325 0
2019-01-15 17:51:35 GMT 52.337906 2.814331 23,000 90 323 0
2019-01-15 17:51:32 GMT 52.337936 2.808262 23,000 90 324 0
2019-01-15 17:51:28 GMT 52.337982 2.798453 23,000 90 322 0
2019-01-15 17:51:25 GMT 52.338043 2.791443 23,000 90 322 0
2019-01-15 17:51:22 GMT 52.338089 2.784119 23,000 90 321 0
2019-01-15 17:51:18 GMT 52.338181 2.773056 23,000 90 320 0
2019-01-15 17:51:15 GMT 52.338215 2.766985 23,000 90 318 -64
2019-01-15 17:51:12 GMT 52.338261 2.759373 23,000 90 317 0
2019-01-15 17:51:06 GMT 52.338402 2.736459 23,000 90 315 -128
2019-01-15 17:51:03 GMT 52.338402 2.736459 23,025 90 313 -128
2019-01-15 17:51:00 GMT 52.338448 2.730573 23,025 90 312 64
2019-01-15 17:50:57 GMT 52.338547 2.723999 23,025 92 311 0
2019-01-15 17:50:53 GMT 52.339008 2.713466 23,000 98 308 -64
2019-01-15 17:50:50 GMT 52.339424 2.708836 23,000 99 308 0
2019-01-15 17:50:46 GMT 52.340332 2.699432 23,000 99 305 0
2019-01-15 17:50:43 GMT 52.341202 2.690964 23,000 99 303 0
2019-01-15 17:50:40 GMT 52.341751 2.685318 22,975 99 295 384
2019-01-15 17:50:37 GMT 52.342590 2.676819 23,000 99 301 192
2019-01-15 17:50:34 GMT 52.343903 2.664108 23,000 99 298 128
2019-01-15 17:50:31 GMT 52.343903 2.664108 22,975 99 294 704
2019-01-15 17:50:27 GMT 52.344727 2.655487 22,925 99 294 896
2019-01-15 17:50:23 GMT 52.345852 2.644331 22,900 99 293 1024
2019-01-15 17:50:20 GMT 52.346268 2.639936 22,850 99 293 960
2019-01-15 17:50:16 GMT 52.347244 2.630081 22,750 99 291 960
2019-01-15 17:50:12 GMT 52.348129 2.621181 22,700 99 292 1024
2019-01-15 17:50:09 GMT 52.348644 2.616159 22,650 99 292 1024
2019-01-15 17:50:06 GMT 52.349442 2.608337 22,525 99 291 1024
2019-01-15 17:50:03 GMT 52.349949 2.603289 22,525 99 291 960
2019-01-15 17:50:00 GMT 52.350784 2.594814 22,500 99 290 1024
2019-01-15 17:49:57 GMT 52.351227 2.590485 22,200 99 290 960
2019-01-15 17:49:54 GMT 52.351913 2.583542 22,375 99 290 960
2019-01-15 17:49:51 GMT 52.352554 2.577057 22,375 99 290 960
2019-01-15 17:49:48 GMT 52.354740 2.554714 22,100 99 289 1024
2019-01-15 17:49:44 GMT 52.354740 2.554714 22,250 99 290 960
2019-01-15 17:49:40 GMT 52.354889 2.553635 22,100 99 289 960
2019-01-15 17:49:37 GMT 52.355438 2.547808 22,050 99 289 960
2019-01-15 17:49:34 GMT 52.356171 2.540741 22,050 99 289 960
2019-01-15 17:49:31 GMT 52.356930 2.532976 21,975 99 289 1024
2019-01-15 17:49:27 GMT 52.357681 2.525406 21,900 98 289 960
2019-01-15 17:49:24 GMT 52.358326 2.518773 21,825 98 288 1024
2019-01-15 17:49:20 GMT 52.359238 2.509308 21,825 98 288 960
2019-01-15 17:49:17 GMT 52.359955 2.501744 21,775 98 288 1024
2019-01-15 17:49:14 GMT 52.360607 2.495309 21,450 99 287 1024
2019-01-15 17:49:11 GMT 52.360886 2.492294 21,700 99 287 960
2019-01-15 17:49:08 GMT 52.361710 2.483521 21,625 99 287 960
2019-01-15 17:49:02 GMT 52.363029 2.470040 21,525 99 287 960
2019-01-15 17:48:59 GMT 52.363770 2.462540 21,475 99 286 960
2019-01-15 17:48:55 GMT 52.364750 2.452541 21,425 99 286 1024
2019-01-15 17:48:52 GMT 52.365005 2.450180 21,250 98 284 1024
2019-01-15 17:48:49 GMT 52.366379 2.435826 21,275 99 286 960
2019-01-15 17:48:43 GMT 52.366882 2.431183 21,225 99 286 960
2019-01-15 17:48:40 GMT 52.367386 2.425842 21,175 99 286 960
2019-01-15 17:48:37 GMT 52.368210 2.417297 21,125 99 286 1024
2019-01-15 17:48:34 GMT 52.368660 2.412833 21,100 99 286 1024
2019-01-15 17:48:31 GMT 52.369812 2.401047 21,000 99 286 960
2019-01-15 17:48:27 GMT 52.370430 2.394706 20,950 98 286 1024
2019-01-15 17:48:24 GMT 52.370773 2.391281 20,875 98 286 1024
2019-01-15 17:48:21 GMT 52.371689 2.381444 20,800 98 285 1024
2019-01-15 17:48:18 GMT 52.372898 2.368652 20,750 98 285 1024
2019-01-15 17:48:15 GMT 52.372898 2.368652 20,750 98 285 1024
2019-01-15 17:48:09 GMT 52.373978 2.356720 20,375 98 285 960
2019-01-15 17:48:06 GMT 52.374298 2.353363 20,375 98 285 960
2019-01-15 17:48:03 GMT 52.375031 2.345657 20,550 98 285 1024
2019-01-15 17:47:59 GMT 52.375690 2.338205 20,475 98 285 1024
2019-01-15 17:47:56 GMT 52.376816 2.326126 20,425 98 285 1024
2019-01-15 17:47:53 GMT 52.376945 2.325021 20,375 98 284 1024
2019-01-15 17:47:50 GMT 52.377598 2.317801 20,325 98 284 1024
2019-01-15 17:47:47 GMT 52.378159 2.311680 20,125 98 284 1024
2019-01-15 17:47:44 GMT 52.379089 2.301243 20,200 98 284 1024
2019-01-15 17:47:41 GMT 52.379555 2.296613 19,300 97 282 1024
2019-01-15 17:47:38 GMT 52.380524 2.285767 18,675 98 284 960
2019-01-15 17:47:35 GMT 52.380524 2.285767 20,000 98 284 1024
2019-01-15 17:47:32 GMT 52.381088 2.279428 20,000 98 284 1024
2019-01-15 17:47:29 GMT 52.381668 2.273254 19,925 98 284 1024
2019-01-15 17:47:26 GMT 52.382401 2.265244 19,825 98 283 1024
2019-01-15 17:47:22 GMT 52.383091 2.257377 19,850 98 283 1024
2019-01-15 17:47:19 GMT 52.383698 2.250628 19,800 98 283 1024
2019-01-15 17:47:15 GMT 52.384323 2.243576 19,725 98 283 1024
2019-01-15 17:47:12 GMT 52.385101 2.234726 19,675 98 283 960
2019-01-15 17:47:09 GMT 52.385880 2.225800 19,600 97 283 1024
2019-01-15 17:47:03 GMT 52.386536 2.218140 19,550 97 283 1024
2019-01-15 17:47:00 GMT 52.387024 2.212219 19,475 97 283 1024
2019-01-15 17:46:57 GMT 52.387749 2.203073 19,375 97 283 960
2019-01-15 17:46:54 GMT 52.388119 2.198835 19,350 97 283 960
2019-01-15 17:46:49 GMT 52.388855 2.189560 19,300 97 282 1024
2019-01-15 17:46:46 GMT 52.389469 2.181885 19,200 97 282 1024
2019-01-15 17:46:43 GMT 52.389889 2.176392 19,175 97 282 960
2019-01-15 17:46:40 GMT 52.390503 2.169266 19,125 97 281 1024
2019-01-15 17:46:37 GMT 52.391144 2.161246 19,050 97 281 960
2019-01-15 17:46:34 GMT 52.391968 2.150955 18,975 97 280 1024
2019-01-15 17:46:31 GMT 52.391968 2.150955 18,800 97 280 1024
2019-01-15 17:46:28 GMT 52.392727 2.141078 18,875 97 279 960
2019-01-15 17:46:25 GMT 52.392975 2.137909 18,800 97 279 960
2019-01-15 17:46:22 GMT 52.393333 2.133545 18,775 97 278 1024
2019-01-15 17:46:18 GMT 52.394218 2.122245 18,450 97 276 1024
2019-01-15 17:46:15 GMT 52.394775 2.114947 18,675 97 277 960
2019-01-15 17:46:12 GMT 52.395950 2.100220 18,600 97 276 1024
2019-01-15 17:46:08 GMT 52.395950 2.100220 18,575 97 276 1024
2019-01-15 17:46:04 GMT 52.396313 2.095250 18,500 97 276 1024
2019-01-15 17:46:01 GMT 52.397057 2.086147 18,450 97 276 1024
2019-01-15 17:45:58 GMT 52.397385 2.081988 18,400 97 276 960
2019-01-15 17:45:55 GMT 52.397800 2.076651 18,400 97 276 960
2019-01-15 17:45:52 GMT 52.399109 2.059860 18,325 97 276 960
2019-01-15 17:45:48 GMT 52.399109 2.059860 18,250 97 276 1024
2019-01-15 17:45:44 GMT 52.400116 2.047043 18,175 97 276 960
2019-01-15 17:45:41 GMT 52.400116 2.047043 18,100 96 275 1216
2019-01-15 17:45:38 GMT 52.400711 2.038727 18,075 97 276 1216
2019-01-15 17:45:34 GMT 52.401062 2.032706 17,875 87 276 960
2019-01-15 17:45:31 GMT 52.401062 2.025173 17,950 82 275 960
2019-01-15 17:45:28 GMT 52.400024 2.013474 17,900 78 274 960
2019-01-15 17:45:25 GMT 52.400024 2.013474 17,875 72 272 1024
2019-01-15 17:45:22 GMT 52.399105 2.008065 17,775 66 271 960
2019-01-15 17:45:19 GMT 52.397942 2.003122 17,700 67 270 1024
2019-01-15 17:45:16 GMT 52.395939 1.996530 17,100 59 267 960
2019-01-15 17:45:13 GMT 52.393112 1.989746 17,650 52 264 1024
2019-01-15 17:45:10 GMT 52.391602 1.986694 17,550 41 257 1024
2019-01-15 17:45:07 GMT 52.389004 1.982326 17,550 39 256 896
2019-01-15 17:45:04 GMT 52.385788 1.978073 17,475 33 252 960
2019-01-15 17:45:01 GMT 52.377045 1.970673 17,400 10 237 960
2019-01-15 17:44:57 GMT 52.377045 1.970673 17,350 16 241 896
2019-01-15 17:44:53 GMT 52.375443 1.969910 17,300 18 241 960
2019-01-15 17:44:50 GMT 52.371452 1.968593 17,300 4 233 960
2019-01-15 17:44:45 GMT 52.364330 1.968515 17,175 353 226 896
2019-01-15 17:44:41 GMT 52.361027 1.969535 16,700 284 213 960
2019-01-15 17:44:37 GMT 52.358231 1.970978 17,075 339 220 960
2019-01-15 17:44:34 GMT 52.356277 1.972360 17,025 334 218 896
2019-01-15 17:44:31 GMT 52.353195 1.975174 16,975 327 215 960
2019-01-15 17:44:28 GMT 52.350784 1.978245 16,950 313 213 960
2019-01-15 17:44:21 GMT 52.346317 1.986720 16,800 300 212 896
2019-01-15 17:44:18 GMT 52.344593 1.992135 16,775 267 219 1024
2019-01-15 17:44:14 GMT 52.343536 1.997147 16,725 284 213 960
2019-01-15 17:44:10 GMT 52.342777 2.004299 16,650 274 216 1024
2019-01-15 17:44:07 GMT 52.342731 2.008222 16,550 267 219 1024
2019-01-15 17:44:03 GMT 52.343079 2.014313 16,550 261 221 960
2019-01-15 17:44:00 GMT 52.343994 2.020264 16,500 248 228 896
2019-01-15 17:43:57 GMT 52.345337 2.025879 16,425 223 246 960
2019-01-15 17:43:50 GMT 52.349667 2.036551 16,325 229 241 960
2019-01-15 17:43:46 GMT 52.352833 2.041731 16,275 225 245 960
2019-01-15 17:43:43 GMT 52.354797 2.044296 16,200 216 252 960
2019-01-15 17:43:38 GMT 52.359211 2.048872 16,150 210 258 960
2019-01-15 17:43:35 GMT 52.363724 2.052155 16,100 199 268 960
2019-01-15 17:43:31 GMT 52.367294 2.053986 16,000 191 276 384
2019-01-15 17:43:27 GMT 52.373978 2.055817 16,000 182 284 0
2019-01-15 17:43:23 GMT 52.380203 2.055893 16,000 172 291 0
2019-01-15 17:43:19 GMT 52.382858 2.055435 16,000 168 294 0
2019-01-15 17:43:16 GMT 52.388443 2.053680 16,000 165 295 0
2019-01-15 17:43:13 GMT 52.391602 2.052078 16,000 158 300 -64
2019-01-15 17:43:09 GMT 52.396080 2.049107 16,000 80 312 0
2019-01-15 17:43:06 GMT 52.403641 2.042007 16,000 146 306 0
2019-01-15 17:43:00 GMT 52.407806 2.036667 16,000 139 309 0
2019-01-15 17:42:57 GMT 52.410091 2.033177 16,000 131 312 0
2019-01-15 17:42:54 GMT 52.413208 2.027588 16,000 128 313 -64
2019-01-15 17:42:51 GMT 52.415588 2.022476 16,000 93 315 0
2019-01-15 17:42:47 GMT 52.418793 2.014236 16,000 111 316 0
2019-01-15 17:42:44 GMT 52.421448 2.004929 16,000 112 316 -64
2019-01-15 17:42:40 GMT 52.422615 1.999826 16,000 105 316 128
2019-01-15 17:42:37 GMT 52.424744 1.984406 16,000 93 315 0
2019-01-15 17:42:34 GMT 52.424744 1.984406 16,000 95 315 0
2019-01-15 17:42:31 GMT 52.425175 1.975656 16,000 91 315 0
2019-01-15 17:42:28 GMT 52.425175 1.970163 16,000 81 311 0
2019-01-15 17:42:25 GMT 52.424332 1.958237 16,000 66 305 0
2019-01-15 17:42:22 GMT 52.423874 1.954546 16,000 67 306 0
2019-01-15 17:42:19 GMT 52.422821 1.948242 16,000 73 308 64
2019-01-15 17:42:16 GMT 52.421406 1.941912 16,000 65 305 0
2019-01-15 17:42:12 GMT 52.417076 1.928650 16,600 19 277 -1920
2019-01-15 17:42:09 GMT 52.417076 1.928650 16,000 55 299 0
2019-01-15 17:42:05 GMT 52.413723 1.921430 16,000 52 297 -64
2019-01-15 17:42:02 GMT 52.411148 1.916809 16,000 43 292 64
2019-01-15 17:41:59 GMT 52.406799 1.910629 15,975 34 287 64
2019-01-15 17:41:56 GMT 52.403732 1.907120 16,875 21 279 -128
2019-01-15 17:41:53 GMT 52.401482 1.904951 16,000 28 284 -256
2019-01-15 17:41:49 GMT 52.394451 1.899850 16,000 20 278 -64
2019-01-15 17:41:46 GMT 52.392426 1.898651 16,300 19 276 -2176
2019-01-15 17:41:43 GMT 52.388443 1.896286 16,025 18 269 -2752
2019-01-15 17:41:40 GMT 52.380798 1.891785 16,050 19 278 -320
2019-01-15 17:41:37 GMT 52.378113 1.890198 16,050 19 278 -1600
2019-01-15 17:41:34 GMT 52.378113 1.890198 16,050 19 278 -1344
2019-01-15 17:41:30 GMT 52.372665 1.887059 16,100 18 271 -2688
2019-01-15 17:41:25 GMT 52.365417 1.883087 16,300 18 269 -2752
2019-01-15 17:41:22 GMT 52.364380 1.882586 16,400 17 268 -2816
2019-01-15 17:41:19 GMT 52.360657 1.880798 16,625 16 269 -2560
2019-01-15 17:41:16 GMT 52.356583 1.878815 16,775 17 275 -2112
2019-01-15 17:41:13 GMT 52.353298 1.877093 16,950 18 280 -1728
2019-01-15 17:41:10 GMT 52.349575 1.875052 16,950 18 285 -1856
2019-01-15 17:41:07 GMT 52.345963 1.873016 17,200 13 289 -3712
2019-01-15 17:41:04 GMT 52.342117 1.871185 17,150 16 289 -3328
2019-01-15 17:41:00 GMT 52.336075 1.869202 17,475 7 289 -2304
2019-01-15 17:40:56 GMT 52.330444 1.868362 17,625 1 295 -1600
2019-01-15 17:40:50 GMT 52.323738 1.868225 17,800 359 300 -1664
2019-01-15 17:40:46 GMT 52.317398 1.868896 17,925 355 308 -3136
2019-01-15 17:40:43 GMT 52.309677 1.870344 18,350 352 316 -4928
2019-01-15 17:40:37 GMT 52.302788 1.871913 18,650 353 316 -4992
2019-01-15 17:40:34 GMT 52.300461 1.872463 18,800 353 318 -5120
2019-01-15 17:40:31 GMT 52.295929 1.873322 18,975 355 320 -4992
2019-01-15 17:40:28 GMT 52.287704 1.874111 20,725 3 334 -4992
2019-01-15 17:40:22 GMT 52.281609 1.874111 19,825 2 333 -4992
2019-01-15 17:40:17 GMT 52.269012 1.872253 21,200 13 350 -5184
2019-01-15 17:40:14 GMT 52.269012 1.872253 20,525 8 342 -4992
2019-01-15 17:40:11 GMT 52.265408 1.871286 20,875 10 345 -5056
2019-01-15 17:40:08 GMT 52.261497 1.870030 21,875 13 350 -5184
2019-01-15 17:40:05 GMT 52.255325 1.867676 21,275 14 352 -4992
2019-01-15 17:40:02 GMT 52.251583 1.865949 21,450 16 354 -4608
2019-01-15 17:39:59 GMT 52.247486 1.863831 22,150 20 362 -4224
2019-01-15 17:39:56 GMT 52.242458 1.860927 22,050 21 364 -4288
2019-01-15 17:39:53 GMT 52.237106 1.857452 22,100 23 368 -4736
2019-01-15 17:39:50 GMT 52.228912 1.851120 22,550 27 371 -4736
2019-01-15 17:39:46 GMT 52.226486 1.849060 22,875 31 376 -4544
2019-01-15 17:39:43 GMT 52.221973 1.844918 23,675 30 375 -4608
2019-01-15 17:39:39 GMT 52.215454 1.838226 24,125 37 384 -4864
2019-01-15 17:39:36 GMT 52.212433 1.834869 23,500 36 382 -4736
2019-01-15 17:39:33 GMT 52.207451 1.828910 24,050 38 384 -4864
2019-01-15 17:39:30 GMT 52.204010 1.824341 23,850 38 384 -4864
2019-01-15 17:39:27 GMT 52.199303 1.817766 24,000 40 384 -4928
2019-01-15 17:39:24 GMT 52.194031 1.809616 24,525 45 382 -5248
2019-01-15 17:39:21 GMT 52.191833 1.805878 24,600 46 381 -5248
2019-01-15 17:39:18 GMT 52.187618 1.798148 25,000 75 348 -64
2019-01-15 17:39:15 GMT 52.184738 1.792526 25,350 54 374 -5056
2019-01-15 17:39:12 GMT 52.181473 1.785514 25,575 57 370 -5376
2019-01-15 17:39:09 GMT 52.179100 1.780021 25,675 56 371 -5312
2019-01-15 17:39:06 GMT 52.172974 1.763763 26,150 60 363 -4736
2019-01-15 17:39:03 GMT 52.172974 1.763763 26,400 62 360 -4160
2019-01-15 17:39:00 GMT 52.170441 1.755851 26,475 64 356 -3520
2019-01-15 17:38:57 GMT 52.168953 1.750750 26,700 67 354 -2880
2019-01-15 17:38:54 GMT 52.166977 1.743393 26,825 69 351 -2048
2019-01-15 17:38:51 GMT 52.164688 1.733551 26,850 69 351 -2048
2019-01-15 17:38:48 GMT 52.161594 1.717242 27,000 73 348 -192
2019-01-15 17:38:44 GMT 52.161594 1.717242 27,000 74 349 0
2019-01-15 17:38:41 GMT 52.160572 1.711199 27,000 75 349 -64
2019-01-15 17:38:38 GMT 52.159176 1.702567 27,000 75 349 -64
2019-01-15 17:38:35 GMT 52.157730 1.693464 27,000 75 349 64
2019-01-15 17:38:32 GMT 52.155716 1.680984 27,000 75 349 -128
2019-01-15 17:38:26 GMT 52.153976 1.670303 27,000 75 350 0
2019-01-15 17:38:23 GMT 52.152740 1.662674 27,000 75 350 0
2019-01-15 17:38:20 GMT 52.151958 1.657837 27,000 75 350 0
2019-01-15 17:38:17 GMT 52.150360 1.647949 27,000 75 350 -64
2019-01-15 17:38:14 GMT 52.149033 1.639786 27,000 75 350 0
2019-01-15 17:38:11 GMT 52.146378 1.623535 27,000 75 350 0
2019-01-15 17:38:08 GMT 52.146378 1.623535 27,000 75 350 0
2019-01-15 17:38:05 GMT 52.145737 1.619492 27,000 75 350 0
2019-01-15 17:38:02 GMT 52.143299 1.604475 27,000 75 350 0
2019-01-15 17:37:56 GMT 52.141479 1.593018 27,000 75 350 0
2019-01-15 17:37:53 GMT 52.140564 1.587372 27,000 75 350 0
2019-01-15 17:37:50 GMT 52.139530 1.581011 27,000 75 350 0
2019-01-15 17:37:47 GMT 52.138504 1.574631 27,000 75 350 0
2019-01-15 17:37:44 GMT 52.135620 1.557077 27,000 75 350 0
2019-01-15 17:37:41 GMT 52.135620 1.557077 27,000 75 350 0
2019-01-15 17:37:38 GMT 52.134430 1.549759 27,000 75 350 0
2019-01-15 17:37:34 GMT 52.131363 1.530914 27,000 75 350 0
2019-01-15 17:37:31 GMT 52.131363 1.530914 27,000 75 350 0
2019-01-15 17:37:28 GMT 52.129486 1.519241 27,000 75 350 0
2019-01-15 17:37:24 GMT 52.127289 1.505755 27,000 75 349 0
2019-01-15 17:37:21 GMT 52.127289 1.505755 27,000 75 349 0
2019-01-15 17:37:18 GMT 52.126144 1.498871 27,000 75 349 0
2019-01-15 17:37:14 GMT 52.124310 1.487706 27,000 75 349 -64
2019-01-15 17:37:11 GMT 52.123283 1.481349 27,000 75 349 0
2019-01-15 17:37:08 GMT 52.121979 1.473541 27,000 75 349 0
2019-01-15 17:37:05 GMT 52.121098 1.468166 27,000 75 349 0
2019-01-15 17:37:02 GMT 52.119690 1.459579 27,000 75 349 0
2019-01-15 17:36:59 GMT 52.117813 1.448135 27,000 75 349 0
2019-01-15 17:36:56 GMT 52.117046 1.443368 27,000 75 349 0
2019-01-15 17:36:53 GMT 52.115788 1.435756 27,000 75 349 0
2019-01-15 17:36:50 GMT 52.114471 1.427612 27,000 75 349 0
2019-01-15 17:36:47 GMT 52.113136 1.419512 27,000 75 349 -64
2019-01-15 17:36:43 GMT 52.111691 1.410958 27,000 75 349 0
2019-01-15 17:36:40 GMT 52.110306 1.402359 27,000 74 347 0
2019-01-15 17:36:37 GMT 52.107330 1.384354 27,000 75 349 0
2019-01-15 17:36:33 GMT 52.107330 1.384354 27,000 75 349 0
2019-01-15 17:36:30 GMT 52.106106 1.376744 27,000 75 349 0
2019-01-15 17:36:27 GMT 52.104664 1.368190 27,000 75 349 0
2019-01-15 17:36:24 GMT 52.103359 1.360343 27,000 74 350 0
2019-01-15 17:36:21 GMT 52.102520 1.355007 27,000 74 350 0
2019-01-15 17:36:18 GMT 52.100143 1.340790 27,000 74 350 0
2019-01-15 17:36:15 GMT 52.098751 1.332171 27,000 74 350 0
2019-01-15 17:36:09 GMT 52.097260 1.323318 27,000 74 350 0
2019-01-15 17:36:06 GMT 52.094696 1.307678 27,000 74 349 -64
2019-01-15 17:36:03 GMT 52.094696 1.307678 27,000 74 349 0
2019-01-15 17:36:00 GMT 52.093582 1.301095 27,000 74 349 0
2019-01-15 17:35:57 GMT 52.090511 1.282340 27,000 74 349 0
2019-01-15 17:35:54 GMT 52.090511 1.282340 27,000 74 349 0
2019-01-15 17:35:51 GMT 52.088741 1.271746 27,000 74 348 0
2019-01-15 17:35:48 GMT 52.088741 1.271746 27,000 74 348 0
2019-01-15 17:35:45 GMT 52.087299 1.263192 27,000 74 348 0
2019-01-15 17:35:42 GMT 52.085949 1.255110 27,000 74 348 0
2019-01-15 17:35:39 GMT 52.084644 1.247027 27,000 74 348 0
2019-01-15 17:35:36 GMT 52.083664 1.241226 27,000 74 347 0
2019-01-15 17:35:33 GMT 52.082016 1.231461 27,000 74 348 0
2019-01-15 17:35:30 GMT 52.081146 1.226120 27,000 74 348 0
2019-01-15 17:35:27 GMT 52.078629 1.211090 27,000 74 347 64
2019-01-15 17:35:24 GMT 52.078629 1.211090 27,000 74 347 0
2019-01-15 17:35:20 GMT 52.076500 1.198216 27,000 74 347 0
2019-01-15 17:35:17 GMT 52.074867 1.188485 27,000 74 347 0
2019-01-15 17:35:14 GMT 52.074234 1.184692 27,000 74 347 -64
2019-01-15 17:35:11 GMT 52.072769 1.175919 27,000 74 347 -64
2019-01-15 17:35:08 GMT 52.071579 1.168671 27,000 74 347 0
2019-01-15 17:35:05 GMT 52.069977 1.159134 27,000 74 346 0
2019-01-15 17:35:02 GMT 52.069561 1.156625 27,000 74 346 0
2019-01-15 17:34:59 GMT 52.067608 1.145089 27,000 74 345 0
2019-01-15 17:34:56 GMT 52.066910 1.140823 27,000 74 345 0
2019-01-15 17:34:53 GMT 52.064861 1.128610 27,000 74 346 0
2019-01-15 17:34:50 GMT 52.063934 1.122818 27,000 74 345 0
2019-01-15 17:34:47 GMT 52.063232 1.118801 27,000 74 346 0
2019-01-15 17:34:44 GMT 52.061604 1.109070 27,000 74 345 64
2019-01-15 17:34:41 GMT 52.059788 1.098083 27,000 74 347 0
2019-01-15 17:34:38 GMT 52.059540 1.096802 27,000 74 346 64
2019-01-15 17:34:35 GMT 52.058109 1.088039 27,000 74 346 -64
2019-01-15 17:34:32 GMT 52.055550 1.072736 27,000 74 347 0
2019-01-15 17:34:29 GMT 52.055550 1.072736 27,000 74 347 0
2019-01-15 17:34:26 GMT 52.054062 1.064026 27,000 74 347 0
2019-01-15 17:34:23 GMT 52.053177 1.058731 27,000 74 347 64
2019-01-15 17:34:20 GMT 52.051685 1.049979 27,000 74 347 64
2019-01-15 17:34:17 GMT 52.049454 1.036403 27,000 74 347 64
2019-01-15 17:34:14 GMT 52.047729 1.026123 27,000 74 347 64
2019-01-15 17:34:11 GMT 52.047729 1.026123 27,000 74 348 -128
2019-01-15 17:34:07 GMT 52.046082 1.016541 27,000 74 348 64
2019-01-15 17:34:04 GMT 52.044704 1.008231 27,000 74 348 128
2019-01-15 17:34:01 GMT 52.043976 1.003952 27,000 74 348 -128
2019-01-15 17:33:58 GMT 52.042561 0.995675 27,000 74 348 64
2019-01-15 17:33:55 GMT 52.040955 0.986099 27,000 74 348 0
2019-01-15 17:33:52 GMT 52.040085 0.980835 27,000 74 348 64
2019-01-15 17:33:49 GMT 52.038528 0.971756 27,000 74 329 -64
2019-01-15 17:33:46 GMT 52.035484 0.953613 27,000 74 348 -64
2019-01-15 17:33:43 GMT 52.035484 0.953613 27,000 74 349 0
2019-01-15 17:33:40 GMT 52.034882 0.950082 27,000 74 351 64
2019-01-15 17:33:37 GMT 52.033401 0.941315 27,000 74 349 64
2019-01-15 17:33:34 GMT 52.032074 0.933456 27,000 74 349 128
2019-01-15 17:33:31 GMT 52.030739 0.925363 27,000 74 348 0
2019-01-15 17:33:28 GMT 52.028084 0.909668 27,000 74 350 -128
2019-01-15 17:33:25 GMT 52.028084 0.909668 27,000 74 351 0
2019-01-15 17:33:22 GMT 52.027248 0.904646 27,000 74 351 0
2019-01-15 17:33:19 GMT 52.025757 0.896014 27,000 74 351 -64
2019-01-15 17:33:16 GMT 52.024220 0.886597 27,000 74 351 -64
2019-01-15 17:33:13 GMT 52.022049 0.873947 27,000 74 351 64
2019-01-15 17:33:10 GMT 52.020950 0.867310 27,000 74 351 0
2019-01-15 17:33:07 GMT 52.020950 0.867310 27,000 74 351 -64
2019-01-15 17:33:04 GMT 52.019379 0.857954 27,000 74 351 -64
2019-01-15 17:33:01 GMT 52.018295 0.851593 27,000 74 351 -64
2019-01-15 17:32:58 GMT 52.016830 0.842972 27,000 74 350 0
2019-01-15 17:32:55 GMT 52.015732 0.836411 27,000 74 350 0
2019-01-15 17:32:52 GMT 52.014397 0.828526 27,000 74 350 -64
2019-01-15 17:32:49 GMT 52.013096 0.820993 27,000 74 345 -64
2019-01-15 17:32:46 GMT 52.010441 0.805298 27,000 74 349 0
2019-01-15 17:32:43 GMT 52.010441 0.805298 27,000 74 348 0
2019-01-15 17:32:40 GMT 52.009136 0.797764 27,000 74 348 -64
2019-01-15 17:32:37 GMT 52.007904 0.790482 27,000 74 347 0
2019-01-15 17:32:34 GMT 52.006805 0.783997 27,000 74 347 0
2019-01-15 17:32:31 GMT 52.005459 0.775949 27,000 74 346 0
2019-01-15 17:32:28 GMT 52.003738 0.765982 27,000 74 346 0
2019-01-15 17:32:25 GMT 52.002457 0.758514 27,000 74 345 -64
2019-01-15 17:32:22 GMT 52.001595 0.753270 27,000 74 344 64
2019-01-15 17:32:19 GMT 51.999966 0.743774 27,000 74 344 64
2019-01-15 17:32:16 GMT 51.997467 0.729141 27,000 74 343 -64
2019-01-15 17:32:13 GMT 51.997467 0.729141 27,000 74 343 -64
2019-01-15 17:32:10 GMT 51.996185 0.721741 27,000 74 342 -64
2019-01-15 17:32:07 GMT 51.994949 0.714340 27,000 74 330 0
2019-01-15 17:32:04 GMT 51.993530 0.705948 27,000 74 341 -64
2019-01-15 17:32:01 GMT 51.992706 0.701242 27,000 74 341 -128
2019-01-15 17:31:58 GMT 51.991013 0.691223 27,000 74 339 -64
2019-01-15 17:31:55 GMT 51.990234 0.686798 26,375 74 338 -128
2019-01-15 17:31:52 GMT 51.988770 0.678253 27,000 74 338 -128
2019-01-15 17:31:49 GMT 51.987537 0.670872 27,000 74 337 -64
2019-01-15 17:31:46 GMT 51.986698 0.666085 27,000 74 336 -64
2019-01-15 17:31:43 GMT 51.984512 0.653451 27,000 74 335 0
2019-01-15 17:31:39 GMT 51.983440 0.647173 27,000 74 334 -64
2019-01-15 17:31:36 GMT 51.982231 0.639954 27,000 74 333 -64
2019-01-15 17:31:33 GMT 51.981033 0.633011 27,000 74 326 0
2019-01-15 17:31:30 GMT 51.979343 0.623239 27,000 74 330 -64
2019-01-15 17:31:27 GMT 51.978554 0.618452 27,000 74 329 -64
2019-01-15 17:31:24 GMT 51.977509 0.612488 27,000 74 326 0
2019-01-15 17:31:21 GMT 51.976040 0.603777 27,000 74 325 0
2019-01-15 17:31:18 GMT 51.974854 0.596924 27,000 74 324 -128
2019-01-15 17:31:15 GMT 51.973572 0.589447 27,000 74 323 0
2019-01-15 17:31:12 GMT 51.972610 0.583878 27,000 74 321 -64
2019-01-15 17:31:09 GMT 51.971382 0.576704 27,000 74 320 -64
2019-01-15 17:31:06 GMT 51.970173 0.569720 27,025 74 306 64
2019-01-15 17:31:03 GMT 51.968964 0.562814 27,000 74 318 -64
2019-01-15 17:31:00 GMT 51.967346 0.553436 27,000 74 316 0
2019-01-15 17:30:57 GMT 51.966217 0.546884 27,025 74 306 64
2019-01-15 17:30:54 GMT 51.965149 0.540771 27,000 74 313 -64
2019-01-15 17:30:51 GMT 51.964310 0.536054 27,025 74 312 0
2019-01-15 17:30:48 GMT 51.962681 0.526637 27,000 74 309 -64
2019-01-15 17:30:44 GMT 51.960815 0.515965 27,025 74 306 0
2019-01-15 17:30:41 GMT 51.960026 0.511571 27,025 74 306 64
2019-01-15 17:30:38 GMT 51.959278 0.507176 27,000 74 305 0
2019-01-15 17:30:35 GMT 51.957371 0.496268 27,025 74 272 1280
2019-01-15 17:30:32 GMT 51.956268 0.489960 27,025 74 299 0
2019-01-15 17:30:29 GMT 51.955673 0.486526 27,025 74 297 0
2019-01-15 17:30:26 GMT 51.954533 0.479946 27,025 74 297 0
2019-01-15 17:30:23 GMT 51.953182 0.472334 27,000 74 291 0
2019-01-15 17:30:20 GMT 51.952560 0.468750 27,000 74 266 1408
2019-01-15 17:30:17 GMT 51.951279 0.461655 27,000 74 288 128
2019-01-15 17:30:13 GMT 51.949997 0.454254 27,000 74 279 576
2019-01-15 17:30:10 GMT 51.948898 0.447928 26,875 74 281 256
2019-01-15 17:30:07 GMT 51.947826 0.441807 26,975 74 279 576
2019-01-15 17:30:04 GMT 51.946335 0.433197 26,925 74 277 1024
2019-01-15 17:30:01 GMT 51.945648 0.429459 26,875 74 276 1088
2019-01-15 17:29:58 GMT 51.943405 0.416565 26,800 74 275 1024
2019-01-15 17:29:55 GMT 51.943405 0.416565 26,750 74 274 1152
2019-01-15 17:29:52 GMT 51.942196 0.409633 26,725 74 274 1216
2019-01-15 17:29:49 GMT 51.941391 0.404892 26,700 74 273 1280
2019-01-15 17:29:46 GMT 51.940384 0.399017 26,650 74 273 1280
2019-01-15 17:29:43 GMT 51.939423 0.393524 26,475 74 272 1280
2019-01-15 17:29:40 GMT 51.938141 0.386276 26,450 74 272 1280
2019-01-15 17:29:37 GMT 51.937408 0.381927 26,400 74 272 1216
2019-01-15 17:29:34 GMT 51.936172 0.374908 26,350 74 272 1280
2019-01-15 17:29:31 GMT 51.935028 0.368434 26,225 74 271 1280
2019-01-15 17:29:28 GMT 51.934002 0.362627 26,200 74 271 1280
2019-01-15 17:29:25 GMT 51.931595 0.348816 26,100 74 271 1280
2019-01-15 17:29:22 GMT 51.931595 0.348816 26,050 74 270 1344
2019-01-15 17:29:19 GMT 51.930954 0.344925 25,975 74 270 1344
2019-01-15 17:29:16 GMT 51.930511 0.342381 25,925 74 270 1344
2019-01-15 17:29:13 GMT 51.928894 0.333099 25,925 74 270 1344
2019-01-15 17:29:10 GMT 51.927998 0.328020 25,850 74 269 1216
2019-01-15 17:29:07 GMT 51.926056 0.316772 25,725 74 269 1216
2019-01-15 17:29:04 GMT 51.926056 0.316772 25,675 74 269 1216
2019-01-15 17:29:01 GMT 51.924866 0.309982 25,650 74 268 1216
2019-01-15 17:28:58 GMT 51.923950 0.304642 25,550 74 267 1280
2019-01-15 17:28:55 GMT 51.922760 0.297699 25,525 74 267 1280
2019-01-15 17:28:52 GMT 51.922028 0.293427 25,425 74 266 1344
2019-01-15 17:28:49 GMT 51.921021 0.287476 25,325 74 266 1472
2019-01-15 17:28:46 GMT 51.920269 0.283290 24,950 74 266 1600
2019-01-15 17:28:43 GMT 51.918686 0.273873 25,225 74 266 1600
2019-01-15 17:28:39 GMT 51.918034 0.270028 25,125 74 266 1600
2019-01-15 17:28:36 GMT 51.916779 0.262573 25,025 74 266 1536
2019-01-15 17:28:33 GMT 51.915985 0.257943 24,950 74 267 1408
2019-01-15 17:28:30 GMT 51.915150 0.252921 24,900 74 267 1408
2019-01-15 17:28:27 GMT 51.912960 0.239659 24,800 75 267 1344
2019-01-15 17:28:24 GMT 51.912960 0.239659 24,725 74 266 1344
2019-01-15 17:28:21 GMT 51.912075 0.234480 24,700 74 266 1408
2019-01-15 17:28:18 GMT 51.911007 0.227966 24,575 75 265 1600
2019-01-15 17:28:15 GMT 51.910355 0.223923 24,525 75 265 1600
2019-01-15 17:28:12 GMT 51.909073 0.216217 24,425 75 265 1600
2019-01-15 17:28:09 GMT 51.908478 0.212402 24,300 75 265 1536
2019-01-15 17:28:06 GMT 51.907467 0.206464 24,275 74 266 1472
2019-01-15 17:28:03 GMT 51.906281 0.199203 24,200 74 266 1280
2019-01-15 17:28:00 GMT 51.904541 0.188675 24,075 75 264 1024
2019-01-15 17:27:57 GMT 51.903809 0.183868 24,075 75 264 1024
2019-01-15 17:27:54 GMT 51.902847 0.177994 24,025 75 263 704
2019-01-15 17:27:51 GMT 51.902847 0.177994 24,000 75 263 512
2019-01-15 17:27:45 GMT 51.900879 0.165634 23,975 75 263 64
2019-01-15 17:27:42 GMT 51.899879 0.159380 23,950 75 261 320
2019-01-15 17:27:39 GMT 51.899048 0.154114 23,950 75 260 512
2019-01-15 17:27:36 GMT 51.897217 0.142517 23,875 75 258 1472
2019-01-15 17:27:33 GMT 51.897217 0.142517 23,775 75 259 1600
2019-01-15 17:27:30 GMT 51.896530 0.138397 23,775 75 259 1856
2019-01-15 17:27:27 GMT 51.895596 0.132385 23,725 75 260 1984
2019-01-15 17:27:24 GMT 51.893326 0.119068 23,500 73 267 1536
2019-01-15 17:27:21 GMT 51.893326 0.119068 23,450 73 268 1344
2019-01-15 17:27:18 GMT 51.892338 0.113831 23,400 73 270 1088
2019-01-15 17:27:15 GMT 51.891315 0.108414 23,350 71 271 768
2019-01-15 17:27:12 GMT 51.890385 0.103836 23,300 71 271 768
2019-01-15 17:27:09 GMT 51.889069 0.097689 23,300 70 271 832
2019-01-15 17:27:06 GMT 51.887310 0.090103 23,225 66 270 384
2019-01-15 17:27:03 GMT 51.884720 0.080987 23,200 62 268 256
2019-01-15 17:27:00 GMT 51.884720 0.080987 23,200 62 268 320
2019-01-15 17:26:57 GMT 51.883121 0.076294 23,200 59 265 576
2019-01-15 17:26:54 GMT 51.880562 0.069504 23,150 58 265 576
2019-01-15 17:26:51 GMT 51.876789 0.059814 23,100 57 264 576
2019-01-15 17:26:48 GMT 51.876789 0.059814 23,075 57 264 640
2019-01-15 17:26:45 GMT 51.874924 0.055006 23,075 57 264 704
2019-01-15 17:26:42 GMT 51.873440 0.051193 22,725 57 263 896
2019-01-15 17:26:39 GMT 51.869713 0.041656 22,950 57 264 704
2019-01-15 17:26:33 GMT 51.866959 0.034444 22,900 57 265 512
2019-01-15 17:26:30 GMT 51.865173 0.029915 22,875 57 265 576
2019-01-15 17:26:27 GMT 51.863567 0.025711 22,850 57 264 576
2019-01-15 17:26:24 GMT 51.861008 0.019226 22,825 57 264 512
2019-01-15 17:26:21 GMT 51.859726 0.015886 22,800 57 264 512
2019-01-15 17:26:18 GMT 51.857758 0.010838 22,775 57 263 576
2019-01-15 17:26:15 GMT 51.854965 0.003712 22,725 57 263 640
2019-01-15 17:26:12 GMT 51.853729 0.000520 22,700 57 264 832
2019-01-15 17:26:09 GMT 51.852036 -0.003786 22,625 57 263 896
2019-01-15 17:26:06 GMT 51.847641 -0.015143 22,550 57 264 384
2019-01-15 17:26:03 GMT 51.847641 -0.015143 22,525 57 264 576
2019-01-15 17:26:00 GMT 51.846020 -0.019302 22,525 57 264 384
2019-01-15 17:25:57 GMT 51.844250 -0.023804 22,525 57 264 384
2019-01-15 17:25:54 GMT 51.841595 -0.030670 22,500 57 264 576
2019-01-15 17:25:51 GMT 51.840572 -0.033340 22,475 58 262 704
2019-01-15 17:25:48 GMT 51.837872 -0.040283 22,450 58 262 704
2019-01-15 17:25:45 GMT 51.835602 -0.046098 22,325 58 262 768
2019-01-15 17:25:42 GMT 51.833954 -0.050478 22,375 58 262 704
2019-01-15 17:25:39 GMT 51.832260 -0.054783 22,250 57 263 768
2019-01-15 17:25:36 GMT 51.830704 -0.058717 22,325 58 262 768
2019-01-15 17:25:33 GMT 51.828144 -0.065384 22,225 57 263 640
2019-01-15 17:25:30 GMT 51.826721 -0.069036 22,200 57 263 704
2019-01-15 17:25:27 GMT 51.824558 -0.074539 22,200 57 264 640
2019-01-15 17:25:23 GMT 51.820770 -0.084402 22,125 57 263 576
2019-01-15 17:25:20 GMT 51.820183 -0.085907 22,100 57 263 704
2019-01-15 17:25:17 GMT 51.817886 -0.091676 21,900 57 263 832
2019-01-15 17:25:14 GMT 51.816238 -0.095982 22,025 57 263 768
2019-01-15 17:25:11 GMT 51.811897 -0.107117 21,875 57 263 832
2019-01-15 17:25:08 GMT 51.811897 -0.107117 21,950 57 263 768
2019-01-15 17:25:05 GMT 51.810593 -0.110474 21,900 57 263 768
2019-01-15 17:25:02 GMT 51.808685 -0.115282 21,875 57 263 768
2019-01-15 17:24:59 GMT 51.805573 -0.123225 21,825 57 263 768
2019-01-15 17:24:56 GMT 51.804291 -0.126565 21,800 57 263 576
2019-01-15 17:24:53 GMT 51.802261 -0.131760 21,775 57 263 448
2019-01-15 17:24:50 GMT 51.800903 -0.135251 21,775 57 263 384
2019-01-15 17:24:47 GMT 51.798397 -0.141678 21,725 57 262 640
2019-01-15 17:24:44 GMT 51.797012 -0.145198 21,675 57 262 768
2019-01-15 17:24:41 GMT 51.794312 -0.152175 21,675 57 262 768
2019-01-15 17:24:38 GMT 51.792717 -0.156250 21,650 57 262 704
2019-01-15 17:24:34 GMT 51.790108 -0.162888 21,575 57 262 768
2019-01-15 17:24:31 GMT 51.788132 -0.167987 21,550 57 262 640
2019-01-15 17:24:28 GMT 51.785873 -0.173798 21,500 57 261 448
2019-01-15 17:24:25 GMT 51.782333 -0.182800 21,475 57 261 640
2019-01-15 17:24:22 GMT 51.782333 -0.182800 21,450 57 260 896
2019-01-15 17:24:19 GMT 51.780472 -0.187607 21,400 57 260 832
2019-01-15 17:24:16 GMT 51.778839 -0.191667 21,375 57 260 768
2019-01-15 17:24:13 GMT 51.776642 -0.197234 21,350 57 260 640
2019-01-15 17:24:10 GMT 51.773071 -0.206365 21,275 57 258 704
2019-01-15 17:24:07 GMT 51.770370 -0.213194 21,250 57 258 704
2019-01-15 17:24:04 GMT 51.770370 -0.213194 21,225 57 258 768
2019-01-15 17:24:01 GMT 51.768787 -0.217285 21,200 57 258 832
2019-01-15 17:23:58 GMT 51.766972 -0.221863 21,075 57 258 1024
2019-01-15 17:23:55 GMT 51.765484 -0.225754 21,125 57 258 1024
2019-01-15 17:23:52 GMT 51.762726 -0.232717 21,050 57 258 896
2019-01-15 17:23:49 GMT 51.761444 -0.235983 20,875 57 259 960
2019-01-15 17:23:46 GMT 51.758881 -0.242516 20,950 57 259 1024
2019-01-15 17:23:43 GMT 51.757244 -0.246582 20,900 57 259 960
2019-01-15 17:23:40 GMT 51.753433 -0.256174 20,825 57 259 960
2019-01-15 17:23:34 GMT 51.751797 -0.260239 20,675 57 260 832
2019-01-15 17:23:31 GMT 51.749004 -0.267181 20,700 57 260 832
2019-01-15 17:23:28 GMT 51.747986 -0.269833 20,600 57 259 768
2019-01-15 17:23:25 GMT 51.745972 -0.274881 20,625 57 259 832
2019-01-15 17:23:22 GMT 51.743744 -0.280380 20,600 57 259 704
2019-01-15 17:23:19 GMT 51.741928 -0.284958 20,550 56 258 512
2019-01-15 17:23:16 GMT 51.740021 -0.289579 20,525 56 257 448
2019-01-15 17:23:13 GMT 51.737831 -0.295105 20,500 56 257 576
2019-01-15 17:23:10 GMT 51.736202 -0.299072 20,500 56 257 704
2019-01-15 17:23:07 GMT 51.734161 -0.303980 20,450 56 255 1152
2019-01-15 17:23:04 GMT 51.732197 -0.308762 20,400 56 255 1280
2019-01-15 17:23:01 GMT 51.728474 -0.317688 20,275 56 257 1152
2019-01-15 17:22:55 GMT 51.726242 -0.323057 20,200 55 258 1152
2019-01-15 17:22:52 GMT 51.723495 -0.329441 20,125 55 258 832
2019-01-15 17:22:49 GMT 51.719910 -0.337830 20,075 55 259 832
2019-01-15 17:22:46 GMT 51.719910 -0.337830 20,050 55 259 768
2019-01-15 17:22:43 GMT 51.717861 -0.342560 20,000 55 258 640
2019-01-15 17:22:40 GMT 51.715897 -0.347183 19,975 55 257 640
2019-01-15 17:22:37 GMT 51.714462 -0.350418 19,950 55 257 704
2019-01-15 17:22:34 GMT 51.712234 -0.355645 19,925 55 257 768
2019-01-15 17:22:31 GMT 51.709854 -0.361138 19,850 55 255 960
2019-01-15 17:22:28 GMT 51.707886 -0.365667 19,825 55 255 1024
2019-01-15 17:22:25 GMT 51.705597 -0.370937 19,775 55 255 1024
2019-01-15 17:22:22 GMT 51.703445 -0.375911 19,725 55 254 1024
2019-01-15 17:22:19 GMT 51.701427 -0.380630 19,600 55 254 1024
2019-01-15 17:22:16 GMT 51.699890 -0.384140 19,575 55 254 960
2019-01-15 17:22:13 GMT 51.697983 -0.388489 19,550 55 254 896
2019-01-15 17:22:10 GMT 51.695480 -0.394246 19,500 54 254 832
2019-01-15 17:22:07 GMT 51.693878 -0.397957 19,450 54 254 832
2019-01-15 17:22:04 GMT 51.691326 -0.403824 19,350 54 253 832
2019-01-15 17:22:01 GMT 51.689987 -0.406940 19,350 54 253 896
2019-01-15 17:21:58 GMT 51.687229 -0.413208 19,325 54 253 960
2019-01-15 17:21:55 GMT 51.685272 -0.417703 19,150 54 253 960
2019-01-15 17:21:52 GMT 51.683224 -0.422287 19,225 54 251 960
2019-01-15 17:21:49 GMT 51.681839 -0.425498 19,175 54 251 960
2019-01-15 17:21:46 GMT 51.679642 -0.430603 19,125 54 251 768
2019-01-15 17:21:43 GMT 51.676941 -0.436707 19,075 54 251 960
2019-01-15 17:21:40 GMT 51.675964 -0.438995 19,025 54 250 1024
2019-01-15 17:21:37 GMT 51.673820 -0.443878 19,025 54 250 1024
2019-01-15 17:21:34 GMT 51.669754 -0.453186 18,875 55 251 768
2019-01-15 17:21:28 GMT 51.667374 -0.458679 18,850 55 249 960
2019-01-15 17:21:25 GMT 51.665131 -0.463875 18,825 55 249 1024
2019-01-15 17:21:22 GMT 51.663162 -0.468445 18,775 55 249 1024
2019-01-15 17:21:19 GMT 51.661285 -0.472709 18,675 55 249 1152
2019-01-15 17:21:16 GMT 51.659252 -0.477448 18,650 55 249 1088
2019-01-15 17:21:13 GMT 51.657249 -0.482025 18,600 55 249 960
2019-01-15 17:21:10 GMT 51.655014 -0.487213 18,525 54 250 832
2019-01-15 17:21:07 GMT 51.653778 -0.490079 18,500 54 249 832
2019-01-15 17:21:04 GMT 51.649567 -0.499573 18,425 54 248 832
2019-01-15 17:21:01 GMT 51.649567 -0.499573 18,375 54 248 896
2019-01-15 17:20:57 GMT 51.647141 -0.505148 18,375 54 247 1088
2019-01-15 17:20:54 GMT 51.642960 -0.514755 18,250 54 246 1344
2019-01-15 17:20:51 GMT 51.642960 -0.514755 18,175 55 247 1280
2019-01-15 17:20:48 GMT 51.641190 -0.518875 18,150 55 248 1216
2019-01-15 17:20:45 GMT 51.639542 -0.522667 18,125 54 249 1088
2019-01-15 17:20:42 GMT 51.637253 -0.527789 18,025 36 233 1856
2019-01-15 17:20:39 GMT 51.634766 -0.532990 18,000 51 248 640
2019-01-15 17:20:36 GMT 51.633087 -0.535965 17,975 44 243 704
2019-01-15 17:20:33 GMT 51.629745 -0.540780 17,950 40 241 896
2019-01-15 17:20:30 GMT 51.628529 -0.542374 17,925 37 240 960
2019-01-15 17:20:27 GMT 51.622429 -0.549698 17,825 37 239 960
2019-01-15 17:20:24 GMT 51.622429 -0.549698 17,775 37 239 960
2019-01-15 17:20:21 GMT 51.620239 -0.552368 17,750 37 239 960
2019-01-15 17:20:18 GMT 51.616516 -0.556888 17,700 36 238 1088
2019-01-15 17:20:15 GMT 51.614841 -0.558929 17,650 36 238 1088
2019-01-15 17:20:12 GMT 51.612141 -0.562210 17,600 36 238 1152
2019-01-15 17:20:09 GMT 51.609020 -0.565872 17,500 36 239 896
2019-01-15 17:20:06 GMT 51.606834 -0.568542 17,375 36 237 640
2019-01-15 17:20:03 GMT 51.600735 -0.575790 17,425 36 238 640
2019-01-15 17:20:00 GMT 51.600735 -0.575790 17,400 36 237 640
2019-01-15 17:19:54 GMT 51.593193 -0.584717 17,325 36 235 640
2019-01-15 17:19:51 GMT 51.593193 -0.584717 17,300 36 233 1024
2019-01-15 17:19:48 GMT 51.590775 -0.587616 17,275 36 233 1536
2019-01-15 17:19:45 GMT 51.588272 -0.590589 17,200 36 233 1856
2019-01-15 17:19:42 GMT 51.585526 -0.593930 17,175 36 233 1856
2019-01-15 17:19:39 GMT 51.583324 -0.596542 16,950 36 238 2240
2019-01-15 17:19:36 GMT 51.580627 -0.599794 16,850 36 245 1344
2019-01-15 17:19:33 GMT 51.577606 -0.603357 16,825 36 238 2176
2019-01-15 17:19:30 GMT 51.574402 -0.607143 16,750 36 241 1984
2019-01-15 17:19:27 GMT 51.572205 -0.609741 16,575 36 246 1152
2019-01-15 17:19:24 GMT 51.568615 -0.613937 16,525 36 246 1024
2019-01-15 17:19:21 GMT 51.566238 -0.616760 16,500 36 246 960
2019-01-15 17:19:18 GMT 51.564560 -0.618649 16,300 35 245 832
2019-01-15 17:19:15 GMT 51.558060 -0.626221 16,375 35 244 896
2019-01-15 17:19:12 GMT 51.555496 -0.629190 16,325 36 244 896
2019-01-15 17:19:09 GMT 51.555496 -0.629190 16,275 35 244 1024
2019-01-15 17:19:06 GMT 51.552273 -0.632935 16,250 35 244 1088
2019-01-15 17:19:03 GMT 51.549900 -0.635681 16,200 35 244 1088
2019-01-15 17:19:00 GMT 51.546734 -0.639420 16,125 35 244 1088
2019-01-15 17:18:57 GMT 51.544964 -0.641403 16,100 35 244 1024
2019-01-15 17:18:54 GMT 51.539612 -0.647674 16,025 35 244 1088
2019-01-15 17:18:51 GMT 51.539612 -0.647674 15,950 36 244 1024
2019-01-15 17:18:48 GMT 51.536224 -0.651608 15,900 36 244 1088
2019-01-15 17:18:45 GMT 51.533386 -0.654948 15,900 36 244 896
2019-01-15 17:18:42 GMT 51.530907 -0.657806 15,825 36 244 1024
2019-01-15 17:18:39 GMT 51.525555 -0.664063 15,750 36 244 960
2019-01-15 17:18:36 GMT 51.525555 -0.664063 15,725 36 244 896
2019-01-15 17:18:33 GMT 51.523178 -0.666809 15,675 35 243 896
2019-01-15 17:18:30 GMT 51.520248 -0.670240 15,650 35 243 832
2019-01-15 17:18:27 GMT 51.517685 -0.673210 15,600 35 243 768
2019-01-15 17:18:24 GMT 51.514160 -0.677367 15,550 35 242 768
2019-01-15 17:18:21 GMT 51.512695 -0.679000 15,500 35 242 768
2019-01-15 17:18:18 GMT 51.509865 -0.682297 15,475 35 242 832
2019-01-15 17:18:15 GMT 51.503395 -0.689850 15,400 35 240 1216
2019-01-15 17:18:12 GMT 51.503395 -0.689850 15,350 35 240 1408
2019-01-15 17:18:09 GMT 51.501297 -0.692213 15,325 36 241 1472
2019-01-15 17:18:06 GMT 51.497528 -0.696640 15,200 35 242 1408
2019-01-15 17:18:03 GMT 51.495060 -0.699463 15,000 35 244 384
2019-01-15 17:18:00 GMT 51.493061 -0.701828 15,125 35 244 896
2019-01-15 17:17:57 GMT 51.491135 -0.704016 15,050 35 244 576
2019-01-15 17:17:54 GMT 51.487839 -0.707876 15,025 35 244 320
2019-01-15 17:17:51 GMT 51.483856 -0.712552 15,000 38 241 128
2019-01-15 17:17:48 GMT 51.482300 -0.714557 15,000 58 224 576
2019-01-15 17:17:45 GMT 51.479607 -0.718536 15,000 50 238 0
2019-01-15 17:17:41 GMT 51.476349 -0.724949 15,000 56 237 64
2019-01-15 17:17:38 GMT 51.474792 -0.728809 14,975 57 235 64
2019-01-15 17:17:34 GMT 51.472252 -0.735245 14,975 58 230 0
2019-01-15 17:17:31 GMT 51.470901 -0.738678 14,975 58 226 256
2019-01-15 17:17:28 GMT 51.469254 -0.742988 14,975 58 223 768
2019-01-15 17:17:25 GMT 51.467594 -0.747299 14,950 58 222 960
2019-01-15 17:17:22 GMT 51.465729 -0.752192 14,850 58 219 1536
2019-01-15 17:17:19 GMT 51.464382 -0.755615 14,750 58 219 1472
2019-01-15 17:17:16 GMT 51.461636 -0.762863 14,700 58 220 1216
2019-01-15 17:17:13 GMT 51.461636 -0.762863 14,575 58 219 1216
2019-01-15 17:17:10 GMT 51.459549 -0.768375 14,550 59 217 1280
2019-01-15 17:17:07 GMT 51.458286 -0.771713 14,550 59 217 1280
2019-01-15 17:17:03 GMT 51.456188 -0.777283 14,425 58 217 1216
2019-01-15 17:17:00 GMT 51.454559 -0.781631 14,375 58 216 1152
2019-01-15 17:16:57 GMT 51.453304 -0.784912 14,325 58 214 1152
2019-01-15 17:16:54 GMT 51.451675 -0.789337 14,300 58 214 1088
2019-01-15 17:16:51 GMT 51.450027 -0.793688 14,175 58 212 1216
2019-01-15 17:16:48 GMT 51.448181 -0.798492 14,125 58 212 1216
2019-01-15 17:16:45 GMT 51.447144 -0.801334 14,025 58 211 1216
2019-01-15 17:16:42 GMT 51.445129 -0.806679 14,000 58 211 1152
2019-01-15 17:16:39 GMT 51.443390 -0.811207 13,975 58 210 1216
2019-01-15 17:16:36 GMT 51.442364 -0.813980 13,900 58 209 1216
2019-01-15 17:16:30 GMT 51.439499 -0.821525 13,775 58 208 1408
2019-01-15 17:16:27 GMT 51.437988 -0.825653 13,675 58 207 1536
2019-01-15 17:16:24 GMT 51.436684 -0.829010 12,700 58 208 1664
2019-01-15 17:16:21 GMT 51.434685 -0.834274 13,550 58 208 1664
2019-01-15 17:16:18 GMT 51.432541 -0.839934 13,400 58 208 1536
2019-01-15 17:16:15 GMT 51.431854 -0.841790 13,350 58 208 1536
2019-01-15 17:16:12 GMT 51.430023 -0.846541 13,275 58 209 1536
2019-01-15 17:16:09 GMT 51.429016 -0.849139 13,150 58 210 1472
2019-01-15 17:16:06 GMT 51.427277 -0.853667 13,125 58 210 1472
2019-01-15 17:16:03 GMT 51.426025 -0.856934 12,700 58 207 1664
2019-01-15 17:16:00 GMT 51.424488 -0.860901 12,875 58 209 1280
2019-01-15 17:15:57 GMT 51.422516 -0.866064 12,875 58 209 1344
2019-01-15 17:15:54 GMT 51.421005 -0.869998 12,550 58 208 1472
2019-01-15 17:15:51 GMT 51.418110 -0.877457 12,650 58 207 1600
2019-01-15 17:15:48 GMT 51.418110 -0.877457 12,700 58 207 1600
2019-01-15 17:15:45 GMT 51.416805 -0.880814 12,600 58 207 1600
2019-01-15 17:15:42 GMT 51.415421 -0.884325 12,500 58 207 1600
2019-01-15 17:15:39 GMT 51.413544 -0.889299 12,500 58 207 1600
2019-01-15 17:15:36 GMT 51.412151 -0.892792 12,375 58 207 1472
2019-01-15 17:15:33 GMT 51.409012 -0.901027 12,250 58 207 1408
2019-01-15 17:15:30 GMT 51.409012 -0.901027 12,225 58 206 1408
2019-01-15 17:15:27 GMT 51.407730 -0.904219 12,150 58 205 1344
2019-01-15 17:15:24 GMT 51.406147 -0.908356 12,100 58 205 1408
2019-01-15 17:15:21 GMT 51.404888 -0.911713 12,075 59 204 1472
2019-01-15 17:15:18 GMT 51.403214 -0.916443 12,000 60 204 1472
2019-01-15 17:15:15 GMT 51.402050 -0.920410 11,825 72 205 1280
2019-01-15 17:15:12 GMT 51.401276 -0.924188 11,800 77 205 1344
2019-01-15 17:15:09 GMT 51.400635 -0.928939 11,525 80 203 1600
2019-01-15 17:15:06 GMT 51.400188 -0.932922 11,625 80 203 1664
2019-01-15 17:15:03 GMT 51.399719 -0.937401 11,600 80 203 1664
2019-01-15 17:15:00 GMT 51.399117 -0.943069 11,500 80 203 1664
2019-01-15 17:14:57 GMT 51.398666 -0.947719 11,325 80 202 1472
2019-01-15 17:14:53 GMT 51.397766 -0.956497 11,250 80 203 1536
2019-01-15 17:14:50 GMT 51.397766 -0.956497 11,025 80 203 1472
2019-01-15 17:14:47 GMT 51.397202 -0.961675 11,150 80 203 1472
2019-01-15 17:14:44 GMT 51.396744 -0.966263 11,075 80 202 1472
2019-01-15 17:14:41 GMT 51.396194 -0.971696 11,025 80 202 1536
2019-01-15 17:14:38 GMT 51.395813 -0.975113 10,925 80 202 1472
2019-01-15 17:14:35 GMT 51.395416 -0.978971 10,050 80 201 1280
2019-01-15 17:14:32 GMT 51.395004 -0.983202 10,850 80 201 1280
2019-01-15 17:14:29 GMT 51.394501 -0.988176 10,300 79 199 1792
2019-01-15 17:14:26 GMT 51.394043 -0.992258 10,650 80 198 1728
2019-01-15 17:14:23 GMT 51.393578 -0.996628 10,600 80 198 1728
2019-01-15 17:14:20 GMT 51.393158 -1.000366 10,525 73 198 1536
2019-01-15 17:14:17 GMT 51.391296 -1.010666 10,300 25 187 1920
2019-01-15 17:14:13 GMT 51.391296 -1.010666 10,275 64 198 1472
2019-01-15 17:14:10 GMT 51.389435 -1.015854 10,225 50 195 1536
2019-01-15 17:14:07 GMT 51.386269 -1.021576 9,575 356 181 1920
2019-01-15 17:14:04 GMT 51.386269 -1.021576 10,050 40 192 1664
2019-01-15 17:14:01 GMT 51.381428 -1.026535 9,950 28 188 1856
2019-01-15 17:13:58 GMT 51.381428 -1.026535 9,875 22 186 1920
2019-01-15 17:13:55 GMT 51.379898 -1.027519 9,750 15 185 1984
2019-01-15 17:13:52 GMT 51.376785 -1.028781 9,675 8 183 2048
2019-01-15 17:13:49 GMT 51.374588 -1.029077 9,625 342 177 1728
2019-01-15 17:13:46 GMT 51.371887 -1.028855 9,450 351 180 1856
2019-01-15 17:13:43 GMT 51.369881 -1.028214 9,350 338 176 1664
2019-01-15 17:13:40 GMT 51.367264 -1.026702 9,250 331 173 1408
2019-01-15 17:13:37 GMT 51.365891 -1.025589 9,250 327 171 1344
2019-01-15 17:13:34 GMT 51.363922 -1.023254 9,200 321 169 1280
2019-01-15 17:13:31 GMT 51.361679 -1.019427 9,075 305 161 1792
2019-01-15 17:13:28 GMT 51.360573 -1.016998 9,025 305 161 1792
2019-01-15 17:13:25 GMT 51.359070 -1.013563 8,950 316 165 1472
2019-01-15 17:13:22 GMT 51.357971 -1.011262 8,825 313 164 1728
2019-01-15 17:13:19 GMT 51.356049 -1.008070 8,700 316 166 1728
2019-01-15 17:13:16 GMT 51.354427 -1.005478 8,650 316 165 1664
2019-01-15 17:13:13 GMT 51.352982 -1.003319 8,525 316 165 1408
2019-01-15 17:13:10 GMT 51.350967 -1.000127 8,450 316 164 1344
2019-01-15 17:13:07 GMT 51.349957 -0.998535 8,475 316 164 1280
2019-01-15 17:13:04 GMT 51.348328 -0.995941 8,000 317 158 1856
2019-01-15 17:13:01 GMT 51.344559 -0.990143 8,250 316 159 1792
2019-01-15 17:12:57 GMT 51.344559 -0.990143 8,225 316 157 1984
2019-01-15 17:12:54 GMT 51.342743 -0.987244 8,175 316 157 1984
2019-01-15 17:12:51 GMT 51.341354 -0.985132 7,800 317 158 1856
2019-01-15 17:12:48 GMT 51.338970 -0.981445 7,850 316 159 1728
2019-01-15 17:12:45 GMT 51.337967 -0.979862 7,725 317 158 1856
2019-01-15 17:12:42 GMT 51.336597 -0.977707 7,725 317 158 1856
2019-01-15 17:12:39 GMT 51.335449 -0.975927 7,650 317 158 1856
2019-01-15 17:12:36 GMT 51.333618 -0.973107 7,400 316 159 1792
2019-01-15 17:12:33 GMT 51.331757 -0.970230 7,400 316 159 1600
2019-01-15 17:12:30 GMT 51.330460 -0.968207 7,350 316 159 1536
2019-01-15 17:12:27 GMT 51.328823 -0.965652 7,300 316 158 1472
2019-01-15 17:12:24 GMT 51.325703 -0.960693 7,175 316 156 1472
2019-01-15 17:12:18 GMT 51.322540 -0.955811 7,025 316 154 1280
2019-01-15 17:12:12 GMT 51.321030 -0.953435 6,925 316 152 1408
2019-01-15 17:12:09 GMT 51.317780 -0.948239 6,825 316 149 1600
2019-01-15 17:12:06 GMT 51.317780 -0.948239 6,775 316 148 1792
2019-01-15 17:12:03 GMT 51.316673 -0.946503 6,725 316 147 1728
2019-01-15 17:12:00 GMT 51.315216 -0.944230 6,500 316 147 2048
2019-01-15 17:11:57 GMT 51.314026 -0.942375 6,550 316 147 1920
2019-01-15 17:11:54 GMT 51.312202 -0.939560 6,425 316 150 2048
2019-01-15 17:11:51 GMT 51.310436 -0.936813 5,875 317 178 1472
2019-01-15 17:11:48 GMT 51.309177 -0.934830 6,125 316 152 1984
2019-01-15 17:11:45 GMT 51.307690 -0.932617 6,150 316 152 1984
2019-01-15 17:11:42 GMT 51.304138 -0.927083 5,950 316 153 1984
2019-01-15 17:11:38 GMT 51.304138 -0.927083 5,875 317 154 1984
2019-01-15 17:11:35 GMT 51.302662 -0.924835 5,775 317 157 1984
2019-01-15 17:11:32 GMT 51.301170 -0.922546 5,650 317 156 1984
2019-01-15 17:11:29 GMT 51.299820 -0.920410 5,525 317 159 1920
2019-01-15 17:11:26 GMT 51.297638 -0.917136 5,475 317 159 1920
2019-01-15 17:11:22 GMT 51.295761 -0.914241 5,350 317 161 1920
2019-01-15 17:11:19 GMT 51.292923 -0.909861 5,200 316 162 1984
2019-01-15 17:11:13 GMT 51.290863 -0.906669 5,025 316 168 2048
2019-01-15 17:11:10 GMT 51.289532 -0.904617 4,975 316 172 1664
2019-01-15 17:11:07 GMT 51.287247 -0.901176 4,875 316 172 1600
2019-01-15 17:11:04 GMT 51.285690 -0.898726 4,800 317 174 1472
2019-01-15 17:11:01 GMT 51.282597 -0.894012 4,700 317 178 1472
2019-01-15 17:10:55 GMT 51.280411 -0.890732 4,575 317 179 1472
2019-01-15 17:10:52 GMT 51.278641 -0.887985 4,475 317 181 1472
2019-01-15 17:10:49 GMT 51.276684 -0.885010 4,350 317 184 1472
2019-01-15 17:10:46 GMT 51.275162 -0.882618 4,400 317 184 1472
2019-01-15 17:10:43 GMT 51.272415 -0.878461 4,250 317 187 1408
2019-01-15 17:10:39 GMT 51.270584 -0.875702 4,225 317 188 1472
2019-01-15 17:10:36 GMT 51.268753 -0.872893 4,125 317 190 1344
2019-01-15 17:10:33 GMT 51.266769 -0.869827 4,050 317 193 1408
2019-01-15 17:10:30 GMT 51.264496 -0.866361 3,975 317 195 1472
2019-01-15 17:10:27 GMT 51.263214 -0.864357 3,825 316 199 1408
2019-01-15 17:10:24 GMT 51.260857 -0.860672 3,825 316 198 1408
2019-01-15 17:10:21 GMT 51.258957 -0.857676 3,725 315 202 1472
2019-01-15 17:10:18 GMT 51.256992 -0.854568 3,725 315 202 1472
2019-01-15 17:10:15 GMT 51.255272 -0.851822 3,625 315 203 1408
2019-01-15 17:10:12 GMT 51.252895 -0.847855 3,550 300 211 384
2019-01-15 17:10:09 GMT 51.251362 -0.845184 3,475 311 208 1408
2019-01-15 17:10:06 GMT 51.249023 -0.840825 3,400 308 210 1216
2019-01-15 17:10:02 GMT 51.247147 -0.836520 3,300 294 211 0
2019-01-15 17:09:59 GMT 51.244446 -0.827464 3,300 282 210 0
2019-01-15 17:09:53 GMT 51.243633 -0.823135 3,300 283 210 0
2019-01-15 17:09:49 GMT 51.242844 -0.811652 3,300 264 209 -64
2019-01-15 17:09:46 GMT 51.242844 -0.811652 3,300 268 209 64
2019-01-15 17:09:43 GMT 51.242981 -0.807644 3,300 235 210 -64
2019-01-15 17:09:38 GMT 51.244656 -0.796738 3,300 251 210 0
2019-01-15 17:09:35 GMT 51.244656 -0.796738 3,300 244 211 -64
2019-01-15 17:09:32 GMT 51.245914 -0.792160 3,300 241 210 -64
2019-01-15 17:09:28 GMT 51.247913 -0.786819 3,300 238 210 -64
2019-01-15 17:09:25 GMT 51.249847 -0.782330 3,300 235 210 64
2019-01-15 17:09:22 GMT 51.251312 -0.779064 3,300 235 205 0
2019-01-15 17:09:19 GMT 51.253178 -0.774841 3,300 235 210 -64
2019-01-15 17:09:16 GMT 51.255222 -0.770340 3,300 235 208 0
2019-01-15 17:09:13 GMT 51.258389 -0.763397 3,300 235 208 64
2019-01-15 17:09:10 GMT 51.258389 -0.763397 3,300 235 206 0
2019-01-15 17:09:07 GMT 51.259834 -0.760117 3,300 235 206 0
2019-01-15 17:09:04 GMT 51.261200 -0.757092 3,300 235 205 0
2019-01-15 17:09:01 GMT 51.263790 -0.751266 3,300 235 204 0
2019-01-15 17:08:58 GMT 51.265366 -0.747738 3,300 235 203 -128
2019-01-15 17:08:54 GMT 51.266876 -0.744324 3,300 235 201 -128
2019-01-15 17:08:50 GMT 51.269669 -0.738088 3,325 235 199 0
2019-01-15 17:08:46 GMT 51.271591 -0.733783 3,300 235 197 -128
2019-01-15 17:08:42 GMT 51.273239 -0.730133 3,325 235 194 64
2019-01-15 17:08:39 GMT 51.274822 -0.726547 3,300 235 192 0
2019-01-15 17:08:36 GMT 51.276398 -0.723168 3,300 235 181 128
2019-01-15 17:08:33 GMT 51.277660 -0.720291 3,300 235 187 0
2019-01-15 17:08:30 GMT 51.280083 -0.715027 3,300 235 181 128
2019-01-15 17:08:27 GMT 51.281059 -0.712814 3,275 235 180 128
2019-01-15 17:08:24 GMT 51.282597 -0.709381 3,275 235 178 320
2019-01-15 17:08:21 GMT 51.283997 -0.706317 3,225 235 174 704
2019-01-15 17:08:17 GMT 51.285873 -0.702160 3,200 234 171 1920
2019-01-15 17:08:14 GMT 51.287205 -0.699234 3,175 235 170 1536
2019-01-15 17:08:11 GMT 51.288509 -0.696411 3,075 234 170 1920
2019-01-15 17:08:08 GMT 51.289906 -0.693359 2,975 234 171 1920
2019-01-15 17:08:05 GMT 51.291275 -0.690357 2,925 234 171 1920
2019-01-15 17:08:02 GMT 51.292652 -0.687408 2,775 235 175 1920
2019-01-15 17:07:55 GMT 51.296127 -0.679742 2,550 235 180 1664
2019-01-15 17:07:52 GMT 51.297726 -0.676193 2,400 235 182 1280
2019-01-15 17:07:48 GMT 51.299774 -0.671616 2,300 235 184 256
2019-01-15 17:07:45 GMT 51.301170 -0.668488 2,325 235 184 512
2019-01-15 17:07:42 GMT 51.302719 -0.665044 2,300 235 183 -64
2019-01-15 17:07:36 GMT 51.306896 -0.655899 2,300 234 178 0
2019-01-15 17:07:33 GMT 51.306896 -0.655899 2,300 234 177 -128
2019-01-15 17:07:30 GMT 51.307892 -0.653687 2,325 234 174 -128
2019-01-15 17:07:27 GMT 51.309723 -0.649752 2,300 234 171 0
2019-01-15 17:07:24 GMT 51.311279 -0.646263 2,300 234 165 0
2019-01-15 17:07:20 GMT 51.313416 -0.641632 2,300 234 159 128
2019-01-15 17:07:17 GMT 51.314346 -0.639657 2,300 234 156 192
2019-01-15 17:07:13 GMT 51.316040 -0.635945 2,300 234 152 256
2019-01-15 17:07:10 GMT 51.317139 -0.633495 2,250 234 148 512
2019-01-15 17:07:07 GMT 51.318581 -0.630264 2,225 235 144 960
2019-01-15 17:07:04 GMT 51.319519 -0.628299 2,200 234 142 1216
2019-01-15 17:07:00 GMT 51.321609 -0.623703 2,075 235 139 1344
2019-01-15 17:06:55 GMT 51.323090 -0.620505 2,025 235 138 1344
2019-01-15 17:06:52 GMT 51.324306 -0.617828 1,900 235 135 1344
2019-01-15 17:06:49 GMT 51.325333 -0.615463 1,900 235 135 1344
2019-01-15 17:06:43 GMT 51.327473 -0.610733 1,725 236 128 1344
2019-01-15 17:06:40 GMT 51.328445 -0.608405 1,675 236 130 1280
2019-01-15 17:06:34 GMT 51.330498 -0.603638 1,525 237 125 1344
2019-01-15 17:06:29 GMT 51.333199 -0.597153 1,425 237 118 1344
2019-01-15 17:06:25 GMT 51.333199 -0.597153 1,325 237 120 1408
2019-01-15 17:06:22 GMT 51.333992 -0.595245 1,150 238 114 1280
2019-01-15 17:06:19 GMT 51.335037 -0.592668 1,175 238 109 1408
2019-01-15 17:06:13 GMT 51.336830 -0.588303 1,050 238 105 1344
2019-01-15 17:06:09 GMT 51.337921 -0.585542 925 238 103 1344
2019-01-15 17:06:05 GMT 51.339020 -0.582809 800 238 103 1344
2019-01-15 17:06:01 GMT 51.340164 -0.579900 750 240 97 1344
We lost coverage of the aircraft here for a total of 320 minutes
2019-01-15 11:46:29 GMT 51.353302 -0.545382 50 239 74 -384
2019-01-15 11:46:19 GMT 51.355133 -0.540780 150 238 70 128
2019-01-15 11:46:14 GMT 51.356003 -0.538627 175 247 67 -448
2019-01-15 11:46:10 GMT 51.356552 -0.536771 175 246 68 -448
2019-01-15 11:46:00 GMT 51.357056 -0.531723 250 278 77 -512
2019-01-15 11:45:53 GMT 51.356735 -0.527566 300 281 80 -192
2019-01-15 11:45:50 GMT 51.356567 -0.526047 300 289 81 -576
2019-01-15 11:45:42 GMT 51.354904 -0.522073 400 325 88 -128
2019-01-15 11:45:38 GMT 51.352238 -0.519562 425 337 96 -448
2019-01-15 11:45:31 GMT 51.350655 -0.518646 400 340 95 320
2019-01-15 11:45:21 GMT 51.346161 -0.516209 450 343 106 512
2019-01-15 11:45:18 GMT 51.344925 -0.515615 425 343 108 576
2019-01-15 11:45:11 GMT 51.338135 -0.513077 425 351 125 -832
2019-01-15 11:45:06 GMT 51.338135 -0.513077 475 351 125 -768
2019-01-15 11:44:59 GMT 51.329384 -0.511780 575 17 146 -1088
2019-01-15 11:44:52 GMT 51.329384 -0.511780 700 6 137 -640
2019-01-15 11:44:41 GMT 51.322769 -0.513840 825 16 146 -1216
2019-01-15 11:44:38 GMT 51.321121 -0.514650 850 17 146 -1280
2019-01-15 11:44:34 GMT 51.318211 -0.516129 0 22 151 -768
2019-01-15 11:44:31 GMT 51.315445 -0.517768 1,000 22 151 -768
2019-01-15 11:44:28 GMT 51.314205 -0.518646 1,050 25 153 -832
2019-01-15 11:44:24 GMT 51.312149 -0.520292 1,075 29 154 -832
2019-01-15 11:44:19 GMT 51.308990 -0.523558 1,125 35 155 -320
2019-01-15 11:44:16 GMT 51.307297 -0.525636 1,175 40 159 0
2019-01-15 11:44:11 GMT 51.302475 -0.531769 1,200 39 157 -384
2019-01-15 11:44:08 GMT 51.298737 -0.536994 1,225 41 160 -320
2019-01-15 11:44:01 GMT 51.298737 -0.536994 1,225 42 162 -256
2019-01-15 11:43:58 GMT 51.296658 -0.540085 1,250 42 165 -320
2019-01-15 11:43:53 GMT 51.293724 -0.544281 1,275 42 167 -448
2019-01-15 11:43:50 GMT 51.291813 -0.547104 1,300 42 167 -512
2019-01-15 11:43:47 GMT 51.290695 -0.548859 1,325 44 166 -384
2019-01-15 11:43:39 GMT 51.284691 -0.558090 1,475 44 163 -256
2019-01-15 11:43:31 GMT 51.282532 -0.561639 1,375 45 162 -320
2019-01-15 11:43:27 GMT 51.280289 -0.565202 1,400 45 162 -256
2019-01-15 11:43:24 GMT 51.278824 -0.567652 1,425 46 166 -512
2019-01-15 11:43:18 GMT 51.275528 -0.573368 1,525 48 175 -1088
2019-01-15 11:43:15 GMT 51.273891 -0.576477 1,700 51 179 -1088
2019-01-15 11:43:11 GMT 51.271957 -0.580345 1,675 55 186 -832
2019-01-15 11:43:07 GMT 51.269749 -0.585403 1,700 56 188 -704
2019-01-15 11:43:04 GMT 51.268211 -0.589600 1,775 60 195 -1024
2019-01-15 11:42:59 GMT 51.265793 -0.596466 1,875 61 201 -960
2019-01-15 11:42:56 GMT 51.264954 -0.598978 1,900 61 201 -960
2019-01-15 11:42:53 GMT 51.263626 -0.602838 1,975 64 203 -384
2019-01-15 11:42:50 GMT 51.262348 -0.606689 1,975 62 203 -960
2019-01-15 11:42:46 GMT 51.260284 -0.613230 2,175 64 206 -256
2019-01-15 11:42:43 GMT 51.259506 -0.615997 2,225 64 203 -512
2019-01-15 11:42:39 GMT 51.257832 -0.621567 2,200 64 203 -960
2019-01-15 11:42:36 GMT 51.256485 -0.625998 2,225 64 214 -1408
2019-01-15 11:42:33 GMT 51.255039 -0.630798 2,225 64 213 -960
2019-01-15 11:42:28 GMT 51.251816 -0.641290 2,325 63 213 -1152
2019-01-15 11:42:25 GMT 51.251816 -0.641290 2,425 64 215 -1472
2019-01-15 11:42:22 GMT 51.250397 -0.645966 2,575 64 212 -1472
2019-01-15 11:42:19 GMT 51.249298 -0.649604 3,400 70 217 -1472
2019-01-15 11:42:16 GMT 51.247776 -0.654602 2,550 64 215 -1472
2019-01-15 11:42:13 GMT 51.246643 -0.658437 2,675 64 216 -1472
2019-01-15 11:42:10 GMT 51.245121 -0.663452 2,750 64 212 -1472
2019-01-15 11:42:07 GMT 51.243866 -0.667648 2,750 64 215 -1472
2019-01-15 11:42:04 GMT 51.242561 -0.671921 2,800 64 214 -1472
2019-01-15 11:42:00 GMT 51.240601 -0.678480 2,950 65 210 -1536
2019-01-15 11:41:55 GMT 51.238747 -0.684814 3,300 65 213 -1408
2019-01-15 11:41:51 GMT 51.237305 -0.689689 3,125 64 209 -1536
2019-01-15 11:41:48 GMT 51.236092 -0.693893 3,250 65 213 -1408
2019-01-15 11:41:44 GMT 51.234604 -0.699042 3,325 114 227 -1600
2019-01-15 11:41:41 GMT 51.232315 -0.709286 3,700 96 225 -1472
2019-01-15 11:41:35 GMT 51.231766 -0.714779 3,550 84 223 -1536
2019-01-15 11:41:32 GMT 51.231674 -0.719011 3,625 100 226 -1472
2019-01-15 11:41:28 GMT 51.232040 -0.725766 3,725 102 226 -1472
2019-01-15 11:41:25 GMT 51.232784 -0.730820 3,800 121 228 -1536
2019-01-15 11:41:22 GMT 51.233643 -0.734822 3,875 114 227 -1600
2019-01-15 11:41:19 GMT 51.235535 -0.740814 3,975 118 227 -1536
2019-01-15 11:41:16 GMT 51.237164 -0.745087 4,050 121 228 -1472
2019-01-15 11:41:12 GMT 51.239731 -0.751673 4,150 122 230 -1472
2019-01-15 11:41:09 GMT 51.240921 -0.754716 4,175 122 230 -1536
2019-01-15 11:41:06 GMT 51.242340 -0.758279 4,250 122 230 -1472
2019-01-15 11:41:03 GMT 51.244003 -0.762482 4,475 122 235 -1024
2019-01-15 11:41:00 GMT 51.247822 -0.772018 4,475 122 232 -1216
2019-01-15 11:40:57 GMT 51.247822 -0.772018 4,500 122 235 -1024
2019-01-15 11:40:54 GMT 51.249252 -0.775650 4,825 122 237 -1024
2019-01-15 11:40:51 GMT 51.250614 -0.779037 4,575 122 237 -1024
2019-01-15 11:40:48 GMT 51.252960 -0.784854 4,650 123 242 -960
2019-01-15 11:40:45 GMT 51.254761 -0.789185 4,675 122 242 -1024
2019-01-15 11:40:42 GMT 51.256573 -0.793686 5,225 106 259 0
2019-01-15 11:40:39 GMT 51.258133 -0.797474 4,800 123 243 -704
2019-01-15 11:40:36 GMT 51.260101 -0.802299 4,825 123 244 -320
2019-01-15 11:40:33 GMT 51.262207 -0.807419 4,825 123 244 0
2019-01-15 11:40:30 GMT 51.263977 -0.811615 4,825 123 246 384
2019-01-15 11:40:27 GMT 51.266163 -0.816879 4,825 122 247 448
2019-01-15 11:40:24 GMT 51.267883 -0.821228 4,800 121 249 384
2019-01-15 11:40:21 GMT 51.271362 -0.833699 4,800 147 262 -1472
2019-01-15 11:40:17 GMT 51.271362 -0.833699 4,800 107 256 0
2019-01-15 11:40:14 GMT 51.272141 -0.837856 4,800 106 258 64
2019-01-15 11:40:11 GMT 51.273659 -0.845871 4,800 108 260 0
2019-01-15 11:40:04 GMT 51.276314 -0.856247 4,825 117 265 -64
2019-01-15 11:40:01 GMT 51.277802 -0.860977 4,825 120 266 -256
2019-01-15 11:39:58 GMT 51.279648 -0.866064 4,825 120 266 -256
2019-01-15 11:39:55 GMT 51.282505 -0.872574 4,875 127 269 -832
2019-01-15 11:39:52 GMT 51.286739 -0.880356 4,900 133 268 -1408
2019-01-15 11:39:49 GMT 51.286739 -0.880356 5,125 146 262 -1472
2019-01-15 11:39:46 GMT 51.292053 -0.887888 5,050 140 265 -1472
2019-01-15 11:39:43 GMT 51.292053 -0.887888 5,275 143 264 -1472
2019-01-15 11:39:40 GMT 51.295029 -0.891377 5,175 145 263 -1472
2019-01-15 11:39:36 GMT 51.302582 -0.899172 5,350 147 262 -1472
2019-01-15 11:39:33 GMT 51.302582 -0.899172 5,375 147 262 -1472
2019-01-15 11:39:29 GMT 51.306477 -0.903168 5,450 147 262 -1472
2019-01-15 11:39:26 GMT 51.310249 -0.907059 5,625 147 262 -1472
2019-01-15 11:39:23 GMT 51.313972 -0.910797 5,625 147 263 -1472
2019-01-15 11:39:19 GMT 51.317467 -0.914307 5,725 147 263 -1472
2019-01-15 11:39:16 GMT 51.320435 -0.917358 5,825 147 263 -1472
2019-01-15 11:39:13 GMT 51.323090 -0.920105 6,100 147 262 -1472
2019-01-15 11:39:10 GMT 51.326385 -0.923445 5,950 147 262 -1536
2019-01-15 11:39:07 GMT 51.328964 -0.926056 6,150 147 262 -1472
2019-01-15 11:39:04 GMT 51.332222 -0.929337 6,025 147 262 -1472
2019-01-15 11:39:01 GMT 51.335403 -0.932576 6,275 147 262 -1408
2019-01-15 11:38:58 GMT 51.337994 -0.935211 6,225 147 262 -1472
2019-01-15 11:38:55 GMT 51.341583 -0.938886 6,300 147 262 -1472
2019-01-15 11:38:52 GMT 51.344746 -0.942078 6,375 147 262 -1408
2019-01-15 11:38:48 GMT 51.348541 -0.945938 6,525 147 263 -1536
2019-01-15 11:38:45 GMT 51.355133 -0.952693 6,675 147 264 -1472
2019-01-15 11:38:41 GMT 51.355133 -0.952693 6,675 147 264 -1472
2019-01-15 11:38:38 GMT 51.358757 -0.956345 6,850 147 264 -1536
2019-01-15 11:38:35 GMT 51.361954 -0.959596 6,925 147 263 -1472
2019-01-15 11:38:32 GMT 51.367599 -0.965347 6,900 147 264 -1472
2019-01-15 11:38:29 GMT 51.367599 -0.965347 6,975 147 263 -1472
2019-01-15 11:38:26 GMT 51.371281 -0.969086 7,050 147 263 -1472
2019-01-15 11:38:23 GMT 51.374584 -0.972443 7,050 147 263 -1472
2019-01-15 11:38:20 GMT 51.376740 -0.974665 7,350 147 263 -1472
2019-01-15 11:38:17 GMT 51.380630 -0.978674 7,275 147 263 -1536
2019-01-15 11:38:14 GMT 51.384567 -0.982608 7,300 147 263 -1536
2019-01-15 11:38:11 GMT 51.386688 -0.984802 7,400 147 263 -1472
2019-01-15 11:38:08 GMT 51.389191 -0.987359 7,675 147 261 -1344
2019-01-15 11:38:05 GMT 51.392879 -0.991135 7,500 147 263 -1536
2019-01-15 11:38:02 GMT 51.397064 -0.995450 7,650 147 263 -1472
2019-01-15 11:37:59 GMT 51.399117 -0.997543 7,700 147 263 -1472
2019-01-15 11:37:55 GMT 51.402889 -1.001358 7,975 147 261 -768
2019-01-15 11:37:52 GMT 51.408737 -1.007328 7,900 147 261 -832
2019-01-15 11:37:46 GMT 51.412895 -1.011581 7,975 147 261 -192
2019-01-15 11:37:43 GMT 51.415329 -1.014083 7,975 147 261 -64
2019-01-15 11:37:39 GMT 51.419495 -1.018388 8,000 147 263 0
2019-01-15 11:37:36 GMT 51.422562 -1.021506 8,000 147 264 0
2019-01-15 11:37:33 GMT 51.425980 -1.025009 8,000 147 268 0
2019-01-15 11:37:30 GMT 51.428493 -1.027603 8,000 147 267 0
2019-01-15 11:37:25 GMT 51.435242 -1.034393 8,000 147 273 0
2019-01-15 11:37:22 GMT 51.437393 -1.036575 8,000 148 276 -192
2019-01-15 11:37:19 GMT 51.439663 -1.038818 8,000 149 280 -320
2019-01-15 11:37:16 GMT 51.443806 -1.042938 8,000 189 281 -1472
2019-01-15 11:37:13 GMT 51.450394 -1.048897 8,050 260 256 -1472
2019-01-15 11:37:10 GMT 51.450394 -1.048897 8,100 156 284 -1216
2019-01-15 11:37:07 GMT 51.453815 -1.051483 8,125 158 284 -1408
2019-01-15 11:37:04 GMT 51.457539 -1.053619 8,175 165 283 -1472
2019-01-15 11:37:01 GMT 51.461311 -1.055374 8,300 169 282 -1536
2019-01-15 11:36:58 GMT 51.469040 -1.057205 8,375 175 281 -1536
2019-01-15 11:36:55 GMT 51.469040 -1.057205 8,450 177 282 -1536
2019-01-15 11:36:52 GMT 51.474243 -1.057286 8,500 185 280 -1472
2019-01-15 11:36:49 GMT 51.476860 -1.056976 8,525 185 280 -1472
2019-01-15 11:36:46 GMT 51.484772 -1.054535 8,675 195 281 -1472
2019-01-15 11:36:43 GMT 51.484772 -1.054535 8,750 198 280 -1472
2019-01-15 11:36:40 GMT 51.489147 -1.052170 8,775 202 279 -1536
2019-01-15 11:36:37 GMT 51.492233 -1.050011 8,875 208 278 -1536
2019-01-15 11:36:34 GMT 51.496643 -1.046143 9,025 218 275 -1472
2019-01-15 11:36:31 GMT 51.498322 -1.044369 9,075 224 274 -1472
2019-01-15 11:36:28 GMT 51.501301 -1.040802 9,075 219 275 -1536
2019-01-15 11:36:25 GMT 51.504513 -1.036224 9,150 225 274 -1472
2019-01-15 11:36:21 GMT 51.508530 -1.029152 9,325 233 272 -1472
2019-01-15 11:36:18 GMT 51.510315 -1.025292 9,325 235 271 -1472
2019-01-15 11:36:15 GMT 51.512379 -1.020050 9,425 241 270 -1472
2019-01-15 11:36:12 GMT 51.514160 -1.014528 9,525 247 268 -1536
2019-01-15 11:36:09 GMT 51.515545 -1.009369 9,575 252 267 -1536
2019-01-15 11:36:06 GMT 51.516724 -1.003764 9,625 253 266 -1536
2019-01-15 11:36:03 GMT 51.517456 -0.999162 9,675 256 265 -1536
2019-01-15 11:36:00 GMT 51.518478 -0.991364 9,825 260 263 -1536
2019-01-15 11:35:57 GMT 51.518990 -0.986710 9,850 260 263 -1536
2019-01-15 11:35:54 GMT 51.519829 -0.979614 9,925 260 261 -1472
2019-01-15 11:35:51 GMT 51.520294 -0.975853 9,975 260 261 -1472
2019-01-15 11:35:48 GMT 51.521736 -0.963287 10,225 260 260 -1408
2019-01-15 11:35:45 GMT 51.521736 -0.963287 10,175 260 259 -1472
2019-01-15 11:35:42 GMT 51.522400 -0.957666 10,250 260 258 -1472
2019-01-15 11:35:38 GMT 51.523365 -0.949173 10,400 260 254 -1472
2019-01-15 11:35:35 GMT 51.523911 -0.944527 10,400 260 255 -1472
2019-01-15 11:35:31 GMT 51.525513 -0.930497 10,450 260 253 -1472
2019-01-15 11:35:27 GMT 51.525646 -0.929565 10,600 260 251 -1472
2019-01-15 11:35:24 GMT 51.526157 -0.925217 10,650 260 249 -1472
2019-01-15 11:35:21 GMT 51.526855 -0.919037 10,775 260 237 0
2019-01-15 11:35:18 GMT 51.527370 -0.914383 10,800 260 244 -1472
2019-01-15 11:35:15 GMT 51.528030 -0.908822 10,875 260 242 -1280
2019-01-15 11:35:12 GMT 51.528717 -0.902512 10,950 260 238 -512
2019-01-15 11:35:09 GMT 51.529358 -0.896945 11,000 260 238 -320
2019-01-15 11:35:06 GMT 51.529816 -0.893085 11,000 260 237 -192
2019-01-15 11:35:03 GMT 51.530441 -0.887756 11,000 260 237 0
2019-01-15 11:35:00 GMT 51.531052 -0.882395 11,000 260 237 0
2019-01-15 11:34:57 GMT 51.531738 -0.876457 11,000 260 237 0
2019-01-15 11:34:54 GMT 51.532242 -0.872151 11,000 260 237 0
2019-01-15 11:34:51 GMT 51.533020 -0.865396 11,000 260 238 0
2019-01-15 11:34:48 GMT 51.533524 -0.861016 11,000 260 238 0
2019-01-15 11:34:45 GMT 51.534119 -0.855637 11,000 260 238 0
2019-01-15 11:34:42 GMT 51.534805 -0.849733 11,000 260 238 0
2019-01-15 11:34:39 GMT 51.535400 -0.844685 11,000 260 237 0
2019-01-15 11:34:36 GMT 51.536362 -0.836000 11,000 260 238 0
2019-01-15 11:34:33 GMT 51.536362 -0.836000 11,000 260 238 0
2019-01-15 11:34:30 GMT 51.537189 -0.828857 11,000 260 238 0
2019-01-15 11:34:27 GMT 51.537643 -0.824865 11,000 260 238 0
2019-01-15 11:34:24 GMT 51.538193 -0.820337 11,000 260 238 0
2019-01-15 11:34:21 GMT 51.539017 -0.812988 11,000 260 238 0
2019-01-15 11:34:18 GMT 51.539520 -0.808640 11,000 260 239 0
2019-01-15 11:34:15 GMT 51.540161 -0.803264 11,000 260 238 -64
2019-01-15 11:34:12 GMT 51.540684 -0.798569 11,000 260 238 0
2019-01-15 11:34:09 GMT 51.541168 -0.794208 11,000 260 238 0
2019-01-15 11:34:06 GMT 51.541901 -0.787972 11,000 260 238 -64
2019-01-15 11:34:03 GMT 51.542267 -0.784607 11,000 260 238 0
2019-01-15 11:34:00 GMT 51.543198 -0.776672 11,000 260 238 0
2019-01-15 11:33:57 GMT 51.543594 -0.772977 11,000 260 238 0
2019-01-15 11:33:54 GMT 51.544464 -0.765703 11,000 260 238 0
2019-01-15 11:33:51 GMT 51.544785 -0.762585 11,000 260 237 0
2019-01-15 11:33:48 GMT 51.545570 -0.755768 11,000 260 237 0
2019-01-15 11:33:45 GMT 51.546066 -0.751450 11,000 260 237 0
2019-01-15 11:33:42 GMT 51.546661 -0.746254 11,000 260 237 0
2019-01-15 11:33:39 GMT 51.547165 -0.741726 11,000 260 237 0
2019-01-15 11:33:36 GMT 51.547714 -0.737197 11,000 260 237 0
2019-01-15 11:33:33 GMT 51.548309 -0.732001 11,000 260 237 0
2019-01-15 11:33:30 GMT 51.549179 -0.724355 11,000 260 237 0
2019-01-15 11:33:27 GMT 51.549774 -0.719159 11,000 260 237 0
2019-01-15 11:33:24 GMT 51.550781 -0.710103 11,000 260 237 0
2019-01-15 11:33:21 GMT 51.550781 -0.710103 11,000 260 237 0
2019-01-15 11:33:18 GMT 51.551437 -0.704498 11,000 260 237 0
2019-01-15 11:33:15 GMT 51.552040 -0.699158 11,000 260 237 0
2019-01-15 11:33:12 GMT 51.552505 -0.694962 11,000 260 237 0
2019-01-15 11:33:09 GMT 51.553204 -0.688705 11,000 260 237 0
2019-01-15 11:33:06 GMT 51.553665 -0.684715 11,000 260 237 0
2019-01-15 11:33:03 GMT 51.554993 -0.673284 11,000 260 237 -64
2019-01-15 11:33:00 GMT 51.555534 -0.668259 11,000 260 237 0
2019-01-15 11:32:57 GMT 51.555534 -0.668259 11,000 260 237 0
2019-01-15 11:32:54 GMT 51.556183 -0.662520 11,000 260 237 0
2019-01-15 11:32:51 GMT 51.556503 -0.659774 11,000 260 237 0
2019-01-15 11:32:48 GMT 51.557327 -0.652499 11,000 260 237 0
2019-01-15 11:32:45 GMT 51.557816 -0.648193 11,000 260 237 0
2019-01-15 11:32:41 GMT 51.558559 -0.641556 11,000 260 237 0
2019-01-15 11:32:38 GMT 51.559753 -0.630972 11,000 260 237 0
2019-01-15 11:32:35 GMT 51.560421 -0.624924 11,000 260 237 0
2019-01-15 11:32:32 GMT 51.560421 -0.624924 11,000 260 237 0
2019-01-15 11:32:29 GMT 51.560898 -0.620950 11,000 260 237 0
2019-01-15 11:32:26 GMT 51.561443 -0.615921 11,000 260 237 0
2019-01-15 11:32:23 GMT 51.562088 -0.610187 11,000 260 236 0
2019-01-15 11:32:20 GMT 51.562748 -0.604477 11,000 260 237 0
2019-01-15 11:32:17 GMT 51.563354 -0.598984 11,000 260 236 0
2019-01-15 11:32:14 GMT 51.563873 -0.594672 11,000 260 236 0
2019-01-15 11:32:11 GMT 51.564514 -0.588734 11,000 260 236 0
2019-01-15 11:32:08 GMT 51.565201 -0.582869 11,000 260 236 0
2019-01-15 11:32:05 GMT 51.565636 -0.578918 11,000 260 236 0
2019-01-15 11:32:02 GMT 51.566254 -0.573516 11,000 260 236 0
2019-01-15 11:31:59 GMT 51.566799 -0.568542 11,000 260 236 0
2019-01-15 11:31:56 GMT 51.567444 -0.562827 11,000 260 236 0
2019-01-15 11:31:53 GMT 51.568054 -0.557404 11,000 260 236 0
2019-01-15 11:31:50 GMT 51.568542 -0.552954 11,000 260 236 0
2019-01-15 11:31:47 GMT 51.569275 -0.546570 11,000 260 236 0
2019-01-15 11:31:44 GMT 51.570465 -0.536029 11,000 260 236 0
2019-01-15 11:31:41 GMT 51.570465 -0.536029 11,000 260 236 0
2019-01-15 11:31:38 GMT 51.570877 -0.532020 11,000 260 237 0
2019-01-15 11:31:35 GMT 51.572014 -0.521774 11,000 260 237 0
2019-01-15 11:31:29 GMT 51.572708 -0.515594 11,000 260 237 0
2019-01-15 11:31:26 GMT 51.573212 -0.511235 11,000 260 238 0
2019-01-15 11:31:23 GMT 51.573689 -0.506897 11,000 261 271 -1472
2019-01-15 11:31:20 GMT 51.574528 -0.499573 11,000 260 238 0
2019-01-15 11:31:17 GMT 51.574898 -0.496063 11,000 260 239 0
2019-01-15 11:31:14 GMT 51.575642 -0.489426 11,000 260 239 0
2019-01-15 11:31:11 GMT 51.576141 -0.485032 11,000 260 240 0
2019-01-15 11:31:08 GMT 51.576855 -0.478516 11,000 260 240 0
2019-01-15 11:31:05 GMT 51.577240 -0.474862 11,000 260 240 0
2019-01-15 11:31:02 GMT 51.578110 -0.466919 11,000 260 241 0
2019-01-15 11:30:59 GMT 51.578522 -0.463207 11,000 261 242 0
2019-01-15 11:30:56 GMT 51.579041 -0.458755 11,000 260 242 0
2019-01-15 11:30:53 GMT 51.579803 -0.451850 11,000 260 243 64
2019-01-15 11:30:50 GMT 51.580254 -0.447769 11,000 260 244 0
2019-01-15 11:30:47 GMT 51.580811 -0.442571 11,000 260 245 0
2019-01-15 11:30:44 GMT 51.581406 -0.437375 11,000 260 245 0
2019-01-15 11:30:41 GMT 51.582115 -0.430908 11,000 260 247 64
2019-01-15 11:30:38 GMT 51.582672 -0.426178 11,000 260 248 0
2019-01-15 11:30:35 GMT 51.583282 -0.420895 11,000 260 250 0
2019-01-15 11:30:32 GMT 51.583881 -0.415268 11,000 260 251 0
2019-01-15 11:30:29 GMT 51.584610 -0.408795 11,000 260 252 0
2019-01-15 11:30:26 GMT 51.585232 -0.403442 11,000 260 254 64
2019-01-15 11:30:23 GMT 51.585709 -0.399219 11,000 260 254 64
2019-01-15 11:30:20 GMT 51.586304 -0.393600 11,000 260 256 0
2019-01-15 11:30:17 GMT 51.587048 -0.387039 11,000 260 258 0
2019-01-15 11:30:14 GMT 51.587700 -0.381393 11,000 260 259 0
2019-01-15 11:30:11 GMT 51.588318 -0.375688 11,000 260 261 -64
2019-01-15 11:30:08 GMT 51.589142 -0.368423 11,000 260 262 -64
2019-01-15 11:30:04 GMT 51.589920 -0.361287 11,025 260 269 -960
2019-01-15 11:30:01 GMT 51.590744 -0.354235 11,050 260 268 -832
2019-01-15 11:29:58 GMT 51.591064 -0.351266 11,050 260 269 -1024
2019-01-15 11:29:55 GMT 51.591660 -0.345550 13,550 261 276 -1472
2019-01-15 11:29:52 GMT 51.592403 -0.339203 11,225 260 270 -1472
2019-01-15 11:29:49 GMT 51.593288 -0.331116 11,325 261 271 -1472
2019-01-15 11:29:46 GMT 51.593800 -0.326385 11,350 261 271 -1472
2019-01-15 11:29:43 GMT 51.594452 -0.320663 11,400 261 271 -1472
2019-01-15 11:29:40 GMT 51.595230 -0.313482 11,575 261 271 -1472
2019-01-15 11:29:37 GMT 51.595615 -0.309753 11,575 261 271 -1472
2019-01-15 11:29:34 GMT 51.596359 -0.303421 11,750 261 271 -1472
2019-01-15 11:29:31 GMT 51.596916 -0.298233 11,750 261 272 -1472
2019-01-15 11:29:28 GMT 51.597569 -0.292282 11,800 261 272 -1472
2019-01-15 11:29:25 GMT 51.598297 -0.285570 11,825 261 272 -1472
2019-01-15 11:29:22 GMT 51.599030 -0.278964 12,000 260 272 -1472
2019-01-15 11:29:19 GMT 51.599571 -0.273972 12,050 260 272 -1472
2019-01-15 11:29:16 GMT 51.600269 -0.267868 12,075 260 272 -1472
2019-01-15 11:29:13 GMT 51.600861 -0.262261 12,150 260 272 -1472
2019-01-15 11:29:10 GMT 51.602226 -0.250092 12,425 260 273 -1472
2019-01-15 11:29:07 GMT 51.602226 -0.250092 12,375 260 273 -1472
2019-01-15 11:29:04 GMT 51.603058 -0.242516 12,375 260 274 -1472
2019-01-15 11:29:01 GMT 51.603790 -0.235909 12,500 260 274 -1536
2019-01-15 11:28:58 GMT 51.605064 -0.224457 12,575 260 274 -1472
2019-01-15 11:28:55 GMT 51.605064 -0.224457 12,625 260 274 -1472
2019-01-15 11:28:52 GMT 51.605621 -0.219430 12,725 261 275 -1472
2019-01-15 11:28:49 GMT 51.606319 -0.212860 12,775 261 275 -1472
2019-01-15 11:28:46 GMT 51.607113 -0.205765 12,825 261 275 -1472
2019-01-15 11:28:43 GMT 51.607533 -0.201797 12,900 261 275 -1408
2019-01-15 11:28:40 GMT 51.608368 -0.194092 13,050 261 276 -1472
2019-01-15 11:28:37 GMT 51.608780 -0.190108 13,275 261 276 -1472
2019-01-15 11:28:34 GMT 51.609604 -0.182388 13,125 261 276 -1472
2019-01-15 11:28:31 GMT 51.611069 -0.168915 13,275 261 276 -1472
2019-01-15 11:28:28 GMT 51.611069 -0.168915 13,300 261 276 -1472
2019-01-15 11:28:25 GMT 51.611481 -0.165092 13,350 261 276 -1408
2019-01-15 11:28:22 GMT 51.612030 -0.159821 13,400 261 276 -1472
2019-01-15 11:28:19 GMT 51.612652 -0.153961 13,450 261 276 -1472
2019-01-15 11:28:16 GMT 51.613312 -0.147944 13,550 261 276 -1408
2019-01-15 11:28:13 GMT 51.614090 -0.140892 13,725 261 275 -1472
2019-01-15 11:28:10 GMT 51.614731 -0.134805 13,700 261 275 -1472
2019-01-15 11:28:07 GMT 51.615540 -0.127411 13,800 261 275 -1472
2019-01-15 11:28:04 GMT 51.616840 -0.115509 14,125 261 275 -1472
2019-01-15 11:28:01 GMT 51.616840 -0.115509 13,950 261 275 -1472
2019-01-15 11:27:58 GMT 51.618027 -0.104444 14,075 261 275 -1472
2019-01-15 11:27:55 GMT 51.618027 -0.104444 14,100 261 275 -1472
2019-01-15 11:27:52 GMT 51.618576 -0.099397 14,200 261 276 -1472
2019-01-15 11:27:49 GMT 51.619171 -0.093978 14,200 261 275 -1536
2019-01-15 11:27:46 GMT 51.620087 -0.085515 14,375 261 276 -1472
2019-01-15 11:27:42 GMT 51.620911 -0.077647 14,400 261 276 -1472
2019-01-15 11:27:39 GMT 51.621552 -0.072005 14,500 261 277 -1472
2019-01-15 11:27:36 GMT 51.622849 -0.059814 14,600 261 277 -1472
2019-01-15 11:27:33 GMT 51.622849 -0.059814 14,650 261 278 -1472
2019-01-15 11:27:30 GMT 51.623383 -0.054932 14,775 261 278 -1472
2019-01-15 11:27:27 GMT 51.624245 -0.046844 14,800 261 278 -1472
2019-01-15 11:27:24 GMT 51.624893 -0.040679 14,875 261 278 -1472
2019-01-15 11:27:21 GMT 51.626152 -0.028839 15,000 261 279 -1472
2019-01-15 11:27:18 GMT 51.626152 -0.028839 15,125 261 282 -1472
2019-01-15 11:27:15 GMT 51.626804 -0.022659 15,100 261 281 -1472
2019-01-15 11:27:12 GMT 51.627228 -0.018781 15,150 261 281 -1472
2019-01-15 11:27:09 GMT 51.628006 -0.011729 15,225 261 282 -1472
2019-01-15 11:27:06 GMT 51.628738 -0.004751 15,350 261 282 -1472
2019-01-15 11:27:03 GMT 51.629410 0.001450 15,450 261 282 -1472
2019-01-15 11:27:00 GMT 51.630108 0.008087 15,450 261 282 -1472
2019-01-15 11:26:57 GMT 51.630623 0.012817 15,575 261 283 -1472
2019-01-15 11:26:54 GMT 51.631458 0.020294 15,600 261 283 -1472
2019-01-15 11:26:51 GMT 51.632080 0.026278 15,625 261 283 -1472
2019-01-15 11:26:48 GMT 51.632530 0.030212 15,750 261 283 -1472
2019-01-15 11:26:45 GMT 51.633320 0.037689 15,825 261 283 -1472
2019-01-15 11:26:42 GMT 51.634159 0.045166 15,900 261 284 -1472
2019-01-15 11:26:39 GMT 51.634720 0.050125 15,925 261 284 -1472
2019-01-15 11:26:36 GMT 51.635605 0.058441 16,300 261 287 -1472
2019-01-15 11:26:33 GMT 51.636066 0.063019 16,125 261 284 -1472
2019-01-15 11:26:30 GMT 51.636860 0.070343 16,400 261 284 -1472
2019-01-15 11:26:27 GMT 51.637390 0.074900 16,325 261 284 -1472
2019-01-15 11:26:24 GMT 51.638351 0.084031 16,375 261 284 -1472
2019-01-15 11:26:21 GMT 51.638809 0.088262 16,425 261 285 -1472
2019-01-15 11:26:18 GMT 51.639374 0.093460 16,475 261 285 -1472
2019-01-15 11:26:15 GMT 51.639931 0.098877 16,575 261 285 -1472
2019-01-15 11:26:12 GMT 51.640732 0.106152 16,650 261 285 -1536
2019-01-15 11:26:09 GMT 51.641647 0.114911 16,750 261 285 -1472
2019-01-15 11:26:06 GMT 51.642307 0.120926 16,825 261 285 -1472
2019-01-15 11:26:03 GMT 51.643021 0.127456 16,900 261 285 -1472
2019-01-15 11:26:00 GMT 51.643471 0.131836 16,950 261 286 -1472
2019-01-15 11:25:57 GMT 51.644169 0.138550 17,050 261 286 -1536
2019-01-15 11:25:54 GMT 51.644772 0.143967 17,125 261 287 -1472
2019-01-15 11:25:51 GMT 51.645584 0.151730 17,175 261 287 -1472
2019-01-15 11:25:48 GMT 51.646355 0.159073 17,250 261 287 -1408
2019-01-15 11:25:45 GMT 51.646824 0.163269 17,300 261 287 -1472
2019-01-15 11:25:42 GMT 51.647507 0.169843 17,425 261 287 -1472
2019-01-15 11:25:39 GMT 51.648170 0.176315 17,475 261 287 -1472
2019-01-15 11:25:36 GMT 51.648788 0.182017 17,525 261 288 -1472
2019-01-15 11:25:32 GMT 51.649849 0.191956 17,700 261 288 -1472
2019-01-15 11:25:29 GMT 51.650593 0.199127 17,725 261 288 -1536
2019-01-15 11:25:26 GMT 51.651058 0.203323 17,825 261 288 -1472
2019-01-15 11:25:23 GMT 51.651764 0.209854 17,875 261 288 -1472
2019-01-15 11:25:20 GMT 51.653294 0.224457 17,950 261 288 -1472
2019-01-15 11:25:17 GMT 51.653294 0.224457 18,025 261 288 -1472
2019-01-15 11:25:14 GMT 51.653805 0.229492 18,125 261 288 -1472
2019-01-15 11:25:11 GMT 51.654510 0.236058 18,150 261 288 -1472
2019-01-15 11:25:08 GMT 51.655701 0.247415 18,325 261 288 -1472
2019-01-15 11:25:05 GMT 51.655701 0.247415 18,375 261 288 -1472
2019-01-15 11:25:02 GMT 51.656460 0.254822 18,475 261 288 -1600
2019-01-15 11:24:59 GMT 51.657108 0.260696 18,500 261 288 -1600
2019-01-15 11:24:56 GMT 51.657669 0.266190 18,500 261 288 -1600
2019-01-15 11:24:53 GMT 51.658447 0.273545 18,600 261 287 -1472
2019-01-15 11:24:47 GMT 51.659866 0.286981 18,750 261 287 -1472
2019-01-15 11:24:44 GMT 51.660320 0.291214 18,825 261 286 -1472
2019-01-15 11:24:41 GMT 51.661102 0.299006 18,900 261 286 -1472
2019-01-15 11:24:37 GMT 51.662018 0.307543 19,000 261 285 -1472
2019-01-15 11:24:34 GMT 51.662601 0.312805 19,050 261 284 -1472
2019-01-15 11:24:31 GMT 51.663300 0.319643 19,125 261 284 -1472
2019-01-15 11:24:28 GMT 51.664326 0.329208 19,250 261 283 -1472
2019-01-15 11:24:25 GMT 51.664810 0.333598 19,300 261 283 -1408
2019-01-15 11:24:22 GMT 51.665222 0.337533 19,350 261 283 -1472
2019-01-15 11:24:19 GMT 51.666092 0.345401 19,425 261 282 -1472
2019-01-15 11:24:16 GMT 51.666744 0.351334 19,525 261 282 -1472
2019-01-15 11:24:13 GMT 51.667538 0.358810 19,600 261 280 -1472
2019-01-15 11:24:09 GMT 51.668060 0.363959 19,625 261 280 -1472
2019-01-15 11:24:06 GMT 51.668747 0.370492 19,775 261 279 -1472
2019-01-15 11:24:03 GMT 51.669434 0.377098 19,825 261 278 -1472
2019-01-15 11:24:00 GMT 51.670097 0.383606 19,900 261 278 -1472
2019-01-15 11:23:57 GMT 51.670609 0.388718 19,925 261 278 -1472
2019-01-15 11:23:54 GMT 51.671822 0.400467 20,075 261 276 -1472
2019-01-15 11:23:51 GMT 51.671822 0.400467 20,125 261 276 -1472
2019-01-15 11:23:48 GMT 51.672611 0.408020 20,175 261 275 -1472
2019-01-15 11:23:45 GMT 51.673405 0.415878 20,275 261 274 -1472
2019-01-15 11:23:41 GMT 51.673916 0.421066 20,375 261 272 -1472
2019-01-15 11:23:38 GMT 51.674744 0.429283 20,375 261 271 -1408
2019-01-15 11:23:35 GMT 51.675171 0.433502 20,450 261 271 -1408
2019-01-15 11:23:32 GMT 51.675869 0.440445 20,600 261 267 -1472
2019-01-15 11:23:29 GMT 51.676392 0.445540 20,625 261 268 -1536
2019-01-15 11:23:26 GMT 51.677032 0.452042 20,700 261 263 -1408
2019-01-15 11:23:23 GMT 51.677639 0.457840 20,775 261 264 -1408
2019-01-15 11:23:20 GMT 51.678059 0.461960 20,900 261 258 0
2019-01-15 11:23:17 GMT 51.678864 0.469814 20,925 261 260 -1024
2019-01-15 11:23:14 GMT 51.679314 0.474396 20,975 261 259 -768
2019-01-15 11:23:11 GMT 51.680466 0.485551 21,000 261 257 0
2019-01-15 11:23:05 GMT 51.681038 0.491409 21,000 261 257 0
2019-01-15 11:23:02 GMT 51.681644 0.497055 21,000 261 257 0
2019-01-15 11:22:59 GMT 51.682297 0.503664 21,000 261 257 0
2019-01-15 11:22:56 GMT 51.682892 0.509380 21,000 261 257 -64
2019-01-15 11:22:53 GMT 51.683411 0.514221 21,000 261 257 0
2019-01-15 11:22:50 GMT 51.683926 0.519333 21,000 261 257 0
2019-01-15 11:22:47 GMT 51.684494 0.525191 21,000 261 256 -64
2019-01-15 11:22:44 GMT 51.685181 0.531649 21,000 261 257 0
2019-01-15 11:22:41 GMT 51.686440 0.543823 21,000 261 257 0
2019-01-15 11:22:38 GMT 51.686600 0.545531 21,000 261 256 0
2019-01-15 11:22:35 GMT 51.686996 0.549545 21,000 261 256 0
2019-01-15 11:22:32 GMT 51.687275 0.552139 21,000 261 256 0
2019-01-15 11:22:29 GMT 51.688019 0.559692 21,000 261 256 0
2019-01-15 11:22:26 GMT 51.688580 0.565109 21,000 261 256 0
2019-01-15 11:22:23 GMT 51.689209 0.571141 21,000 261 256 0
2019-01-15 11:22:19 GMT 51.690765 0.586624 21,000 261 256 0
2019-01-15 11:22:16 GMT 51.690765 0.586624 21,000 261 257 0
2019-01-15 11:22:13 GMT 51.691093 0.589828 21,000 261 257 0
2019-01-15 11:22:10 GMT 51.691650 0.594864 21,000 261 257 0
2019-01-15 11:22:07 GMT 51.692863 0.606766 21,000 261 257 0
2019-01-15 11:22:04 GMT 51.692863 0.606766 21,000 261 257 0
2019-01-15 11:22:01 GMT 51.693562 0.613403 21,000 261 257 0
2019-01-15 11:21:58 GMT 51.693932 0.617371 21,000 261 258 0
2019-01-15 11:21:55 GMT 51.695251 0.629858 21,000 261 258 0
2019-01-15 11:21:52 GMT 51.695251 0.629858 21,000 261 258 0
2019-01-15 11:21:49 GMT 51.695709 0.634609 21,000 261 258 0
2019-01-15 11:21:46 GMT 51.696350 0.640696 21,000 261 258 0
2019-01-15 11:21:43 GMT 51.697144 0.648422 21,000 261 259 0
2019-01-15 11:21:40 GMT 51.697517 0.652237 21,000 261 259 0
2019-01-15 11:21:37 GMT 51.698364 0.660442 21,000 261 259 0
2019-01-15 11:21:34 GMT 51.698685 0.663856 21,000 261 259 0
2019-01-15 11:21:31 GMT 51.699379 0.670471 21,000 261 259 0
2019-01-15 11:21:28 GMT 51.699753 0.674286 21,000 261 259 0
2019-01-15 11:21:25 GMT 51.700310 0.680008 21,000 261 259 0
2019-01-15 11:21:22 GMT 51.700836 0.685161 21,000 261 259 0
2019-01-15 11:21:19 GMT 51.701385 0.690506 21,000 261 259 0
2019-01-15 11:21:16 GMT 51.702824 0.704727 21,000 261 260 0
2019-01-15 11:21:13 GMT 51.702824 0.704727 21,000 261 259 0
2019-01-15 11:21:10 GMT 51.703430 0.710831 21,000 261 259 0
2019-01-15 11:21:07 GMT 51.703850 0.715027 21,000 261 259 0
2019-01-15 11:21:04 GMT 51.704590 0.722203 21,000 261 263 0
2019-01-15 11:21:01 GMT 51.705093 0.727399 21,000 261 259 0
2019-01-15 11:20:57 GMT 51.705826 0.734971 21,000 261 259 -64
2019-01-15 11:20:54 GMT 51.706314 0.739746 21,000 261 259 0
2019-01-15 11:20:51 GMT 51.706833 0.744918 21,000 261 260 0
2019-01-15 11:20:48 GMT 51.707474 0.751227 21,000 261 260 0
2019-01-15 11:20:45 GMT 51.708618 0.762436 21,000 261 260 0
2019-01-15 11:20:42 GMT 51.709076 0.767410 21,000 261 260 0
2019-01-15 11:20:39 GMT 51.709076 0.767410 21,000 261 260 0
2019-01-15 11:20:36 GMT 51.709900 0.775452 21,000 261 261 -64
2019-01-15 11:20:33 GMT 51.710552 0.782166 21,000 261 261 0
2019-01-15 11:20:30 GMT 51.710861 0.785077 21,000 261 261 0
2019-01-15 11:20:26 GMT 51.712227 0.798874 21,000 261 261 -64
2019-01-15 11:20:23 GMT 51.712921 0.805417 21,000 261 261 0
2019-01-15 11:20:20 GMT 51.712921 0.805417 21,000 261 261 0
2019-01-15 11:20:16 GMT 51.713673 0.812912 21,000 261 261 0
2019-01-15 11:20:13 GMT 51.714249 0.818853 21,000 261 261 0
2019-01-15 11:20:10 GMT 51.714844 0.824643 21,000 261 262 0
2019-01-15 11:20:07 GMT 51.715393 0.829987 21,000 261 262 0
2019-01-15 11:20:04 GMT 51.716034 0.836594 21,000 261 262 0
2019-01-15 11:20:01 GMT 51.716400 0.840231 21,000 261 262 0
2019-01-15 11:19:58 GMT 51.717041 0.846615 21,000 261 262 0
2019-01-15 11:19:55 GMT 51.717766 0.853729 21,000 261 262 0
2019-01-15 11:19:52 GMT 51.718231 0.858307 21,000 261 262 0
2019-01-15 11:19:49 GMT 51.718746 0.863724 21,000 261 263 0
2019-01-15 11:19:46 GMT 51.719349 0.869904 21,000 261 262 0
2019-01-15 11:19:43 GMT 51.720154 0.877644 21,000 261 263 0
2019-01-15 11:19:40 GMT 51.720566 0.881727 21,000 261 263 0
2019-01-15 11:19:37 GMT 51.721073 0.886917 21,000 261 263 0
2019-01-15 11:19:34 GMT 51.721756 0.893678 21,000 261 263 0
2019-01-15 11:19:31 GMT 51.722305 0.899468 21,000 261 263 0
2019-01-15 11:19:28 GMT 51.722992 0.906075 21,000 261 263 0
2019-01-15 11:19:25 GMT 51.723446 0.910645 21,000 261 263 0
2019-01-15 11:19:22 GMT 51.724377 0.919952 21,000 261 263 0
2019-01-15 11:19:19 GMT 51.724842 0.924759 21,000 261 263 0
2019-01-15 11:19:16 GMT 51.725143 0.927677 21,000 261 263 0
2019-01-15 11:19:13 GMT 51.725773 0.933838 21,000 261 263 0
2019-01-15 11:19:10 GMT 51.726334 0.939480 21,000 261 263 0
2019-01-15 11:19:07 GMT 51.726883 0.944898 21,000 261 263 0
2019-01-15 11:19:04 GMT 51.728008 0.956268 21,000 261 263 0
2019-01-15 11:19:01 GMT 51.728008 0.956268 21,000 261 263 0
2019-01-15 11:18:58 GMT 51.729034 0.966721 21,000 261 263 0
2019-01-15 11:18:55 GMT 51.729263 0.968801 21,000 261 262 0
2019-01-15 11:18:52 GMT 51.729733 0.973663 21,000 261 262 0
2019-01-15 11:18:49 GMT 51.731232 0.988473 21,000 261 262 0
2019-01-15 11:18:45 GMT 51.731232 0.988473 21,000 261 262 0
2019-01-15 11:18:42 GMT 51.731918 0.995005 21,000 261 262 0
2019-01-15 11:18:39 GMT 51.733154 1.007402 21,000 261 262 0
2019-01-15 11:18:36 GMT 51.733154 1.007402 21,000 261 262 0
2019-01-15 11:18:33 GMT 51.733547 1.011047 21,000 261 262 0
2019-01-15 11:18:30 GMT 51.734344 1.018537 21,000 261 262 0
2019-01-15 11:18:27 GMT 51.734760 1.022644 21,000 261 262 0
2019-01-15 11:18:24 GMT 51.735489 1.029597 21,000 261 262 0
2019-01-15 11:18:20 GMT 51.736248 1.036911 21,000 262 262 0
2019-01-15 11:18:14 GMT 51.737183 1.048304 21,000 265 261 0
2019-01-15 11:18:11 GMT 51.737503 1.053871 21,000 265 261 -64
2019-01-15 11:18:08 GMT 51.737869 1.060403 21,000 265 261 -64
2019-01-15 11:18:05 GMT 51.738052 1.063298 21,000 265 260 0
2019-01-15 11:18:02 GMT 51.738438 1.070862 21,000 265 261 0
2019-01-15 11:17:59 GMT 51.738739 1.076437 21,000 265 261 0
2019-01-15 11:17:56 GMT 51.739059 1.082302 21,000 265 260 0
2019-01-15 11:17:52 GMT 51.739460 1.089249 21,000 266 260 0
2019-01-15 11:17:49 GMT 51.739784 1.095963 21,000 266 259 0
2019-01-15 11:17:46 GMT 51.740112 1.101761 21,000 266 260 0
2019-01-15 11:17:43 GMT 51.740391 1.107178 21,000 266 260 0
2019-01-15 11:17:40 GMT 51.740856 1.115646 21,000 266 260 0
2019-01-15 11:17:37 GMT 51.740997 1.118393 21,000 266 260 0
2019-01-15 11:17:33 GMT 51.741417 1.126556 21,000 266 261 0
2019-01-15 11:17:30 GMT 51.741760 1.132557 21,000 266 261 0
2019-01-15 11:17:27 GMT 51.742065 1.138153 21,000 266 262 0
2019-01-15 11:17:24 GMT 51.742355 1.144211 21,000 266 262 64
2019-01-15 11:17:21 GMT 51.742718 1.151428 21,000 266 263 0
2019-01-15 11:17:18 GMT 51.743046 1.156921 21,000 266 263 0
2019-01-15 11:17:15 GMT 51.743317 1.162843 21,000 266 264 0
2019-01-15 11:17:12 GMT 51.743881 1.173859 21,000 266 265 0
2019-01-15 11:17:09 GMT 51.743881 1.173859 21,000 266 265 0
2019-01-15 11:17:06 GMT 51.744164 1.178589 21,000 266 265 64
2019-01-15 11:17:03 GMT 51.744873 1.192610 21,000 266 269 0
2019-01-15 11:16:59 GMT 51.744873 1.192610 21,000 266 267 0
2019-01-15 11:16:56 GMT 51.745193 1.198994 21,000 266 270 0
2019-01-15 11:16:53 GMT 51.745468 1.204191 21,000 266 290 -960
2019-01-15 11:16:50 GMT 51.745880 1.211391 21,000 266 270 0
2019-01-15 11:16:47 GMT 51.746162 1.217194 21,000 266 270 0
2019-01-15 11:16:44 GMT 51.746704 1.227054 21,000 266 271 0
2019-01-15 11:16:41 GMT 51.747143 1.236191 21,000 266 272 0
2019-01-15 11:16:38 GMT 51.747143 1.236191 21,000 266 273 0
2019-01-15 11:16:35 GMT 51.747467 1.241913 21,000 266 276 0
2019-01-15 11:16:32 GMT 51.747791 1.249237 21,000 266 276 64
2019-01-15 11:16:29 GMT 51.747986 1.253184 21,000 266 277 0
2019-01-15 11:16:26 GMT 51.748306 1.259613 21,000 266 278 0
2019-01-15 11:16:23 GMT 51.749084 1.274785 21,000 266 284 -128
2019-01-15 11:16:20 GMT 51.749084 1.274785 21,000 266 282 -64
2019-01-15 11:16:17 GMT 51.749268 1.278942 21,000 266 283 -64
2019-01-15 11:16:14 GMT 51.749588 1.284881 21,000 266 288 -512
2019-01-15 11:16:11 GMT 51.750046 1.294234 21,700 266 289 -960
2019-01-15 11:16:08 GMT 51.750366 1.300692 21,050 266 288 -704
2019-01-15 11:16:05 GMT 51.750504 1.303661 21,050 266 289 -960
2019-01-15 11:16:02 GMT 51.750916 1.312718 21,100 266 289 -960
2019-01-15 11:15:59 GMT 51.751190 1.318062 21,200 266 291 -960
2019-01-15 11:15:56 GMT 51.751694 1.327787 21,250 266 289 -960
2019-01-15 11:15:53 GMT 51.751740 1.328603 21,375 266 289 -1024
2019-01-15 11:15:50 GMT 51.752106 1.335507 21,475 266 291 -960
2019-01-15 11:15:47 GMT 51.752518 1.343227 21,350 266 290 -960
2019-01-15 11:15:44 GMT 51.753147 1.355515 21,425 266 290 -1024
2019-01-15 11:15:41 GMT 51.753296 1.357851 21,475 266 291 -960
2019-01-15 11:15:38 GMT 51.753525 1.362156 21,575 266 290 -1024
2019-01-15 11:15:35 GMT 51.753983 1.370767 21,575 266 290 -1024
2019-01-15 11:15:32 GMT 51.754257 1.375963 21,625 266 290 -960
2019-01-15 11:15:29 GMT 51.754532 1.381160 21,625 266 291 -960
2019-01-15 11:15:26 GMT 51.754917 1.387787 21,725 266 291 -960
2019-01-15 11:15:23 GMT 51.755383 1.397095 21,775 265 291 -960
2019-01-15 11:15:20 GMT 51.756126 1.410065 21,825 266 291 -960
2019-01-15 11:15:17 GMT 51.756126 1.410065 21,875 266 291 -960
2019-01-15 11:15:14 GMT 51.756268 1.413269 22,000 266 291 -1024
2019-01-15 11:15:11 GMT 51.756638 1.420212 21,950 266 290 -1024
2019-01-15 11:15:07 GMT 51.757149 1.429749 22,125 266 290 -960
2019-01-15 11:15:04 GMT 51.757431 1.435089 22,075 266 291 -960
2019-01-15 11:15:01 GMT 51.757828 1.442475 22,125 266 292 -960
2019-01-15 11:14:58 GMT 51.758595 1.456985 22,250 266 292 -1024
2019-01-15 11:14:55 GMT 51.758595 1.456985 22,400 266 291 -1024
2019-01-15 11:14:52 GMT 51.758835 1.461033 22,325 266 291 -1024
2019-01-15 11:14:49 GMT 51.759293 1.469727 22,325 266 292 -960
2019-01-15 11:14:46 GMT 51.759521 1.474246 22,350 266 291 -1024
2019-01-15 11:14:43 GMT 51.759895 1.481628 22,425 266 291 -960
2019-01-15 11:14:40 GMT 51.760223 1.487961 22,525 266 291 -960
2019-01-15 11:14:37 GMT 51.760548 1.494675 22,500 266 291 -960
2019-01-15 11:14:34 GMT 51.760921 1.501617 22,550 266 291 -960
2019-01-15 11:14:31 GMT 51.761169 1.507205 22,625 266 292 -960
2019-01-15 11:14:28 GMT 51.761524 1.514587 22,675 266 292 -960
2019-01-15 11:14:25 GMT 51.761806 1.519852 22,725 266 292 -960
2019-01-15 11:14:22 GMT 51.762085 1.526580 22,725 266 292 -960
2019-01-15 11:14:17 GMT 51.762909 1.543950 22,850 266 292 -960
2019-01-15 11:14:14 GMT 51.762970 1.545029 22,925 266 292 -960
2019-01-15 11:14:11 GMT 51.763203 1.551132 23,025 267 289 -1024
2019-01-15 11:14:08 GMT 51.763550 1.558277 22,975 267 290 -1024
2019-01-15 11:14:04 GMT 51.764179 1.572876 23,075 266 292 -960
2019-01-15 11:14:01 GMT 51.764179 1.572876 23,100 267 291 -960
2019-01-15 11:13:58 GMT 51.764511 1.580250 23,125 267 292 -960
2019-01-15 11:13:55 GMT 51.764690 1.584549 23,225 267 291 -1024
2019-01-15 11:13:52 GMT 51.765156 1.596069 23,275 267 291 -1024
2019-01-15 11:13:49 GMT 51.765343 1.600189 23,300 267 290 -1024
2019-01-15 11:13:45 GMT 51.765701 1.608977 23,375 267 289 -896
2019-01-15 11:13:39 GMT 51.766228 1.623230 23,475 267 289 -1024
2019-01-15 11:13:36 GMT 51.766369 1.626434 23,475 267 288 -960
2019-01-15 11:13:33 GMT 51.766556 1.631775 23,550 267 287 -1024
2019-01-15 11:13:30 GMT 51.766846 1.639487 23,625 267 282 -704
2019-01-15 11:13:27 GMT 51.767166 1.647801 23,675 267 286 -960
2019-01-15 11:13:24 GMT 51.767395 1.653517 23,675 267 286 -1024
2019-01-15 11:13:20 GMT 51.767719 1.661377 23,925 267 282 0
2019-01-15 11:13:16 GMT 51.768276 1.674728 23,875 267 283 -960
2019-01-15 11:13:13 GMT 51.768276 1.674728 23,900 267 282 -832
2019-01-15 11:13:10 GMT 51.768631 1.683358 23,925 267 281 -576
2019-01-15 11:13:07 GMT 51.769135 1.695680 24,000 267 285 0
2019-01-15 11:13:01 GMT 51.769394 1.702194 24,000 267 282 0
2019-01-15 11:12:58 GMT 51.769730 1.709562 24,000 267 285 0
2019-01-15 11:12:55 GMT 51.769913 1.714387 24,000 267 284 0
2019-01-15 11:12:52 GMT 51.770233 1.722181 24,000 267 285 0
2019-01-15 11:12:49 GMT 51.770370 1.725373 24,000 267 285 0
2019-01-15 11:12:46 GMT 51.770691 1.733687 24,000 267 288 0
2019-01-15 11:12:43 GMT 51.770874 1.737993 24,000 267 288 0
2019-01-15 11:12:39 GMT 51.771194 1.746603 24,000 267 290 0
2019-01-15 11:12:36 GMT 51.771378 1.752245 24,000 267 292 0
2019-01-15 11:12:33 GMT 51.771698 1.761079 24,000 267 292 0
2019-01-15 11:12:30 GMT 51.771927 1.767017 24,000 267 294 -128
2019-01-15 11:12:27 GMT 51.772232 1.775742 24,025 267 296 -192
2019-01-15 11:12:24 GMT 51.772373 1.780396 24,025 267 297 -448
2019-01-15 11:12:21 GMT 51.772560 1.785278 24,025 267 297 -448
2019-01-15 11:12:18 GMT 51.772934 1.795448 24,125 267 298 -960
2019-01-15 11:12:15 GMT 51.773071 1.798789 24,175 267 298 -1024
2019-01-15 11:12:12 GMT 51.773396 1.807632 24,150 267 298 -1024
2019-01-15 11:12:09 GMT 51.773537 1.812515 24,225 267 298 -1024
2019-01-15 11:12:05 GMT 51.773865 1.821671 24,350 267 298 -960
2019-01-15 11:12:02 GMT 51.774143 1.828995 24,350 267 298 -960
2019-01-15 11:11:59 GMT 51.774376 1.835861 24,450 267 298 -1024
2019-01-15 11:11:55 GMT 51.774673 1.844293 24,525 267 298 -960
2019-01-15 11:11:52 GMT 51.774902 1.850083 24,500 267 299 -960
2019-01-15 11:11:49 GMT 51.775166 1.856766 24,550 267 298 -1024
2019-01-15 11:11:46 GMT 51.775452 1.864929 24,600 267 299 -960
2019-01-15 11:11:43 GMT 51.775726 1.871643 24,650 267 299 -1024
2019-01-15 11:11:40 GMT 51.776005 1.879425 24,700 267 299 -960
2019-01-15 11:11:37 GMT 51.776192 1.884537 24,775 267 300 -1024
2019-01-15 11:11:34 GMT 51.776470 1.892776 24,875 267 299 -1024
2019-01-15 11:11:31 GMT 51.776608 1.897659 24,850 267 300 -960
2019-01-15 11:11:28 GMT 51.776890 1.905975 24,925 267 300 -960
2019-01-15 11:11:25 GMT 51.777077 1.910858 25,000 267 300 -960
2019-01-15 11:11:22 GMT 51.777420 1.920455 25,350 267 300 -960
2019-01-15 11:11:19 GMT 51.777649 1.926913 25,050 267 300 -960
2019-01-15 11:11:16 GMT 51.777866 1.933441 25,100 267 300 -960
2019-01-15 11:11:13 GMT 51.778061 1.940126 25,150 268 301 -960
2019-01-15 11:11:10 GMT 51.778336 1.949554 25,225 268 301 -1024
2019-01-15 11:11:07 GMT 51.778564 1.957645 25,325 268 302 -960
2019-01-15 11:11:04 GMT 51.778564 1.957645 25,325 268 302 -1024
2019-01-15 11:11:01 GMT 51.778751 1.964188 25,475 269 303 -1024
2019-01-15 11:10:58 GMT 51.778938 1.970444 25,375 268 302 -960
2019-01-15 11:10:55 GMT 51.779160 1.978356 25,425 268 302 -960
2019-01-15 11:10:52 GMT 51.779404 1.987534 25,475 268 303 -896
2019-01-15 11:10:49 GMT 51.779495 1.991577 25,550 268 303 -1024
2019-01-15 11:10:46 GMT 51.779774 2.000656 25,650 268 303 -896
2019-01-15 11:10:39 GMT 51.780239 2.019577 25,675 268 303 -1024
2019-01-15 11:10:36 GMT 51.780350 2.023860 25,900 268 304 -1024
2019-01-15 11:10:33 GMT 51.780487 2.028388 26,275 268 303 -960
2019-01-15 11:10:30 GMT 51.780659 2.035370 25,850 268 304 -960
2019-01-15 11:10:27 GMT 51.780762 2.040117 25,925 268 303 -960
2019-01-15 11:10:24 GMT 51.781082 2.054592 25,950 269 303 -960
2019-01-15 11:10:21 GMT 51.781082 2.054592 26,100 269 303 -960
2019-01-15 11:10:18 GMT 51.781265 2.064285 26,025 269 303 -960
2019-01-15 11:10:15 GMT 51.781403 2.072372 26,100 269 303 -960
2019-01-15 11:10:12 GMT 51.781448 2.075748 26,125 269 303 -960
2019-01-15 11:10:09 GMT 51.781635 2.084579 26,200 269 302 -1024
2019-01-15 11:10:06 GMT 51.781769 2.093786 26,225 269 302 -1024
2019-01-15 11:10:03 GMT 51.781906 2.100987 26,675 269 302 -960
2019-01-15 11:10:00 GMT 51.782009 2.107544 26,350 269 302 -960
2019-01-15 11:09:57 GMT 51.782009 2.107544 26,375 269 302 -960
2019-01-15 11:09:54 GMT 51.782135 2.115388 26,425 269 302 -1024
2019-01-15 11:09:51 GMT 51.782242 2.121048 26,550 269 301 -960
2019-01-15 11:09:48 GMT 51.782410 2.129789 26,550 269 301 -960
2019-01-15 11:09:44 GMT 51.782616 2.139435 26,575 269 301 -1024
2019-01-15 11:09:40 GMT 51.782776 2.147308 26,625 269 301 -960
2019-01-15 11:09:37 GMT 51.782867 2.153098 26,675 268 301 -960
2019-01-15 11:09:34 GMT 51.783081 2.162323 26,775 268 300 -960
2019-01-15 11:09:31 GMT 51.783218 2.169189 26,800 267 298 -960
2019-01-15 11:09:27 GMT 51.783508 2.180860 26,900 268 300 -960
2019-01-15 11:09:24 GMT 51.783783 2.191995 27,150 267 298 -960
2019-01-15 11:09:21 GMT 51.783783 2.191995 26,975 268 299 -960
2019-01-15 11:09:18 GMT 51.783966 2.198231 27,050 268 298 -960
2019-01-15 11:09:15 GMT 51.784286 2.209291 27,100 267 298 -960
2019-01-15 11:09:12 GMT 51.784756 2.220840 27,150 266 297 -1088
2019-01-15 11:09:08 GMT 51.785034 2.225494 27,225 264 294 -960
2019-01-15 11:09:05 GMT 51.785034 2.225494 27,250 264 298 -896
2019-01-15 11:09:02 GMT 51.785362 2.230377 27,275 264 297 -1024
2019-01-15 11:08:59 GMT 51.785843 2.237202 27,375 264 285 0
2019-01-15 11:08:56 GMT 51.786484 2.246407 27,375 264 296 -960
2019-01-15 11:08:53 GMT 51.787033 2.253905 27,425 264 295 -960
2019-01-15 11:08:50 GMT 51.787411 2.258911 27,450 264 294 -960
2019-01-15 11:08:46 GMT 51.787949 2.266524 27,575 264 292 -896
2019-01-15 11:08:43 GMT 51.788433 2.273712 27,625 264 293 -960
2019-01-15 11:08:40 GMT 51.788994 2.282028 27,625 264 291 -960
2019-01-15 11:08:37 GMT 51.789368 2.287012 27,650 264 292 -960
2019-01-15 11:08:34 GMT 51.789879 2.294540 27,700 264 290 -960
2019-01-15 11:08:31 GMT 51.790295 2.299957 27,900 264 288 -960
2019-01-15 11:08:28 GMT 51.791134 2.312164 27,850 264 288 -960
2019-01-15 11:08:22 GMT 51.791748 2.320639 27,900 264 287 -960
2019-01-15 11:08:18 GMT 51.792343 2.329398 28,000 264 285 -576
2019-01-15 11:08:14 GMT 51.793324 2.343063 28,000 264 284 0
2019-01-15 11:08:07 GMT 51.793808 2.350035 28,000 264 284 0
2019-01-15 11:08:04 GMT 51.794586 2.361021 28,000 264 284 0
2019-01-15 11:08:01 GMT 51.794724 2.363100 28,000 264 284 64
2019-01-15 11:07:58 GMT 51.795319 2.371562 28,000 264 284 -64
2019-01-15 11:07:55 GMT 51.795742 2.377625 28,000 264 284 0
2019-01-15 11:07:51 GMT 51.796253 2.384644 28,000 264 284 0
2019-01-15 11:07:48 GMT 51.797279 2.398529 28,000 264 284 -64
2019-01-15 11:07:44 GMT 51.798069 2.409897 28,000 264 284 0
2019-01-15 11:07:40 GMT 51.798069 2.409897 28,000 264 284 0
2019-01-15 11:07:35 GMT 51.798660 2.418328 28,000 264 284 -64
2019-01-15 11:07:30 GMT 51.799988 2.437332 28,000 264 284 0
2019-01-15 11:07:27 GMT 51.799988 2.437332 28,000 264 284 0
2019-01-15 11:07:23 GMT 51.800446 2.443390 28,000 264 284 64
2019-01-15 11:07:20 GMT 51.800861 2.449036 28,000 264 284 -64
2019-01-15 11:07:17 GMT 51.801235 2.454758 28,000 264 284 -64
2019-01-15 11:07:14 GMT 51.801682 2.461086 28,000 264 284 0
2019-01-15 11:07:11 GMT 51.802120 2.467422 28,000 264 284 0
2019-01-15 11:07:08 GMT 51.802727 2.475891 28,000 264 284 0
2019-01-15 11:07:04 GMT 51.803284 2.483875 28,000 264 284 0
2019-01-15 11:07:01 GMT 51.803833 2.491892 28,000 264 284 0
2019-01-15 11:06:58 GMT 51.804214 2.497406 28,000 264 285 0
2019-01-15 11:06:55 GMT 51.804680 2.503967 28,000 264 285 0
2019-01-15 11:06:51 GMT 51.805191 2.510910 28,000 264 285 0
2019-01-15 11:06:48 GMT 51.805519 2.516022 28,000 264 285 0
2019-01-15 11:06:45 GMT 51.806030 2.523367 28,000 264 285 0
2019-01-15 11:06:42 GMT 51.806488 2.529899 28,000 264 285 0
2019-01-15 11:06:39 GMT 51.806992 2.536877 28,000 264 285 0
2019-01-15 11:06:36 GMT 51.807426 2.543488 28,000 264 285 0
2019-01-15 11:06:33 GMT 51.807892 2.550201 28,000 264 285 0
2019-01-15 11:06:30 GMT 51.808216 2.555313 28,000 264 285 -64
2019-01-15 11:06:27 GMT 51.808777 2.563303 28,000 264 285 64
2019-01-15 11:06:23 GMT 51.809151 2.568588 28,000 264 286 -64
2019-01-15 11:06:20 GMT 51.809662 2.575989 28,000 264 286 0
2019-01-15 11:06:16 GMT 51.810379 2.586835 28,000 264 286 -64
2019-01-15 11:06:13 GMT 51.810745 2.591883 28,000 264 286 0
2019-01-15 11:06:10 GMT 51.811523 2.603760 28,000 264 286 0
2019-01-15 11:06:07 GMT 51.811523 2.603760 28,000 264 286 -64
2019-01-15 11:06:03 GMT 51.812176 2.613068 28,000 264 286 0
2019-01-15 11:06:00 GMT 51.812531 2.618606 28,000 264 286 0
2019-01-15 11:05:57 GMT 51.813061 2.626038 28,000 264 286 0
2019-01-15 11:05:53 GMT 51.813492 2.632413 28,000 264 286 0
2019-01-15 11:05:50 GMT 51.814316 2.644730 28,000 264 286 0
2019-01-15 11:05:46 GMT 51.814545 2.647705 28,000 264 286 0
2019-01-15 11:05:43 GMT 51.815002 2.654015 28,000 264 286 0
2019-01-15 11:05:40 GMT 51.815479 2.661514 28,000 264 287 0
2019-01-15 11:05:37 GMT 51.815945 2.667618 28,000 264 289 0
2019-01-15 11:05:34 GMT 51.816376 2.674206 28,000 264 287 0
2019-01-15 11:05:31 GMT 51.816833 2.680367 28,000 264 287 0
2019-01-15 11:05:28 GMT 51.817249 2.686386 28,000 264 287 0
2019-01-15 11:05:25 GMT 51.817978 2.697440 28,000 264 287 0
2019-01-15 11:05:22 GMT 51.818207 2.700855 28,000 264 287 0
2019-01-15 11:05:19 GMT 51.818527 2.705532 28,000 264 287 0
2019-01-15 11:05:16 GMT 51.819157 2.714691 28,000 264 288 0
2019-01-15 11:05:13 GMT 51.819901 2.725426 28,000 264 288 0
2019-01-15 11:05:10 GMT 51.819901 2.725426 28,000 264 288 0
2019-01-15 11:05:07 GMT 51.820358 2.732033 28,000 264 287 64
2019-01-15 11:05:04 GMT 51.820770 2.738417 28,000 264 289 0
2019-01-15 11:05:00 GMT 51.821301 2.745895 28,000 264 289 0
2019-01-15 11:04:57 GMT 51.821777 2.753411 28,000 265 289 0
2019-01-15 11:04:54 GMT 51.822144 2.758756 28,000 264 289 0
2019-01-15 11:04:51 GMT 51.822601 2.765437 28,000 264 289 0
2019-01-15 11:04:48 GMT 51.823013 2.771895 28,000 264 289 -64
2019-01-15 11:04:45 GMT 51.823441 2.777634 28,000 264 289 0
2019-01-15 11:04:42 GMT 51.824020 2.786890 28,000 264 289 0
2019-01-15 11:04:39 GMT 51.824432 2.792680 28,000 264 289 -64
2019-01-15 11:04:36 GMT 51.825069 2.802582 28,000 264 289 0
2019-01-15 11:04:33 GMT 51.825302 2.805745 28,000 264 289 0
2019-01-15 11:04:29 GMT 51.825668 2.811312 28,000 264 289 0
2019-01-15 11:04:26 GMT 51.826187 2.818832 28,000 264 289 0
2019-01-15 11:04:23 GMT 51.826607 2.825317 28,000 264 289 0
2019-01-15 11:04:20 GMT 51.827164 2.833862 28,000 264 289 -64
2019-01-15 11:04:17 GMT 51.827820 2.843529 28,000 264 288 0
2019-01-15 11:04:11 GMT 51.828461 2.853402 28,000 264 289 0
2019-01-15 11:04:08 GMT 51.828781 2.857707 28,000 264 289 64
2019-01-15 11:04:04 GMT 51.829262 2.865219 28,000 264 289 0
2019-01-15 11:04:01 GMT 51.829773 2.872925 28,000 264 289 -64
2019-01-15 11:03:58 GMT 51.830238 2.879410 28,000 264 289 0
2019-01-15 11:03:55 GMT 51.830658 2.886064 28,000 264 289 0
2019-01-15 11:03:52 GMT 51.831448 2.898254 28,000 265 289 0
2019-01-15 11:03:49 GMT 51.831848 2.904102 28,000 264 289 0
2019-01-15 11:03:43 GMT 51.832333 2.911606 28,000 264 289 0
2019-01-15 11:03:40 GMT 51.832764 2.917835 28,000 264 289 -64
2019-01-15 11:03:37 GMT 51.833218 2.924881 28,000 265 289 0
2019-01-15 11:03:33 GMT 51.833775 2.933502 28,000 265 289 0
2019-01-15 11:03:30 GMT 51.834641 2.946414 28,000 265 289 0
2019-01-15 11:03:27 GMT 51.834641 2.946414 28,000 265 289 0
2019-01-15 11:03:23 GMT 51.835171 2.954941 28,000 265 289 0
2019-01-15 11:03:19 GMT 51.835831 2.964601 28,000 265 289 0
2019-01-15 11:03:16 GMT 51.836102 2.968750 28,000 265 290 0
2019-01-15 11:03:13 GMT 51.836475 2.974701 28,000 265 289 -64
2019-01-15 11:03:10 GMT 51.837360 2.988510 28,000 265 290 0
2019-01-15 11:03:07 GMT 51.837360 2.988510 28,000 265 289 0
2019-01-15 11:03:04 GMT 51.837845 2.996001 28,000 265 289 -64
2019-01-15 11:03:01 GMT 51.838200 3.001404 28,000 265 290 0
2019-01-15 11:02:58 GMT 51.838760 3.010180 28,000 265 290 0
2019-01-15 11:02:55 GMT 51.839130 3.016434 28,000 265 290 0
2019-01-15 11:02:52 GMT 51.839500 3.022079 28,000 265 290 0
2019-01-15 11:02:48 GMT 51.840061 3.031082 28,000 265 290 0
2019-01-15 11:02:45 GMT 51.840527 3.038864 28,000 265 290 0
2019-01-15 11:02:42 GMT 51.840866 3.043807 28,000 265 290 0
2019-01-15 11:02:39 GMT 51.841278 3.050710 28,000 265 290 0
2019-01-15 11:02:36 GMT 51.841644 3.056107 28,000 265 290 -64
2019-01-15 11:02:32 GMT 51.842514 3.070530 28,000 252 294 -128
2019-01-15 11:02:29 GMT 51.842514 3.070530 28,000 265 290 0
2019-01-15 11:02:26 GMT 51.842972 3.077434 28,000 265 290 0
2019-01-15 11:02:23 GMT 51.843430 3.085154 28,000 264 290 0
2019-01-15 11:02:17 GMT 51.844158 3.096161 28,000 265 290 0
2019-01-15 11:02:14 GMT 51.844620 3.103712 28,000 265 290 0
2019-01-15 11:02:11 GMT 51.844994 3.109512 28,000 265 290 0
2019-01-15 11:02:08 GMT 51.845398 3.115738 28,000 264 290 0
2019-01-15 11:02:05 GMT 51.845901 3.123012 28,000 264 290 0
2019-01-15 11:02:02 GMT 51.846313 3.128654 28,000 264 289 -64
2019-01-15 11:01:58 GMT 51.847137 3.140030 28,000 264 290 0
2019-01-15 11:01:55 GMT 51.847507 3.145218 28,000 262 291 0
2019-01-15 11:01:52 GMT 51.847870 3.149736 28,000 262 290 0
2019-01-15 11:01:49 GMT 51.848534 3.156815 28,000 260 291 0
2019-01-15 11:01:46 GMT 51.849472 3.164879 28,000 259 292 0
2019-01-15 11:01:43 GMT 51.850254 3.170471 28,000 252 294 -128
2019-01-15 11:01:39 GMT 51.851513 3.178024 28,000 253 294 -64
2019-01-15 11:01:36 GMT 51.854027 3.190079 28,000 249 295 0
2019-01-15 11:01:33 GMT 51.854027 3.190079 28,000 248 296 0
2019-01-15 11:01:30 GMT 51.855515 3.196056 28,000 248 296 0
2019-01-15 11:01:27 GMT 51.857143 3.202362 28,000 248 296 0
2019-01-15 11:01:23 GMT 51.859287 3.210754 28,000 248 295 0
2019-01-15 11:01:20 GMT 51.861328 3.218697 28,000 248 295 0
2019-01-15 11:01:17 GMT 51.863010 3.225250 28,000 248 295 0
2019-01-15 11:01:12 GMT 51.864853 3.232356 28,000 248 295 0
2019-01-15 11:01:09 GMT 51.866638 3.239334 28,000 248 295 0
2019-01-15 11:01:03 GMT 51.869854 3.251724 28,000 248 295 0
2019-01-15 11:00:59 GMT 51.872818 3.263162 28,000 248 295 0
2019-01-15 11:00:55 GMT 51.874695 3.270493 28,000 248 295 0
2019-01-15 11:00:52 GMT 51.875858 3.274918 28,000 248 295 0
2019-01-15 11:00:48 GMT 51.880280 3.292084 28,000 248 295 0
2019-01-15 11:00:44 GMT 51.880280 3.292084 28,000 248 295 0
2019-01-15 11:00:40 GMT 51.881882 3.298348 28,000 248 294 0
2019-01-15 11:00:37 GMT 51.883713 3.305474 28,000 248 295 0
2019-01-15 11:00:33 GMT 51.887878 3.321583 28,000 248 295 0
2019-01-15 11:00:30 GMT 51.887878 3.321583 28,000 248 295 0
2019-01-15 11:00:27 GMT 51.889114 3.326482 28,000 248 295 0
2019-01-15 11:00:24 GMT 51.890335 3.331146 28,000 248 295 0
2019-01-15 11:00:21 GMT 51.891724 3.336652 28,000 248 294 -64
2019-01-15 11:00:18 GMT 51.894012 3.345566 28,000 248 295 0
2019-01-15 11:00:15 GMT 51.895020 3.349457 28,000 248 295 0
2019-01-15 11:00:12 GMT 51.899090 3.365348 28,000 248 295 0
2019-01-15 11:00:07 GMT 51.899090 3.365348 28,000 248 295 0
2019-01-15 11:00:04 GMT 51.901108 3.373260 28,000 248 295 0
2019-01-15 11:00:00 GMT 51.902718 3.379551 28,000 248 295 0
2019-01-15 10:59:57 GMT 51.904629 3.386928 28,000 248 294 0
2019-01-15 10:59:54 GMT 51.905979 3.392186 28,000 248 294 0
2019-01-15 10:59:51 GMT 51.907562 3.398514 28,000 248 294 0
2019-01-15 10:59:48 GMT 51.909210 3.404770 28,000 248 294 0
2019-01-15 10:59:44 GMT 51.911098 3.412354 28,000 248 294 0
2019-01-15 10:59:41 GMT 51.913193 3.420436 28,000 248 294 0
2019-01-15 10:59:38 GMT 51.913986 3.423497 28,000 248 294 0
2019-01-15 10:59:35 GMT 51.915848 3.430795 28,000 248 294 0
2019-01-15 10:59:32 GMT 51.917358 3.436737 28,000 248 294 -64
2019-01-15 10:59:29 GMT 51.919060 3.443429 28,000 248 294 0
2019-01-15 10:59:26 GMT 51.920364 3.448530 28,000 248 294 0
2019-01-15 10:59:23 GMT 51.923622 3.461321 28,000 248 293 0
2019-01-15 10:59:20 GMT 51.923622 3.461321 28,000 248 294 0
2019-01-15 10:59:17 GMT 51.925919 3.470230 28,000 248 294 0
2019-01-15 10:59:14 GMT 51.928139 3.478978 28,000 248 294 0
2019-01-15 10:59:11 GMT 51.929951 3.486119 28,000 248 294 0
2019-01-15 10:59:08 GMT 51.929951 3.486119 28,000 248 294 0
2019-01-15 10:59:05 GMT 51.931301 3.491377 28,000 248 293 0
2019-01-15 10:59:02 GMT 51.934700 3.504796 28,000 248 294 0
2019-01-15 10:58:59 GMT 51.934700 3.504796 28,000 248 294 0
2019-01-15 10:58:55 GMT 51.938053 3.517822 28,000 248 293 0
2019-01-15 10:58:49 GMT 51.939682 3.524336 28,000 248 294 -64
2019-01-15 10:58:46 GMT 51.941345 3.530884 28,000 248 294 0
2019-01-15 10:58:42 GMT 51.943680 3.539963 28,000 248 293 0
2019-01-15 10:58:39 GMT 51.945099 3.545685 28,000 248 294 -64
2019-01-15 10:58:36 GMT 51.946106 3.549576 28,000 248 294 0
2019-01-15 10:58:32 GMT 51.948528 3.559099 28,000 248 293 0
2019-01-15 10:58:29 GMT 51.950390 3.566398 28,000 248 293 0
2019-01-15 10:58:26 GMT 51.951416 3.570480 28,000 248 293 0
2019-01-15 10:58:23 GMT 51.953136 3.577384 28,000 248 293 0
2019-01-15 10:58:20 GMT 51.955170 3.585281 28,000 248 293 0
2019-01-15 10:58:17 GMT 51.955994 3.588562 28,000 248 293 0
2019-01-15 10:58:11 GMT 51.959278 3.601554 28,000 248 293 0
2019-01-15 10:58:08 GMT 51.961212 3.609314 28,000 248 293 0
2019-01-15 10:58:04 GMT 51.964142 3.620834 28,000 248 293 0
2019-01-15 10:58:01 GMT 51.965893 3.627764 28,000 248 293 0
2019-01-15 10:57:58 GMT 51.965893 3.627764 28,000 248 293 0
2019-01-15 10:57:55 GMT 51.967846 3.635454 28,000 248 293 0
2019-01-15 10:57:50 GMT 51.970173 3.644636 28,000 248 293 0
2019-01-15 10:57:47 GMT 51.971695 3.650742 28,000 248 293 0
2019-01-15 10:57:43 GMT 51.974083 3.660017 28,000 248 292 0
2019-01-15 10:57:40 GMT 51.975311 3.664932 28,000 248 292 0
2019-01-15 10:57:36 GMT 51.976925 3.671238 28,000 248 292 0
2019-01-15 10:57:33 GMT 51.979523 3.681564 28,000 248 293 0
2019-01-15 10:57:30 GMT 51.980602 3.685835 28,000 248 293 0
2019-01-15 10:57:27 GMT 51.982368 3.692740 28,000 248 293 0
2019-01-15 10:57:21 GMT 51.984650 3.701859 28,000 248 293 -64
2019-01-15 10:57:18 GMT 51.986618 3.709564 28,000 248 293 0
2019-01-15 10:57:14 GMT 51.991261 3.727897 28,000 248 293 0
2019-01-15 10:57:10 GMT 51.991261 3.727897 28,000 248 292 0
2019-01-15 10:57:07 GMT 51.992249 3.731918 28,000 248 293 0
2019-01-15 10:57:04 GMT 51.993805 3.738022 28,000 248 293 0
2019-01-15 10:57:01 GMT 51.995132 3.743286 28,000 248 293 0
2019-01-15 10:56:58 GMT 51.997360 3.752066 28,000 248 293 0
2019-01-15 10:56:54 GMT 52.000351 3.764038 28,000 248 293 0
2019-01-15 10:56:51 GMT 52.000351 3.764038 28,000 248 293 0
2019-01-15 10:56:47 GMT 52.004059 3.778687 28,000 248 293 0
2019-01-15 10:56:44 GMT 52.004059 3.778687 28,000 248 293 0
2019-01-15 10:56:41 GMT 52.005322 3.783691 28,000 248 293 0
2019-01-15 10:56:38 GMT 52.008682 3.796921 28,000 248 293 0
2019-01-15 10:56:35 GMT 52.008682 3.796921 28,000 248 293 0
2019-01-15 10:56:32 GMT 52.010349 3.803624 28,000 248 293 0
2019-01-15 10:56:29 GMT 52.012024 3.810137 28,000 248 293 -64
2019-01-15 10:56:26 GMT 52.012814 3.813433 28,000 248 293 64
2019-01-15 10:56:23 GMT 52.014999 3.822174 28,000 248 293 0
2019-01-15 10:56:20 GMT 52.016167 3.826617 28,000 248 293 0
2019-01-15 10:56:17 GMT 52.018261 3.834935 28,000 248 293 0
2019-01-15 10:56:14 GMT 52.021362 3.847351 28,000 248 293 0
2019-01-15 10:56:10 GMT 52.021362 3.847351 28,000 248 293 0
2019-01-15 10:56:07 GMT 52.023243 3.854946 28,000 248 293 0
2019-01-15 10:56:04 GMT 52.024361 3.859419 28,000 248 293 0
2019-01-15 10:56:01 GMT 52.026222 3.866717 28,000 248 293 0
2019-01-15 10:55:58 GMT 52.028091 3.874283 28,000 248 294 0
2019-01-15 10:55:55 GMT 52.029419 3.879547 28,000 248 294 0
2019-01-15 10:55:52 GMT 52.030518 3.884048 28,000 248 294 0
2019-01-15 10:55:49 GMT 52.031948 3.889788 28,000 248 294 0
2019-01-15 10:55:46 GMT 52.033764 3.896929 28,000 248 294 0
2019-01-15 10:55:42 GMT 52.035812 3.905090 28,000 249 294 0
2019-01-15 10:55:38 GMT 52.037796 3.913040 28,000 248 294 0
2019-01-15 10:55:35 GMT 52.039124 3.918381 28,000 248 294 0
2019-01-15 10:55:32 GMT 52.040634 3.924484 28,000 248 294 0
2019-01-15 10:55:29 GMT 52.043884 3.937378 28,000 248 294 0
2019-01-15 10:55:26 GMT 52.043884 3.937378 28,000 249 294 0
2019-01-15 10:55:23 GMT 52.045403 3.943464 28,000 249 294 0
2019-01-15 10:55:19 GMT 52.047310 3.951233 28,000 249 294 0
2019-01-15 10:55:16 GMT 52.049267 3.959002 28,000 249 294 0
2019-01-15 10:55:12 GMT 52.051346 3.967438 28,000 249 294 0
2019-01-15 10:55:08 GMT 52.053036 3.974147 28,000 249 294 0
2019-01-15 10:55:05 GMT 52.054482 3.980111 28,000 249 294 0
2019-01-15 10:55:02 GMT 52.055878 3.985604 28,000 248 294 0
2019-01-15 10:54:59 GMT 52.057461 3.991961 28,000 248 294 0
2019-01-15 10:54:56 GMT 52.059494 4.000168 28,000 248 294 0
2019-01-15 10:54:53 GMT 52.060577 4.004438 28,000 248 294 0
2019-01-15 10:54:50 GMT 52.062057 4.010391 28,000 249 294 0
2019-01-15 10:54:47 GMT 52.063789 4.017386 28,000 248 294 64
2019-01-15 10:54:44 GMT 52.065651 4.024920 28,000 248 294 -64
2019-01-15 10:54:41 GMT 52.066635 4.028854 28,000 248 294 0
2019-01-15 10:54:38 GMT 52.068211 4.035200 28,000 248 294 0
2019-01-15 10:54:35 GMT 52.069843 4.041713 28,000 248 294 -64
2019-01-15 10:54:32 GMT 52.071609 4.048697 28,000 248 295 0
2019-01-15 10:54:29 GMT 52.073090 4.054642 28,000 249 295 0
2019-01-15 10:54:26 GMT 52.074356 4.059762 28,000 248 295 -64
2019-01-15 10:54:23 GMT 52.075928 4.066162 28,000 249 295 0
2019-01-15 10:54:20 GMT 52.077759 4.073486 28,000 249 295 0
2019-01-15 10:54:14 GMT 52.080967 4.086443 28,000 249 295 64
2019-01-15 10:54:11 GMT 52.081760 4.089504 28,000 249 295 0
2019-01-15 10:54:08 GMT 52.083618 4.097137 28,000 249 295 -64
2019-01-15 10:54:05 GMT 52.085175 4.103241 28,000 249 295 0
2019-01-15 10:54:02 GMT 52.086788 4.109828 28,000 249 295 64
2019-01-15 10:53:59 GMT 52.088562 4.117050 28,000 249 295 0
2019-01-15 10:53:56 GMT 52.089813 4.121913 28,000 249 295 0
2019-01-15 10:53:53 GMT 52.091446 4.128494 28,000 249 295 0
2019-01-15 10:53:50 GMT 52.092979 4.134705 28,000 249 296 0
2019-01-15 10:53:47 GMT 52.094284 4.140015 28,000 249 295 0
2019-01-15 10:53:44 GMT 52.095795 4.146194 28,000 249 295 0
2019-01-15 10:53:41 GMT 52.097729 4.153931 28,000 249 295 0
2019-01-15 10:53:38 GMT 52.098953 4.158936 28,000 249 295 0
2019-01-15 10:53:34 GMT 52.101170 4.167742 28,000 249 295 0
2019-01-15 10:53:31 GMT 52.102158 4.171677 28,000 249 295 0
2019-01-15 10:53:28 GMT 52.106094 4.187698 28,000 249 295 0
2019-01-15 10:53:24 GMT 52.106094 4.187698 28,000 249 295 0
2019-01-15 10:53:21 GMT 52.107651 4.193878 28,000 249 296 0
2019-01-15 10:53:18 GMT 52.109596 4.201878 28,000 249 295 0
2019-01-15 10:53:15 GMT 52.110901 4.207057 28,000 249 296 -64
2019-01-15 10:53:12 GMT 52.111973 4.211373 28,000 249 296 0
2019-01-15 10:53:09 GMT 52.113693 4.218369 28,000 249 296 0
2019-01-15 10:53:06 GMT 52.114838 4.223099 28,000 249 296 0
2019-01-15 10:53:03 GMT 52.116905 4.231541 28,000 249 296 -64
2019-01-15 10:53:00 GMT 52.118347 4.237270 28,000 249 296 0
2019-01-15 10:52:57 GMT 52.120445 4.245980 28,000 249 296 64
2019-01-15 10:52:54 GMT 52.121017 4.248199 28,000 249 296 0
2019-01-15 10:52:51 GMT 52.122940 4.256058 28,000 249 296 0
2019-01-15 10:52:48 GMT 52.124451 4.262238 28,000 249 296 0
2019-01-15 10:52:45 GMT 52.127705 4.275408 28,000 249 296 0
2019-01-15 10:52:42 GMT 52.127705 4.275408 28,000 249 296 0
2019-01-15 10:52:39 GMT 52.129028 4.280777 28,000 249 296 0
2019-01-15 10:52:36 GMT 52.130268 4.285924 28,000 249 296 0
2019-01-15 10:52:33 GMT 52.132050 4.293137 28,000 249 296 0
2019-01-15 10:52:29 GMT 52.134315 4.302403 28,000 249 296 0
2019-01-15 10:52:26 GMT 52.135666 4.307818 28,000 249 296 64
2019-01-15 10:52:23 GMT 52.136810 4.312515 28,000 249 296 0
2019-01-15 10:52:20 GMT 52.138412 4.319118 28,000 249 296 0
2019-01-15 10:52:17 GMT 52.139969 4.325333 28,000 249 296 0
2019-01-15 10:52:14 GMT 52.141438 4.331281 28,000 249 296 0
2019-01-15 10:52:11 GMT 52.143440 4.339600 28,000 249 296 0
2019-01-15 10:52:08 GMT 52.145004 4.345932 28,000 249 296 0
2019-01-15 10:52:05 GMT 52.145920 4.349670 28,000 249 296 0
2019-01-15 10:52:02 GMT 52.147678 4.356864 28,000 249 295 0
2019-01-15 10:51:59 GMT 52.149166 4.362906 28,000 249 295 0
2019-01-15 10:51:56 GMT 52.150936 4.370126 28,000 249 295 0
2019-01-15 10:51:53 GMT 52.152191 4.375305 28,000 249 295 0
2019-01-15 10:51:50 GMT 52.153542 4.380877 28,000 249 295 0
2019-01-15 10:51:47 GMT 52.155685 4.389509 28,000 249 295 0
2019-01-15 10:51:44 GMT 52.156448 4.392624 28,000 249 295 0
2019-01-15 10:51:41 GMT 52.158463 4.400864 28,000 249 295 0
2019-01-15 10:51:38 GMT 52.160110 4.407654 28,000 249 295 64
2019-01-15 10:51:35 GMT 52.161457 4.413208 28,000 249 295 0
2019-01-15 10:51:32 GMT 52.162766 4.418564 28,000 249 294 64
2019-01-15 10:51:29 GMT 52.165787 4.430923 28,000 249 294 0
2019-01-15 10:51:26 GMT 52.167603 4.438398 28,000 249 294 64
2019-01-15 10:51:23 GMT 52.167603 4.438398 28,000 249 294 0
2019-01-15 10:51:20 GMT 52.168808 4.443283 28,000 249 294 -64
2019-01-15 10:51:17 GMT 52.170208 4.448835 28,000 249 294 0
2019-01-15 10:51:14 GMT 52.171654 4.454799 28,000 249 294 0
2019-01-15 10:51:11 GMT 52.173374 4.461862 28,000 249 294 0
2019-01-15 10:51:08 GMT 52.175236 4.469474 28,000 249 294 -64
2019-01-15 10:51:04 GMT 52.177185 4.477463 28,000 249 294 -64
2019-01-15 10:51:01 GMT 52.178513 4.482803 28,000 249 294 0
2019-01-15 10:50:58 GMT 52.179886 4.488602 28,000 249 294 0
2019-01-15 10:50:55 GMT 52.181335 4.494585 28,000 249 294 0
2019-01-15 10:50:52 GMT 52.182919 4.500942 28,000 249 294 0
2019-01-15 10:50:49 GMT 52.184593 4.507926 28,000 249 294 -64
2019-01-15 10:50:45 GMT 52.186615 4.516220 28,000 249 294 0
2019-01-15 10:50:42 GMT 52.188038 4.522130 28,000 249 294 0
2019-01-15 10:50:38 GMT 52.191238 4.535294 28,000 249 294 0
2019-01-15 10:50:35 GMT 52.191238 4.535294 28,000 249 294 0
2019-01-15 10:50:32 GMT 52.193115 4.542923 28,000 249 294 0
2019-01-15 10:50:29 GMT 52.194416 4.548261 28,000 249 293 64
2019-01-15 10:50:26 GMT 52.196136 4.555511 28,000 249 294 64
2019-01-15 10:50:23 GMT 52.197418 4.560623 28,000 249 293 0
2019-01-15 10:50:20 GMT 52.199203 4.568024 28,000 249 293 0
2019-01-15 10:50:17 GMT 52.200653 4.574001 28,000 249 293 0
2019-01-15 10:50:14 GMT 52.201996 4.579544 28,000 249 293 0
2019-01-15 10:50:11 GMT 52.203678 4.586557 28,000 249 293 0
2019-01-15 10:50:08 GMT 52.204834 4.591217 28,000 249 293 0
2019-01-15 10:50:05 GMT 52.206379 4.597621 28,000 249 293 0
2019-01-15 10:50:02 GMT 52.208103 4.604841 28,000 249 293 0
2019-01-15 10:49:59 GMT 52.209267 4.609549 28,000 249 293 0
2019-01-15 10:49:56 GMT 52.210739 4.615707 28,000 249 293 0
2019-01-15 10:49:53 GMT 52.212898 4.624538 28,000 249 293 0
2019-01-15 10:49:50 GMT 52.213715 4.627838 28,000 249 294 0
2019-01-15 10:49:47 GMT 52.215225 4.634171 28,000 249 294 0
2019-01-15 10:49:44 GMT 52.216873 4.640961 28,000 249 293 0
2019-01-15 10:49:41 GMT 52.218430 4.647369 28,000 249 294 0
2019-01-15 10:49:38 GMT 52.219391 4.651260 28,000 249 294 0
2019-01-15 10:49:35 GMT 52.221138 4.658439 28,000 249 294 0
2019-01-15 10:49:32 GMT 52.222366 4.663620 28,000 249 294 0
2019-01-15 10:49:29 GMT 52.224396 4.672093 28,000 249 294 -64
2019-01-15 10:49:26 GMT 52.226212 4.679489 28,000 249 294 -64
2019-01-15 10:49:23 GMT 52.227234 4.683786 28,000 249 294 0
2019-01-15 10:49:20 GMT 52.229004 4.691238 28,000 249 294 0
2019-01-15 10:49:17 GMT 52.230331 4.696579 28,000 249 294 0
2019-01-15 10:49:14 GMT 52.232117 4.703979 28,000 249 294 0
2019-01-15 10:49:11 GMT 52.233124 4.708099 28,000 249 294 0
2019-01-15 10:49:08 GMT 52.234589 4.714279 28,000 249 294 0
2019-01-15 10:49:05 GMT 52.236053 4.720306 28,000 249 294 0
2019-01-15 10:49:02 GMT 52.237473 4.726257 28,000 249 294 0
2019-01-15 10:48:59 GMT 52.239201 4.733459 28,000 249 294 0
2019-01-15 10:48:56 GMT 52.240784 4.739894 28,000 249 294 0
2019-01-15 10:48:53 GMT 52.242596 4.747506 28,000 249 294 64
2019-01-15 10:48:50 GMT 52.243576 4.751587 28,000 249 294 64
2019-01-15 10:48:47 GMT 52.246628 4.764175 28,000 249 294 64
2019-01-15 10:48:44 GMT 52.246628 4.764175 28,000 249 294 64
2019-01-15 10:48:41 GMT 52.248230 4.770735 28,000 249 294 -64
2019-01-15 10:48:38 GMT 52.249767 4.777169 28,000 249 294 -64
2019-01-15 10:48:35 GMT 52.253265 4.791794 28,000 249 293 0
2019-01-15 10:48:31 GMT 52.253265 4.791794 28,000 249 293 0
2019-01-15 10:48:28 GMT 52.254959 4.798737 28,000 249 293 0
2019-01-15 10:48:25 GMT 52.255863 4.802673 28,000 249 293 0
2019-01-15 10:48:22 GMT 52.257866 4.810913 28,000 249 293 0
2019-01-15 10:48:19 GMT 52.259125 4.816055 28,000 249 293 0
2019-01-15 10:48:16 GMT 52.260498 4.821777 28,000 249 293 0
2019-01-15 10:48:13 GMT 52.262009 4.828177 28,000 249 294 64
2019-01-15 10:48:10 GMT 52.263500 4.834377 28,000 249 294 0
2019-01-15 10:48:07 GMT 52.264523 4.838693 28,000 249 294 -64
2019-01-15 10:48:04 GMT 52.266724 4.847717 28,000 249 294 0
2019-01-15 10:48:01 GMT 52.269470 4.859314 28,000 249 294 0
2019-01-15 10:47:58 GMT 52.269470 4.859314 28,000 249 294 0
2019-01-15 10:47:55 GMT 52.270935 4.865494 28,000 249 294 0
2019-01-15 10:47:52 GMT 52.272671 4.872672 28,000 249 294 0
2019-01-15 10:47:49 GMT 52.275742 4.885463 28,000 249 294 0
2019-01-15 10:47:46 GMT 52.275742 4.885463 28,000 249 294 0
2019-01-15 10:47:43 GMT 52.276905 4.890407 28,000 249 294 0
2019-01-15 10:47:40 GMT 52.278168 4.895630 28,000 249 294 0
2019-01-15 10:47:37 GMT 52.280136 4.903870 28,000 249 295 0
2019-01-15 10:47:34 GMT 52.281097 4.907990 28,000 249 295 0
2019-01-15 10:47:31 GMT 52.282608 4.914246 28,000 249 295 -64
2019-01-15 10:47:28 GMT 52.284073 4.920425 28,000 249 295 0
2019-01-15 10:47:25 GMT 52.286179 4.929123 28,000 249 296 0
2019-01-15 10:47:22 GMT 52.286911 4.932175 28,000 249 295 0
2019-01-15 10:47:19 GMT 52.289200 4.941940 28,000 249 295 64
2019-01-15 10:47:16 GMT 52.289940 4.945025 28,000 249 295 0
2019-01-15 10:47:13 GMT 52.292175 4.954376 28,000 249 295 0
2019-01-15 10:47:10 GMT 52.292919 4.957502 28,000 249 295 0
2019-01-15 10:47:07 GMT 52.294411 4.963702 28,000 249 295 0
2019-01-15 10:47:04 GMT 52.296085 4.970686 28,000 249 295 -64
2019-01-15 10:47:01 GMT 52.297577 4.976964 28,000 249 295 0
2019-01-15 10:46:58 GMT 52.300556 4.989362 28,000 249 295 0
2019-01-15 10:46:55 GMT 52.300556 4.989362 28,000 249 295 0
2019-01-15 10:46:52 GMT 52.301952 4.995405 28,000 249 295 0
2019-01-15 10:46:49 GMT 52.303581 5.002232 28,000 249 295 0
2019-01-15 10:46:46 GMT 52.306561 5.014631 28,000 249 295 0
2019-01-15 10:46:43 GMT 52.306561 5.014631 28,000 249 295 0
2019-01-15 10:46:40 GMT 52.308189 5.021537 28,000 249 295 -64
2019-01-15 10:46:37 GMT 52.309444 5.026716 28,000 249 296 0
2019-01-15 10:46:34 GMT 52.312820 5.041046 28,000 249 296 -64
2019-01-15 10:46:31 GMT 52.312820 5.041046 28,000 249 296 0
2019-01-15 10:46:28 GMT 52.313919 5.045624 28,000 249 296 0
2019-01-15 10:46:25 GMT 52.315544 5.052455 28,000 249 296 0
2019-01-15 10:46:22 GMT 52.317036 5.058655 28,000 249 296 0
2019-01-15 10:46:19 GMT 52.318756 5.065953 28,000 249 296 -64
2019-01-15 10:46:16 GMT 52.320007 5.071335 28,000 249 296 0
2019-01-15 10:46:13 GMT 52.321411 5.077175 28,000 249 296 0
2019-01-15 10:46:10 GMT 52.322716 5.082825 28,000 249 296 0
2019-01-15 10:46:07 GMT 52.324203 5.089024 28,000 249 296 64
2019-01-15 10:46:04 GMT 52.326206 5.097342 28,000 249 296 0
2019-01-15 10:46:01 GMT 52.326950 5.100638 28,000 249 296 0
2019-01-15 10:45:58 GMT 52.328533 5.107309 28,000 249 296 0
2019-01-15 10:45:55 GMT 52.329975 5.113351 28,000 249 296 -64
2019-01-15 10:45:52 GMT 52.331467 5.119629 28,000 249 296 0
2019-01-15 10:45:49 GMT 52.332767 5.125201 28,000 249 296 -64
2019-01-15 10:45:46 GMT 52.336121 5.139404 28,000 249 295 0
2019-01-15 10:45:43 GMT 52.336121 5.139404 28,000 249 295 0
2019-01-15 10:45:40 GMT 52.337357 5.144577 28,000 249 295 0
2019-01-15 10:45:37 GMT 52.338913 5.151254 28,000 249 295 0
2019-01-15 10:45:34 GMT 52.341568 5.162430 28,000 249 295 0
2019-01-15 10:45:28 GMT 52.343307 5.169983 28,000 249 295 0
2019-01-15 10:45:25 GMT 52.344547 5.175188 28,000 249 295 0
2019-01-15 10:45:22 GMT 52.346546 5.183742 28,000 249 295 0
2019-01-15 10:45:18 GMT 52.347931 5.189514 28,000 249 295 0
2019-01-15 10:45:15 GMT 52.349716 5.196991 28,000 249 296 0
2019-01-15 10:45:12 GMT 52.351250 5.203674 28,000 249 296 0
2019-01-15 10:45:06 GMT 52.354416 5.217015 28,000 249 296 0
2019-01-15 10:45:03 GMT 52.355953 5.223450 28,000 249 296 0
2019-01-15 10:45:00 GMT 52.357162 5.228394 28,000 249 296 0
2019-01-15 10:44:57 GMT 52.358963 5.236130 28,000 249 296 0
2019-01-15 10:44:54 GMT 52.360519 5.242767 28,000 249 296 0
2019-01-15 10:44:51 GMT 52.361584 5.247149 28,000 249 295 0
2019-01-15 10:44:48 GMT 52.363083 5.253601 28,000 249 295 0
2019-01-15 10:44:45 GMT 52.364594 5.259781 28,000 250 295 64
2019-01-15 10:44:42 GMT 52.365829 5.265198 28,000 250 294 0
2019-01-15 10:44:39 GMT 52.367218 5.271083 28,000 249 295 0
2019-01-15 10:44:36 GMT 52.370865 5.286407 28,000 249 295 0
2019-01-15 10:44:33 GMT 52.370865 5.286407 28,000 249 295 0
2019-01-15 10:44:30 GMT 52.372101 5.291824 28,000 249 295 0
2019-01-15 10:44:27 GMT 52.373383 5.297241 28,000 249 295 0
2019-01-15 10:44:24 GMT 52.374939 5.303879 28,000 249 295 -64
2019-01-15 10:44:21 GMT 52.377831 5.316127 28,000 250 295 0
2019-01-15 10:44:18 GMT 52.377831 5.316127 28,000 250 295 64
2019-01-15 10:44:15 GMT 52.379601 5.323896 28,000 250 295 0
2019-01-15 10:44:12 GMT 52.380856 5.329075 28,000 250 295 0
2019-01-15 10:44:09 GMT 52.383789 5.341788 28,000 250 295 0
2019-01-15 10:44:06 GMT 52.383789 5.341788 28,000 250 295 64
2019-01-15 10:44:03 GMT 52.385185 5.347831 28,000 250 294 0
2019-01-15 10:43:59 GMT 52.387188 5.356306 28,000 250 295 0
2019-01-15 10:43:55 GMT 52.388947 5.363846 28,000 250 295 0
2019-01-15 10:43:52 GMT 52.390411 5.370026 28,000 250 294 0
2019-01-15 10:43:48 GMT 52.392544 5.379220 28,000 250 295 0
2019-01-15 10:43:45 GMT 52.393982 5.385437 28,000 250 295 0
2019-01-15 10:43:42 GMT 52.395473 5.391854 28,000 249 294 0
2019-01-15 10:43:38 GMT 52.397057 5.398525 28,000 250 294 0
2019-01-15 10:43:34 GMT 52.399338 5.408491 28,000 250 294 0
2019-01-15 10:43:31 GMT 52.400391 5.412903 28,000 250 294 0
2019-01-15 10:43:28 GMT 52.401993 5.419713 28,000 250 294 0
2019-01-15 10:43:25 GMT 52.403412 5.425949 28,000 250 294 0
2019-01-15 10:43:22 GMT 52.406181 5.437840 28,000 250 294 0
2019-01-15 10:43:16 GMT 52.408127 5.446091 28,000 250 294 0
2019-01-15 10:43:13 GMT 52.409546 5.452118 28,000 250 294 0
2019-01-15 10:43:10 GMT 52.410511 5.456281 28,000 250 294 0
2019-01-15 10:43:07 GMT 52.411743 5.461731 28,000 250 294 0
2019-01-15 10:43:04 GMT 52.413631 5.469779 28,000 250 294 0
2019-01-15 10:43:01 GMT 52.415073 5.476057 28,000 250 294 0
2019-01-15 10:42:58 GMT 52.417957 5.488299 28,000 250 294 0
2019-01-15 10:42:52 GMT 52.419403 5.494498 28,000 250 294 0
2019-01-15 10:42:49 GMT 52.420799 5.500541 28,000 250 294 0
2019-01-15 10:42:45 GMT 52.423172 5.510742 28,000 250 294 0
2019-01-15 10:42:42 GMT 52.424568 5.516706 28,000 250 294 -64
2019-01-15 10:42:39 GMT 52.425568 5.521088 28,000 250 294 64
2019-01-15 10:42:36 GMT 52.428528 5.533735 28,000 250 294 0
2019-01-15 10:42:33 GMT 52.428528 5.533735 28,000 250 294 0
2019-01-15 10:42:30 GMT 52.430298 5.541425 28,000 250 294 -64
2019-01-15 10:42:27 GMT 52.431473 5.546417 28,000 250 294 -64
2019-01-15 10:42:23 GMT 52.433510 5.555158 28,000 250 294 0
2019-01-15 10:42:20 GMT 52.434719 5.560338 28,000 250 294 0
2019-01-15 10:42:17 GMT 52.435913 5.565567 28,000 250 294 0
2019-01-15 10:42:14 GMT 52.437561 5.572586 28,000 250 294 0
2019-01-15 10:42:11 GMT 52.439468 5.580898 28,000 250 294 -64
2019-01-15 10:42:08 GMT 52.441048 5.587725 28,000 250 294 0
2019-01-15 10:42:05 GMT 52.441841 5.591099 28,000 250 294 0
2019-01-15 10:42:02 GMT 52.443470 5.598162 28,000 250 294 64
2019-01-15 10:41:59 GMT 52.444656 5.603333 28,000 250 294 0
2019-01-15 10:41:56 GMT 52.446262 5.610168 28,000 250 294 0
2019-01-15 10:41:53 GMT 52.447891 5.617231 28,000 250 294 0
2019-01-15 10:41:50 GMT 52.449150 5.622646 28,000 250 294 0
2019-01-15 10:41:47 GMT 52.450871 5.630101 28,000 250 293 0
2019-01-15 10:41:43 GMT 52.452850 5.638580 28,000 250 293 0
2019-01-15 10:41:40 GMT 52.454315 5.645011 28,000 250 293 0
2019-01-15 10:41:37 GMT 52.455341 5.649405 28,000 250 293 0
2019-01-15 10:41:34 GMT 52.456879 5.656052 28,000 250 294 -64
2019-01-15 10:41:31 GMT 52.458481 5.663071 28,000 250 294 0
2019-01-15 10:41:28 GMT 52.460129 5.670166 28,000 250 294 0
2019-01-15 10:41:25 GMT 52.461182 5.674744 28,000 250 294 0
2019-01-15 10:41:22 GMT 52.462883 5.681972 28,000 250 294 0
2019-01-15 10:41:19 GMT 52.464249 5.688019 28,000 250 294 0
2019-01-15 10:41:16 GMT 52.465443 5.693194 28,000 250 293 0
2019-01-15 10:41:13 GMT 52.468277 5.705414 28,000 250 293 0
2019-01-15 10:41:10 GMT 52.468277 5.705414 28,000 250 292 0
2019-01-15 10:41:07 GMT 52.469696 5.711670 28,000 250 292 0
2019-01-15 10:41:04 GMT 52.471634 5.720110 28,000 250 292 0
2019-01-15 10:41:01 GMT 52.472855 5.725327 28,000 250 292 0
2019-01-15 10:40:58 GMT 52.474007 5.730469 28,000 250 292 0
2019-01-15 10:40:55 GMT 52.475822 5.738395 28,000 250 292 0
2019-01-15 10:40:52 GMT 52.476837 5.742722 28,000 250 292 0
2019-01-15 10:40:49 GMT 52.478165 5.748520 28,000 250 292 0
2019-01-15 10:40:46 GMT 52.479492 5.754318 28,000 250 292 0
2019-01-15 10:40:42 GMT 52.481689 5.763855 28,000 250 292 0
2019-01-15 10:40:39 GMT 52.483040 5.769863 28,000 250 292 0
2019-01-15 10:40:36 GMT 52.486588 5.785446 28,000 250 292 0
2019-01-15 10:40:32 GMT 52.486588 5.785446 28,000 250 292 0
2019-01-15 10:40:28 GMT 52.488255 5.792620 28,000 250 292 0
2019-01-15 10:40:25 GMT 52.489471 5.797806 28,000 250 292 0
2019-01-15 10:40:22 GMT 52.491371 5.806117 28,000 250 292 0
2019-01-15 10:40:19 GMT 52.492908 5.812945 28,000 250 292 0
2019-01-15 10:40:16 GMT 52.494095 5.818100 28,000 250 292 0
2019-01-15 10:40:13 GMT 52.495789 5.825577 28,000 250 292 0
2019-01-15 10:40:09 GMT 52.497208 5.831757 28,000 250 292 0
2019-01-15 10:40:06 GMT 52.498947 5.839233 28,000 250 291 0
2019-01-15 10:40:03 GMT 52.500126 5.844413 28,000 250 291 0
2019-01-15 10:40:00 GMT 52.501602 5.850830 28,000 250 291 -64
2019-01-15 10:39:57 GMT 52.503429 5.858852 28,000 250 291 0
2019-01-15 10:39:51 GMT 52.505859 5.869446 28,000 250 291 0
2019-01-15 10:39:48 GMT 52.507713 5.877529 28,000 250 292 0
2019-01-15 10:39:45 GMT 52.508644 5.881609 28,000 250 292 0
2019-01-15 10:39:42 GMT 52.510132 5.888280 28,000 250 292 0
2019-01-15 10:39:39 GMT 52.511993 5.896301 28,000 250 292 0
2019-01-15 10:39:36 GMT 52.512863 5.900040 28,000 250 292 0
2019-01-15 10:39:33 GMT 52.514374 5.906677 28,000 250 292 0
2019-01-15 10:39:30 GMT 52.516068 5.914154 28,000 250 291 0
2019-01-15 10:39:27 GMT 52.517208 5.919120 28,000 250 292 0
2019-01-15 10:39:24 GMT 52.518402 5.924454 28,000 250 292 0
2019-01-15 10:39:21 GMT 52.519958 5.931320 28,000 250 292 0
2019-01-15 10:39:18 GMT 52.521584 5.938346 28,000 250 291 0
2019-01-15 10:39:15 GMT 52.522980 5.944545 28,000 250 291 0
2019-01-15 10:39:11 GMT 52.525085 5.953903 28,000 250 291 0
2019-01-15 10:39:08 GMT 52.526054 5.958043 28,000 250 291 0
2019-01-15 10:39:05 GMT 52.527962 5.966518 28,000 250 291 0
2019-01-15 10:38:59 GMT 52.530567 5.978054 28,000 250 291 0
2019-01-15 10:38:56 GMT 52.531918 5.983861 28,000 250 291 0
2019-01-15 10:38:53 GMT 52.532867 5.988235 28,000 250 291 0
2019-01-15 10:38:50 GMT 52.534653 5.996017 28,000 250 291 0
2019-01-15 10:38:47 GMT 52.535889 6.001434 28,000 250 291 0
2019-01-15 10:38:44 GMT 52.537354 6.007843 28,000 250 291 0
2019-01-15 10:38:40 GMT 52.540787 6.023102 28,000 250 290 0
2019-01-15 10:38:37 GMT 52.540787 6.023102 28,000 250 290 0
2019-01-15 10:38:34 GMT 52.542534 6.030709 28,000 250 290 0
2019-01-15 10:38:29 GMT 52.544403 6.038971 28,000 250 290 0
2019-01-15 10:38:26 GMT 52.546326 6.047440 28,000 250 290 0
2019-01-15 10:38:23 GMT 52.547516 6.052761 28,000 250 290 0
2019-01-15 10:38:19 GMT 52.549282 6.060608 28,000 250 290 0
2019-01-15 10:38:16 GMT 52.550858 6.067581 28,000 250 290 0
2019-01-15 10:38:13 GMT 52.551796 6.071673 28,000 250 290 0
2019-01-15 10:38:10 GMT 52.553707 6.080148 28,000 250 290 0
2019-01-15 10:38:07 GMT 52.554657 6.084290 28,000 250 290 0
2019-01-15 10:38:04 GMT 52.557522 6.097020 28,000 250 290 64
2019-01-15 10:37:58 GMT 52.558777 6.102600 28,000 250 290 0
2019-01-15 10:37:55 GMT 52.560364 6.109576 28,000 250 290 0
2019-01-15 10:37:52 GMT 52.561619 6.115147 28,000 250 290 0
2019-01-15 10:37:49 GMT 52.562969 6.121111 28,000 250 290 0
2019-01-15 10:37:46 GMT 52.564911 6.129761 28,000 250 290 0
2019-01-15 10:37:43 GMT 52.565903 6.134059 28,000 250 290 0
2019-01-15 10:37:40 GMT 52.567532 6.141279 28,000 250 290 0
2019-01-15 10:37:35 GMT 52.570885 6.156032 28,000 250 290 0
2019-01-15 10:37:32 GMT 52.572701 6.164115 28,000 250 290 0
2019-01-15 10:37:28 GMT 52.572701 6.164115 28,000 250 290 0
2019-01-15 10:37:25 GMT 52.574516 6.172119 28,000 250 290 0
2019-01-15 10:37:22 GMT 52.575806 6.177902 28,000 250 290 0
2019-01-15 10:37:19 GMT 52.577122 6.183655 28,000 250 290 0
2019-01-15 10:37:16 GMT 52.578659 6.190482 28,000 250 290 0
2019-01-15 10:37:13 GMT 52.579742 6.195374 28,000 250 290 0
2019-01-15 10:37:10 GMT 52.580891 6.200527 28,000 250 290 0
2019-01-15 10:37:07 GMT 52.582802 6.208766 28,000 250 290 -64
2019-01-15 10:37:04 GMT 52.584198 6.214966 28,000 250 290 0
2019-01-15 10:37:01 GMT 52.586712 6.226345 28,000 250 290 0
2019-01-15 10:36:55 GMT 52.588120 6.232529 28,000 250 289 0
2019-01-15 10:36:52 GMT 52.589905 6.240311 28,000 250 290 0
2019-01-15 10:36:48 GMT 52.590996 6.245257 28,000 250 289 0
2019-01-15 10:36:45 GMT 52.594711 6.261749 28,000 250 289 0
2019-01-15 10:36:42 GMT 52.594711 6.261749 28,000 250 289 0
2019-01-15 10:36:39 GMT 52.595627 6.265869 28,000 250 289 0
2019-01-15 10:36:36 GMT 52.597137 6.272644 28,000 250 289 -64
2019-01-15 10:36:33 GMT 52.598351 6.277980 28,000 250 289 -64
2019-01-15 10:36:30 GMT 52.599564 6.283340 28,000 250 289 0
2019-01-15 10:36:27 GMT 52.601002 6.289751 28,000 250 288 0
2019-01-15 10:36:24 GMT 52.602680 6.297128 28,000 250 288 0
2019-01-15 10:36:21 GMT 52.604187 6.303940 28,000 250 288 0
2019-01-15 10:36:18 GMT 52.605145 6.308271 28,000 250 288 0
2019-01-15 10:36:15 GMT 52.606750 6.315231 28,000 250 288 0
2019-01-15 10:36:12 GMT 52.608124 6.321455 28,000 250 288 64
2019-01-15 10:36:08 GMT 52.609940 6.329694 28,000 250 280 0
2019-01-15 10:36:05 GMT 52.611664 6.337306 28,000 250 289 0
2019-01-15 10:36:02 GMT 52.612610 6.341629 28,000 250 289 0
2019-01-15 10:35:59 GMT 52.613991 6.347822 28,000 250 289 0
2019-01-15 10:35:56 GMT 52.615356 6.353989 28,000 250 289 0
2019-01-15 10:35:52 GMT 52.617371 6.363068 28,000 250 289 64
2019-01-15 10:35:49 GMT 52.618332 6.367416 28,000 250 289 0
2019-01-15 10:35:46 GMT 52.620071 6.375198 28,000 250 289 0
2019-01-15 10:35:42 GMT 52.621674 6.382429 28,000 250 289 -64
2019-01-15 10:35:39 GMT 52.623550 6.390839 28,000 250 289 0
2019-01-15 10:35:36 GMT 52.624886 6.396868 28,000 250 289 0
2019-01-15 10:35:32 GMT 52.626251 6.403046 28,000 250 289 0
2019-01-15 10:35:29 GMT 52.629089 6.415787 28,000 252 283 0
2019-01-15 10:35:23 GMT 52.630470 6.421980 28,000 250 289 0
2019-01-15 10:35:20 GMT 52.632156 6.429596 28,000 250 289 0
2019-01-15 10:35:17 GMT 52.633530 6.435852 28,000 250 289 0
2019-01-15 10:35:14 GMT 52.634903 6.442032 28,000 250 289 0
2019-01-15 10:35:11 GMT 52.636150 6.447562 28,000 250 289 0
2019-01-15 10:35:08 GMT 52.637218 6.452506 28,000 250 289 0
2019-01-15 10:35:05 GMT 52.638618 6.458705 28,000 250 289 0
2019-01-15 10:35:02 GMT 52.640167 6.465683 28,000 250 288 0
2019-01-15 10:34:59 GMT 52.641270 6.470633 28,000 250 288 0
2019-01-15 10:34:56 GMT 52.642715 6.477225 28,000 250 288 0
2019-01-15 10:34:53 GMT 52.644295 6.484209 28,000 250 289 0
2019-01-15 10:34:50 GMT 52.645615 6.490250 28,000 250 288 0
2019-01-15 10:34:47 GMT 52.646896 6.495972 28,000 251 288 -64
2019-01-15 10:34:44 GMT 52.648270 6.502151 28,000 250 288 0
2019-01-15 10:34:41 GMT 52.650146 6.510620 28,000 250 288 -64
2019-01-15 10:34:35 GMT 52.652119 6.519679 28,000 250 288 0
2019-01-15 10:34:32 GMT 52.653839 6.527527 28,000 250 288 0
2019-01-15 10:34:29 GMT 52.655228 6.533661 28,000 250 288 0
2019-01-15 10:34:26 GMT 52.656738 6.540451 28,000 250 288 0
2019-01-15 10:34:23 GMT 52.659348 6.552353 28,000 251 288 0
2019-01-15 10:34:20 GMT 52.659348 6.552353 28,000 251 288 0
2019-01-15 10:34:17 GMT 52.660538 6.557693 28,000 251 288 0
2019-01-15 10:34:14 GMT 52.662277 6.565552 28,000 250 288 0
2019-01-15 10:34:11 GMT 52.663383 6.570687 28,000 251 288 0
2019-01-15 10:34:08 GMT 52.664639 6.576416 28,000 251 287 0
2019-01-15 10:34:05 GMT 52.665985 6.582413 28,000 250 287 0
2019-01-15 10:34:02 GMT 52.667587 6.589737 28,000 250 287 64
2019-01-15 10:33:59 GMT 52.669018 6.596113 28,000 250 287 64
2019-01-15 10:33:56 GMT 52.669876 6.600037 28,000 250 287 -64
2019-01-15 10:33:53 GMT 52.673172 6.614761 28,000 250 287 0
2019-01-15 10:33:50 GMT 52.673172 6.614761 28,000 251 287 0
2019-01-15 10:33:47 GMT 52.674271 6.619720 28,000 251 287 0
2019-01-15 10:33:44 GMT 52.675507 6.625443 28,000 251 287 0
2019-01-15 10:33:41 GMT 52.677025 6.632211 28,000 251 287 0
2019-01-15 10:33:38 GMT 52.678482 6.638947 28,000 251 287 0
2019-01-15 10:33:35 GMT 52.679909 6.645316 28,000 251 287 0
2019-01-15 10:33:32 GMT 52.681072 6.650652 28,000 251 287 0
2019-01-15 10:33:29 GMT 52.682922 6.659088 28,000 251 287 0
2019-01-15 10:33:26 GMT 52.683353 6.660932 28,000 251 287 0
2019-01-15 10:33:23 GMT 52.685349 6.670151 28,000 251 286 0
2019-01-15 10:33:20 GMT 52.688416 6.684113 28,000 251 287 0
2019-01-15 10:33:16 GMT 52.688416 6.684113 28,000 251 287 0
2019-01-15 10:33:13 GMT 52.689545 6.689183 28,000 251 286 0
2019-01-15 10:33:10 GMT 52.692245 6.701503 28,000 251 285 0
2019-01-15 10:33:07 GMT 52.692245 6.701503 28,000 251 285 0
2019-01-15 10:33:04 GMT 52.693634 6.707840 28,000 251 285 0
2019-01-15 10:33:01 GMT 52.695038 6.714216 28,000 251 285 0
2019-01-15 10:32:58 GMT 52.695969 6.718445 28,000 251 285 0
2019-01-15 10:32:55 GMT 52.698902 6.731794 28,000 251 285 0
2019-01-15 10:32:52 GMT 52.698902 6.731794 28,000 251 285 0
2019-01-15 10:32:49 GMT 52.700272 6.738129 28,000 251 285 0
2019-01-15 10:32:46 GMT 52.701694 6.744428 28,000 251 285 0
2019-01-15 10:32:43 GMT 52.702999 6.750628 28,000 251 285 0
2019-01-15 10:32:40 GMT 52.704441 6.757141 28,000 251 285 0
2019-01-15 10:32:37 GMT 52.705536 6.762238 28,000 251 285 0
2019-01-15 10:32:34 GMT 52.707466 6.771031 28,000 251 285 0
2019-01-15 10:32:31 GMT 52.709797 6.781625 28,000 251 285 0
2019-01-15 10:32:28 GMT 52.709797 6.781625 28,000 251 285 0
2019-01-15 10:32:25 GMT 52.711578 6.789856 28,000 251 285 0
2019-01-15 10:32:22 GMT 52.712494 6.793900 28,000 251 285 0
2019-01-15 10:32:19 GMT 52.713985 6.800851 28,000 251 285 0
2019-01-15 10:32:16 GMT 52.715195 6.806412 28,000 251 285 0
2019-01-15 10:32:13 GMT 52.716640 6.813171 28,000 251 285 0
2019-01-15 10:32:09 GMT 52.718174 6.820077 28,000 251 285 0
2019-01-15 10:32:06 GMT 52.719803 6.827454 28,000 251 285 0
2019-01-15 10:32:03 GMT 52.722610 6.840363 28,000 251 285 -64
2019-01-15 10:32:00 GMT 52.722610 6.840363 28,000 251 285 0
2019-01-15 10:31:56 GMT 52.724121 6.847305 28,000 251 285 0
2019-01-15 10:31:53 GMT 52.725677 6.854477 28,000 251 285 0
2019-01-15 10:31:50 GMT 52.726501 6.858368 28,000 251 285 0
2019-01-15 10:31:47 GMT 52.727997 6.865121 28,000 251 285 0
2019-01-15 10:31:44 GMT 52.729660 6.872711 28,000 251 285 -64
2019-01-15 10:31:41 GMT 52.730698 6.877598 28,000 251 285 0
2019-01-15 10:31:38 GMT 52.732372 6.885210 28,000 251 285 0
2019-01-15 10:31:35 GMT 52.733864 6.892194 28,000 251 285 0
2019-01-15 10:31:32 GMT 52.734608 6.895490 28,000 251 286 0
2019-01-15 10:31:29 GMT 52.736435 6.903839 28,000 251 286 0
2019-01-15 10:31:26 GMT 52.737396 6.908417 28,000 251 286 0
2019-01-15 10:31:23 GMT 52.738518 6.913539 28,000 251 286 0
2019-01-15 10:31:20 GMT 52.740097 6.920700 28,000 251 286 0
2019-01-15 10:31:17 GMT 52.741425 6.926880 28,000 251 286 0
2019-01-15 10:31:14 GMT 52.742661 6.932373 28,000 251 286 0
2019-01-15 10:31:11 GMT 52.743805 6.937714 28,000 251 287 0
2019-01-15 10:31:08 GMT 52.745453 6.945321 28,000 251 287 0
2019-01-15 10:31:04 GMT 52.747192 6.953354 28,000 251 286 0
2019-01-15 10:31:01 GMT 52.748528 6.959525 28,000 251 286 0
2019-01-15 10:30:58 GMT 52.750343 6.967765 28,000 250 296 0
2019-01-15 10:30:55 GMT 52.751694 6.974121 28,000 251 287 0
2019-01-15 10:30:52 GMT 52.752411 6.977463 28,000 251 287 0
2019-01-15 10:30:49 GMT 52.753738 6.983643 28,000 251 287 0
2019-01-15 10:30:46 GMT 52.755112 6.989822 28,000 251 287 0
2019-01-15 10:30:43 GMT 52.756393 6.995780 28,000 251 287 0
2019-01-15 10:30:40 GMT 52.757996 7.003250 28,000 251 287 0
2019-01-15 10:30:37 GMT 52.759735 7.011261 28,000 251 288 0
2019-01-15 10:30:34 GMT 52.760769 7.016026 28,000 251 288 0
2019-01-15 10:30:31 GMT 52.762207 7.022629 28,000 251 288 64
2019-01-15 10:30:28 GMT 52.763672 7.029495 28,000 251 288 0
2019-01-15 10:30:24 GMT 52.765091 7.036133 28,000 251 288 0
2019-01-15 10:30:21 GMT 52.766449 7.042315 28,000 251 288 0
2019-01-15 10:30:18 GMT 52.767845 7.048750 28,000 251 289 0
2019-01-15 10:30:14 GMT 52.769623 7.057037 28,000 251 289 0
2019-01-15 10:30:11 GMT 52.771198 7.064287 28,000 251 289 0
2019-01-15 10:30:08 GMT 52.772129 7.068682 28,000 251 289 0
2019-01-15 10:30:05 GMT 52.775154 7.082807 28,000 251 289 0
2019-01-15 10:30:02 GMT 52.775154 7.082807 28,000 251 289 0
2019-01-15 10:29:59 GMT 52.776226 7.087830 28,000 251 289 0
2019-01-15 10:29:56 GMT 52.777817 7.095032 28,000 251 289 0
2019-01-15 10:29:53 GMT 52.779392 7.102504 28,000 251 288 0
2019-01-15 10:29:50 GMT 52.780182 7.106036 28,000 251 288 0
2019-01-15 10:29:47 GMT 52.781811 7.113726 28,000 251 288 0
2019-01-15 10:29:44 GMT 52.783081 7.119522 28,000 251 288 0
2019-01-15 10:29:41 GMT 52.785828 7.132339 28,000 251 288 0
2019-01-15 10:29:38 GMT 52.785828 7.132339 28,000 251 288 0
2019-01-15 10:29:34 GMT 52.787350 7.139387 28,000 251 287 0
2019-01-15 10:29:31 GMT 52.789165 7.147862 28,000 251 287 0
2019-01-15 10:29:28 GMT 52.790096 7.152021 28,000 251 287 0
2019-01-15 10:29:25 GMT 52.791321 7.157745 28,000 251 287 0
2019-01-15 10:29:22 GMT 52.794479 7.172241 28,000 251 287 0
2019-01-15 10:29:19 GMT 52.794479 7.172241 28,000 251 287 0
2019-01-15 10:29:16 GMT 52.795624 7.177582 28,000 251 287 -64
2019-01-15 10:29:13 GMT 52.797035 7.184195 28,000 251 286 0
2019-01-15 10:29:10 GMT 52.799423 7.195282 28,000 251 286 0
2019-01-15 10:29:07 GMT 52.799423 7.195282 28,000 251 286 0
2019-01-15 10:29:04 GMT 52.800804 7.201695 28,000 251 284 0
2019-01-15 10:29:01 GMT 52.802170 7.208023 28,000 251 286 -64
2019-01-15 10:28:58 GMT 52.805191 7.221985 28,000 251 285 0
2019-01-15 10:28:55 GMT 52.805191 7.221985 28,000 251 285 0
2019-01-15 10:28:51 GMT 52.807755 7.233887 28,000 251 285 0
2019-01-15 10:28:48 GMT 52.807755 7.233887 28,000 251 285 0
2019-01-15 10:28:45 GMT 52.809090 7.240226 28,000 251 285 0
2019-01-15 10:28:42 GMT 52.810394 7.246425 28,000 251 285 0
2019-01-15 10:28:39 GMT 52.811977 7.253802 28,000 251 284 0
2019-01-15 10:28:36 GMT 52.813606 7.261335 28,000 251 284 0
2019-01-15 10:28:33 GMT 52.814392 7.265015 28,000 251 284 0
2019-01-15 10:28:29 GMT 52.816399 7.274362 28,000 251 283 0
2019-01-15 10:28:26 GMT 52.817368 7.278824 28,000 251 283 0
2019-01-15 10:28:23 GMT 52.818821 7.285740 28,000 251 281 0
2019-01-15 10:28:20 GMT 52.819752 7.290057 28,000 251 282 -64
2019-01-15 10:28:17 GMT 52.821381 7.297747 28,000 251 282 0
2019-01-15 10:28:13 GMT 52.824593 7.312735 28,000 251 281 0
2019-01-15 10:28:10 GMT 52.826130 7.319955 28,000 251 278 -128
2019-01-15 10:28:07 GMT 52.826130 7.319955 28,000 251 279 -64
2019-01-15 10:28:04 GMT 52.827435 7.325997 28,000 251 279 0
2019-01-15 10:28:00 GMT 52.828735 7.332040 28,000 251 278 64
2019-01-15 10:27:57 GMT 52.830181 7.338867 28,000 251 275 0
2019-01-15 10:27:54 GMT 52.831299 7.344046 28,000 251 278 0
2019-01-15 10:27:51 GMT 52.832413 7.349226 28,000 251 278 0
2019-01-15 10:27:48 GMT 52.835541 7.363739 28,000 251 277 0
2019-01-15 10:27:45 GMT 52.835541 7.363739 28,000 251 276 -64
2019-01-15 10:27:42 GMT 52.836929 7.370100 28,000 251 274 0
2019-01-15 10:27:39 GMT 52.837769 7.374102 28,000 251 272 0
2019-01-15 10:27:36 GMT 52.839111 7.380371 28,000 251 273 0
2019-01-15 10:27:32 GMT 52.840576 7.387085 28,000 251 272 0
2019-01-15 10:27:29 GMT 52.842087 7.394104 28,000 251 271 0
2019-01-15 10:27:25 GMT 52.843735 7.401733 28,000 251 271 0
2019-01-15 10:27:22 GMT 52.844795 7.406747 28,000 251 270 0
2019-01-15 10:27:19 GMT 52.846069 7.412796 28,000 251 264 0
2019-01-15 10:27:16 GMT 52.847263 7.418361 28,000 251 265 -64
2019-01-15 10:27:13 GMT 52.848862 7.425842 28,000 251 265 -64
2019-01-15 10:27:10 GMT 52.849777 7.430115 28,000 251 265 -64
2019-01-15 10:27:07 GMT 52.850849 7.435233 28,000 251 263 0
2019-01-15 10:27:04 GMT 52.852020 7.440720 28,000 251 262 0
2019-01-15 10:27:00 GMT 52.853737 7.448652 28,000 251 260 -128
2019-01-15 10:26:57 GMT 52.855316 7.456207 28,000 251 259 0
2019-01-15 10:26:54 GMT 52.856506 7.461777 28,025 251 254 -128
2019-01-15 10:26:51 GMT 52.858902 7.473057 28,000 251 254 -128
2019-01-15 10:26:48 GMT 52.858902 7.473057 28,000 251 255 -128
2019-01-15 10:26:45 GMT 52.859509 7.475961 28,025 251 252 0
2019-01-15 10:26:42 GMT 52.860809 7.482160 28,025 251 252 0
2019-01-15 10:26:39 GMT 52.863277 7.494088 28,025 252 246 0
2019-01-15 10:26:36 GMT 52.863277 7.494088 28,025 251 247 0
2019-01-15 10:26:33 GMT 52.864014 7.497482 28,000 252 243 -64
2019-01-15 10:26:29 GMT 52.865936 7.506638 28,025 251 242 0
2019-01-15 10:26:26 GMT 52.866772 7.510646 28,025 252 240 0
2019-01-15 10:26:23 GMT 52.867813 7.515640 28,000 251 239 -64
2019-01-15 10:26:19 GMT 52.870331 7.527924 28,025 252 231 0
2019-01-15 10:26:16 GMT 52.870331 7.527924 28,025 252 231 0
2019-01-15 10:26:13 GMT 52.871384 7.532959 28,000 252 227 0
2019-01-15 10:26:10 GMT 52.872543 7.538740 26,500 251 204 1152
2019-01-15 10:26:07 GMT 52.874496 7.548294 28,000 252 221 128
2019-01-15 10:26:04 GMT 52.874496 7.548294 28,000 252 217 192
2019-01-15 10:26:01 GMT 52.875275 7.552185 28,000 252 215 192
2019-01-15 10:25:58 GMT 52.876221 7.556710 27,975 252 215 192
2019-01-15 10:25:55 GMT 52.877563 7.563095 27,975 252 213 576
2019-01-15 10:25:52 GMT 52.878361 7.566912 27,850 251 210 1152
2019-01-15 10:25:48 GMT 52.879578 7.572861 27,875 251 210 1280
2019-01-15 10:25:45 GMT 52.880539 7.577362 27,725 251 209 1408
2019-01-15 10:25:42 GMT 52.881386 7.581430 27,725 251 209 1408
2019-01-15 10:25:39 GMT 52.882416 7.586136 27,675 251 209 1408
2019-01-15 10:25:36 GMT 52.883331 7.590637 27,600 251 208 1472
2019-01-15 10:25:33 GMT 52.884705 7.596970 27,475 251 208 1408
2019-01-15 10:25:30 GMT 52.885345 7.600185 27,425 251 208 1344
2019-01-15 10:25:27 GMT 52.886181 7.604030 27,325 251 209 1280
2019-01-15 10:25:24 GMT 52.887314 7.609329 27,300 251 208 1152
2019-01-15 10:25:20 GMT 52.888596 7.615662 27,200 251 208 1088
2019-01-15 10:25:16 GMT 52.890427 7.624359 27,100 251 207 1152
2019-01-15 10:25:10 GMT 52.891396 7.628828 26,875 251 206 1216
2019-01-15 10:25:07 GMT 52.892838 7.635812 26,950 251 206 1216
2019-01-15 10:25:04 GMT 52.893448 7.638626 26,950 251 206 1216
2019-01-15 10:25:01 GMT 52.895584 7.648917 26,500 251 204 1152
2019-01-15 10:24:58 GMT 52.895584 7.648917 26,775 251 205 1216
2019-01-15 10:24:54 GMT 52.896652 7.654037 26,700 251 205 1216
2019-01-15 10:24:51 GMT 52.897659 7.658844 26,500 251 205 1216
2019-01-15 10:24:47 GMT 52.898712 7.663879 26,450 252 203 1088
2019-01-15 10:24:43 GMT 52.899994 7.670059 26,450 251 204 1152
2019-01-15 10:24:40 GMT 52.900940 7.674656 26,450 252 203 1152
2019-01-15 10:24:37 GMT 52.901684 7.678188 26,350 252 203 1024
2019-01-15 10:24:34 GMT 52.902756 7.683289 26,275 252 203 1024
2019-01-15 10:24:31 GMT 52.903656 7.687683 26,250 252 203 1024
2019-01-15 10:24:28 GMT 52.904663 7.692642 26,200 252 201 960
2019-01-15 10:24:25 GMT 52.905441 7.696457 26,100 252 199 1024
2019-01-15 10:24:22 GMT 52.906448 7.701035 26,100 252 199 1088
2019-01-15 10:24:19 GMT 52.908142 7.709274 26,025 251 198 1216
2019-01-15 10:24:16 GMT 52.908142 7.709274 25,975 251 197 1280
2019-01-15 10:24:13 GMT 52.909241 7.714539 25,875 251 197 1344
2019-01-15 10:24:10 GMT 52.910202 7.719116 25,825 252 197 1408
2019-01-15 10:24:07 GMT 52.910797 7.721939 25,725 252 197 1408
2019-01-15 10:24:04 GMT 52.911896 7.727356 25,700 251 197 1408
2019-01-15 10:24:01 GMT 52.913509 7.735081 25,600 252 196 1472
2019-01-15 10:23:58 GMT 52.913509 7.735081 25,575 252 197 1408
2019-01-15 10:23:55 GMT 52.914394 7.739240 25,475 252 197 1408
2019-01-15 10:23:52 GMT 52.915237 7.743378 25,325 252 196 1344
2019-01-15 10:23:49 GMT 52.916153 7.747650 25,375 252 197 1344
2019-01-15 10:23:46 GMT 52.917068 7.752228 25,250 252 196 1344
2019-01-15 10:23:43 GMT 52.918163 7.757289 25,250 252 196 1344
2019-01-15 10:23:40 GMT 52.918808 7.760468 25,150 252 196 1344
2019-01-15 10:23:37 GMT 52.919655 7.764430 25,000 251 192 1600
2019-01-15 10:23:33 GMT 52.920956 7.770787 24,950 251 195 1536
2019-01-15 10:23:30 GMT 52.921654 7.774240 24,850 252 196 1536
2019-01-15 10:23:27 GMT 52.922699 7.779007 24,850 252 196 1536
2019-01-15 10:23:24 GMT 52.923569 7.783279 24,775 252 196 1536
2019-01-15 10:23:21 GMT 52.924667 7.788544 24,625 252 196 1344
2019-01-15 10:23:17 GMT 52.925564 7.792916 24,525 252 196 1216
2019-01-15 10:23:13 GMT 52.927147 7.800607 24,500 252 195 1152
2019-01-15 10:23:10 GMT 52.927567 7.802569 24,475 252 195 1088
2019-01-15 10:23:07 GMT 52.928593 7.807591 24,075 252 193 1408
2019-01-15 10:23:03 GMT 52.930756 7.817917 24,250 251 192 1792
2019-01-15 10:23:00 GMT 52.930756 7.817917 24,150 251 193 1920
2019-01-15 10:22:57 GMT 52.931755 7.822658 24,050 251 195 1472
2019-01-15 10:22:54 GMT 52.932362 7.825483 24,025 251 193 1856
2019-01-15 10:22:51 GMT 52.933273 7.829819 23,925 251 194 1728
2019-01-15 10:22:48 GMT 52.934006 7.833405 23,875 251 195 1664
2019-01-15 10:22:44 GMT 52.935196 7.839203 23,625 251 195 1472
2019-01-15 10:22:41 GMT 52.936131 7.843532 23,650 251 195 1472
2019-01-15 10:22:38 GMT 52.937016 7.847848 23,600 251 195 1472
2019-01-15 10:22:35 GMT 52.937759 7.851334 23,525 251 195 1600
2019-01-15 10:22:32 GMT 52.939762 7.861110 23,350 251 194 1664
2019-01-15 10:22:29 GMT 52.939762 7.861110 23,350 251 194 1664
2019-01-15 10:22:26 GMT 52.940788 7.865897 22,575 252 194 1600
2019-01-15 10:22:23 GMT 52.941532 7.869507 23,125 251 194 1728
2019-01-15 10:22:20 GMT 52.942463 7.874058 23,125 252 195 1728
2019-01-15 10:22:17 GMT 52.943161 7.877433 23,050 252 195 1664
2019-01-15 10:22:13 GMT 52.944305 7.882919 22,900 252 195 1472
2019-01-15 10:22:10 GMT 52.945164 7.887085 22,700 252 194 1600
2019-01-15 10:22:07 GMT 52.946095 7.891558 22,800 252 195 1472
2019-01-15 10:22:03 GMT 52.947212 7.897051 22,650 252 193 1600
2019-01-15 10:22:00 GMT 52.948105 7.901306 22,575 252 194 1600
2019-01-15 10:21:57 GMT 52.949913 7.910078 22,450 252 193 1600
2019-01-15 10:21:54 GMT 52.949913 7.910078 22,375 251 187 1664
2019-01-15 10:21:51 GMT 52.950935 7.915022 22,325 252 193 1664
2019-01-15 10:21:48 GMT 52.951813 7.919235 22,225 252 193 1664
2019-01-15 10:21:45 GMT 52.952797 7.924125 21,975 252 193 1600
2019-01-15 10:21:41 GMT 52.953873 7.929306 21,975 252 193 1536
2019-01-15 10:21:38 GMT 52.954468 7.932358 21,900 252 191 1344
2019-01-15 10:21:35 GMT 52.955566 7.937698 21,875 252 191 1344
2019-01-15 10:21:32 GMT 52.956024 7.939911 21,725 252 190 1280
2019-01-15 10:21:29 GMT 52.957359 7.946411 21,725 252 191 1280
2019-01-15 10:21:26 GMT 52.957779 7.948687 21,675 252 190 1280
2019-01-15 10:21:22 GMT 52.960098 7.960052 21,475 251 187 1664
2019-01-15 10:21:19 GMT 52.960098 7.960052 21,500 252 187 1664
2019-01-15 10:21:16 GMT 52.960648 7.962723 21,400 252 186 1856
2019-01-15 10:21:13 GMT 52.961746 7.968140 21,325 252 186 1856
2019-01-15 10:21:09 GMT 52.962708 7.972717 20,875 252 187 1472
2019-01-15 10:21:05 GMT 52.963531 7.976990 21,125 252 187 1856
2019-01-15 10:21:02 GMT 52.964481 7.981724 21,025 252 187 1600
2019-01-15 10:20:58 GMT 52.965912 7.988815 20,875 252 187 1472
2019-01-15 10:20:55 GMT 52.966347 7.990827 20,825 252 186 1536
2019-01-15 10:20:52 GMT 52.967468 7.996368 20,750 252 185 1536
2019-01-15 10:20:49 GMT 52.968208 8.000166 20,675 252 185 1600
2019-01-15 10:20:46 GMT 52.969070 8.004379 20,550 252 184 1664
2019-01-15 10:20:43 GMT 52.969620 8.007126 20,525 252 184 1728
2019-01-15 10:20:39 GMT 52.971046 8.013977 20,375 252 184 1920
2019-01-15 10:20:35 GMT 52.971771 8.017731 20,250 252 184 1920
2019-01-15 10:20:32 GMT 52.972733 8.022232 20,175 252 184 1920
2019-01-15 10:20:29 GMT 52.973831 8.027725 20,025 252 185 1920
2019-01-15 10:20:26 GMT 52.974655 8.031693 19,925 252 185 1920
2019-01-15 10:20:23 GMT 52.975067 8.033829 19,900 252 185 1920
2019-01-15 10:20:19 GMT 52.976349 8.040009 19,500 252 186 1792
2019-01-15 10:20:16 GMT 52.977146 8.043954 19,650 252 186 1792
2019-01-15 10:20:13 GMT 52.977890 8.047642 19,550 252 186 1792
2019-01-15 10:20:10 GMT 52.978729 8.051801 19,300 252 186 1856
2019-01-15 10:20:06 GMT 52.979874 8.057327 19,350 252 186 1536
2019-01-15 10:20:03 GMT 52.980541 8.060747 19,300 252 186 1344
2019-01-15 10:20:00 GMT 52.981796 8.066864 19,175 252 185 1280
2019-01-15 10:19:57 GMT 52.982346 8.069534 19,100 252 185 1280
2019-01-15 10:19:54 GMT 52.983215 8.073807 19,100 252 185 1280
2019-01-15 10:19:51 GMT 52.983902 8.077316 19,000 252 185 1088
2019-01-15 10:19:48 GMT 52.984909 8.082199 18,925 252 184 1088
2019-01-15 10:19:45 GMT 52.985550 8.085403 18,325 252 176 1216
2019-01-15 10:19:42 GMT 52.986557 8.090439 18,625 252 182 1216
2019-01-15 10:19:39 GMT 52.987293 8.094020 18,800 252 183 1152
2019-01-15 10:19:36 GMT 52.988205 8.098679 18,625 252 181 1152
2019-01-15 10:19:32 GMT 52.988922 8.102103 18,650 252 181 1216
2019-01-15 10:19:29 GMT 52.989994 8.107518 18,575 252 180 1152
2019-01-15 10:19:25 GMT 52.990829 8.111677 18,475 252 180 1152
2019-01-15 10:19:22 GMT 52.991714 8.116150 18,450 252 179 1216
2019-01-15 10:19:19 GMT 52.993393 8.124468 18,250 252 178 1280
2019-01-15 10:19:16 GMT 52.993393 8.124468 18,250 252 178 1280
2019-01-15 10:19:13 GMT 52.994137 8.128156 18,250 252 177 1408
2019-01-15 10:19:10 GMT 52.994934 8.132172 18,150 252 177 1344
2019-01-15 10:19:07 GMT 52.995804 8.136444 18,100 252 177 1280
2019-01-15 10:19:03 GMT 52.996490 8.139725 18,050 252 177 1280
2019-01-15 10:19:00 GMT 52.997177 8.143311 18,000 252 176 1152
2019-01-15 10:18:57 GMT 52.998001 8.147278 17,925 252 174 1216
2019-01-15 10:18:54 GMT 52.998871 8.151779 17,875 252 173 1344
2019-01-15 10:18:51 GMT 52.999676 8.155622 17,800 252 172 1472
2019-01-15 10:18:46 GMT 53.000839 8.161429 17,650 252 172 1408
2019-01-15 10:18:43 GMT 53.001617 8.165359 17,600 252 172 1472
2019-01-15 10:18:40 GMT 53.002350 8.169098 17,550 252 172 1408
2019-01-15 10:18:37 GMT 53.003128 8.172913 17,400 252 169 1600
2019-01-15 10:18:34 GMT 53.004135 8.177872 17,400 252 169 1600
2019-01-15 10:18:30 GMT 53.004845 8.181519 17,300 252 170 1408
2019-01-15 10:18:27 GMT 53.005554 8.185120 17,225 252 170 1408
2019-01-15 10:18:24 GMT 53.006470 8.189545 17,175 252 169 1472
2019-01-15 10:18:21 GMT 53.007217 8.193368 17,050 252 169 1600
2019-01-15 10:18:18 GMT 53.007961 8.197056 16,925 252 169 1600
2019-01-15 10:18:15 GMT 53.008755 8.200980 16,925 252 169 1600
2019-01-15 10:18:12 GMT 53.009312 8.203962 16,800 252 169 1408
2019-01-15 10:18:08 GMT 53.010571 8.210161 16,700 252 169 1280
2019-01-15 10:18:04 GMT 53.012100 8.217850 16,625 252 168 1280
2019-01-15 10:18:01 GMT 53.012100 8.217850 16,600 252 168 1344
2019-01-15 10:17:58 GMT 53.013039 8.222639 16,500 252 167 1472
2019-01-15 10:17:55 GMT 53.013565 8.225174 16,425 252 166 1664
2019-01-15 10:17:52 GMT 53.014481 8.229828 16,050 252 166 1664
2019-01-15 10:17:48 GMT 53.015076 8.232574 16,275 252 166 1728
2019-01-15 10:17:44 GMT 53.016495 8.239746 16,100 252 167 1728
2019-01-15 10:17:41 GMT 53.017181 8.243103 16,025 252 167 1600
2019-01-15 10:17:38 GMT 53.017879 8.246652 15,950 252 168 1536
2019-01-15 10:17:35 GMT 53.018391 8.249398 15,875 252 167 1408
2019-01-15 10:17:32 GMT 53.019135 8.253008 15,775 252 167 1408
2019-01-15 10:17:29 GMT 53.019882 8.256683 15,350 253 165 1536
2019-01-15 10:17:26 GMT 53.020485 8.259757 15,650 252 166 1472
2019-01-15 10:17:23 GMT 53.021301 8.264008 15,600 252 166 1536
2019-01-15 10:17:20 GMT 53.022114 8.268075 15,475 252 165 1536
2019-01-15 10:17:16 GMT 53.022999 8.272470 15,425 253 165 1600
2019-01-15 10:17:13 GMT 53.023743 8.276315 15,350 253 165 1472
2019-01-15 10:17:10 GMT 53.024441 8.279846 15,225 252 164 1472
2019-01-15 10:17:07 GMT 53.025093 8.283221 15,100 252 164 1408
2019-01-15 10:17:03 GMT 53.026154 8.288574 15,075 252 163 1472
2019-01-15 10:16:59 GMT 53.027000 8.292716 14,975 252 162 1792
2019-01-15 10:16:56 GMT 53.027702 8.296247 14,950 252 162 1856
2019-01-15 10:16:53 GMT 53.028671 8.301010 14,600 252 165 1664
2019-01-15 10:16:50 GMT 53.029282 8.303938 14,650 252 163 2176
2019-01-15 10:16:47 GMT 53.029751 8.306449 14,600 252 164 2176
2019-01-15 10:16:44 GMT 53.030869 8.311844 14,500 252 165 1984
2019-01-15 10:16:41 GMT 53.031464 8.314896 14,350 252 167 1856
2019-01-15 10:16:37 GMT 53.032169 8.318534 14,275 252 167 1728
2019-01-15 10:16:34 GMT 53.033985 8.327637 14,100 252 167 1536
2019-01-15 10:16:31 GMT 53.033985 8.327637 14,050 252 166 1600
2019-01-15 10:16:28 GMT 53.034439 8.329926 13,975 252 166 1600
2019-01-15 10:16:25 GMT 53.035263 8.334274 13,900 252 166 1728
2019-01-15 10:16:22 GMT 53.035904 8.337402 13,475 252 165 1728
2019-01-15 10:16:19 GMT 53.036640 8.341134 13,675 253 165 1728
2019-01-15 10:16:16 GMT 53.037323 8.344650 13,650 252 165 1728
2019-01-15 10:16:12 GMT 53.038128 8.348668 13,550 252 165 1664
2019-01-15 10:16:09 GMT 53.038834 8.352203 13,475 252 165 1664
2019-01-15 10:16:06 GMT 53.039566 8.355865 13,300 252 163 1536
2019-01-15 10:16:02 GMT 53.040802 8.362122 13,250 252 163 1536
2019-01-15 10:15:59 GMT 53.041294 8.364598 13,200 257 157 1728
2019-01-15 10:15:56 GMT 53.041946 8.368073 12,875 259 155 1856
2019-01-15 10:15:53 GMT 53.042599 8.372288 13,000 258 156 1856
2019-01-15 10:15:49 GMT 53.043137 8.376389 12,900 260 154 1856
2019-01-15 10:15:45 GMT 53.043900 8.384373 12,675 266 151 1856
2019-01-15 10:15:42 GMT 53.043900 8.384373 12,600 266 151 1856
2019-01-15 10:15:39 GMT 53.044098 8.387985 12,600 266 151 1856
2019-01-15 10:15:36 GMT 53.044327 8.396149 12,375 269 150 2112
2019-01-15 10:15:32 GMT 53.044327 8.396149 12,300 270 149 2176
2019-01-15 10:15:28 GMT 53.044373 8.400192 12,300 270 150 2112
2019-01-15 10:15:25 GMT 53.044365 8.404070 12,150 270 150 1728
2019-01-15 10:15:22 GMT 53.044365 8.407445 12,025 270 150 1664
2019-01-15 10:15:19 GMT 53.044415 8.416234 11,900 270 149 1792
2019-01-15 10:15:15 GMT 53.044415 8.416234 11,850 270 149 1920
2019-01-15 10:15:12 GMT 53.044464 8.419800 11,700 269 149 2304
2019-01-15 10:15:08 GMT 53.044506 8.423689 11,575 269 149 2368
2019-01-15 10:15:05 GMT 53.044552 8.428240 11,400 270 149 2368
2019-01-15 10:15:02 GMT 53.044556 8.431549 11,325 270 151 2112
2019-01-15 10:14:58 GMT 53.044598 8.435774 11,175 270 152 1792
2019-01-15 10:14:53 GMT 53.044647 8.441973 11,100 270 151 1472
2019-01-15 10:14:49 GMT 53.044647 8.445587 10,925 270 150 1152
2019-01-15 10:14:45 GMT 53.044693 8.450012 10,750 270 143 1856
2019-01-15 10:14:42 GMT 53.044693 8.453430 10,850 270 145 1280
2019-01-15 10:14:39 GMT 53.044739 8.456491 10,500 270 143 1728
2019-01-15 10:14:36 GMT 53.044785 8.460493 10,725 270 143 1856
2019-01-15 10:14:32 GMT 53.044785 8.464050 10,475 270 143 2112
2019-01-15 10:14:29 GMT 53.044830 8.468576 10,425 270 144 1920
2019-01-15 10:14:25 GMT 53.044830 8.471680 10,350 270 145 1856
2019-01-15 10:14:22 GMT 53.044876 8.475874 10,200 270 145 1600
2019-01-15 10:14:19 GMT 53.044876 8.479091 10,125 270 145 1408
2019-01-15 10:14:16 GMT 53.044922 8.481979 10,050 270 145 1344
2019-01-15 10:14:13 GMT 53.044922 8.485947 9,950 270 142 1536
2019-01-15 10:14:09 GMT 53.044968 8.490753 9,850 270 140 1792
2019-01-15 10:14:06 GMT 53.044971 8.493766 9,800 270 137 2304
2019-01-15 10:14:03 GMT 53.045013 8.496933 9,700 270 139 1856
2019-01-15 10:14:00 GMT 53.045013 8.499222 9,575 270 138 1792
2019-01-15 10:13:57 GMT 53.045059 8.504105 9,500 270 139 1600
2019-01-15 10:13:54 GMT 53.045067 8.506321 9,450 270 138 1792
2019-01-15 10:13:50 GMT 53.045113 8.511187 9,300 269 136 2368
2019-01-15 10:13:47 GMT 53.045197 8.517761 9,100 270 138 2432
2019-01-15 10:13:43 GMT 53.045197 8.517761 8,975 270 139 2368
2019-01-15 10:13:40 GMT 53.045242 8.521576 8,900 270 141 2304
2019-01-15 10:13:37 GMT 53.045250 8.524763 8,775 270 141 2304
2019-01-15 10:13:34 GMT 53.045296 8.530413 8,750 270 143 2048
2019-01-15 10:13:31 GMT 53.045296 8.530413 8,600 270 143 2048
2019-01-15 10:13:28 GMT 53.045296 8.533787 8,475 270 143 2048
2019-01-15 10:13:25 GMT 53.045334 8.537064 8,350 270 143 2048
2019-01-15 10:13:22 GMT 53.045334 8.539734 8,300 270 143 1984
2019-01-15 10:13:19 GMT 53.045345 8.543753 8,200 270 143 1728
2019-01-15 10:13:16 GMT 53.045334 8.547592 8,000 271 142 1600
2019-01-15 10:13:10 GMT 53.045288 8.554611 7,950 271 139 1856
2019-01-15 10:13:06 GMT 53.045296 8.557800 7,800 270 138 2240
2019-01-15 10:13:03 GMT 53.045288 8.561096 7,650 270 138 2304
2019-01-15 10:13:00 GMT 53.045288 8.564224 7,450 270 139 1984
2019-01-15 10:12:57 GMT 53.045334 8.568115 7,400 270 140 1280
2019-01-15 10:12:52 GMT 53.045334 8.572617 7,350 270 138 1088
2019-01-15 10:12:48 GMT 53.045380 8.576431 7,300 270 135 1664
2019-01-15 10:12:44 GMT 53.045437 8.584246 7,025 270 134 1920
2019-01-15 10:12:37 GMT 53.045437 8.587934 6,925 270 135 1856
2019-01-15 10:12:33 GMT 53.045471 8.592224 6,775 270 135 1856
2019-01-15 10:12:29 GMT 53.045517 8.596344 6,675 270 136 1728
2019-01-15 10:12:26 GMT 53.045517 8.600006 6,500 270 136 1664
2019-01-15 10:12:23 GMT 53.045578 8.603158 6,475 270 135 1664
2019-01-15 10:12:19 GMT 53.045563 8.606720 6,350 270 135 1792
2019-01-15 10:12:16 GMT 53.045609 8.609848 6,350 270 135 1792
2019-01-15 10:12:12 GMT 53.045624 8.613595 6,200 270 135 1792
2019-01-15 10:12:09 GMT 53.045654 8.618317 6,025 270 135 1728
2019-01-15 10:12:06 GMT 53.045670 8.619481 6,000 270 135 1728
2019-01-15 10:12:03 GMT 53.045670 8.623404 5,775 270 134 1536
2019-01-15 10:12:00 GMT 53.045670 8.626072 5,775 270 134 1536
2019-01-15 10:11:56 GMT 53.045700 8.630295 5,650 270 132 1536
2019-01-15 10:11:53 GMT 53.045715 8.633841 5,675 270 132 1536
2019-01-15 10:11:50 GMT 53.045700 8.636322 5,575 270 130 1600
2019-01-15 10:11:47 GMT 53.045715 8.639805 5,425 270 129 1728
2019-01-15 10:11:43 GMT 53.045746 8.644257 5,350 270 128 1792
2019-01-15 10:11:39 GMT 53.045746 8.646774 5,250 270 128 1728
2019-01-15 10:11:35 GMT 53.045761 8.650949 5,150 270 126 1536
2019-01-15 10:11:32 GMT 53.045792 8.654175 5,075 270 126 1536
2019-01-15 10:11:29 GMT 53.045811 8.656756 4,950 270 125 1536
2019-01-15 10:11:25 GMT 53.045811 8.660366 4,875 270 123 1536
2019-01-15 10:11:22 GMT 53.045792 8.663101 4,650 270 121 1920
2019-01-15 10:11:19 GMT 53.045811 8.666486 4,650 270 121 1920
2019-01-15 10:11:16 GMT 53.045811 8.669704 4,600 270 120 2240
2019-01-15 10:11:11 GMT 53.045811 8.673863 4,350 270 123 1856
2019-01-15 10:11:07 GMT 53.045811 8.677551 4,325 270 123 1856
2019-01-15 10:11:04 GMT 53.045837 8.679886 4,200 270 123 1792
2019-01-15 10:11:01 GMT 53.045837 8.683243 4,100 270 122 1856
2019-01-15 10:10:58 GMT 53.045856 8.688930 3,975 270 122 1984
2019-01-15 10:10:55 GMT 53.045856 8.688930 3,875 270 122 2048
2019-01-15 10:10:52 GMT 53.045883 8.692780 3,725 270 122 1984
2019-01-15 10:10:49 GMT 53.045883 8.694305 3,700 270 122 1536
2019-01-15 10:10:45 GMT 53.045929 8.698425 3,575 270 122 1728
2019-01-15 10:10:38 GMT 53.045998 8.704468 3,400 270 121 1344
2019-01-15 10:10:34 GMT 53.045998 8.708391 3,300 271 119 1664
2019-01-15 10:10:27 GMT 53.045975 8.714828 3,075 271 120 1536
2019-01-15 10:10:24 GMT 53.045948 8.717730 3,000 271 121 1152
2019-01-15 10:10:16 GMT 53.045883 8.724747 2,850 270 114 1152
2019-01-15 10:10:13 GMT 53.045902 8.726911 2,800 270 112 1280
2019-01-15 10:10:06 GMT 53.045975 8.733215 2,600 269 107 1920
2019-01-15 10:10:03 GMT 53.046021 8.735580 2,525 269 107 1792
2019-01-15 10:09:57 GMT 53.046089 8.740644 2,375 269 108 1344
2019-01-15 10:09:53 GMT 53.046089 8.743783 2,250 269 107 1280
2019-01-15 10:09:46 GMT 53.046249 8.750458 2,100 268 103 1280
2019-01-15 10:09:43 GMT 53.046276 8.752101 2,025 268 100 1280
2019-01-15 10:09:37 GMT 53.046413 8.756810 1,875 268 94 1280
2019-01-15 10:09:33 GMT 53.046459 8.759870 1,775 269 90 1472
2019-01-15 10:09:25 GMT 53.046570 8.764725 1,575 269 82 1280
2019-01-15 10:09:22 GMT 53.046600 8.766619 1,550 269 80 1408
2019-01-15 10:09:14 GMT 53.046661 8.771439 1,400 269 74 1920
2019-01-15 10:09:11 GMT 53.046707 8.773117 1,175 268 72 2624
2019-01-15 10:09:06 GMT 53.046753 8.775711 1,000 268 76 2304
2019-01-15 10:09:01 GMT 53.046833 8.778704 800 270 78 1728
2019-01-15 10:08:55 GMT 53.046844 8.781967 625 270 78 2048
2019-01-15 10:08:45 GMT 53.046879 8.788042 250 269 83 1536
2019-01-15 10:08:24 GMT 53.047131 8.798828 0 264 25
2019-01-15 10:08:04 GMT 53.047428 8.799763 0 191 13
2019-01-15 10:07:53 GMT 53.048149 8.799763 0 165 17
2019-01-15 10:07:36 GMT 53.048767 8.798185 0 84 18

Making use of Plane Finder data

You are free to use the raw flight data, aircraft information and images provided in this report for your own purposes provided the data is correctly attributed to Plane Finder. We ask that you please credit Plane Finder and link to planefinder.net in close proximity to the content.

Optionally one of the following logos (no smaller then 150x24px) can be used and must link to planefinder.net

Embedding the Plane Finder map

You are welcome to embed the Plane Finder playback map on your website to offer visitors a more interactive experience. We suggest using the following HTML code:

<iframe src="//planefinder.net/data/report/DFELE-D-FELE-7700-squawk-2019-01-15/map" width="800" height="600" seamless="seamless"></iframe>

Where our data comes from

Plane Finder has a global network of data feeds and antenna radars that receive data broadcast directly from aircraft. The primary technologies used are ADS-B and MLAT. We also show feeds from the FAA and a FLARM glider feed.

Click here to find out more about the Plane Finder network.

How we collect our data